<?xml version='1.0' encoding='UTF-8'?><gpx version="1.1" creator="JPX - https://github.com/jenetics/jpx" xmlns="http://www.topografix.com/GPX/1/1"><trk><trkseg><trkpt lat="36.80791862090709" lon="-108.00554338998919"><ele>1732.0</ele><time>2026-04-11T16:37:47Z</time></trkpt><trkpt lat="36.807786433776776" lon="-108.00554605480473"><ele>1731.9999999999998</ele><time>2026-04-11T16:37:49Z</time></trkpt><trkpt lat="36.80770723358217" lon="-108.00553720970593"><ele>1731.9999999999998</ele><time>2026-04-11T16:37:50Z</time></trkpt><trkpt lat="36.807612886158346" lon="-108.00554859788461"><ele>1732.0</ele><time>2026-04-11T16:37:51Z</time></trkpt><trkpt lat="36.80752150823798" lon="-108.00560555551405"><ele>1732.0</ele><time>2026-04-11T16:37:52Z</time></trkpt><trkpt lat="36.807420745853285" lon="-108.00570742292047"><ele>1732.25</ele><time>2026-04-11T16:37:53Z</time></trkpt><trkpt lat="36.80732117311564" lon="-108.00582195105521"><ele>1732.5</ele><time>2026-04-11T16:37:54Z</time></trkpt><trkpt lat="36.807219503053346" lon="-108.00591580685987"><ele>1732.75</ele><time>2026-04-11T16:37:55Z</time></trkpt><trkpt lat="36.807087295420764" lon="-108.00601571592034"><ele>1733.0</ele><time>2026-04-11T16:37:56Z</time></trkpt><trkpt lat="36.80694734891717" lon="-108.00611568786748"><ele>1733.75</ele><time>2026-04-11T16:37:57Z</time></trkpt><trkpt lat="36.806825215797105" lon="-108.00619227772779"><ele>1734.5</ele><time>2026-04-11T16:37:58Z</time></trkpt><trkpt lat="36.806719641740756" lon="-108.00620318117997"><ele>1735.25</ele><time>2026-04-11T16:37:59Z</time></trkpt><trkpt lat="36.8066380122492" lon="-108.00617992565812"><ele>1736.0</ele><time>2026-04-11T16:38:00Z</time></trkpt><trkpt lat="36.80651263846313" lon="-108.0061536240469"><ele>1736.0</ele><time>2026-04-11T16:38:02Z</time></trkpt><trkpt lat="36.806421009353926" lon="-108.00615048023771"><ele>1736.0</ele><time>2026-04-11T16:38:03Z</time></trkpt><trkpt lat="36.806330423253705" lon="-108.0061774713883"><ele>1736.0</ele><time>2026-04-11T16:38:04Z</time></trkpt><trkpt lat="36.80623682777449" lon="-108.00623588017693"><ele>1736.0</ele><time>2026-04-11T16:38:05Z</time></trkpt><trkpt lat="36.80613287420163" lon="-108.0063065352378"><ele>1736.0</ele><time>2026-04-11T16:38:06Z</time></trkpt><trkpt lat="36.806027298791754" lon="-108.00639046195829"><ele>1737.1999999999998</ele><time>2026-04-11T16:38:07Z</time></trkpt><trkpt lat="36.805919842257865" lon="-108.00646415798387"><ele>1738.3999999999999</ele><time>2026-04-11T16:38:08Z</time></trkpt><trkpt lat="36.80580780253318" lon="-108.00651583216096"><ele>1739.6</ele><time>2026-04-11T16:38:10Z</time></trkpt><trkpt lat="36.80572205282876" lon="-108.00657146110342"><ele>1740.8</ele><time>2026-04-11T16:38:12Z</time></trkpt><trkpt lat="36.80565747168916" lon="-108.0066112808042"><ele>1742.0</ele><time>2026-04-11T16:38:14Z</time></trkpt><trkpt lat="36.805544194109395" lon="-108.00671760047413"><ele>1742.0</ele><time>2026-04-11T16:38:16Z</time></trkpt><trkpt lat="36.80544232657064" lon="-108.0067856455738"><ele>1741.9999999999998</ele><time>2026-04-11T16:38:17Z</time></trkpt><trkpt lat="36.805352788312106" lon="-108.00686129241875"><ele>1741.9999999999998</ele><time>2026-04-11T16:38:18Z</time></trkpt><trkpt lat="36.80525949334154" lon="-108.00692104653326"><ele>1742.0</ele><time>2026-04-11T16:38:19Z</time></trkpt><trkpt lat="36.80517672262364" lon="-108.0069584688256"><ele>1742.0</ele><time>2026-04-11T16:38:20Z</time></trkpt><trkpt lat="36.805104447695555" lon="-108.00696988015585"><ele>1743.857142857143</ele><time>2026-04-11T16:38:22Z</time></trkpt><trkpt lat="36.80503978058177" lon="-108.0069810209102"><ele>1745.7142857142858</ele><time>2026-04-11T16:38:23Z</time></trkpt><trkpt lat="36.8049783858457" lon="-108.00701262845348"><ele>1747.5714285714284</ele><time>2026-04-11T16:38:24Z</time></trkpt><trkpt lat="36.8049185270196" lon="-108.00707183396521"><ele>1749.4285714285716</ele><time>2026-04-11T16:38:25Z</time></trkpt><trkpt lat="36.80486393941325" lon="-108.00711734858373"><ele>1751.2857142857144</ele><time>2026-04-11T16:38:26Z</time></trkpt><trkpt lat="36.8047964014495" lon="-108.0071020300541"><ele>1753.142857142857</ele><time>2026-04-11T16:38:28Z</time></trkpt><trkpt lat="36.804738900795826" lon="-108.00702949116234"><ele>1755.0</ele><time>2026-04-11T16:38:32Z</time></trkpt><trkpt lat="36.804697725657626" lon="-108.00693790904742"><ele>1755.0</ele><time>2026-04-11T16:38:34Z</time></trkpt><trkpt lat="36.804674639613765" lon="-108.00684365384154"><ele>1755.0</ele><time>2026-04-11T16:38:35Z</time></trkpt><trkpt lat="36.80464961549058" lon="-108.00674004023777"><ele>1755.0</ele><time>2026-04-11T16:38:36Z</time></trkpt><trkpt lat="36.804595984176586" lon="-108.00666302971707"><ele>1755.0</ele><time>2026-04-11T16:38:37Z</time></trkpt><trkpt lat="36.80451803934326" lon="-108.00660232053417"><ele>1755.0</ele><time>2026-04-11T16:38:38Z</time></trkpt><trkpt lat="36.80442623723394" lon="-108.00654872952794"><ele>1755.0</ele><time>2026-04-11T16:38:39Z</time></trkpt><trkpt lat="36.80431784119552" lon="-108.00649884895002"><ele>1756.2</ele><time>2026-04-11T16:38:40Z</time></trkpt><trkpt lat="36.804199219209245" lon="-108.0064576764259"><ele>1757.4</ele><time>2026-04-11T16:38:41Z</time></trkpt><trkpt lat="36.8041321668285" lon="-108.00637224528177"><ele>1758.6</ele><time>2026-04-11T16:38:42Z</time></trkpt><trkpt lat="36.80410350263782" lon="-108.0062763215367"><ele>1759.8</ele><time>2026-04-11T16:38:43Z</time></trkpt><trkpt lat="36.804059581603255" lon="-108.006200180759"><ele>1761.0</ele><time>2026-04-11T16:38:44Z</time></trkpt><trkpt lat="36.80396817978993" lon="-108.00619815095965"><ele>1761.0</ele><time>2026-04-11T16:38:45Z</time></trkpt><trkpt lat="36.803843384184574" lon="-108.00625864943785"><ele>1761.0</ele><time>2026-04-11T16:38:46Z</time></trkpt><trkpt lat="36.80370715455175" lon="-108.00632497846433"><ele>1761.0</ele><time>2026-04-11T16:38:47Z</time></trkpt><trkpt lat="36.803590151052006" lon="-108.00636450519373"><ele>1761.0</ele><time>2026-04-11T16:38:48Z</time></trkpt><trkpt lat="36.803488824066726" lon="-108.00641465585677"><ele>1760.8</ele><time>2026-04-11T16:38:49Z</time></trkpt><trkpt lat="36.80340747809975" lon="-108.00650629300965"><ele>1760.6</ele><time>2026-04-11T16:38:50Z</time></trkpt><trkpt lat="36.803319572606775" lon="-108.00660075351979"><ele>1760.4</ele><time>2026-04-11T16:38:51Z</time></trkpt><trkpt lat="36.80323825511587" lon="-108.00665082467837"><ele>1760.2</ele><time>2026-04-11T16:38:52Z</time></trkpt><trkpt lat="36.80315371374542" lon="-108.00664610322018"><ele>1760.0</ele><time>2026-04-11T16:38:53Z</time></trkpt><trkpt lat="36.8030306240219" lon="-108.00664327541708"><ele>1760.0</ele><time>2026-04-11T16:38:54Z</time></trkpt><trkpt lat="36.80291034190183" lon="-108.00662631789315"><ele>1760.0</ele><time>2026-04-11T16:38:55Z</time></trkpt><trkpt lat="36.802776300894756" lon="-108.00662593615657"><ele>1760.0</ele><time>2026-04-11T16:38:56Z</time></trkpt><trkpt lat="36.80265413413123" lon="-108.0066575594621"><ele>1760.0</ele><time>2026-04-11T16:38:57Z</time></trkpt><trkpt lat="36.802531159281344" lon="-108.00667621503237"><ele>1760.0</ele><time>2026-04-11T16:38:58Z</time></trkpt><trkpt lat="36.80242825922763" lon="-108.00665289546434"><ele>1760.0</ele><time>2026-04-11T16:38:59Z</time></trkpt><trkpt lat="36.802320227475796" lon="-108.00658772161573"><ele>1760.0</ele><time>2026-04-11T16:39:00Z</time></trkpt><trkpt lat="36.802199294404666" lon="-108.0065362096907"><ele>1760.0</ele><time>2026-04-11T16:39:01Z</time></trkpt><trkpt lat="36.80209116907225" lon="-108.00653101137434"><ele>1760.0</ele><time>2026-04-11T16:39:02Z</time></trkpt><trkpt lat="36.80198212958253" lon="-108.00657463545998"><ele>1760.0</ele><time>2026-04-11T16:39:03Z</time></trkpt><trkpt lat="36.80186663377459" lon="-108.00657667097599"><ele>1760.0</ele><time>2026-04-11T16:39:04Z</time></trkpt><trkpt lat="36.8017650725707" lon="-108.00655050326749"><ele>1760.0</ele><time>2026-04-11T16:39:05Z</time></trkpt><trkpt lat="36.801676956517156" lon="-108.00655724537064"><ele>1760.0</ele><time>2026-04-11T16:39:06Z</time></trkpt><trkpt lat="36.801608679270615" lon="-108.00665290687918"><ele>1760.75</ele><time>2026-04-11T16:39:07Z</time></trkpt><trkpt lat="36.80153687103857" lon="-108.00680745121333"><ele>1761.5</ele><time>2026-04-11T16:39:08Z</time></trkpt><trkpt lat="36.80144755928965" lon="-108.00690945159431"><ele>1762.25</ele><time>2026-04-11T16:39:09Z</time></trkpt><trkpt lat="36.80131536851469" lon="-108.00696267134053"><ele>1763.0</ele><time>2026-04-11T16:39:10Z</time></trkpt><trkpt lat="36.801183942296994" lon="-108.00700767072526"><ele>1763.0</ele><time>2026-04-11T16:39:11Z</time></trkpt><trkpt lat="36.80105064803608" lon="-108.00701629533873"><ele>1763.0</ele><time>2026-04-11T16:39:12Z</time></trkpt><trkpt lat="36.800945260193316" lon="-108.00708376808915"><ele>1763.0</ele><time>2026-04-11T16:39:13Z</time></trkpt><trkpt lat="36.800833055039455" lon="-108.0071539304259"><ele>1763.0</ele><time>2026-04-11T16:39:14Z</time></trkpt><trkpt lat="36.800701371799214" lon="-108.00718917334409"><ele>1763.0</ele><time>2026-04-11T16:39:15Z</time></trkpt><trkpt lat="36.80061085609385" lon="-108.00722259947439"><ele>1763.0000000000002</ele><time>2026-04-11T16:39:16Z</time></trkpt><trkpt lat="36.8005383951142" lon="-108.0072975862029"><ele>1763.0000000000002</ele><time>2026-04-11T16:39:17Z</time></trkpt><trkpt lat="36.800439782749905" lon="-108.00741975118622"><ele>1763.0</ele><time>2026-04-11T16:39:18Z</time></trkpt><trkpt lat="36.80035612824193" lon="-108.00749241262955"><ele>1763.0</ele><time>2026-04-11T16:39:19Z</time></trkpt><trkpt lat="36.80025417641563" lon="-108.0075208670729"><ele>1764.2</ele><time>2026-04-11T16:39:20Z</time></trkpt><trkpt lat="36.80016305718787" lon="-108.00755534050882"><ele>1765.4</ele><time>2026-04-11T16:39:21Z</time></trkpt><trkpt lat="36.80010383988616" lon="-108.00761336440944"><ele>1766.6000000000001</ele><time>2026-04-11T16:39:22Z</time></trkpt><trkpt lat="36.8000423287107" lon="-108.00772286611723"><ele>1767.8000000000002</ele><time>2026-04-11T16:39:23Z</time></trkpt><trkpt lat="36.79996866213528" lon="-108.00781196931143"><ele>1769.0</ele><time>2026-04-11T16:39:24Z</time></trkpt><trkpt lat="36.79991571110377" lon="-108.00794535793244"><ele>1769.0</ele><time>2026-04-11T16:39:25Z</time></trkpt><trkpt lat="36.7998818361346" lon="-108.00809224000652"><ele>1769.0</ele><time>2026-04-11T16:39:26Z</time></trkpt><trkpt lat="36.79983474561298" lon="-108.00821058650261"><ele>1769.0</ele><time>2026-04-11T16:39:27Z</time></trkpt><trkpt lat="36.7997953383181" lon="-108.0083217369503"><ele>1769.0</ele><time>2026-04-11T16:39:28Z</time></trkpt><trkpt lat="36.79977985610306" lon="-108.00841530474796"><ele>1769.0</ele><time>2026-04-11T16:39:29Z</time></trkpt><trkpt lat="36.799787862226566" lon="-108.00852946700584"><ele>1769.6666666666665</ele><time>2026-04-11T16:39:30Z</time></trkpt><trkpt lat="36.79980632336979" lon="-108.00864020029225"><ele>1770.3333333333333</ele><time>2026-04-11T16:39:31Z</time></trkpt><trkpt lat="36.79981951328406" lon="-108.00873764081574"><ele>1771.0</ele><time>2026-04-11T16:39:32Z</time></trkpt><trkpt lat="36.799809299439325" lon="-108.00884443333452"><ele>1771.6666666666665</ele><time>2026-04-11T16:39:33Z</time></trkpt><trkpt lat="36.79972777698832" lon="-108.0089255145387"><ele>1772.3333333333333</ele><time>2026-04-11T16:39:35Z</time></trkpt><trkpt lat="36.79969074899831" lon="-108.00899408900088"><ele>1773.0</ele><time>2026-04-11T16:39:36Z</time></trkpt><trkpt lat="36.79964626561942" lon="-108.00910609306523"><ele>1773.6000000000001</ele><time>2026-04-11T16:39:37Z</time></trkpt><trkpt lat="36.79958844525904" lon="-108.009223131782"><ele>1774.2000000000003</ele><time>2026-04-11T16:39:38Z</time></trkpt><trkpt lat="36.79958903418105" lon="-108.00932431532615"><ele>1774.8</ele><time>2026-04-11T16:39:39Z</time></trkpt><trkpt lat="36.79961707382647" lon="-108.0094181399413"><ele>1775.4</ele><time>2026-04-11T16:39:40Z</time></trkpt><trkpt lat="36.799601032174984" lon="-108.0095326652119"><ele>1776.0</ele><time>2026-04-11T16:39:41Z</time></trkpt><trkpt lat="36.79954833195985" lon="-108.00964202376605"><ele>1776.0</ele><time>2026-04-11T16:39:42Z</time></trkpt><trkpt lat="36.79946043954896" lon="-108.0097093471194"><ele>1776.0</ele><time>2026-04-11T16:39:43Z</time></trkpt><trkpt lat="36.79939796097875" lon="-108.00973425676598"><ele>1776.0</ele><time>2026-04-11T16:39:44Z</time></trkpt><trkpt lat="36.79928534969542" lon="-108.00967730088404"><ele>1776.0</ele><time>2026-04-11T16:39:47Z</time></trkpt><trkpt lat="36.79919280188463" lon="-108.00961505543594"><ele>1776.0</ele><time>2026-04-11T16:39:48Z</time></trkpt><trkpt lat="36.799100784063704" lon="-108.0095125686683"><ele>1776.6</ele><time>2026-04-11T16:39:49Z</time></trkpt><trkpt lat="36.79901101068609" lon="-108.00941642058717"><ele>1777.1999999999998</ele><time>2026-04-11T16:39:50Z</time></trkpt><trkpt lat="36.79891451251975" lon="-108.00930694431229"><ele>1777.8000000000002</ele><time>2026-04-11T16:39:51Z</time></trkpt><trkpt lat="36.79885286074333" lon="-108.00921090693657"><ele>1778.4</ele><time>2026-04-11T16:39:52Z</time></trkpt><trkpt lat="36.79877940911912" lon="-108.00912722073745"><ele>1779.0</ele><time>2026-04-11T16:39:53Z</time></trkpt><trkpt lat="36.7987325093659" lon="-108.009047052815"><ele>1777.5</ele><time>2026-04-11T16:39:54Z</time></trkpt><trkpt lat="36.7986930813046" lon="-108.00892256953293"><ele>1776.0</ele><time>2026-04-11T16:39:55Z</time></trkpt><trkpt lat="36.79865467687679" lon="-108.00877382752256"><ele>1774.5</ele><time>2026-04-11T16:39:56Z</time></trkpt><trkpt lat="36.798620829850485" lon="-108.00861689175498"><ele>1773.0</ele><time>2026-04-11T16:39:57Z</time></trkpt><trkpt lat="36.79859346049226" lon="-108.00848231602045"><ele>1773.0</ele><time>2026-04-11T16:39:58Z</time></trkpt><trkpt lat="36.79853859145147" lon="-108.00839388623699"><ele>1773.0000000000002</ele><time>2026-04-11T16:39:59Z</time></trkpt><trkpt lat="36.798464832849035" lon="-108.00834518740221"><ele>1773.0000000000002</ele><time>2026-04-11T16:40:00Z</time></trkpt><trkpt lat="36.79838122715203" lon="-108.00833496220434"><ele>1773.0</ele><time>2026-04-11T16:40:01Z</time></trkpt><trkpt lat="36.79830292430971" lon="-108.0082617477462"><ele>1773.0</ele><time>2026-04-11T16:40:02Z</time></trkpt><trkpt lat="36.79818933794569" lon="-108.00814853003527"><ele>1773.2</ele><time>2026-04-11T16:40:03Z</time></trkpt><trkpt lat="36.798083341577104" lon="-108.008056685343"><ele>1773.4</ele><time>2026-04-11T16:40:04Z</time></trkpt><trkpt lat="36.797989437999654" lon="-108.00798389564787"><ele>1773.6000000000001</ele><time>2026-04-11T16:40:05Z</time></trkpt><trkpt lat="36.7979380665955" lon="-108.00791110068174"><ele>1773.8000000000002</ele><time>2026-04-11T16:40:06Z</time></trkpt><trkpt lat="36.79790546424028" lon="-108.00781128628547"><ele>1774.0</ele><time>2026-04-11T16:40:07Z</time></trkpt><trkpt lat="36.79784050545344" lon="-108.00768296619366"><ele>1774.0</ele><time>2026-04-11T16:40:08Z</time></trkpt><trkpt lat="36.79773855971658" lon="-108.00757307438715"><ele>1774.0</ele><time>2026-04-11T16:40:09Z</time></trkpt><trkpt lat="36.7976393681001" lon="-108.00749759372435"><ele>1774.0</ele><time>2026-04-11T16:40:10Z</time></trkpt><trkpt lat="36.79754944267651" lon="-108.00745499681477"><ele>1774.0</ele><time>2026-04-11T16:40:11Z</time></trkpt><trkpt lat="36.79744784969757" lon="-108.00748000724744"><ele>1774.0</ele><time>2026-04-11T16:40:12Z</time></trkpt><trkpt lat="36.79732415890712" lon="-108.00751309094224"><ele>1774.0</ele><time>2026-04-11T16:40:13Z</time></trkpt><trkpt lat="36.79719598638013" lon="-108.00749740847807"><ele>1774.0</ele><time>2026-04-11T16:40:14Z</time></trkpt><trkpt lat="36.79709013150293" lon="-108.00743310215805"><ele>1774.0</ele><time>2026-04-11T16:40:15Z</time></trkpt><trkpt lat="36.79701491582351" lon="-108.00741129198882"><ele>1774.0</ele><time>2026-04-11T16:40:16Z</time></trkpt><trkpt lat="36.79694653595731" lon="-108.00744155862876"><ele>1774.0</ele><time>2026-04-11T16:40:17Z</time></trkpt><trkpt lat="36.796853609975635" lon="-108.00752095803688"><ele>1774.0</ele><time>2026-04-11T16:40:18Z</time></trkpt><trkpt lat="36.79674973088981" lon="-108.0076219974303"><ele>1774.0</ele><time>2026-04-11T16:40:19Z</time></trkpt><trkpt lat="36.796611835279236" lon="-108.00765576355215"><ele>1775.25</ele><time>2026-04-11T16:40:20Z</time></trkpt><trkpt lat="36.79648654335089" lon="-108.00770654214432"><ele>1776.5</ele><time>2026-04-11T16:40:21Z</time></trkpt><trkpt lat="36.796365687134525" lon="-108.00773525959728"><ele>1777.75</ele><time>2026-04-11T16:40:22Z</time></trkpt><trkpt lat="36.79625453211574" lon="-108.00775838328555"><ele>1779.0</ele><time>2026-04-11T16:40:23Z</time></trkpt><trkpt lat="36.7961513142314" lon="-108.0077556765399"><ele>1779.0</ele><time>2026-04-11T16:40:24Z</time></trkpt><trkpt lat="36.796074789420665" lon="-108.00771362346563"><ele>1779.0</ele><time>2026-04-11T16:40:25Z</time></trkpt><trkpt lat="36.796022163558824" lon="-108.00760192474165"><ele>1779.0</ele><time>2026-04-11T16:40:27Z</time></trkpt><trkpt lat="36.795973436953176" lon="-108.00755073162959"><ele>1779.0</ele><time>2026-04-11T16:40:28Z</time></trkpt><trkpt lat="36.795910443816524" lon="-108.00748715905783"><ele>1779.0</ele><time>2026-04-11T16:40:29Z</time></trkpt><trkpt lat="36.79584071181391" lon="-108.00741677662484"><ele>1779.0</ele><time>2026-04-11T16:40:30Z</time></trkpt><trkpt lat="36.79574764544854" lon="-108.00737111122412"><ele>1778.75</ele><time>2026-04-11T16:40:31Z</time></trkpt><trkpt lat="36.795635762480295" lon="-108.00731614240533"><ele>1778.5</ele><time>2026-04-11T16:40:32Z</time></trkpt><trkpt lat="36.795527736815686" lon="-108.0072366768853"><ele>1778.25</ele><time>2026-04-11T16:40:33Z</time></trkpt><trkpt lat="36.79543881904879" lon="-108.00716186475407"><ele>1778.0</ele><time>2026-04-11T16:40:34Z</time></trkpt><trkpt lat="36.795369763398554" lon="-108.00706429867559"><ele>1778.0</ele><time>2026-04-11T16:40:35Z</time></trkpt><trkpt lat="36.795278775652676" lon="-108.0069529253433"><ele>1778.0</ele><time>2026-04-11T16:40:36Z</time></trkpt><trkpt lat="36.79520124209609" lon="-108.00683657257001"><ele>1778.0</ele><time>2026-04-11T16:40:37Z</time></trkpt><trkpt lat="36.79509585075913" lon="-108.00671627246244"><ele>1778.0</ele><time>2026-04-11T16:40:38Z</time></trkpt><trkpt lat="36.794994883601085" lon="-108.0066204557132"><ele>1777.8000000000002</ele><time>2026-04-11T16:40:39Z</time></trkpt><trkpt lat="36.79491805274083" lon="-108.00657502238353"><ele>1777.6000000000001</ele><time>2026-04-11T16:40:40Z</time></trkpt><trkpt lat="36.79481750994678" lon="-108.00661660159805"><ele>1777.3999999999999</ele><time>2026-04-11T16:40:42Z</time></trkpt><trkpt lat="36.79470652516172" lon="-108.0065815748804"><ele>1777.1999999999998</ele><time>2026-04-11T16:40:44Z</time></trkpt><trkpt lat="36.79460682451405" lon="-108.00656252484934"><ele>1777.0</ele><time>2026-04-11T16:40:45Z</time></trkpt><trkpt lat="36.79450927629011" lon="-108.0065339928994"><ele>1777.0</ele><time>2026-04-11T16:40:46Z</time></trkpt><trkpt lat="36.794425956211825" lon="-108.00646469254461"><ele>1776.9999999999998</ele><time>2026-04-11T16:40:47Z</time></trkpt><trkpt lat="36.79434042030059" lon="-108.00641038379835"><ele>1776.9999999999998</ele><time>2026-04-11T16:40:48Z</time></trkpt><trkpt lat="36.79428728517986" lon="-108.00634154189738"><ele>1777.0</ele><time>2026-04-11T16:40:49Z</time></trkpt><trkpt lat="36.79425220884815" lon="-108.0062166960311"><ele>1777.0</ele><time>2026-04-11T16:40:50Z</time></trkpt><trkpt lat="36.79419511896252" lon="-108.00614859450472"><ele>1777.3999999999999</ele><time>2026-04-11T16:40:51Z</time></trkpt><trkpt lat="36.79409752508108" lon="-108.00610951980674"><ele>1777.7999999999997</ele><time>2026-04-11T16:40:52Z</time></trkpt><trkpt lat="36.79402654630314" lon="-108.00604315440442"><ele>1778.2</ele><time>2026-04-11T16:40:53Z</time></trkpt><trkpt lat="36.79403524129786" lon="-108.00592336784503"><ele>1778.6</ele><time>2026-04-11T16:40:54Z</time></trkpt><trkpt lat="36.794069349175004" lon="-108.00578191100965"><ele>1779.0</ele><time>2026-04-11T16:40:55Z</time></trkpt><trkpt lat="36.79405442197545" lon="-108.00564185287611"><ele>1779.0</ele><time>2026-04-11T16:40:56Z</time></trkpt><trkpt lat="36.79402382150384" lon="-108.00545894946227"><ele>1779.0</ele><time>2026-04-11T16:40:57Z</time></trkpt><trkpt lat="36.79401360288751" lon="-108.00527866209477"><ele>1779.0</ele><time>2026-04-11T16:40:58Z</time></trkpt><trkpt lat="36.793998277906724" lon="-108.00513673630724"><ele>1779.0</ele><time>2026-04-11T16:40:59Z</time></trkpt><trkpt lat="36.793957247930436" lon="-108.00504269435183"><ele>1778.3333333333333</ele><time>2026-04-11T16:41:00Z</time></trkpt><trkpt lat="36.79390272687581" lon="-108.00499140328043"><ele>1777.6666666666665</ele><time>2026-04-11T16:41:01Z</time></trkpt><trkpt lat="36.79382948369296" lon="-108.00493943242631"><ele>1777.0</ele><time>2026-04-11T16:41:02Z</time></trkpt><trkpt lat="36.7937595715351" lon="-108.00489563487201"><ele>1776.3333333333333</ele><time>2026-04-11T16:41:03Z</time></trkpt><trkpt lat="36.793697999896374" lon="-108.00485666912475"><ele>1775.6666666666665</ele><time>2026-04-11T16:41:04Z</time></trkpt><trkpt lat="36.79361756063469" lon="-108.00484588381366"><ele>1775.0</ele><time>2026-04-11T16:41:05Z</time></trkpt><trkpt lat="36.79354785100227" lon="-108.00484423460557"><ele>1775.0</ele><time>2026-04-11T16:41:06Z</time></trkpt><trkpt lat="36.79348717999042" lon="-108.00482029182204"><ele>1775.0</ele><time>2026-04-11T16:41:07Z</time></trkpt><trkpt lat="36.793456813045495" lon="-108.00468511991343"><ele>1775.0</ele><time>2026-04-11T16:41:09Z</time></trkpt><trkpt lat="36.793481272829055" lon="-108.0045899685848"><ele>1775.0</ele><time>2026-04-11T16:41:10Z</time></trkpt><trkpt lat="36.79351272283736" lon="-108.00445671381907"><ele>1775.0</ele><time>2026-04-11T16:41:11Z</time></trkpt><trkpt lat="36.793545952293144" lon="-108.00430145349829"><ele>1774.6666666666665</ele><time>2026-04-11T16:41:12Z</time></trkpt><trkpt lat="36.79357142892439" lon="-108.00412624400496"><ele>1774.3333333333335</ele><time>2026-04-11T16:41:13Z</time></trkpt><trkpt lat="36.79361514352227" lon="-108.00394591656575"><ele>1774.0</ele><time>2026-04-11T16:41:14Z</time></trkpt><trkpt lat="36.79363360086256" lon="-108.00372832743925"><ele>1774.0</ele><time>2026-04-11T16:41:15Z</time></trkpt><trkpt lat="36.793645879978214" lon="-108.00352410933507"><ele>1774.0</ele><time>2026-04-11T16:41:16Z</time></trkpt><trkpt lat="36.79367458036275" lon="-108.00338017536787"><ele>1774.0</ele><time>2026-04-11T16:41:17Z</time></trkpt><trkpt lat="36.79365061543452" lon="-108.00324188001692"><ele>1774.0</ele><time>2026-04-11T16:41:18Z</time></trkpt><trkpt lat="36.793627896595105" lon="-108.0030680071699"><ele>1773.6</ele><time>2026-04-11T16:41:19Z</time></trkpt><trkpt lat="36.7936523985798" lon="-108.00295089948237"><ele>1773.2</ele><time>2026-04-11T16:41:20Z</time></trkpt><trkpt lat="36.793696390575064" lon="-108.00287661466942"><ele>1772.7999999999997</ele><time>2026-04-11T16:41:21Z</time></trkpt><trkpt lat="36.79375813936184" lon="-108.00277448961045"><ele>1772.3999999999999</ele><time>2026-04-11T16:41:22Z</time></trkpt><trkpt lat="36.79381281968265" lon="-108.00262444961066"><ele>1772.0</ele><time>2026-04-11T16:41:23Z</time></trkpt><trkpt lat="36.793849018749455" lon="-108.00248397389632"><ele>1772.0</ele><time>2026-04-11T16:41:24Z</time></trkpt><trkpt lat="36.79389712316907" lon="-108.00237102304537"><ele>1771.9999999999998</ele><time>2026-04-11T16:41:25Z</time></trkpt><trkpt lat="36.793922652756315" lon="-108.0022692757269"><ele>1771.9999999999998</ele><time>2026-04-11T16:41:26Z</time></trkpt><trkpt lat="36.793946405010786" lon="-108.00213235935092"><ele>1772.0</ele><time>2026-04-11T16:41:27Z</time></trkpt><trkpt lat="36.79395932835737" lon="-108.00197341093546"><ele>1772.0</ele><time>2026-04-11T16:41:28Z</time></trkpt><trkpt lat="36.79397366572077" lon="-108.00184603484918"><ele>1772.0</ele><time>2026-04-11T16:41:29Z</time></trkpt><trkpt lat="36.79397732461799" lon="-108.00175551151881"><ele>1771.9999999999998</ele><time>2026-04-11T16:41:30Z</time></trkpt><trkpt lat="36.79397518084485" lon="-108.00159797099323"><ele>1771.9999999999998</ele><time>2026-04-11T16:41:32Z</time></trkpt><trkpt lat="36.79397476235683" lon="-108.00148312352133"><ele>1772.0</ele><time>2026-04-11T16:41:33Z</time></trkpt><trkpt lat="36.79397675873325" lon="-108.00134231882289"><ele>1772.0</ele><time>2026-04-11T16:41:34Z</time></trkpt><trkpt lat="36.79399248591953" lon="-108.00119341204328"><ele>1772.0</ele><time>2026-04-11T16:41:35Z</time></trkpt><trkpt lat="36.79399167433388" lon="-108.001102537485"><ele>1772.0</ele><time>2026-04-11T16:41:36Z</time></trkpt><trkpt lat="36.79381282401976" lon="-108.00113252850176"><ele>1772.0</ele><time>2026-04-11T16:41:38Z</time></trkpt><trkpt lat="36.793694170605804" lon="-108.00113199947673"><ele>1772.0</ele><time>2026-04-11T16:41:39Z</time></trkpt><trkpt lat="36.79358062072568" lon="-108.0010913723816"><ele>1773.25</ele><time>2026-04-11T16:41:40Z</time></trkpt><trkpt lat="36.793484482360135" lon="-108.00102734945827"><ele>1774.5</ele><time>2026-04-11T16:41:41Z</time></trkpt><trkpt lat="36.79338538418026" lon="-108.0009535406764"><ele>1775.75</ele><time>2026-04-11T16:41:42Z</time></trkpt><trkpt lat="36.79326348226201" lon="-108.00092772895317"><ele>1777.0</ele><time>2026-04-11T16:41:43Z</time></trkpt><trkpt lat="36.79311817446346" lon="-108.00088229211394"><ele>1777.0</ele><time>2026-04-11T16:41:44Z</time></trkpt><trkpt lat="36.79296275743257" lon="-108.00080679386792"><ele>1777.0</ele><time>2026-04-11T16:41:45Z</time></trkpt><trkpt lat="36.79284877819579" lon="-108.00070269640108"><ele>1777.0</ele><time>2026-04-11T16:41:46Z</time></trkpt><trkpt lat="36.79277578295275" lon="-108.00065354967266"><ele>1777.0</ele><time>2026-04-11T16:41:47Z</time></trkpt><trkpt lat="36.792655599629434" lon="-108.00064890299325"><ele>1777.0</ele><time>2026-04-11T16:41:48Z</time></trkpt><trkpt lat="36.79253546031145" lon="-108.000599443159"><ele>1777.0</ele><time>2026-04-11T16:41:49Z</time></trkpt><trkpt lat="36.7923936283713" lon="-108.00052091972623"><ele>1777.0</ele><time>2026-04-11T16:41:50Z</time></trkpt><trkpt lat="36.79224248760453" lon="-108.0003939008078"><ele>1777.0</ele><time>2026-04-11T16:41:51Z</time></trkpt><trkpt lat="36.79212295830443" lon="-108.00021674382262"><ele>1777.0</ele><time>2026-04-11T16:41:52Z</time></trkpt><trkpt lat="36.7919947493348" lon="-108.00013253849863"><ele>1777.0</ele><time>2026-04-11T16:41:53Z</time></trkpt><trkpt lat="36.7918869372162" lon="-108.00006121505648"><ele>1778.5</ele><time>2026-04-11T16:41:54Z</time></trkpt><trkpt lat="36.79177217241687" lon="-107.99991092524328"><ele>1780.0</ele><time>2026-04-11T16:41:55Z</time></trkpt><trkpt lat="36.791668934716256" lon="-107.99982002957084"><ele>1781.5</ele><time>2026-04-11T16:41:56Z</time></trkpt><trkpt lat="36.79156093072445" lon="-107.99973035543296"><ele>1783.0</ele><time>2026-04-11T16:41:57Z</time></trkpt><trkpt lat="36.791470041901555" lon="-107.99965867016365"><ele>1783.0</ele><time>2026-04-11T16:41:58Z</time></trkpt><trkpt lat="36.79142821199127" lon="-107.99956921414741"><ele>1783.0000000000002</ele><time>2026-04-11T16:41:59Z</time></trkpt><trkpt lat="36.79139445925147" lon="-107.99945650406225"><ele>1783.0000000000002</ele><time>2026-04-11T16:42:00Z</time></trkpt><trkpt lat="36.79140122669079" lon="-107.9993528864537"><ele>1783.0</ele><time>2026-04-11T16:42:01Z</time></trkpt><trkpt lat="36.79138643539186" lon="-107.99921075181693"><ele>1783.0</ele><time>2026-04-11T16:42:02Z</time></trkpt><trkpt lat="36.79132643543484" lon="-107.99907207283135"><ele>1783.25</ele><time>2026-04-11T16:42:03Z</time></trkpt><trkpt lat="36.79123815614881" lon="-107.99894097826557"><ele>1783.5</ele><time>2026-04-11T16:42:04Z</time></trkpt><trkpt lat="36.79116998379051" lon="-107.99882114224594"><ele>1783.75</ele><time>2026-04-11T16:42:05Z</time></trkpt><trkpt lat="36.79112030384934" lon="-107.99870117092526"><ele>1784.0</ele><time>2026-04-11T16:42:06Z</time></trkpt><trkpt lat="36.79109300442892" lon="-107.9985974132769"><ele>1784.0</ele><time>2026-04-11T16:42:07Z</time></trkpt><trkpt lat="36.791102422546345" lon="-107.9985097639229"><ele>1784.0</ele><time>2026-04-11T16:42:08Z</time></trkpt><trkpt lat="36.79117779810418" lon="-107.99843480046667"><ele>1784.0</ele><time>2026-04-11T16:42:09Z</time></trkpt><trkpt lat="36.79122634825705" lon="-107.99838470714995"><ele>1784.0</ele><time>2026-04-11T16:42:10Z</time></trkpt><trkpt lat="36.79133491729222" lon="-107.99837682485652"><ele>1784.0</ele><time>2026-04-11T16:42:12Z</time></trkpt><trkpt lat="36.7914298859869" lon="-107.99829269638342"><ele>1784.6</ele><time>2026-04-11T16:42:14Z</time></trkpt><trkpt lat="36.79152640632738" lon="-107.99819223449924"><ele>1785.2</ele><time>2026-04-11T16:42:16Z</time></trkpt><trkpt lat="36.79157272776297" lon="-107.99807311173421"><ele>1785.7999999999997</ele><time>2026-04-11T16:42:18Z</time></trkpt><trkpt lat="36.79156181366892" lon="-107.99798297988295"><ele>1786.3999999999999</ele><time>2026-04-11T16:42:19Z</time></trkpt><trkpt lat="36.791528391337465" lon="-107.99787995321113"><ele>1787.0</ele><time>2026-04-11T16:42:20Z</time></trkpt><trkpt lat="36.791485910212046" lon="-107.99776731966001"><ele>1786.9999999999998</ele><time>2026-04-11T16:42:21Z</time></trkpt><trkpt lat="36.791429063985085" lon="-107.99767131251046"><ele>1787.0</ele><time>2026-04-11T16:42:22Z</time></trkpt><trkpt lat="36.791363881727385" lon="-107.99759661784805"><ele>1787.0</ele><time>2026-04-11T16:42:23Z</time></trkpt><trkpt lat="36.791336164175746" lon="-107.99752546372413"><ele>1787.0</ele><time>2026-04-11T16:42:24Z</time></trkpt><trkpt lat="36.79136950255325" lon="-107.99744473792"><ele>1786.9999999999998</ele><time>2026-04-11T16:42:25Z</time></trkpt><trkpt lat="36.79140879946338" lon="-107.99737088133902"><ele>1787.0</ele><time>2026-04-11T16:42:26Z</time></trkpt><trkpt lat="36.79136601735388" lon="-107.9972565935432"><ele>1789.1999999999998</ele><time>2026-04-11T16:42:28Z</time></trkpt><trkpt lat="36.791300023829514" lon="-107.99713345986001"><ele>1791.3999999999999</ele><time>2026-04-11T16:42:29Z</time></trkpt><trkpt lat="36.79122763837663" lon="-107.99702848310083"><ele>1793.6000000000001</ele><time>2026-04-11T16:42:30Z</time></trkpt><trkpt lat="36.791193012334" lon="-107.99695976424285"><ele>1795.8000000000002</ele><time>2026-04-11T16:42:31Z</time></trkpt><trkpt lat="36.7911586614821" lon="-107.99686575017415"><ele>1798.0</ele><time>2026-04-11T16:42:32Z</time></trkpt><trkpt lat="36.79112838364242" lon="-107.99674911185639"><ele>1797.8000000000002</ele><time>2026-04-11T16:42:33Z</time></trkpt><trkpt lat="36.79108572658815" lon="-107.99666268266091"><ele>1797.6000000000001</ele><time>2026-04-11T16:42:34Z</time></trkpt><trkpt lat="36.79103208390005" lon="-107.99656101231945"><ele>1797.3999999999999</ele><time>2026-04-11T16:42:35Z</time></trkpt><trkpt lat="36.79101685559697" lon="-107.99647867074084"><ele>1797.1999999999998</ele><time>2026-04-11T16:42:36Z</time></trkpt><trkpt lat="36.79099983415197" lon="-107.99634349822641"><ele>1797.0</ele><time>2026-04-11T16:42:37Z</time></trkpt><trkpt lat="36.79097625120724" lon="-107.99622061825436"><ele>1798.3333333333333</ele><time>2026-04-11T16:42:38Z</time></trkpt><trkpt lat="36.790928814754466" lon="-107.99613434262633"><ele>1799.6666666666665</ele><time>2026-04-11T16:42:39Z</time></trkpt><trkpt lat="36.790868154105695" lon="-107.99605987376262"><ele>1801.0</ele><time>2026-04-11T16:42:40Z</time></trkpt><trkpt lat="36.79083897216836" lon="-107.99598787290306"><ele>1802.3333333333333</ele><time>2026-04-11T16:42:41Z</time></trkpt><trkpt lat="36.79081291647537" lon="-107.99586809414637"><ele>1803.6666666666665</ele><time>2026-04-11T16:42:42Z</time></trkpt><trkpt lat="36.79078633569619" lon="-107.9957718013278"><ele>1805.0</ele><time>2026-04-11T16:42:43Z</time></trkpt><trkpt lat="36.790780047115824" lon="-107.99568661923506"><ele>1806.2</ele><time>2026-04-11T16:42:44Z</time></trkpt><trkpt lat="36.79080819610391" lon="-107.99558664264563"><ele>1807.4</ele><time>2026-04-11T16:42:45Z</time></trkpt><trkpt lat="36.79077547282898" lon="-107.99546011726204"><ele>1808.6</ele><time>2026-04-11T16:42:46Z</time></trkpt><trkpt lat="36.79070578752502" lon="-107.99533939191966"><ele>1809.8</ele><time>2026-04-11T16:42:47Z</time></trkpt><trkpt lat="36.79061185027629" lon="-107.99524448375115"><ele>1811.0</ele><time>2026-04-11T16:42:48Z</time></trkpt><trkpt lat="36.79055605645278" lon="-107.99514092523673"><ele>1811.0</ele><time>2026-04-11T16:42:49Z</time></trkpt><trkpt lat="36.79052666144016" lon="-107.99501661489886"><ele>1811.0</ele><time>2026-04-11T16:42:50Z</time></trkpt><trkpt lat="36.79051026965265" lon="-107.99492618471511"><ele>1811.0</ele><time>2026-04-11T16:42:51Z</time></trkpt><trkpt lat="36.79041919581661" lon="-107.99482078226123"><ele>1811.0</ele><time>2026-04-11T16:42:53Z</time></trkpt><trkpt lat="36.79034349304968" lon="-107.99476205689002"><ele>1811.0</ele><time>2026-04-11T16:44:42Z</time></trkpt><trkpt lat="36.79027563218823" lon="-107.99471491375502"><ele>1811.6</ele><time>2026-04-11T16:44:44Z</time></trkpt><trkpt lat="36.790222930611066" lon="-107.9946691857415"><ele>1812.1999999999998</ele><time>2026-04-11T16:44:45Z</time></trkpt><trkpt lat="36.79015523983766" lon="-107.99462959092054"><ele>1812.8000000000002</ele><time>2026-04-11T16:44:46Z</time></trkpt><trkpt lat="36.790069129869515" lon="-107.99458273575281"><ele>1813.4</ele><time>2026-04-11T16:44:47Z</time></trkpt><trkpt lat="36.78996997848813" lon="-107.99453673166518"><ele>1814.0</ele><time>2026-04-11T16:44:48Z</time></trkpt><trkpt lat="36.78986056843572" lon="-107.99449603071723"><ele>1815.6</ele><time>2026-04-11T16:44:49Z</time></trkpt><trkpt lat="36.789766901024535" lon="-107.9944919383115"><ele>1817.2</ele><time>2026-04-11T16:44:50Z</time></trkpt><trkpt lat="36.789699352291706" lon="-107.99446862353898"><ele>1818.7999999999997</ele><time>2026-04-11T16:44:51Z</time></trkpt><trkpt lat="36.789656606129434" lon="-107.99438892072806"><ele>1820.3999999999999</ele><time>2026-04-11T16:44:52Z</time></trkpt><trkpt lat="36.78957840398167" lon="-107.99428566306854"><ele>1822.0</ele><time>2026-04-11T16:44:53Z</time></trkpt><trkpt lat="36.78951996180052" lon="-107.99418201922131"><ele>1822.0</ele><time>2026-04-11T16:44:54Z</time></trkpt><trkpt lat="36.78948601485712" lon="-107.99405996694964"><ele>1822.0</ele><time>2026-04-11T16:44:55Z</time></trkpt><trkpt lat="36.78947734291154" lon="-107.99390241927404"><ele>1822.0</ele><time>2026-04-11T16:44:56Z</time></trkpt><trkpt lat="36.78946041692277" lon="-107.99374406656044"><ele>1822.0</ele><time>2026-04-11T16:44:57Z</time></trkpt><trkpt lat="36.78941217807081" lon="-107.99361180037754"><ele>1822.0</ele><time>2026-04-11T16:44:58Z</time></trkpt><trkpt lat="36.789359061069746" lon="-107.99347939858808"><ele>1821.9999999999998</ele><time>2026-04-11T16:44:59Z</time></trkpt><trkpt lat="36.78932702294881" lon="-107.99334123310325"><ele>1821.9999999999998</ele><time>2026-04-11T16:45:00Z</time></trkpt><trkpt lat="36.78929701288838" lon="-107.99322634177862"><ele>1822.0</ele><time>2026-04-11T16:45:01Z</time></trkpt><trkpt lat="36.789258652815874" lon="-107.9931398545347"><ele>1822.0</ele><time>2026-04-11T16:45:02Z</time></trkpt><trkpt lat="36.789186408870385" lon="-107.99308422214628"><ele>1823.25</ele><time>2026-04-11T16:45:03Z</time></trkpt><trkpt lat="36.78911605543385" lon="-107.99301059680344"><ele>1824.5</ele><time>2026-04-11T16:45:04Z</time></trkpt><trkpt lat="36.789046813705134" lon="-107.9929206921373"><ele>1825.75</ele><time>2026-04-11T16:45:05Z</time></trkpt><trkpt lat="36.78896154995588" lon="-107.99281987948456"><ele>1827.0</ele><time>2026-04-11T16:45:06Z</time></trkpt><trkpt lat="36.78883784187297" lon="-107.99273117111323"><ele>1827.0</ele><time>2026-04-11T16:45:07Z</time></trkpt><trkpt lat="36.78872637577443" lon="-107.99266094925814"><ele>1826.9999999999998</ele><time>2026-04-11T16:45:08Z</time></trkpt><trkpt lat="36.78865076350474" lon="-107.99262782136415"><ele>1826.9999999999998</ele><time>2026-04-11T16:45:09Z</time></trkpt><trkpt lat="36.788555050680216" lon="-107.99252316797774"><ele>1827.0</ele><time>2026-04-11T16:45:11Z</time></trkpt><trkpt lat="36.78846791449291" lon="-107.99246263764418"><ele>1827.0</ele><time>2026-04-11T16:45:12Z</time></trkpt><trkpt lat="36.788369897584566" lon="-107.99243422794508"><ele>1827.1999999999998</ele><time>2026-04-11T16:45:13Z</time></trkpt><trkpt lat="36.78827915417068" lon="-107.99237377549994"><ele>1827.3999999999999</ele><time>2026-04-11T16:45:14Z</time></trkpt><trkpt lat="36.78817545049898" lon="-107.9923899154875"><ele>1827.6000000000001</ele><time>2026-04-11T16:45:15Z</time></trkpt><trkpt lat="36.78809110532539" lon="-107.99242185090486"><ele>1827.8000000000002</ele><time>2026-04-11T16:45:16Z</time></trkpt><trkpt lat="36.78801644455545" lon="-107.99241145463603"><ele>1828.0</ele><time>2026-04-11T16:45:17Z</time></trkpt><trkpt lat="36.78794170111423" lon="-107.99234724869619"><ele>1828.0</ele><time>2026-04-11T16:45:18Z</time></trkpt><trkpt lat="36.7878288823637" lon="-107.9922772692445"><ele>1828.0000000000002</ele><time>2026-04-11T16:45:19Z</time></trkpt><trkpt lat="36.78772281740219" lon="-107.99224721643112"><ele>1828.0000000000002</ele><time>2026-04-11T16:45:20Z</time></trkpt><trkpt lat="36.78762628361896" lon="-107.99219441875206"><ele>1828.0</ele><time>2026-04-11T16:45:21Z</time></trkpt><trkpt lat="36.787560849036595" lon="-107.99210742372371"><ele>1828.0</ele><time>2026-04-11T16:45:22Z</time></trkpt><trkpt lat="36.78750469798241" lon="-107.99200263897959"><ele>1828.0</ele><time>2026-04-11T16:45:23Z</time></trkpt><trkpt lat="36.78746266311102" lon="-107.99189432955097"><ele>1828.0</ele><time>2026-04-11T16:45:24Z</time></trkpt><trkpt lat="36.78744037556689" lon="-107.99175555126553"><ele>1828.0</ele><time>2026-04-11T16:45:25Z</time></trkpt><trkpt lat="36.78742335300482" lon="-107.99161759503046"><ele>1828.0</ele><time>2026-04-11T16:45:26Z</time></trkpt><trkpt lat="36.78741243748417" lon="-107.99143587076411"><ele>1828.25</ele><time>2026-04-11T16:45:27Z</time></trkpt><trkpt lat="36.78742282208816" lon="-107.99124743955468"><ele>1828.5</ele><time>2026-04-11T16:45:28Z</time></trkpt><trkpt lat="36.787428437481815" lon="-107.9910846115828"><ele>1828.75</ele><time>2026-04-11T16:45:29Z</time></trkpt><trkpt lat="36.78742685744016" lon="-107.99092647436842"><ele>1829.0</ele><time>2026-04-11T16:45:30Z</time></trkpt><trkpt lat="36.78741908776449" lon="-107.99078269155851"><ele>1829.6</ele><time>2026-04-11T16:45:31Z</time></trkpt><trkpt lat="36.78741037969293" lon="-107.99069078531161"><ele>1830.2</ele><time>2026-04-11T16:45:32Z</time></trkpt><trkpt lat="36.787360418986054" lon="-107.99062691909758"><ele>1830.7999999999997</ele><time>2026-04-11T16:45:33Z</time></trkpt><trkpt lat="36.78728123941856" lon="-107.99054467777586"><ele>1831.3999999999999</ele><time>2026-04-11T16:45:34Z</time></trkpt><trkpt lat="36.78719750242505" lon="-107.99044804716203"><ele>1832.0</ele><time>2026-04-11T16:45:35Z</time></trkpt><trkpt lat="36.787131530346905" lon="-107.99034761106341"><ele>1832.0</ele><time>2026-04-11T16:45:36Z</time></trkpt><trkpt lat="36.78703912646318" lon="-107.99032175840877"><ele>1831.9999999999998</ele><time>2026-04-11T16:45:37Z</time></trkpt><trkpt lat="36.78696408832425" lon="-107.99033933606655"><ele>1831.9999999999998</ele><time>2026-04-11T16:45:38Z</time></trkpt><trkpt lat="36.78690222321758" lon="-107.990404957593"><ele>1832.0</ele><time>2026-04-11T16:45:39Z</time></trkpt><trkpt lat="36.786827479900346" lon="-107.99045831827102"><ele>1832.0</ele><time>2026-04-11T16:45:40Z</time></trkpt><trkpt lat="36.78671650226867" lon="-107.99044133877194"><ele>1832.75</ele><time>2026-04-11T16:45:41Z</time></trkpt><trkpt lat="36.78660286105309" lon="-107.99043070839424"><ele>1833.5</ele><time>2026-04-11T16:45:42Z</time></trkpt><trkpt lat="36.78650293122382" lon="-107.99045875552648"><ele>1834.25</ele><time>2026-04-11T16:45:43Z</time></trkpt><trkpt lat="36.78639942215857" lon="-107.99051226971851"><ele>1835.0</ele><time>2026-04-11T16:45:44Z</time></trkpt><trkpt lat="36.78627949217225" lon="-107.99054700541616"><ele>1835.0</ele><time>2026-04-11T16:45:45Z</time></trkpt><trkpt lat="36.78615241868436" lon="-107.99055107411324"><ele>1835.0</ele><time>2026-04-11T16:45:46Z</time></trkpt><trkpt lat="36.78601243485706" lon="-107.99057481072944"><ele>1835.0</ele><time>2026-04-11T16:45:47Z</time></trkpt><trkpt lat="36.78592399182064" lon="-107.99059973927125"><ele>1835.0</ele><time>2026-04-11T16:45:48Z</time></trkpt><trkpt lat="36.78580615918151" lon="-107.99062379789893"><ele>1835.8</ele><time>2026-04-11T16:45:49Z</time></trkpt><trkpt lat="36.78568950924236" lon="-107.99062890295502"><ele>1836.6</ele><time>2026-04-11T16:45:50Z</time></trkpt><trkpt lat="36.78557805143302" lon="-107.99061033947076"><ele>1837.4</ele><time>2026-04-11T16:45:51Z</time></trkpt><trkpt lat="36.7854744401471" lon="-107.99057765599387"><ele>1838.2</ele><time>2026-04-11T16:45:52Z</time></trkpt><trkpt lat="36.78536939088869" lon="-107.99053352648387"><ele>1839.0</ele><time>2026-04-11T16:45:53Z</time></trkpt><trkpt lat="36.7852710911215" lon="-107.99049626224124"><ele>1839.0</ele><time>2026-04-11T16:45:54Z</time></trkpt><trkpt lat="36.785184548199055" lon="-107.99045660951087"><ele>1839.0</ele><time>2026-04-11T16:45:55Z</time></trkpt><trkpt lat="36.78512532786403" lon="-107.99037604964701"><ele>1839.0</ele><time>2026-04-11T16:45:56Z</time></trkpt><trkpt lat="36.7850611755128" lon="-107.99031596366973"><ele>1839.0</ele><time>2026-04-11T16:45:57Z</time></trkpt><trkpt lat="36.784953738703265" lon="-107.9903218882087"><ele>1839.0</ele><time>2026-04-11T16:45:59Z</time></trkpt><trkpt lat="36.78485986747688" lon="-107.99016594835601"><ele>1838.5</ele><time>2026-04-11T16:46:01Z</time></trkpt><trkpt lat="36.78477665419269" lon="-107.99006162009236"><ele>1838.0</ele><time>2026-04-11T16:46:02Z</time></trkpt><trkpt lat="36.78467838487074" lon="-107.98995065198508"><ele>1837.5</ele><time>2026-04-11T16:46:03Z</time></trkpt><trkpt lat="36.784617240049336" lon="-107.98983276308282"><ele>1837.0</ele><time>2026-04-11T16:46:04Z</time></trkpt><trkpt lat="36.78455033626236" lon="-107.98974527905403"><ele>1836.8333333333335</ele><time>2026-04-11T16:46:05Z</time></trkpt><trkpt lat="36.784478116800514" lon="-107.98972282562653"><ele>1836.6666666666667</ele><time>2026-04-11T16:46:06Z</time></trkpt><trkpt lat="36.78436930918071" lon="-107.989745514253"><ele>1836.5</ele><time>2026-04-11T16:46:07Z</time></trkpt><trkpt lat="36.78427034996469" lon="-107.9897278962354"><ele>1836.3333333333335</ele><time>2026-04-11T16:46:08Z</time></trkpt><trkpt lat="36.784204060579356" lon="-107.9896971997438"><ele>1836.1666666666667</ele><time>2026-04-11T16:46:09Z</time></trkpt><trkpt lat="36.78413839291354" lon="-107.9896288963378"><ele>1836.0</ele><time>2026-04-11T16:46:10Z</time></trkpt><trkpt lat="36.78404779666619" lon="-107.98958834369137"><ele>1836.4</ele><time>2026-04-11T16:46:11Z</time></trkpt><trkpt lat="36.783963022675294" lon="-107.98958042143296"><ele>1836.8</ele><time>2026-04-11T16:46:12Z</time></trkpt><trkpt lat="36.783888672203005" lon="-107.9894561151574"><ele>1837.2000000000003</ele><time>2026-04-11T16:46:14Z</time></trkpt><trkpt lat="36.78386945398061" lon="-107.989319587519"><ele>1837.6000000000001</ele><time>2026-04-11T16:46:15Z</time></trkpt><trkpt lat="36.783826720413124" lon="-107.98922305926675"><ele>1838.0</ele><time>2026-04-11T16:46:16Z</time></trkpt><trkpt lat="36.78375438990266" lon="-107.98914978848735"><ele>1838.8000000000002</ele><time>2026-04-11T16:46:17Z</time></trkpt><trkpt lat="36.78367847519437" lon="-107.98909162300737"><ele>1839.6000000000001</ele><time>2026-04-11T16:46:18Z</time></trkpt><trkpt lat="36.7835639270498" lon="-107.98905288618406"><ele>1840.3999999999999</ele><time>2026-04-11T16:46:19Z</time></trkpt><trkpt lat="36.78345820096355" lon="-107.98901085792023"><ele>1841.1999999999998</ele><time>2026-04-11T16:46:20Z</time></trkpt><trkpt lat="36.783336454805685" lon="-107.9890004215556"><ele>1842.0</ele><time>2026-04-11T16:46:21Z</time></trkpt><trkpt lat="36.78321566698382" lon="-107.98902228605893"><ele>1843.1999999999998</ele><time>2026-04-11T16:46:22Z</time></trkpt><trkpt lat="36.78310959216032" lon="-107.98902400123161"><ele>1844.3999999999999</ele><time>2026-04-11T16:46:23Z</time></trkpt><trkpt lat="36.78301380607186" lon="-107.98899442175471"><ele>1845.6000000000001</ele><time>2026-04-11T16:46:24Z</time></trkpt><trkpt lat="36.78294262151597" lon="-107.98901644627125"><ele>1846.8000000000002</ele><time>2026-04-11T16:46:25Z</time></trkpt><trkpt lat="36.78284810740007" lon="-107.98909350911238"><ele>1848.0</ele><time>2026-04-11T16:46:27Z</time></trkpt><trkpt lat="36.782788064521355" lon="-107.98906212947804"><ele>1848.0</ele><time>2026-04-11T16:46:29Z</time></trkpt><trkpt lat="36.782796898415704" lon="-107.98894506397315"><ele>1848.0000000000002</ele><time>2026-04-11T16:46:31Z</time></trkpt><trkpt lat="36.782824409406665" lon="-107.98882789583433"><ele>1848.0000000000002</ele><time>2026-04-11T16:46:32Z</time></trkpt><trkpt lat="36.782819683152944" lon="-107.98870187666387"><ele>1848.0</ele><time>2026-04-11T16:46:33Z</time></trkpt><trkpt lat="36.78279666897358" lon="-107.98858352807922"><ele>1848.0</ele><time>2026-04-11T16:46:34Z</time></trkpt><trkpt lat="36.78277319128874" lon="-107.98849921242552"><ele>1848.0</ele><time>2026-04-11T16:46:35Z</time></trkpt><trkpt lat="36.78274124642852" lon="-107.98836955719786"><ele>1848.0000000000002</ele><time>2026-04-11T16:46:37Z</time></trkpt><trkpt lat="36.782660697459846" lon="-107.988267599685"><ele>1848.0000000000002</ele><time>2026-04-11T16:46:39Z</time></trkpt><trkpt lat="36.7825778490941" lon="-107.98821430336801"><ele>1848.0</ele><time>2026-04-11T16:46:42Z</time></trkpt><trkpt lat="36.782530635926086" lon="-107.98806142152357"><ele>1848.0</ele><time>2026-04-11T16:46:44Z</time></trkpt><trkpt lat="36.78249448559474" lon="-107.9879493910483"><ele>1848.8000000000002</ele><time>2026-04-11T16:46:45Z</time></trkpt><trkpt lat="36.78244934348281" lon="-107.98782583682713"><ele>1849.6000000000001</ele><time>2026-04-11T16:46:46Z</time></trkpt><trkpt lat="36.78240358918533" lon="-107.98770717185883"><ele>1850.3999999999999</ele><time>2026-04-11T16:46:47Z</time></trkpt><trkpt lat="36.78235368550993" lon="-107.98761682231033"><ele>1851.1999999999998</ele><time>2026-04-11T16:46:48Z</time></trkpt><trkpt lat="36.78228099851471" lon="-107.98759187821855"><ele>1852.0</ele><time>2026-04-11T16:46:49Z</time></trkpt><trkpt lat="36.782206292850205" lon="-107.9875982929502"><ele>1852.0000000000002</ele><time>2026-04-11T16:46:50Z</time></trkpt><trkpt lat="36.782120739149335" lon="-107.98760664297625"><ele>1852.0</ele><time>2026-04-11T16:46:51Z</time></trkpt><trkpt lat="36.78205119435702" lon="-107.987574332222"><ele>1852.0</ele><time>2026-04-11T16:46:52Z</time></trkpt><trkpt lat="36.7819829486642" lon="-107.98751221122646"><ele>1852.0</ele><time>2026-04-11T16:46:53Z</time></trkpt><trkpt lat="36.78190124737056" lon="-107.98749794688473"><ele>1852.0000000000002</ele><time>2026-04-11T16:46:54Z</time></trkpt><trkpt lat="36.78181344599388" lon="-107.98750316085798"><ele>1852.0</ele><time>2026-04-11T16:46:55Z</time></trkpt><trkpt lat="36.78170243491424" lon="-107.98750892057576"><ele>1851.5</ele><time>2026-04-11T16:46:56Z</time></trkpt><trkpt lat="36.781575601632994" lon="-107.9875344239093"><ele>1851.0</ele><time>2026-04-11T16:46:57Z</time></trkpt><trkpt lat="36.781458846657976" lon="-107.98753095390536"><ele>1850.5</ele><time>2026-04-11T16:46:58Z</time></trkpt><trkpt lat="36.78133436180265" lon="-107.98753237424968"><ele>1850.0</ele><time>2026-04-11T16:46:59Z</time></trkpt><trkpt lat="36.781227643022625" lon="-107.98752719199345"><ele>1850.0</ele><time>2026-04-11T16:47:00Z</time></trkpt><trkpt lat="36.781127849062045" lon="-107.98750626975819"><ele>1850.0</ele><time>2026-04-11T16:47:01Z</time></trkpt><trkpt lat="36.78101959960993" lon="-107.9874751303529"><ele>1850.0</ele><time>2026-04-11T16:47:02Z</time></trkpt><trkpt lat="36.78091842670714" lon="-107.98744081493757"><ele>1850.0</ele><time>2026-04-11T16:47:03Z</time></trkpt><trkpt lat="36.78084995657908" lon="-107.98742639770262"><ele>1850.0</ele><time>2026-04-11T16:47:04Z</time></trkpt><trkpt lat="36.78075989074106" lon="-107.98743809764117"><ele>1848.6</ele><time>2026-04-11T16:47:05Z</time></trkpt><trkpt lat="36.7806631440807" lon="-107.9873962118722"><ele>1847.2</ele><time>2026-04-11T16:47:06Z</time></trkpt><trkpt lat="36.78056799828355" lon="-107.98732920319382"><ele>1845.8000000000002</ele><time>2026-04-11T16:47:07Z</time></trkpt><trkpt lat="36.78047411157906" lon="-107.98727660386182"><ele>1844.4</ele><time>2026-04-11T16:47:08Z</time></trkpt><trkpt lat="36.780369873116" lon="-107.98731225135006"><ele>1843.0</ele><time>2026-04-11T16:47:09Z</time></trkpt><trkpt lat="36.78027431992441" lon="-107.98738307304073"><ele>1843.0</ele><time>2026-04-11T16:47:10Z</time></trkpt><trkpt lat="36.78020896686399" lon="-107.98745971148566"><ele>1843.0000000000002</ele><time>2026-04-11T16:47:11Z</time></trkpt><trkpt lat="36.780109031249985" lon="-107.98748295201315"><ele>1843.0000000000002</ele><time>2026-04-11T16:47:12Z</time></trkpt><trkpt lat="36.78001348094159" lon="-107.98746655239592"><ele>1843.0</ele><time>2026-04-11T16:47:13Z</time></trkpt><trkpt lat="36.7799278085528" lon="-107.9874950575781"><ele>1843.0</ele><time>2026-04-11T16:47:14Z</time></trkpt><trkpt lat="36.779797407179394" lon="-107.9875363537641"><ele>1843.0</ele><time>2026-04-11T16:47:15Z</time></trkpt><trkpt lat="36.77964390291091" lon="-107.98754769221867"><ele>1843.0</ele><time>2026-04-11T16:47:16Z</time></trkpt><trkpt lat="36.779532084894186" lon="-107.98756501847573"><ele>1843.0</ele><time>2026-04-11T16:47:17Z</time></trkpt><trkpt lat="36.779435883480176" lon="-107.98755683666259"><ele>1843.0</ele><time>2026-04-11T16:47:18Z</time></trkpt><trkpt lat="36.77934374028928" lon="-107.98758430654404"><ele>1842.0</ele><time>2026-04-11T16:47:19Z</time></trkpt><trkpt lat="36.77927509843194" lon="-107.9876614586428"><ele>1841.0000000000002</ele><time>2026-04-11T16:47:20Z</time></trkpt><trkpt lat="36.77918901332589" lon="-107.98771926448237"><ele>1840.0000000000002</ele><time>2026-04-11T16:47:21Z</time></trkpt><trkpt lat="36.77909531550759" lon="-107.98767376115464"><ele>1839.0</ele><time>2026-04-11T16:47:22Z</time></trkpt><trkpt lat="36.77897145931583" lon="-107.98767805996815"><ele>1838.0</ele><time>2026-04-11T16:47:23Z</time></trkpt><trkpt lat="36.778899104106465" lon="-107.98774140842583"><ele>1838.0</ele><time>2026-04-11T16:47:24Z</time></trkpt><trkpt lat="36.77881345822723" lon="-107.98779043457859"><ele>1838.0</ele><time>2026-04-11T16:47:25Z</time></trkpt><trkpt lat="36.77870150702174" lon="-107.98780463200646"><ele>1838.0</ele><time>2026-04-11T16:47:26Z</time></trkpt><trkpt lat="36.77858403380461" lon="-107.9878195863486"><ele>1838.0</ele><time>2026-04-11T16:47:27Z</time></trkpt><trkpt lat="36.778453714236164" lon="-107.98782779237237"><ele>1837.8000000000002</ele><time>2026-04-11T16:47:28Z</time></trkpt><trkpt lat="36.778346586887345" lon="-107.9878497372854"><ele>1837.6000000000001</ele><time>2026-04-11T16:47:29Z</time></trkpt><trkpt lat="36.778243055586735" lon="-107.98788418318993"><ele>1837.3999999999999</ele><time>2026-04-11T16:47:30Z</time></trkpt><trkpt lat="36.77814216520276" lon="-107.9879283481512"><ele>1837.1999999999998</ele><time>2026-04-11T16:47:31Z</time></trkpt><trkpt lat="36.77805267819458" lon="-107.98794725714986"><ele>1837.0</ele><time>2026-04-11T16:47:32Z</time></trkpt><trkpt lat="36.77796951631807" lon="-107.98794118633943"><ele>1837.0</ele><time>2026-04-11T16:47:33Z</time></trkpt><trkpt lat="36.77789636893879" lon="-107.98796648497607"><ele>1836.9999999999998</ele><time>2026-04-11T16:47:34Z</time></trkpt><trkpt lat="36.777824770722376" lon="-107.98802013465823"><ele>1836.9999999999998</ele><time>2026-04-11T16:47:35Z</time></trkpt><trkpt lat="36.77771958187668" lon="-107.98804656122739"><ele>1837.0</ele><time>2026-04-11T16:47:36Z</time></trkpt><trkpt lat="36.777592782179035" lon="-107.98802422769948"><ele>1837.0</ele><time>2026-04-11T16:47:37Z</time></trkpt><trkpt lat="36.777490408911255" lon="-107.98800137708645"><ele>1836.6666666666667</ele><time>2026-04-11T16:47:38Z</time></trkpt><trkpt lat="36.77739742103315" lon="-107.98799604497539"><ele>1836.3333333333335</ele><time>2026-04-11T16:47:39Z</time></trkpt><trkpt lat="36.777322866869184" lon="-107.98804224978468"><ele>1836.0</ele><time>2026-04-11T16:47:40Z</time></trkpt><trkpt lat="36.77726328078036" lon="-107.98811840576873"><ele>1835.6666666666665</ele><time>2026-04-11T16:47:41Z</time></trkpt><trkpt lat="36.7772070614143" lon="-107.98818213911434"><ele>1835.3333333333333</ele><time>2026-04-11T16:47:42Z</time></trkpt><trkpt lat="36.77713644162914" lon="-107.98822064109493"><ele>1835.0</ele><time>2026-04-11T16:47:43Z</time></trkpt><trkpt lat="36.77707451997716" lon="-107.98826356078955"><ele>1835.0</ele><time>2026-04-11T16:47:44Z</time></trkpt><trkpt lat="36.77695939450486" lon="-107.98828976027454"><ele>1835.0</ele><time>2026-04-11T16:47:46Z</time></trkpt><trkpt lat="36.776894111819" lon="-107.98830450382977"><ele>1835.0</ele><time>2026-04-11T16:47:47Z</time></trkpt><trkpt lat="36.776809036401" lon="-107.98837755475557"><ele>1835.0</ele><time>2026-04-11T16:47:49Z</time></trkpt><trkpt lat="36.776782546701654" lon="-107.98847919673221"><ele>1835.0</ele><time>2026-04-11T16:47:50Z</time></trkpt><trkpt lat="36.776748894613206" lon="-107.98861594703553"><ele>1834.0</ele><time>2026-04-11T16:47:51Z</time></trkpt><trkpt lat="36.77667335868069" lon="-107.98873414001329"><ele>1833.0</ele><time>2026-04-11T16:47:52Z</time></trkpt><trkpt lat="36.77658234887093" lon="-107.98885591499571"><ele>1832.0</ele><time>2026-04-11T16:47:53Z</time></trkpt><trkpt lat="36.776482641427464" lon="-107.98895120577146"><ele>1831.0</ele><time>2026-04-11T16:47:54Z</time></trkpt><trkpt lat="36.77641346325774" lon="-107.9890333016669"><ele>1831.0</ele><time>2026-04-11T16:47:55Z</time></trkpt><trkpt lat="36.776389902040336" lon="-107.9891596373496"><ele>1831.0</ele><time>2026-04-11T16:47:56Z</time></trkpt><trkpt lat="36.77639427251082" lon="-107.98928760876996"><ele>1831.0</ele><time>2026-04-11T16:47:57Z</time></trkpt><trkpt lat="36.77637688064048" lon="-107.9893689739023"><ele>1831.0</ele><time>2026-04-11T16:47:58Z</time></trkpt><trkpt lat="36.776254202244345" lon="-107.98941973621864"><ele>1831.0</ele><time>2026-04-11T16:48:00Z</time></trkpt><trkpt lat="36.776156043916416" lon="-107.98946884294563"><ele>1831.1999999999998</ele><time>2026-04-11T16:48:01Z</time></trkpt><trkpt lat="36.776078751019" lon="-107.98949572272144"><ele>1831.3999999999999</ele><time>2026-04-11T16:48:02Z</time></trkpt><trkpt lat="36.77602649557845" lon="-107.9894321938899"><ele>1831.6</ele><time>2026-04-11T16:48:03Z</time></trkpt><trkpt lat="36.775993300124966" lon="-107.98928474648125"><ele>1831.8</ele><time>2026-04-11T16:48:04Z</time></trkpt><trkpt lat="36.775952501351775" lon="-107.98914042582494"><ele>1832.0</ele><time>2026-04-11T16:48:05Z</time></trkpt><trkpt lat="36.775909284240086" lon="-107.98901673484178"><ele>1832.0</ele><time>2026-04-11T16:48:06Z</time></trkpt><trkpt lat="36.775856573511255" lon="-107.98890260474899"><ele>1831.9999999999998</ele><time>2026-04-11T16:48:07Z</time></trkpt><trkpt lat="36.775794582336594" lon="-107.98882784791195"><ele>1831.9999999999998</ele><time>2026-04-11T16:48:08Z</time></trkpt><trkpt lat="36.77569915186395" lon="-107.98880442870569"><ele>1832.0</ele><time>2026-04-11T16:48:09Z</time></trkpt><trkpt lat="36.775608590321866" lon="-107.98879150345005"><ele>1832.0</ele><time>2026-04-11T16:48:10Z</time></trkpt><trkpt lat="36.77551404651438" lon="-107.98877161322282"><ele>1832.0</ele><time>2026-04-11T16:48:11Z</time></trkpt><trkpt lat="36.77541829450334" lon="-107.98879161301184"><ele>1831.9999999999998</ele><time>2026-04-11T16:48:12Z</time></trkpt><trkpt lat="36.77532240512658" lon="-107.98882055984429"><ele>1831.9999999999998</ele><time>2026-04-11T16:48:13Z</time></trkpt><trkpt lat="36.77521739336663" lon="-107.98881406392057"><ele>1832.0</ele><time>2026-04-11T16:48:14Z</time></trkpt><trkpt lat="36.775097511219194" lon="-107.98877021821255"><ele>1832.0</ele><time>2026-04-11T16:48:15Z</time></trkpt><trkpt lat="36.77498683670549" lon="-107.98868540431573"><ele>1831.75</ele><time>2026-04-11T16:48:16Z</time></trkpt><trkpt lat="36.7748755362081" lon="-107.98859722403856"><ele>1831.5</ele><time>2026-04-11T16:48:17Z</time></trkpt><trkpt lat="36.77476580883995" lon="-107.98851899776612"><ele>1831.25</ele><time>2026-04-11T16:48:18Z</time></trkpt><trkpt lat="36.77466548324857" lon="-107.98844740381121"><ele>1831.0</ele><time>2026-04-11T16:48:19Z</time></trkpt><trkpt lat="36.774571701581756" lon="-107.98838555512087"><ele>1830.5000000000002</ele><time>2026-04-11T16:48:20Z</time></trkpt><trkpt lat="36.77451584183494" lon="-107.98832515752294"><ele>1830.0</ele><time>2026-04-11T16:48:21Z</time></trkpt><trkpt lat="36.77446190196414" lon="-107.98822855904656"><ele>1829.5</ele><time>2026-04-11T16:48:25Z</time></trkpt><trkpt lat="36.77440650263666" lon="-107.98815247233657"><ele>1829.0</ele><time>2026-04-11T16:48:28Z</time></trkpt><trkpt lat="36.77436893339738" lon="-107.98808351981593"><ele>1828.5000000000002</ele><time>2026-04-11T16:48:38Z</time></trkpt><trkpt lat="36.77443355851904" lon="-107.98811625240009"><ele>1828.0</ele><time>2026-04-11T16:48:41Z</time></trkpt><trkpt lat="36.77447235031785" lon="-107.98818650360899"><ele>1828.0000000000002</ele><time>2026-04-11T16:48:42Z</time></trkpt><trkpt lat="36.77449626208868" lon="-107.98826489836622"><ele>1828.0</ele><time>2026-04-11T16:48:43Z</time></trkpt><trkpt lat="36.77457021940842" lon="-107.9883687237679"><ele>1828.0</ele><time>2026-04-11T16:48:45Z</time></trkpt><trkpt lat="36.77462361268457" lon="-107.98841686418736"><ele>1828.0</ele><time>2026-04-11T16:48:46Z</time></trkpt><trkpt lat="36.77468490991652" lon="-107.98847340604777"><ele>1828.0000000000002</ele><time>2026-04-11T16:48:47Z</time></trkpt><trkpt lat="36.77474587107029" lon="-107.9885164802858"><ele>1828.0</ele><time>2026-04-11T16:48:48Z</time></trkpt><trkpt lat="36.77486458351248" lon="-107.98859177600993"><ele>1828.6000000000001</ele><time>2026-04-11T16:48:50Z</time></trkpt><trkpt lat="36.774942698371" lon="-107.98863628848369"><ele>1829.2000000000003</ele><time>2026-04-11T16:48:52Z</time></trkpt><trkpt lat="36.775019749524475" lon="-107.98869905085526"><ele>1829.8</ele><time>2026-04-11T16:48:54Z</time></trkpt><trkpt lat="36.77509881996087" lon="-107.98874931448239"><ele>1830.4</ele><time>2026-04-11T16:48:57Z</time></trkpt><trkpt lat="36.775177375160055" lon="-107.98880194279303"><ele>1831.0</ele><time>2026-04-11T16:48:59Z</time></trkpt><trkpt lat="36.775295750248056" lon="-107.98883788980035"><ele>1831.1999999999998</ele><time>2026-04-11T16:49:01Z</time></trkpt><trkpt lat="36.775410807709086" lon="-107.98882084558434"><ele>1831.3999999999999</ele><time>2026-04-11T16:49:03Z</time></trkpt><trkpt lat="36.775511259346985" lon="-107.98881773468293"><ele>1831.6</ele><time>2026-04-11T16:49:05Z</time></trkpt><trkpt lat="36.77560806584555" lon="-107.98878419915201"><ele>1831.8</ele><time>2026-04-11T16:49:07Z</time></trkpt><trkpt lat="36.77563942969301" lon="-107.98887288651535"><ele>1832.0</ele><time>2026-04-11T16:49:11Z</time></trkpt><trkpt lat="36.77558311838559" lon="-107.98876342272857"><ele>1832.0</ele><time>2026-04-11T16:49:15Z</time></trkpt><trkpt lat="36.77546211466172" lon="-107.98875048538385"><ele>1832.0</ele><time>2026-04-11T16:49:19Z</time></trkpt><trkpt lat="36.77537858610486" lon="-107.98872472807244"><ele>1832.0</ele><time>2026-04-11T16:49:20Z</time></trkpt><trkpt lat="36.775283832353296" lon="-107.98866426402378"><ele>1832.0</ele><time>2026-04-11T16:49:21Z</time></trkpt><trkpt lat="36.775147086319706" lon="-107.98858906960591"><ele>1831.6666666666665</ele><time>2026-04-11T16:49:22Z</time></trkpt><trkpt lat="36.775016770953435" lon="-107.98852989093358"><ele>1831.3333333333335</ele><time>2026-04-11T16:49:23Z</time></trkpt><trkpt lat="36.7748481830931" lon="-107.98843607861488"><ele>1831.0</ele><time>2026-04-11T16:49:24Z</time></trkpt><trkpt lat="36.77472104763756" lon="-107.98836369639916"><ele>1831.0</ele><time>2026-04-11T16:49:25Z</time></trkpt><trkpt lat="36.7745984277045" lon="-107.98828832875748"><ele>1831.0</ele><time>2026-04-11T16:49:26Z</time></trkpt><trkpt lat="36.77449792673024" lon="-107.9882139289945"><ele>1831.0</ele><time>2026-04-11T16:49:27Z</time></trkpt><trkpt lat="36.774403514893436" lon="-107.98814863448445"><ele>1831.0</ele><time>2026-04-11T16:49:28Z</time></trkpt><trkpt lat="36.77434950858057" lon="-107.98809247502965"><ele>1831.0</ele><time>2026-04-11T16:49:29Z</time></trkpt><trkpt lat="36.7742972693006" lon="-107.98804607437057"><ele>1831.0000000000002</ele><time>2026-04-11T16:49:30Z</time></trkpt><trkpt lat="36.77423357082611" lon="-107.98799956572387"><ele>1831.0</ele><time>2026-04-11T16:49:32Z</time></trkpt><trkpt lat="36.77427798265256" lon="-107.98805585713889"><ele>1831.0</ele><time>2026-04-11T16:49:34Z</time></trkpt><trkpt lat="36.7743277663687" lon="-107.98810720158976"><ele>1831.0</ele><time>2026-04-11T16:49:36Z</time></trkpt><trkpt lat="36.77421015966072" lon="-107.98811329346096"><ele>1831.0000000000002</ele><time>2026-04-11T16:49:41Z</time></trkpt><trkpt lat="36.77409951573425" lon="-107.98810853770196"><ele>1831.0</ele><time>2026-04-11T16:49:42Z</time></trkpt><trkpt lat="36.7739835230646" lon="-107.98809963569909"><ele>1831.0</ele><time>2026-04-11T16:49:43Z</time></trkpt><trkpt lat="36.7738740650433" lon="-107.98808902119619"><ele>1831.0</ele><time>2026-04-11T16:49:44Z</time></trkpt><trkpt lat="36.77376612385218" lon="-107.9880969261243"><ele>1831.0</ele><time>2026-04-11T16:49:45Z</time></trkpt><trkpt lat="36.77360725256814" lon="-107.98819067240473"><ele>1831.0</ele><time>2026-04-11T16:49:46Z</time></trkpt><trkpt lat="36.773492875623816" lon="-107.98824037275392"><ele>1830.0</ele><time>2026-04-11T16:49:47Z</time></trkpt><trkpt lat="36.77336692694504" lon="-107.9882297826071"><ele>1829.0</ele><time>2026-04-11T16:49:48Z</time></trkpt><trkpt lat="36.77324372467051" lon="-107.98821953022569"><ele>1828.0</ele><time>2026-04-11T16:49:49Z</time></trkpt><trkpt lat="36.77314130048022" lon="-107.98817219458998"><ele>1827.0</ele><time>2026-04-11T16:49:50Z</time></trkpt><trkpt lat="36.77303431099809" lon="-107.9880546551409"><ele>1827.0</ele><time>2026-04-11T16:49:51Z</time></trkpt><trkpt lat="36.77291594466365" lon="-107.98794310774818"><ele>1827.0</ele><time>2026-04-11T16:49:52Z</time></trkpt><trkpt lat="36.77280662475326" lon="-107.98788094369927"><ele>1827.0</ele><time>2026-04-11T16:49:53Z</time></trkpt><trkpt lat="36.772685052176655" lon="-107.98782796410086"><ele>1827.0</ele><time>2026-04-11T16:49:54Z</time></trkpt><trkpt lat="36.772561276651565" lon="-107.98780447251372"><ele>1826.8</ele><time>2026-04-11T16:49:55Z</time></trkpt><trkpt lat="36.772444980377955" lon="-107.9877892696988"><ele>1826.6</ele><time>2026-04-11T16:49:56Z</time></trkpt><trkpt lat="36.77235319197239" lon="-107.98777626793121"><ele>1826.3999999999999</ele><time>2026-04-11T16:49:57Z</time></trkpt><trkpt lat="36.772271502939134" lon="-107.9878129906835"><ele>1826.1999999999998</ele><time>2026-04-11T16:49:58Z</time></trkpt><trkpt lat="36.77216218103802" lon="-107.98788276028279"><ele>1826.0</ele><time>2026-04-11T16:49:59Z</time></trkpt><trkpt lat="36.77204357250709" lon="-107.98789909200255"><ele>1826.0</ele><time>2026-04-11T16:50:00Z</time></trkpt><trkpt lat="36.77192448209877" lon="-107.98787854708047"><ele>1826.0</ele><time>2026-04-11T16:50:01Z</time></trkpt><trkpt lat="36.77179625381236" lon="-107.98784980073876"><ele>1826.0</ele><time>2026-04-11T16:50:02Z</time></trkpt><trkpt lat="36.77165957135418" lon="-107.98783024751914"><ele>1826.0</ele><time>2026-04-11T16:50:03Z</time></trkpt><trkpt lat="36.771528914953194" lon="-107.98780786055143"><ele>1825.8</ele><time>2026-04-11T16:50:04Z</time></trkpt><trkpt lat="36.77142219656084" lon="-107.9877884261797"><ele>1825.6</ele><time>2026-04-11T16:50:05Z</time></trkpt><trkpt lat="36.771337436151875" lon="-107.98777670235287"><ele>1825.4</ele><time>2026-04-11T16:50:06Z</time></trkpt><trkpt lat="36.77125013484947" lon="-107.98780236875962"><ele>1825.2</ele><time>2026-04-11T16:50:07Z</time></trkpt><trkpt lat="36.771176341504514" lon="-107.98785899931391"><ele>1825.0</ele><time>2026-04-11T16:50:08Z</time></trkpt><trkpt lat="36.77110897292211" lon="-107.98791950963145"><ele>1825.0</ele><time>2026-04-11T16:50:09Z</time></trkpt><trkpt lat="36.7710337808912" lon="-107.98797269126872"><ele>1825.0</ele><time>2026-04-11T16:50:10Z</time></trkpt><trkpt lat="36.77096738897938" lon="-107.98801405103103"><ele>1825.0</ele><time>2026-04-11T16:50:11Z</time></trkpt><trkpt lat="36.770880101759275" lon="-107.98807942888736"><ele>1825.0</ele><time>2026-04-11T16:50:13Z</time></trkpt><trkpt lat="36.77076284975665" lon="-107.98812118951271"><ele>1825.0</ele><time>2026-04-11T16:50:15Z</time></trkpt><trkpt lat="36.7706629561685" lon="-107.98813656265834"><ele>1824.8</ele><time>2026-04-11T16:50:16Z</time></trkpt><trkpt lat="36.77054995883787" lon="-107.98816238001389"><ele>1824.6</ele><time>2026-04-11T16:50:17Z</time></trkpt><trkpt lat="36.77045619475874" lon="-107.9881926069474"><ele>1824.4</ele><time>2026-04-11T16:50:18Z</time></trkpt><trkpt lat="36.77036543665816" lon="-107.98823578169308"><ele>1824.2</ele><time>2026-04-11T16:50:19Z</time></trkpt><trkpt lat="36.77025778242572" lon="-107.98827684375337"><ele>1824.0</ele><time>2026-04-11T16:50:20Z</time></trkpt><trkpt lat="36.770141894151955" lon="-107.98829458789803"><ele>1823.5</ele><time>2026-04-11T16:50:21Z</time></trkpt><trkpt lat="36.770028130936254" lon="-107.98829021751641"><ele>1823.0</ele><time>2026-04-11T16:50:22Z</time></trkpt><trkpt lat="36.76990808784506" lon="-107.98825995959055"><ele>1822.5</ele><time>2026-04-11T16:50:23Z</time></trkpt><trkpt lat="36.76977632763097" lon="-107.98823950827797"><ele>1822.0</ele><time>2026-04-11T16:50:24Z</time></trkpt><trkpt lat="36.769650109883266" lon="-107.98823670048877"><ele>1822.0</ele><time>2026-04-11T16:50:25Z</time></trkpt><trkpt lat="36.769513911495864" lon="-107.98822792345692"><ele>1822.0</ele><time>2026-04-11T16:50:26Z</time></trkpt><trkpt lat="36.76938519601541" lon="-107.98821644150208"><ele>1822.0</ele><time>2026-04-11T16:50:27Z</time></trkpt><trkpt lat="36.769266241222184" lon="-107.9882118338576"><ele>1822.0</ele><time>2026-04-11T16:50:28Z</time></trkpt><trkpt lat="36.76915326632287" lon="-107.98822162651823"><ele>1822.1666666666667</ele><time>2026-04-11T16:50:29Z</time></trkpt><trkpt lat="36.76904645493619" lon="-107.98824908803786"><ele>1822.3333333333335</ele><time>2026-04-11T16:50:30Z</time></trkpt><trkpt lat="36.76898321588516" lon="-107.98825610902819"><ele>1822.5</ele><time>2026-04-11T16:50:31Z</time></trkpt><trkpt lat="36.76893096349646" lon="-107.9882089410094"><ele>1822.6666666666665</ele><time>2026-04-11T16:50:32Z</time></trkpt><trkpt lat="36.76888682119869" lon="-107.98813760136726"><ele>1822.8333333333333</ele><time>2026-04-11T16:50:33Z</time></trkpt><trkpt lat="36.768825883646116" lon="-107.98808953445337"><ele>1823.0</ele><time>2026-04-11T16:50:34Z</time></trkpt><trkpt lat="36.7687553115995" lon="-107.98802409497121"><ele>1823.0</ele><time>2026-04-11T16:50:35Z</time></trkpt><trkpt lat="36.768655833852954" lon="-107.98795758226329"><ele>1823.0000000000002</ele><time>2026-04-11T16:50:36Z</time></trkpt><trkpt lat="36.768556487777424" lon="-107.98792676131403"><ele>1823.0000000000002</ele><time>2026-04-11T16:50:37Z</time></trkpt><trkpt lat="36.76845470268241" lon="-107.98789315970939"><ele>1823.0</ele><time>2026-04-11T16:50:38Z</time></trkpt><trkpt lat="36.768353129755084" lon="-107.98785163723731"><ele>1823.0</ele><time>2026-04-11T16:50:39Z</time></trkpt><trkpt lat="36.768268431835764" lon="-107.987832905732"><ele>1822.4</ele><time>2026-04-11T16:50:40Z</time></trkpt><trkpt lat="36.76818152466809" lon="-107.98787560742205"><ele>1821.8000000000002</ele><time>2026-04-11T16:50:41Z</time></trkpt><trkpt lat="36.768066875491925" lon="-107.98792483782232"><ele>1821.2</ele><time>2026-04-11T16:50:42Z</time></trkpt><trkpt lat="36.76797663462913" lon="-107.98797881463189"><ele>1820.6</ele><time>2026-04-11T16:50:43Z</time></trkpt><trkpt lat="36.76792597733027" lon="-107.98807823277329"><ele>1820.0</ele><time>2026-04-11T16:50:44Z</time></trkpt><trkpt lat="36.7678793700335" lon="-107.98817468330937"><ele>1820.0</ele><time>2026-04-11T16:50:45Z</time></trkpt><trkpt lat="36.767807126454386" lon="-107.98821087637909"><ele>1820.0</ele><time>2026-04-11T16:50:46Z</time></trkpt><trkpt lat="36.7677016103159" lon="-107.9882298790388"><ele>1820.0</ele><time>2026-04-11T16:50:47Z</time></trkpt><trkpt lat="36.76762405711124" lon="-107.98826439022646"><ele>1820.0</ele><time>2026-04-11T16:50:48Z</time></trkpt><trkpt lat="36.76748332902409" lon="-107.98820647916"><ele>1820.0</ele><time>2026-04-11T16:50:50Z</time></trkpt><trkpt lat="36.76738324827583" lon="-107.98814543293322"><ele>1819.8</ele><time>2026-04-11T16:50:51Z</time></trkpt><trkpt lat="36.7672846726032" lon="-107.98811051500793"><ele>1819.6</ele><time>2026-04-11T16:50:52Z</time></trkpt><trkpt lat="36.76719811810936" lon="-107.98811022974712"><ele>1819.4</ele><time>2026-04-11T16:50:53Z</time></trkpt><trkpt lat="36.767106153218045" lon="-107.98812787542018"><ele>1819.2</ele><time>2026-04-11T16:50:54Z</time></trkpt><trkpt lat="36.76700158808894" lon="-107.98812016071221"><ele>1819.0</ele><time>2026-04-11T16:50:55Z</time></trkpt><trkpt lat="36.766878446635666" lon="-107.9880931270143"><ele>1819.4</ele><time>2026-04-11T16:50:56Z</time></trkpt><trkpt lat="36.7667694144011" lon="-107.98808404438587"><ele>1819.8000000000002</ele><time>2026-04-11T16:50:57Z</time></trkpt><trkpt lat="36.76664883734284" lon="-107.98807300935756"><ele>1820.1999999999998</ele><time>2026-04-11T16:50:58Z</time></trkpt><trkpt lat="36.76653443948915" lon="-107.9880832365211"><ele>1820.6</ele><time>2026-04-11T16:50:59Z</time></trkpt><trkpt lat="36.76645232692484" lon="-107.98815681168817"><ele>1821.0</ele><time>2026-04-11T16:51:00Z</time></trkpt><trkpt lat="36.766392193246006" lon="-107.98829340723364"><ele>1820.8</ele><time>2026-04-11T16:51:01Z</time></trkpt><trkpt lat="36.766329285090855" lon="-107.98842781216746"><ele>1820.6</ele><time>2026-04-11T16:51:02Z</time></trkpt><trkpt lat="36.76624777443089" lon="-107.98852745414594"><ele>1820.4</ele><time>2026-04-11T16:51:03Z</time></trkpt><trkpt lat="36.76617553609756" lon="-107.988556731734"><ele>1820.2</ele><time>2026-04-11T16:51:04Z</time></trkpt><trkpt lat="36.76609726942523" lon="-107.98854149761046"><ele>1820.0</ele><time>2026-04-11T16:51:05Z</time></trkpt><trkpt lat="36.765983369543136" lon="-107.98852368211585"><ele>1820.0</ele><time>2026-04-11T16:51:06Z</time></trkpt><trkpt lat="36.76588362088409" lon="-107.98848800990835"><ele>1820.0</ele><time>2026-04-11T16:51:07Z</time></trkpt><trkpt lat="36.76579219122427" lon="-107.98846520890936"><ele>1820.0</ele><time>2026-04-11T16:51:08Z</time></trkpt><trkpt lat="36.76570262947725" lon="-107.98848287445509"><ele>1820.0</ele><time>2026-04-11T16:51:09Z</time></trkpt><trkpt lat="36.76561418928551" lon="-107.98853889407093"><ele>1820.0</ele><time>2026-04-11T16:51:10Z</time></trkpt><trkpt lat="36.7655401128363" lon="-107.98861183950173"><ele>1820.0</ele><time>2026-04-11T16:51:11Z</time></trkpt><trkpt lat="36.76548452301599" lon="-107.98872438260513"><ele>1820.0</ele><time>2026-04-11T16:51:12Z</time></trkpt><trkpt lat="36.76544896476982" lon="-107.98882629439589"><ele>1820.0</ele><time>2026-04-11T16:51:13Z</time></trkpt><trkpt lat="36.76540675748129" lon="-107.9889141604584"><ele>1820.0</ele><time>2026-04-11T16:51:14Z</time></trkpt><trkpt lat="36.76528062715596" lon="-107.98893321985844"><ele>1820.0</ele><time>2026-04-11T16:51:16Z</time></trkpt><trkpt lat="36.76515456409307" lon="-107.98897887214085"><ele>1819.8</ele><time>2026-04-11T16:51:17Z</time></trkpt><trkpt lat="36.765053668497096" lon="-107.98898829848416"><ele>1819.6</ele><time>2026-04-11T16:51:18Z</time></trkpt><trkpt lat="36.764942276720454" lon="-107.9889522661692"><ele>1819.4</ele><time>2026-04-11T16:51:19Z</time></trkpt><trkpt lat="36.76481573863336" lon="-107.98892058300632"><ele>1819.2</ele><time>2026-04-11T16:51:20Z</time></trkpt><trkpt lat="36.76471296913169" lon="-107.98892361009335"><ele>1819.0</ele><time>2026-04-11T16:51:21Z</time></trkpt><trkpt lat="36.76458906951737" lon="-107.98894907697886"><ele>1819.0</ele><time>2026-04-11T16:51:23Z</time></trkpt><trkpt lat="36.76449490464527" lon="-107.98888526941752"><ele>1819.0</ele><time>2026-04-11T16:51:24Z</time></trkpt><trkpt lat="36.76443109643709" lon="-107.98876878710074"><ele>1819.0</ele><time>2026-04-11T16:51:25Z</time></trkpt><trkpt lat="36.76438056853726" lon="-107.9886408576871"><ele>1819.0</ele><time>2026-04-11T16:51:26Z</time></trkpt><trkpt lat="36.76434509406068" lon="-107.98847631024633"><ele>1818.8000000000002</ele><time>2026-04-11T16:51:27Z</time></trkpt><trkpt lat="36.76429929627757" lon="-107.98831981702776"><ele>1818.6000000000001</ele><time>2026-04-11T16:51:28Z</time></trkpt><trkpt lat="36.76423360466622" lon="-107.98821008589648"><ele>1818.4</ele><time>2026-04-11T16:51:29Z</time></trkpt><trkpt lat="36.76415088040749" lon="-107.98815136589731"><ele>1818.2</ele><time>2026-04-11T16:51:30Z</time></trkpt><trkpt lat="36.764093570652356" lon="-107.98810492988133"><ele>1818.0</ele><time>2026-04-11T16:51:31Z</time></trkpt><trkpt lat="36.764043762396625" lon="-107.98815458893354"><ele>1818.0</ele><time>2026-04-11T16:51:33Z</time></trkpt><trkpt lat="36.76394762217272" lon="-107.98815432874409"><ele>1818.0000000000002</ele><time>2026-04-11T16:51:35Z</time></trkpt><trkpt lat="36.7638703334978" lon="-107.98817879774212"><ele>1818.0000000000002</ele><time>2026-04-11T16:51:37Z</time></trkpt><trkpt lat="36.76378464883436" lon="-107.98821337009214"><ele>1818.0</ele><time>2026-04-11T16:51:39Z</time></trkpt><trkpt lat="36.76367406571945" lon="-107.9882308596634"><ele>1818.0</ele><time>2026-04-11T16:51:41Z</time></trkpt><trkpt lat="36.763515524531925" lon="-107.98827796002887"><ele>1817.4</ele><time>2026-04-11T16:51:42Z</time></trkpt><trkpt lat="36.76341257329862" lon="-107.98825880424188"><ele>1816.8000000000002</ele><time>2026-04-11T16:51:43Z</time></trkpt><trkpt lat="36.76330852407936" lon="-107.98821513789439"><ele>1816.2</ele><time>2026-04-11T16:51:44Z</time></trkpt><trkpt lat="36.76320245286861" lon="-107.98818483166573"><ele>1815.6</ele><time>2026-04-11T16:51:45Z</time></trkpt><trkpt lat="36.76307908837885" lon="-107.98815966610262"><ele>1815.0</ele><time>2026-04-11T16:51:46Z</time></trkpt><trkpt lat="36.76296144594915" lon="-107.98812653041921"><ele>1815.0</ele><time>2026-04-11T16:51:47Z</time></trkpt><trkpt lat="36.76284988067702" lon="-107.98808227081823"><ele>1815.0</ele><time>2026-04-11T16:51:48Z</time></trkpt><trkpt lat="36.76273030593509" lon="-107.98806665968448"><ele>1815.0</ele><time>2026-04-11T16:51:49Z</time></trkpt><trkpt lat="36.76261685818842" lon="-107.98806326425697"><ele>1815.0</ele><time>2026-04-11T16:51:50Z</time></trkpt><trkpt lat="36.76250956622636" lon="-107.98803186346638"><ele>1815.0</ele><time>2026-04-11T16:51:51Z</time></trkpt><trkpt lat="36.76241846023715" lon="-107.9879528083251"><ele>1815.0</ele><time>2026-04-11T16:51:52Z</time></trkpt><trkpt lat="36.76230090120588" lon="-107.98788934814138"><ele>1815.0</ele><time>2026-04-11T16:51:53Z</time></trkpt><trkpt lat="36.762168701003056" lon="-107.987886076146"><ele>1815.0</ele><time>2026-04-11T16:51:54Z</time></trkpt><trkpt lat="36.76203822803076" lon="-107.98790299308854"><ele>1815.0</ele><time>2026-04-11T16:51:55Z</time></trkpt><trkpt lat="36.76192045535695" lon="-107.98793049974766"><ele>1815.0</ele><time>2026-04-11T16:51:56Z</time></trkpt><trkpt lat="36.76184328432447" lon="-107.98798560751226"><ele>1815.0</ele><time>2026-04-11T16:51:57Z</time></trkpt><trkpt lat="36.76173760184704" lon="-107.98805220909344"><ele>1815.0</ele><time>2026-04-11T16:51:58Z</time></trkpt><trkpt lat="36.761647658050435" lon="-107.98813301993478"><ele>1815.0</ele><time>2026-04-11T16:51:59Z</time></trkpt><trkpt lat="36.761585398734006" lon="-107.98821565329293"><ele>1815.0</ele><time>2026-04-11T16:52:00Z</time></trkpt><trkpt lat="36.76151173796737" lon="-107.98827669515362"><ele>1815.0</ele><time>2026-04-11T16:52:01Z</time></trkpt><trkpt lat="36.76144038400027" lon="-107.9883402699936"><ele>1815.0</ele><time>2026-04-11T16:52:02Z</time></trkpt><trkpt lat="36.761368457050246" lon="-107.98836654406706"><ele>1815.0</ele><time>2026-04-11T16:52:03Z</time></trkpt><trkpt lat="36.76128354752931" lon="-107.9883637142065"><ele>1815.0</ele><time>2026-04-11T16:52:04Z</time></trkpt><trkpt lat="36.76119242535976" lon="-107.98839621164409"><ele>1815.0</ele><time>2026-04-11T16:52:06Z</time></trkpt><trkpt lat="36.76117971513267" lon="-107.98848017699157"><ele>1815.0</ele><time>2026-04-11T16:52:18Z</time></trkpt><trkpt lat="36.76113607065333" lon="-107.98857694234584"><ele>1815.0</ele><time>2026-04-11T16:52:23Z</time></trkpt><trkpt lat="36.76106859056302" lon="-107.98863774529016"><ele>1815.0</ele><time>2026-04-11T16:52:26Z</time></trkpt><trkpt lat="36.76102972227759" lon="-107.98870905655471"><ele>1815.0</ele><time>2026-04-11T16:52:30Z</time></trkpt><trkpt lat="36.76093390799072" lon="-107.9887161275895"><ele>1815.0</ele><time>2026-04-11T16:52:32Z</time></trkpt><trkpt lat="36.76083334969799" lon="-107.98873329552663"><ele>1815.0</ele><time>2026-04-11T16:52:33Z</time></trkpt><trkpt lat="36.760728569577616" lon="-107.98875845690576"><ele>1814.75</ele><time>2026-04-11T16:52:34Z</time></trkpt><trkpt lat="36.76062255397669" lon="-107.98877404801695"><ele>1814.5</ele><time>2026-04-11T16:52:35Z</time></trkpt><trkpt lat="36.76051087214085" lon="-107.98876037609435"><ele>1814.25</ele><time>2026-04-11T16:52:36Z</time></trkpt><trkpt lat="36.760395168280965" lon="-107.98872344214183"><ele>1814.0</ele><time>2026-04-11T16:52:37Z</time></trkpt><trkpt lat="36.76028497015173" lon="-107.9886786469062"><ele>1812.75</ele><time>2026-04-11T16:52:38Z</time></trkpt><trkpt lat="36.76017401414381" lon="-107.98866826333781"><ele>1811.5</ele><time>2026-04-11T16:52:39Z</time></trkpt><trkpt lat="36.760059061961975" lon="-107.98864314770024"><ele>1810.25</ele><time>2026-04-11T16:52:40Z</time></trkpt><trkpt lat="36.75995687176967" lon="-107.98859012978949"><ele>1809.0</ele><time>2026-04-11T16:52:41Z</time></trkpt><trkpt lat="36.75985148184344" lon="-107.98851675367304"><ele>1809.0</ele><time>2026-04-11T16:52:42Z</time></trkpt><trkpt lat="36.75974400438733" lon="-107.988447840861"><ele>1809.0</ele><time>2026-04-11T16:52:43Z</time></trkpt><trkpt lat="36.75964118889756" lon="-107.98836040547174"><ele>1809.0</ele><time>2026-04-11T16:52:44Z</time></trkpt><trkpt lat="36.759547456418474" lon="-107.98826261726045"><ele>1809.0</ele><time>2026-04-11T16:52:45Z</time></trkpt><trkpt lat="36.75945936605309" lon="-107.98816620395662"><ele>1809.0</ele><time>2026-04-11T16:52:46Z</time></trkpt><trkpt lat="36.75937070707881" lon="-107.98808655020298"><ele>1809.0</ele><time>2026-04-11T16:52:47Z</time></trkpt><trkpt lat="36.759285407650374" lon="-107.98805361429537"><ele>1809.0</ele><time>2026-04-11T16:52:48Z</time></trkpt><trkpt lat="36.75918443469117" lon="-107.98806600605685"><ele>1809.0</ele><time>2026-04-11T16:52:49Z</time></trkpt><trkpt lat="36.759047569531205" lon="-107.98808907774684"><ele>1809.0</ele><time>2026-04-11T16:52:50Z</time></trkpt><trkpt lat="36.75891810274863" lon="-107.98808205660472"><ele>1809.0</ele><time>2026-04-11T16:52:51Z</time></trkpt><trkpt lat="36.75879663202372" lon="-107.98806851136648"><ele>1809.0</ele><time>2026-04-11T16:52:52Z</time></trkpt><trkpt lat="36.75867914652994" lon="-107.98804735853007"><ele>1809.0</ele><time>2026-04-11T16:52:53Z</time></trkpt><trkpt lat="36.758557043356625" lon="-107.98803825582225"><ele>1809.0</ele><time>2026-04-11T16:52:54Z</time></trkpt><trkpt lat="36.7584330628779" lon="-107.98802966086177"><ele>1808.4</ele><time>2026-04-11T16:52:55Z</time></trkpt><trkpt lat="36.75831843255276" lon="-107.9880329618874"><ele>1807.8000000000002</ele><time>2026-04-11T16:52:56Z</time></trkpt><trkpt lat="36.75819506712894" lon="-107.9880359517812"><ele>1807.1999999999998</ele><time>2026-04-11T16:52:57Z</time></trkpt><trkpt lat="36.75808615610065" lon="-107.9880408550672"><ele>1806.6</ele><time>2026-04-11T16:52:58Z</time></trkpt><trkpt lat="36.758000280330116" lon="-107.98805313233052"><ele>1806.0</ele><time>2026-04-11T16:52:59Z</time></trkpt><trkpt lat="36.75793285326707" lon="-107.98815166788549"><ele>1806.0</ele><time>2026-04-11T16:53:01Z</time></trkpt><trkpt lat="36.75792120705349" lon="-107.98824414315267"><ele>1806.0</ele><time>2026-04-11T16:53:02Z</time></trkpt><trkpt lat="36.75785426462912" lon="-107.98833460792011"><ele>1806.0</ele><time>2026-04-11T16:53:03Z</time></trkpt><trkpt lat="36.75777278158938" lon="-107.98835283138474"><ele>1806.0</ele><time>2026-04-11T16:53:04Z</time></trkpt><trkpt lat="36.75769165414783" lon="-107.98835479452322"><ele>1806.0</ele><time>2026-04-11T16:53:05Z</time></trkpt><trkpt lat="36.75762305994803" lon="-107.98837783674838"><ele>1806.0</ele><time>2026-04-11T16:53:06Z</time></trkpt><trkpt lat="36.75751484927575" lon="-107.98850344786268"><ele>1805.4</ele><time>2026-04-11T16:53:08Z</time></trkpt><trkpt lat="36.75744885221529" lon="-107.98858695313577"><ele>1804.8</ele><time>2026-04-11T16:53:09Z</time></trkpt><trkpt lat="36.75737220721497" lon="-107.9886909334694"><ele>1804.2000000000003</ele><time>2026-04-11T16:53:10Z</time></trkpt><trkpt lat="36.7573344271111" lon="-107.98878487550724"><ele>1803.6000000000001</ele><time>2026-04-11T16:53:11Z</time></trkpt><trkpt lat="36.757275728257746" lon="-107.98883601084735"><ele>1803.0</ele><time>2026-04-11T16:53:12Z</time></trkpt><trkpt lat="36.757181674213925" lon="-107.98882527048484"><ele>1803.0</ele><time>2026-04-11T16:53:13Z</time></trkpt><trkpt lat="36.75710846763294" lon="-107.98883759611901"><ele>1803.0</ele><time>2026-04-11T16:53:14Z</time></trkpt><trkpt lat="36.75705439793361" lon="-107.98890640160103"><ele>1803.0</ele><time>2026-04-11T16:53:15Z</time></trkpt><trkpt lat="36.75700716455269" lon="-107.98898324034249"><ele>1803.0</ele><time>2026-04-11T16:53:16Z</time></trkpt><trkpt lat="36.75692910562296" lon="-107.9890769820231"><ele>1803.0</ele><time>2026-04-11T16:53:18Z</time></trkpt><trkpt lat="36.75691795350424" lon="-107.98917233891868"><ele>1803.0</ele><time>2026-04-11T16:53:19Z</time></trkpt><trkpt lat="36.75688195783193" lon="-107.98928883302611"><ele>1802.5</ele><time>2026-04-11T16:53:20Z</time></trkpt><trkpt lat="36.756808121202916" lon="-107.98936907228644"><ele>1802.0</ele><time>2026-04-11T16:53:21Z</time></trkpt><trkpt lat="36.75673149620349" lon="-107.98940555493087"><ele>1801.5</ele><time>2026-04-11T16:53:23Z</time></trkpt><trkpt lat="36.756673852108285" lon="-107.98944666604416"><ele>1801.0</ele><time>2026-04-11T16:53:24Z</time></trkpt><trkpt lat="36.756617147638714" lon="-107.98950238996021"><ele>1800.5</ele><time>2026-04-11T16:53:25Z</time></trkpt><trkpt lat="36.75655815258993" lon="-107.98957467126364"><ele>1800.0</ele><time>2026-04-11T16:53:26Z</time></trkpt><trkpt lat="36.75647924113903" lon="-107.98964361153685"><ele>1800.0</ele><time>2026-04-11T16:53:27Z</time></trkpt><trkpt lat="36.756416183534775" lon="-107.98970554352756"><ele>1800.0</ele><time>2026-04-11T16:53:28Z</time></trkpt><trkpt lat="36.75634254570542" lon="-107.98973704703324"><ele>1800.0</ele><time>2026-04-11T16:53:29Z</time></trkpt><trkpt lat="36.756257784141646" lon="-107.98973788328757"><ele>1800.0</ele><time>2026-04-11T16:53:31Z</time></trkpt><trkpt lat="36.756166188119984" lon="-107.98984616199238"><ele>1800.0</ele><time>2026-04-11T16:53:33Z</time></trkpt><trkpt lat="36.75604466737032" lon="-107.98990508095486"><ele>1799.5</ele><time>2026-04-11T16:53:35Z</time></trkpt><trkpt lat="36.75594433303881" lon="-107.98993124477363"><ele>1799.0</ele><time>2026-04-11T16:53:36Z</time></trkpt><trkpt lat="36.75584618747483" lon="-107.98997782911003"><ele>1798.5</ele><time>2026-04-11T16:53:37Z</time></trkpt><trkpt lat="36.755758161118514" lon="-107.99000054341165"><ele>1798.0</ele><time>2026-04-11T16:53:38Z</time></trkpt><trkpt lat="36.75568462326375" lon="-107.9900046447256"><ele>1797.5</ele><time>2026-04-11T16:53:39Z</time></trkpt><trkpt lat="36.75561765763436" lon="-107.9900408194498"><ele>1797.0</ele><time>2026-04-11T16:53:40Z</time></trkpt><trkpt lat="36.755549879691" lon="-107.99011588097103"><ele>1797.0</ele><time>2026-04-11T16:53:42Z</time></trkpt><trkpt lat="36.755485562334215" lon="-107.99005649382109"><ele>1796.9999999999998</ele><time>2026-04-11T16:53:43Z</time></trkpt><trkpt lat="36.755412153132184" lon="-107.98995628044558"><ele>1796.9999999999998</ele><time>2026-04-11T16:53:44Z</time></trkpt><trkpt lat="36.75532433629863" lon="-107.9898420099162"><ele>1797.0</ele><time>2026-04-11T16:53:45Z</time></trkpt><trkpt lat="36.755239879464625" lon="-107.98976049151871"><ele>1797.0</ele><time>2026-04-11T16:53:46Z</time></trkpt><trkpt lat="36.75517549817198" lon="-107.98969373226949"><ele>1796.3999999999999</ele><time>2026-04-11T16:53:47Z</time></trkpt><trkpt lat="36.75512775810092" lon="-107.98960585745868"><ele>1795.7999999999997</ele><time>2026-04-11T16:53:48Z</time></trkpt><trkpt lat="36.755080637172064" lon="-107.98952210360673"><ele>1795.2</ele><time>2026-04-11T16:53:49Z</time></trkpt><trkpt lat="36.755004465680656" lon="-107.989474601071"><ele>1794.6</ele><time>2026-04-11T16:53:50Z</time></trkpt><trkpt lat="36.7548923478524" lon="-107.98934455356245"><ele>1794.0</ele><time>2026-04-11T16:53:53Z</time></trkpt><trkpt lat="36.75481610875237" lon="-107.98927109039822"><ele>1794.0</ele><time>2026-04-11T16:53:54Z</time></trkpt><trkpt lat="36.75472455675253" lon="-107.9891989518996"><ele>1794.0</ele><time>2026-04-11T16:53:55Z</time></trkpt><trkpt lat="36.75464723418403" lon="-107.98913701782223"><ele>1794.0</ele><time>2026-04-11T16:53:56Z</time></trkpt><trkpt lat="36.754581123288204" lon="-107.98909640627956"><ele>1794.0</ele><time>2026-04-11T16:53:57Z</time></trkpt><trkpt lat="36.754516530556835" lon="-107.9890820524531"><ele>1794.0</ele><time>2026-04-11T16:53:58Z</time></trkpt><trkpt lat="36.75443599942508" lon="-107.9891088426256"><ele>1794.0</ele><time>2026-04-11T16:53:59Z</time></trkpt><trkpt lat="36.75434644684109" lon="-107.98916697932135"><ele>1793.6</ele><time>2026-04-11T16:54:00Z</time></trkpt><trkpt lat="36.75426433632381" lon="-107.98922729216221"><ele>1793.2</ele><time>2026-04-11T16:54:01Z</time></trkpt><trkpt lat="36.75417811514487" lon="-107.98929273994065"><ele>1792.7999999999997</ele><time>2026-04-11T16:54:02Z</time></trkpt><trkpt lat="36.75409837148934" lon="-107.98939686071908"><ele>1792.3999999999999</ele><time>2026-04-11T16:54:03Z</time></trkpt><trkpt lat="36.7540323144991" lon="-107.98949925016852"><ele>1792.0</ele><time>2026-04-11T16:54:04Z</time></trkpt><trkpt lat="36.753915350794145" lon="-107.9895753077485"><ele>1792.0</ele><time>2026-04-11T16:54:06Z</time></trkpt><trkpt lat="36.75382630364902" lon="-107.98952925418283"><ele>1791.9999999999998</ele><time>2026-04-11T16:54:07Z</time></trkpt><trkpt lat="36.75374443491727" lon="-107.98944787800879"><ele>1791.9999999999998</ele><time>2026-04-11T16:54:08Z</time></trkpt><trkpt lat="36.753651007543674" lon="-107.98935972768336"><ele>1792.0</ele><time>2026-04-11T16:54:09Z</time></trkpt><trkpt lat="36.75359498296682" lon="-107.98925041108498"><ele>1792.0</ele><time>2026-04-11T16:54:10Z</time></trkpt><trkpt lat="36.75350620536023" lon="-107.98914538950902"><ele>1791.0</ele><time>2026-04-11T16:54:12Z</time></trkpt><trkpt lat="36.75343084080639" lon="-107.98907441415629"><ele>1789.9999999999998</ele><time>2026-04-11T16:54:13Z</time></trkpt><trkpt lat="36.7533714842009" lon="-107.98902236875014"><ele>1788.9999999999998</ele><time>2026-04-11T16:54:15Z</time></trkpt><trkpt lat="36.753252256426926" lon="-107.98899820115285"><ele>1788.0</ele><time>2026-04-11T16:54:17Z</time></trkpt><trkpt lat="36.753182859129744" lon="-107.989068075422"><ele>1787.0</ele><time>2026-04-11T16:54:18Z</time></trkpt><trkpt lat="36.75309147381021" lon="-107.98917089994333"><ele>1786.8</ele><time>2026-04-11T16:54:19Z</time></trkpt><trkpt lat="36.75297857859319" lon="-107.98927865882399"><ele>1786.6</ele><time>2026-04-11T16:54:20Z</time></trkpt><trkpt lat="36.75287900139653" lon="-107.98931804798137"><ele>1786.3999999999999</ele><time>2026-04-11T16:54:21Z</time></trkpt><trkpt lat="36.752802993961964" lon="-107.9893458138816"><ele>1786.1999999999998</ele><time>2026-04-11T16:54:22Z</time></trkpt><trkpt lat="36.75272414634414" lon="-107.9893874481507"><ele>1786.0</ele><time>2026-04-11T16:54:23Z</time></trkpt><trkpt lat="36.75264314636138" lon="-107.989453448102"><ele>1784.8333333333335</ele><time>2026-04-11T16:54:24Z</time></trkpt><trkpt lat="36.75257829391114" lon="-107.98951199910644"><ele>1783.6666666666667</ele><time>2026-04-11T16:54:25Z</time></trkpt><trkpt lat="36.75253074581167" lon="-107.98956556761881"><ele>1782.5</ele><time>2026-04-11T16:54:26Z</time></trkpt><trkpt lat="36.75246578022896" lon="-107.98966728251241"><ele>1781.3333333333335</ele><time>2026-04-11T16:54:28Z</time></trkpt><trkpt lat="36.75238123861297" lon="-107.98966698823892"><ele>1780.1666666666667</ele><time>2026-04-11T16:54:30Z</time></trkpt><trkpt lat="36.75226664074339" lon="-107.98965108169506"><ele>1779.0</ele><time>2026-04-11T16:54:32Z</time></trkpt><trkpt lat="36.752161084904884" lon="-107.9896070543389"><ele>1779.0</ele><time>2026-04-11T16:54:34Z</time></trkpt><trkpt lat="36.75209920669264" lon="-107.9895779238781"><ele>1779.0</ele><time>2026-04-11T16:54:35Z</time></trkpt><trkpt lat="36.752025633995046" lon="-107.9895495032074"><ele>1779.0</ele><time>2026-04-11T16:54:36Z</time></trkpt><trkpt lat="36.75193909984003" lon="-107.98949436786712"><ele>1779.0</ele><time>2026-04-11T16:54:38Z</time></trkpt><trkpt lat="36.75188846292892" lon="-107.98955048533814"><ele>1779.0</ele><time>2026-04-11T16:55:17Z</time></trkpt><trkpt lat="36.751952656490204" lon="-107.98957013245109"><ele>1779.0</ele><time>2026-04-11T16:55:21Z</time></trkpt><trkpt lat="36.75201652663907" lon="-107.98957372788001"><ele>1779.0</ele><time>2026-04-11T16:55:30Z</time></trkpt><trkpt lat="36.752078997241405" lon="-107.98954988592878"><ele>1779.0</ele><time>2026-04-11T16:55:32Z</time></trkpt><trkpt lat="36.752155223986065" lon="-107.98961918732182"><ele>1779.0</ele><time>2026-04-11T16:55:34Z</time></trkpt><trkpt lat="36.75222161275175" lon="-107.98967355588576"><ele>1779.0</ele><time>2026-04-11T16:55:37Z</time></trkpt><trkpt lat="36.752223231504786" lon="-107.98979787060262"><ele>1779.0</ele><time>2026-04-11T16:55:39Z</time></trkpt><trkpt lat="36.75221487033829" lon="-107.98993687428886"><ele>1779.0</ele><time>2026-04-11T16:55:40Z</time></trkpt><trkpt lat="36.752179724176116" lon="-107.99009569020421"><ele>1778.1666666666667</ele><time>2026-04-11T16:55:41Z</time></trkpt><trkpt lat="36.75215776285158" lon="-107.99024886333669"><ele>1777.3333333333335</ele><time>2026-04-11T16:55:42Z</time></trkpt><trkpt lat="36.75216487952244" lon="-107.99034781589897"><ele>1776.5</ele><time>2026-04-11T16:55:43Z</time></trkpt><trkpt lat="36.75222145515515" lon="-107.99041641426882"><ele>1775.6666666666667</ele><time>2026-04-11T16:55:44Z</time></trkpt><trkpt lat="36.75228576628695" lon="-107.99040123173457"><ele>1774.8333333333335</ele><time>2026-04-11T16:55:45Z</time></trkpt><trkpt lat="36.75232699353057" lon="-107.99033561381584"><ele>1774.0</ele><time>2026-04-11T16:55:46Z</time></trkpt><trkpt lat="36.75238861586979" lon="-107.99027742465128"><ele>1774.0</ele><time>2026-04-11T16:55:47Z</time></trkpt><trkpt lat="36.75249772025633" lon="-107.99020782667795"><ele>1774.0</ele><time>2026-04-11T16:55:48Z</time></trkpt><trkpt lat="36.752563626164175" lon="-107.99017721733743"><ele>1774.0</ele><time>2026-04-11T16:55:49Z</time></trkpt><trkpt lat="36.75263528272689" lon="-107.99011350288403"><ele>1774.0</ele><time>2026-04-11T16:55:51Z</time></trkpt><trkpt lat="36.75272586128028" lon="-107.99006270951642"><ele>1774.0</ele><time>2026-04-11T16:55:52Z</time></trkpt><trkpt lat="36.75281710092985" lon="-107.9899952180432"><ele>1776.0000000000002</ele><time>2026-04-11T16:55:53Z</time></trkpt><trkpt lat="36.75289594937235" lon="-107.98994407704159"><ele>1778.0</ele><time>2026-04-11T16:55:54Z</time></trkpt><trkpt lat="36.75296772241123" lon="-107.98990823457294"><ele>1780.0</ele><time>2026-04-11T16:55:55Z</time></trkpt><trkpt lat="36.75303311709588" lon="-107.98986121852856"><ele>1782.0</ele><time>2026-04-11T16:55:56Z</time></trkpt><trkpt lat="36.75302011577167" lon="-107.98978050774426"><ele>1784.0000000000002</ele><time>2026-04-11T16:55:57Z</time></trkpt><trkpt lat="36.75289300982786" lon="-107.9897794475245"><ele>1786.0</ele><time>2026-04-11T16:55:58Z</time></trkpt><trkpt lat="36.75280823904361" lon="-107.98977093510477"><ele>1786.0000000000002</ele><time>2026-04-11T16:55:59Z</time></trkpt><trkpt lat="36.75271096745548" lon="-107.98979015303235"><ele>1786.0</ele><time>2026-04-11T16:56:00Z</time></trkpt><trkpt lat="36.75259914826596" lon="-107.98980947710992"><ele>1786.0</ele><time>2026-04-11T16:56:01Z</time></trkpt><trkpt lat="36.752520121728175" lon="-107.98983198750103"><ele>1786.0</ele><time>2026-04-11T16:56:02Z</time></trkpt><trkpt lat="36.75245366174523" lon="-107.98986635082203"><ele>1786.0000000000002</ele><time>2026-04-11T16:56:03Z</time></trkpt><trkpt lat="36.752385740520346" lon="-107.98989617555263"><ele>1786.0</ele><time>2026-04-11T16:56:04Z</time></trkpt><trkpt lat="36.75232339215723" lon="-107.98995389354818"><ele>1783.6</ele><time>2026-04-11T16:56:05Z</time></trkpt><trkpt lat="36.75226255695617" lon="-107.99004697450029"><ele>1781.1999999999998</ele><time>2026-04-11T16:56:06Z</time></trkpt><trkpt lat="36.7522108182229" lon="-107.99018255060723"><ele>1778.8000000000002</ele><time>2026-04-11T16:56:07Z</time></trkpt><trkpt lat="36.7522021828444" lon="-107.9902641473556"><ele>1776.4</ele><time>2026-04-11T16:56:08Z</time></trkpt><trkpt lat="36.75220879020677" lon="-107.99037486720059"><ele>1774.0</ele><time>2026-04-11T16:56:10Z</time></trkpt><trkpt lat="36.75231387841625" lon="-107.99036229427648"><ele>1774.0</ele><time>2026-04-11T16:56:12Z</time></trkpt><trkpt lat="36.752386456000245" lon="-107.99028368897132"><ele>1774.0</ele><time>2026-04-11T16:56:13Z</time></trkpt><trkpt lat="36.75247144722501" lon="-107.99023033417458"><ele>1774.0</ele><time>2026-04-11T16:56:14Z</time></trkpt><trkpt lat="36.752543259951" lon="-107.99018459968896"><ele>1774.0</ele><time>2026-04-11T16:56:15Z</time></trkpt><trkpt lat="36.75269887608433" lon="-107.99008784862792"><ele>1774.0</ele><time>2026-04-11T16:56:17Z</time></trkpt><trkpt lat="36.7527928958231" lon="-107.99001637805037"><ele>1776.4</ele><time>2026-04-11T16:56:18Z</time></trkpt><trkpt lat="36.752872466451564" lon="-107.98996465278293"><ele>1778.8000000000002</ele><time>2026-04-11T16:56:19Z</time></trkpt><trkpt lat="36.75294441128042" lon="-107.98992207168968"><ele>1781.1999999999998</ele><time>2026-04-11T16:56:20Z</time></trkpt><trkpt lat="36.753013009241535" lon="-107.98981606165829"><ele>1783.6</ele><time>2026-04-11T16:56:22Z</time></trkpt><trkpt lat="36.752913680868595" lon="-107.98977951979292"><ele>1786.0</ele><time>2026-04-11T16:56:23Z</time></trkpt><trkpt lat="36.752812282515166" lon="-107.98980078910257"><ele>1786.0</ele><time>2026-04-11T16:56:24Z</time></trkpt><trkpt lat="36.752707359625504" lon="-107.98982882588787"><ele>1786.0</ele><time>2026-04-11T16:56:25Z</time></trkpt><trkpt lat="36.7526034839097" lon="-107.9898422861655"><ele>1786.0</ele><time>2026-04-11T16:56:26Z</time></trkpt><trkpt lat="36.752488433903764" lon="-107.989857272953"><ele>1786.0</ele><time>2026-04-11T16:56:27Z</time></trkpt><trkpt lat="36.75239612135472" lon="-107.98987760094788"><ele>1786.0</ele><time>2026-04-11T16:56:28Z</time></trkpt><trkpt lat="36.752320029884594" lon="-107.98991067697344"><ele>1784.8333333333335</ele><time>2026-04-11T16:56:29Z</time></trkpt><trkpt lat="36.752256647220094" lon="-107.98997934602487"><ele>1783.6666666666667</ele><time>2026-04-11T16:56:30Z</time></trkpt><trkpt lat="36.75221935018901" lon="-107.99007732250021"><ele>1782.5</ele><time>2026-04-11T16:56:31Z</time></trkpt><trkpt lat="36.752196948328034" lon="-107.99019870077157"><ele>1781.3333333333335</ele><time>2026-04-11T16:56:32Z</time></trkpt><trkpt lat="36.75218702085715" lon="-107.99029647401201"><ele>1780.1666666666667</ele><time>2026-04-11T16:56:33Z</time></trkpt><trkpt lat="36.75221198214025" lon="-107.99040270232439"><ele>1779.0</ele><time>2026-04-11T16:56:35Z</time></trkpt><trkpt lat="36.75228051329617" lon="-107.99039412331408"><ele>1778.0</ele><time>2026-04-11T16:56:36Z</time></trkpt><trkpt lat="36.75234134052374" lon="-107.99033115393883"><ele>1777.0</ele><time>2026-04-11T16:56:37Z</time></trkpt><trkpt lat="36.752407822284646" lon="-107.99025940851351"><ele>1776.0</ele><time>2026-04-11T16:56:38Z</time></trkpt><trkpt lat="36.75249921991759" lon="-107.99019250921451"><ele>1775.0</ele><time>2026-04-11T16:56:39Z</time></trkpt><trkpt lat="36.75259145749334" lon="-107.99015138677407"><ele>1774.0</ele><time>2026-04-11T16:56:40Z</time></trkpt><trkpt lat="36.75266318894819" lon="-107.99010907203409"><ele>1775.0000000000002</ele><time>2026-04-11T16:56:41Z</time></trkpt><trkpt lat="36.752761174609034" lon="-107.99004260070087"><ele>1776.0</ele><time>2026-04-11T16:56:42Z</time></trkpt><trkpt lat="36.75283428187793" lon="-107.98998895356513"><ele>1777.0</ele><time>2026-04-11T16:56:43Z</time></trkpt><trkpt lat="36.752898780511565" lon="-107.9899380321292"><ele>1778.0</ele><time>2026-04-11T16:56:44Z</time></trkpt><trkpt lat="36.7529707406935" lon="-107.98991398320746"><ele>1779.0000000000002</ele><time>2026-04-11T16:56:45Z</time></trkpt><trkpt lat="36.7529998205004" lon="-107.98979266584402"><ele>1780.0</ele><time>2026-04-11T16:56:47Z</time></trkpt><trkpt lat="36.75290194135035" lon="-107.98972897594669"><ele>1779.8</ele><time>2026-04-11T16:56:48Z</time></trkpt><trkpt lat="36.75278205100233" lon="-107.98977823788775"><ele>1779.6</ele><time>2026-04-11T16:56:49Z</time></trkpt><trkpt lat="36.75268002825759" lon="-107.98983018571718"><ele>1779.4</ele><time>2026-04-11T16:56:50Z</time></trkpt><trkpt lat="36.75257648861488" lon="-107.98981984269797"><ele>1779.2</ele><time>2026-04-11T16:56:51Z</time></trkpt><trkpt lat="36.75248574773043" lon="-107.98984158458146"><ele>1779.0</ele><time>2026-04-11T16:56:52Z</time></trkpt><trkpt lat="36.75241102732576" lon="-107.98986484422977"><ele>1779.0</ele><time>2026-04-11T16:56:53Z</time></trkpt><trkpt lat="36.75232943381848" lon="-107.98990362955847"><ele>1779.0</ele><time>2026-04-11T16:56:54Z</time></trkpt><trkpt lat="36.75225631108363" lon="-107.98996722661607"><ele>1779.0</ele><time>2026-04-11T16:56:55Z</time></trkpt><trkpt lat="36.75219252438776" lon="-107.99006258926325"><ele>1779.0</ele><time>2026-04-11T16:56:56Z</time></trkpt><trkpt lat="36.75217221711004" lon="-107.99016140028976"><ele>1779.0</ele><time>2026-04-11T16:56:57Z</time></trkpt><trkpt lat="36.75217936849808" lon="-107.99026928110587"><ele>1779.0</ele><time>2026-04-11T16:56:58Z</time></trkpt><trkpt lat="36.75221212892046" lon="-107.9903487868406"><ele>1778.0</ele><time>2026-04-11T16:56:59Z</time></trkpt><trkpt lat="36.75232543260601" lon="-107.99038795708536"><ele>1777.0</ele><time>2026-04-11T16:57:01Z</time></trkpt><trkpt lat="36.75239886584642" lon="-107.99031974739769"><ele>1776.0</ele><time>2026-04-11T16:57:02Z</time></trkpt><trkpt lat="36.75245835342459" lon="-107.9902128769622"><ele>1775.0</ele><time>2026-04-11T16:57:03Z</time></trkpt><trkpt lat="36.75254363430009" lon="-107.99014875887151"><ele>1774.0</ele><time>2026-04-11T16:57:04Z</time></trkpt><trkpt lat="36.752613159124714" lon="-107.99011483231307"><ele>1775.2</ele><time>2026-04-11T16:57:05Z</time></trkpt><trkpt lat="36.752715737673114" lon="-107.99004851572413"><ele>1776.4</ele><time>2026-04-11T16:57:06Z</time></trkpt><trkpt lat="36.752794360814704" lon="-107.98998724542318"><ele>1777.6</ele><time>2026-04-11T16:57:07Z</time></trkpt><trkpt lat="36.75287120466008" lon="-107.9899269512387"><ele>1778.8</ele><time>2026-04-11T16:57:08Z</time></trkpt><trkpt lat="36.75294102878065" lon="-107.98989714380342"><ele>1780.0</ele><time>2026-04-11T16:57:09Z</time></trkpt><trkpt lat="36.75299355865067" lon="-107.98982278878051"><ele>1779.8</ele><time>2026-04-11T16:57:11Z</time></trkpt><trkpt lat="36.75292032169454" lon="-107.98976933646662"><ele>1779.6</ele><time>2026-04-11T16:57:12Z</time></trkpt><trkpt lat="36.75281087910097" lon="-107.98978560182283"><ele>1779.4</ele><time>2026-04-11T16:57:13Z</time></trkpt><trkpt lat="36.75270061081167" lon="-107.98981422301496"><ele>1779.2</ele><time>2026-04-11T16:57:14Z</time></trkpt><trkpt lat="36.752611622042075" lon="-107.9898271575736"><ele>1779.0</ele><time>2026-04-11T16:57:15Z</time></trkpt><trkpt lat="36.75252222069196" lon="-107.98984710217174"><ele>1779.0</ele><time>2026-04-11T16:57:16Z</time></trkpt><trkpt lat="36.752460078885164" lon="-107.98986531428554"><ele>1779.0</ele><time>2026-04-11T16:57:17Z</time></trkpt><trkpt lat="36.75238619718658" lon="-107.98984069265113"><ele>1779.0</ele><time>2026-04-11T16:57:20Z</time></trkpt><trkpt lat="36.75233597824701" lon="-107.98977023726138"><ele>1779.0</ele><time>2026-04-11T16:57:22Z</time></trkpt><trkpt lat="36.75236510843827" lon="-107.9896976244809"><ele>1779.0</ele><time>2026-04-11T16:57:24Z</time></trkpt><trkpt lat="36.75242838163431" lon="-107.98963372620865"><ele>1779.0</ele><time>2026-04-11T16:57:27Z</time></trkpt><trkpt lat="36.75253210379139" lon="-107.98959848237581"><ele>1779.0</ele><time>2026-04-11T16:57:29Z</time></trkpt><trkpt lat="36.75260448654847" lon="-107.98948398257738"><ele>1779.0</ele><time>2026-04-11T16:57:31Z</time></trkpt><trkpt lat="36.7526908610164" lon="-107.9894206544459"><ele>1779.0</ele><time>2026-04-11T16:57:33Z</time></trkpt><trkpt lat="36.75274761871994" lon="-107.98935735892277"><ele>1779.0</ele><time>2026-04-11T16:57:35Z</time></trkpt><trkpt lat="36.75285383359424" lon="-107.9893035927369"><ele>1779.0</ele><time>2026-04-11T16:57:37Z</time></trkpt><trkpt lat="36.752950849621044" lon="-107.98926376804319"><ele>1780.4</ele><time>2026-04-11T16:57:39Z</time></trkpt><trkpt lat="36.7530708544441" lon="-107.98919466855762"><ele>1781.8000000000002</ele><time>2026-04-11T16:57:41Z</time></trkpt><trkpt lat="36.75313474987636" lon="-107.98914271948804"><ele>1783.1999999999998</ele><time>2026-04-11T16:57:42Z</time></trkpt><trkpt lat="36.75320429021028" lon="-107.98907447547815"><ele>1784.6</ele><time>2026-04-11T16:57:43Z</time></trkpt><trkpt lat="36.753281406163836" lon="-107.98900885016987"><ele>1786.0</ele><time>2026-04-11T16:57:44Z</time></trkpt><trkpt lat="36.75335413663623" lon="-107.98895506180578"><ele>1786.1999999999998</ele><time>2026-04-11T16:57:45Z</time></trkpt><trkpt lat="36.75342552022206" lon="-107.98895892396033"><ele>1786.3999999999999</ele><time>2026-04-11T16:57:47Z</time></trkpt><trkpt lat="36.75337781146511" lon="-107.98889343548427"><ele>1786.6</ele><time>2026-04-11T16:57:50Z</time></trkpt><trkpt lat="36.75329493769568" lon="-107.98879668718415"><ele>1786.8</ele><time>2026-04-11T16:57:53Z</time></trkpt><trkpt lat="36.75335311424274" lon="-107.98868068595647"><ele>1787.0</ele><time>2026-04-11T16:57:54Z</time></trkpt><trkpt lat="36.75322363993721" lon="-107.9886617034757"><ele>1787.0</ele><time>2026-04-11T16:57:56Z</time></trkpt><trkpt lat="36.75313823514842" lon="-107.98870313378768"><ele>1786.9999999999998</ele><time>2026-04-11T16:57:57Z</time></trkpt><trkpt lat="36.7530750952951" lon="-107.98872678902157"><ele>1786.9999999999998</ele><time>2026-04-11T16:57:58Z</time></trkpt><trkpt lat="36.7529541853172" lon="-107.98873112218314"><ele>1787.0</ele><time>2026-04-11T16:58:00Z</time></trkpt><trkpt lat="36.75280408258097" lon="-107.98871709324905"><ele>1787.0</ele><time>2026-04-11T16:58:02Z</time></trkpt><trkpt lat="36.75273298381024" lon="-107.98870697941075"><ele>1784.8333333333333</ele><time>2026-04-11T16:58:03Z</time></trkpt><trkpt lat="36.75265905632456" lon="-107.98867592029592"><ele>1782.6666666666665</ele><time>2026-04-11T16:58:04Z</time></trkpt><trkpt lat="36.75256070459111" lon="-107.98866298748996"><ele>1780.5</ele><time>2026-04-11T16:58:05Z</time></trkpt><trkpt lat="36.752462712231335" lon="-107.988661456452"><ele>1778.3333333333335</ele><time>2026-04-11T16:58:06Z</time></trkpt><trkpt lat="36.75238037947249" lon="-107.98865189749789"><ele>1776.1666666666667</ele><time>2026-04-11T16:58:07Z</time></trkpt><trkpt lat="36.75229073538708" lon="-107.98866353967207"><ele>1774.0</ele><time>2026-04-11T16:58:08Z</time></trkpt><trkpt lat="36.75221198915173" lon="-107.98865867621664"><ele>1774.0000000000002</ele><time>2026-04-11T16:58:09Z</time></trkpt><trkpt lat="36.75213430507791" lon="-107.9886593704747"><ele>1774.0</ele><time>2026-04-11T16:58:10Z</time></trkpt><trkpt lat="36.752060513784485" lon="-107.98865609804312"><ele>1774.0</ele><time>2026-04-11T16:58:11Z</time></trkpt><trkpt lat="36.75198708776434" lon="-107.98862894370994"><ele>1774.0</ele><time>2026-04-11T16:58:12Z</time></trkpt><trkpt lat="36.75192299132583" lon="-107.98858910581849"><ele>1774.0000000000002</ele><time>2026-04-11T16:58:13Z</time></trkpt><trkpt lat="36.75185700487313" lon="-107.98852464426122"><ele>1774.0</ele><time>2026-04-11T16:58:14Z</time></trkpt><trkpt lat="36.751779925795994" lon="-107.98847067557871"><ele>1773.6</ele><time>2026-04-11T16:58:15Z</time></trkpt><trkpt lat="36.751685297824466" lon="-107.98845786140149"><ele>1773.2</ele><time>2026-04-11T16:58:16Z</time></trkpt><trkpt lat="36.75159726237659" lon="-107.98846246310931"><ele>1772.7999999999997</ele><time>2026-04-11T16:58:17Z</time></trkpt><trkpt lat="36.75147900554402" lon="-107.98840116496386"><ele>1772.3999999999999</ele><time>2026-04-11T16:58:19Z</time></trkpt><trkpt lat="36.751397996182135" lon="-107.98829538724438"><ele>1772.0</ele><time>2026-04-11T16:58:21Z</time></trkpt><trkpt lat="36.75136601088691" lon="-107.98820541427382"><ele>1770.2857142857142</ele><time>2026-04-11T16:58:23Z</time></trkpt><trkpt lat="36.751324603964264" lon="-107.98814341535663"><ele>1768.5714285714287</ele><time>2026-04-11T16:58:25Z</time></trkpt><trkpt lat="36.7512751750976" lon="-107.98806322643354"><ele>1766.8571428571427</ele><time>2026-04-11T16:58:28Z</time></trkpt><trkpt lat="36.75119031564359" lon="-107.98801922382788"><ele>1765.142857142857</ele><time>2026-04-11T16:58:31Z</time></trkpt><trkpt lat="36.75112432960454" lon="-107.98798607661601"><ele>1763.4285714285713</ele><time>2026-04-11T16:58:35Z</time></trkpt><trkpt lat="36.7510645523228" lon="-107.98801449971292"><ele>1761.7142857142856</ele><time>2026-04-11T16:58:39Z</time></trkpt><trkpt lat="36.75113035844393" lon="-107.98805589685425"><ele>1760.0</ele><time>2026-04-11T16:58:43Z</time></trkpt><trkpt lat="36.75121320087056" lon="-107.9880369735561"><ele>1759.9999999999998</ele><time>2026-04-11T16:58:56Z</time></trkpt><trkpt lat="36.75131038990277" lon="-107.9880659485175"><ele>1760.0</ele><time>2026-04-11T16:58:58Z</time></trkpt><trkpt lat="36.75135481706393" lon="-107.98817678493073"><ele>1760.0</ele><time>2026-04-11T16:59:01Z</time></trkpt><trkpt lat="36.75141057858457" lon="-107.98826250993719"><ele>1760.0</ele><time>2026-04-11T16:59:03Z</time></trkpt><trkpt lat="36.75145582507289" lon="-107.98832186125401"><ele>1759.9999999999998</ele><time>2026-04-11T16:59:05Z</time></trkpt><trkpt lat="36.75150254185241" lon="-107.98838107180413"><ele>1760.0</ele><time>2026-04-11T16:59:07Z</time></trkpt><trkpt lat="36.75160984050248" lon="-107.98845596686677"><ele>1762.4</ele><time>2026-04-11T16:59:09Z</time></trkpt><trkpt lat="36.75169457191035" lon="-107.98845699541351"><ele>1764.8</ele><time>2026-04-11T16:59:11Z</time></trkpt><trkpt lat="36.75183617894513" lon="-107.98850435615383"><ele>1767.1999999999998</ele><time>2026-04-11T16:59:13Z</time></trkpt><trkpt lat="36.751932359576166" lon="-107.9885416856285"><ele>1769.6</ele><time>2026-04-11T16:59:14Z</time></trkpt><trkpt lat="36.7520105122065" lon="-107.98860063942351"><ele>1772.0</ele><time>2026-04-11T16:59:15Z</time></trkpt><trkpt lat="36.75205329568717" lon="-107.98865902429812"><ele>1772.3333333333333</ele><time>2026-04-11T16:59:16Z</time></trkpt><trkpt lat="36.752159199139264" lon="-107.98870115978274"><ele>1772.6666666666665</ele><time>2026-04-11T16:59:18Z</time></trkpt><trkpt lat="36.75224306516516" lon="-107.9887075403655"><ele>1773.0</ele><time>2026-04-11T16:59:19Z</time></trkpt><trkpt lat="36.75232827696489" lon="-107.98871081203364"><ele>1773.3333333333335</ele><time>2026-04-11T16:59:20Z</time></trkpt><trkpt lat="36.75240015339471" lon="-107.98870123201911"><ele>1773.6666666666667</ele><time>2026-04-11T16:59:21Z</time></trkpt><trkpt lat="36.75248745785555" lon="-107.98869031203304"><ele>1774.0</ele><time>2026-04-11T16:59:22Z</time></trkpt><trkpt lat="36.75258506192987" lon="-107.98867211492264"><ele>1774.0</ele><time>2026-04-11T16:59:23Z</time></trkpt><trkpt lat="36.75266742598501" lon="-107.98869656253196"><ele>1774.0</ele><time>2026-04-11T16:59:24Z</time></trkpt><trkpt lat="36.75277794406677" lon="-107.98874596281408"><ele>1774.0</ele><time>2026-04-11T16:59:25Z</time></trkpt><trkpt lat="36.75285674642197" lon="-107.98879858449413"><ele>1774.0</ele><time>2026-04-11T16:59:26Z</time></trkpt><trkpt lat="36.75293412775795" lon="-107.9888276318399"><ele>1774.0</ele><time>2026-04-11T16:59:27Z</time></trkpt><trkpt lat="36.75303963012268" lon="-107.9888353980766"><ele>1776.6</ele><time>2026-04-11T16:59:28Z</time></trkpt><trkpt lat="36.753155117492526" lon="-107.98878747211958"><ele>1779.2</ele><time>2026-04-11T16:59:29Z</time></trkpt><trkpt lat="36.7532635595207" lon="-107.98878380812587"><ele>1781.7999999999997</ele><time>2026-04-11T16:59:30Z</time></trkpt><trkpt lat="36.753347297449594" lon="-107.98887851043213"><ele>1784.3999999999999</ele><time>2026-04-11T16:59:32Z</time></trkpt><trkpt lat="36.753375389628104" lon="-107.9889611047508"><ele>1787.0</ele><time>2026-04-11T16:59:33Z</time></trkpt><trkpt lat="36.753400531173696" lon="-107.98908712082235"><ele>1787.0</ele><time>2026-04-11T16:59:35Z</time></trkpt><trkpt lat="36.75351322846729" lon="-107.98915673368175"><ele>1786.9999999999998</ele><time>2026-04-11T16:59:41Z</time></trkpt><trkpt lat="36.753575121530986" lon="-107.98923941273321"><ele>1786.9999999999998</ele><time>2026-04-11T16:59:42Z</time></trkpt><trkpt lat="36.75362814625762" lon="-107.98931554705744"><ele>1787.0</ele><time>2026-04-11T16:59:43Z</time></trkpt><trkpt lat="36.75368011712066" lon="-107.98938264524608"><ele>1787.0</ele><time>2026-04-11T16:59:44Z</time></trkpt><trkpt lat="36.75374035835622" lon="-107.98945480487076"><ele>1787.7142857142858</ele><time>2026-04-11T16:59:45Z</time></trkpt><trkpt lat="36.75379635350508" lon="-107.98951012838633"><ele>1788.4285714285713</ele><time>2026-04-11T16:59:46Z</time></trkpt><trkpt lat="36.7538579064308" lon="-107.98955351520758"><ele>1789.142857142857</ele><time>2026-04-11T16:59:47Z</time></trkpt><trkpt lat="36.753915526601645" lon="-107.98962407971197"><ele>1789.857142857143</ele><time>2026-04-11T16:59:49Z</time></trkpt><trkpt lat="36.753908033600624" lon="-107.98954066760557"><ele>1790.5714285714284</ele><time>2026-04-11T17:02:24Z</time></trkpt><trkpt lat="36.75384697177674" lon="-107.98951635689458"><ele>1791.2857142857142</ele><time>2026-04-11T17:02:28Z</time></trkpt><trkpt lat="36.75377339152849" lon="-107.98947151408548"><ele>1792.0</ele><time>2026-04-11T17:02:31Z</time></trkpt><trkpt lat="36.75369983224727" lon="-107.98941626420252"><ele>1792.0</ele><time>2026-04-11T17:02:32Z</time></trkpt><trkpt lat="36.753641959565094" lon="-107.98934128201456"><ele>1791.9999999999998</ele><time>2026-04-11T17:02:33Z</time></trkpt><trkpt lat="36.75359349808669" lon="-107.98927398582533"><ele>1791.9999999999998</ele><time>2026-04-11T17:02:34Z</time></trkpt><trkpt lat="36.753509567755316" lon="-107.98915692960841"><ele>1792.0</ele><time>2026-04-11T17:02:36Z</time></trkpt><trkpt lat="36.75341909197911" lon="-107.98905928554522"><ele>1792.0</ele><time>2026-04-11T17:02:38Z</time></trkpt><trkpt lat="36.753337573027025" lon="-107.98898974003536"><ele>1791.0</ele><time>2026-04-11T17:02:41Z</time></trkpt><trkpt lat="36.753245461692416" lon="-107.98901567410303"><ele>1789.9999999999998</ele><time>2026-04-11T17:02:43Z</time></trkpt><trkpt lat="36.75318753979974" lon="-107.98907673951682"><ele>1788.9999999999998</ele><time>2026-04-11T17:02:44Z</time></trkpt><trkpt lat="36.753094140561096" lon="-107.98915040309774"><ele>1788.0</ele><time>2026-04-11T17:02:45Z</time></trkpt><trkpt lat="36.75299330295614" lon="-107.98924141479219"><ele>1787.0</ele><time>2026-04-11T17:02:46Z</time></trkpt><trkpt lat="36.7528962009615" lon="-107.9893166458828"><ele>1786.8</ele><time>2026-04-11T17:02:47Z</time></trkpt><trkpt lat="36.752817377120046" lon="-107.98934957154326"><ele>1786.6</ele><time>2026-04-11T17:02:48Z</time></trkpt><trkpt lat="36.75273059449891" lon="-107.98938949680357"><ele>1786.3999999999999</ele><time>2026-04-11T17:02:49Z</time></trkpt><trkpt lat="36.752629439262556" lon="-107.98945445692888"><ele>1786.1999999999998</ele><time>2026-04-11T17:02:50Z</time></trkpt><trkpt lat="36.75254751209025" lon="-107.9895184244434"><ele>1786.0</ele><time>2026-04-11T17:02:51Z</time></trkpt><trkpt lat="36.752488463010934" lon="-107.98959225194737"><ele>1784.8333333333335</ele><time>2026-04-11T17:02:52Z</time></trkpt><trkpt lat="36.75244301905188" lon="-107.98966182920132"><ele>1783.6666666666667</ele><time>2026-04-11T17:02:53Z</time></trkpt><trkpt lat="36.75238972520256" lon="-107.98970776430966"><ele>1782.5</ele><time>2026-04-11T17:02:54Z</time></trkpt><trkpt lat="36.752302426000426" lon="-107.9896978126484"><ele>1781.3333333333335</ele><time>2026-04-11T17:02:55Z</time></trkpt><trkpt lat="36.75221514347627" lon="-107.98966248842926"><ele>1780.1666666666667</ele><time>2026-04-11T17:02:56Z</time></trkpt><trkpt lat="36.752114003672105" lon="-107.98961498639964"><ele>1779.0</ele><time>2026-04-11T17:02:57Z</time></trkpt><trkpt lat="36.75200272537403" lon="-107.98956292572659"><ele>1778.4</ele><time>2026-04-11T17:02:58Z</time></trkpt><trkpt lat="36.75187097916526" lon="-107.98951556276448"><ele>1777.8000000000002</ele><time>2026-04-11T17:02:59Z</time></trkpt><trkpt lat="36.751747825281036" lon="-107.98948904227295"><ele>1777.1999999999998</ele><time>2026-04-11T17:03:00Z</time></trkpt><trkpt lat="36.75167911482312" lon="-107.98950468546786"><ele>1776.6</ele><time>2026-04-11T17:03:01Z</time></trkpt><trkpt lat="36.75164081954267" lon="-107.98960082931052"><ele>1776.0</ele><time>2026-04-11T17:03:03Z</time></trkpt><trkpt lat="36.75157102230015" lon="-107.98969452567138"><ele>1776.0</ele><time>2026-04-11T17:03:07Z</time></trkpt><trkpt lat="36.751505002117234" lon="-107.98976681878987"><ele>1776.0</ele><time>2026-04-11T17:03:09Z</time></trkpt><trkpt lat="36.75143385924811" lon="-107.98979198911616"><ele>1776.0</ele><time>2026-04-11T17:03:12Z</time></trkpt><trkpt lat="36.75138058105898" lon="-107.98974645323237"><ele>1776.0</ele><time>2026-04-11T17:03:14Z</time></trkpt><trkpt lat="36.75141811816437" lon="-107.9896338945608"><ele>1776.0</ele><time>2026-04-11T17:03:17Z</time></trkpt><trkpt lat="36.75144165766638" lon="-107.98956076449292"><ele>1776.0</ele><time>2026-04-11T17:03:18Z</time></trkpt><trkpt lat="36.75140547110717" lon="-107.98943256114542"><ele>1776.0</ele><time>2026-04-11T17:03:20Z</time></trkpt><trkpt lat="36.75133258620939" lon="-107.98936153635927"><ele>1776.0</ele><time>2026-04-11T17:03:22Z</time></trkpt><trkpt lat="36.75128286411194" lon="-107.98929275154775"><ele>1776.0</ele><time>2026-04-11T17:03:24Z</time></trkpt><trkpt lat="36.75121149110565" lon="-107.98928143530959"><ele>1776.0</ele><time>2026-04-11T17:03:27Z</time></trkpt><trkpt lat="36.7511329763749" lon="-107.9892729031755"><ele>1776.0</ele><time>2026-04-11T17:03:30Z</time></trkpt><trkpt lat="36.750769460342916" lon="-107.98919637520925"><ele>1775.5</ele><time>2026-04-11T17:03:32Z</time></trkpt><trkpt lat="36.75062486599498" lon="-107.98915421621594"><ele>1775.0</ele><time>2026-04-11T17:03:33Z</time></trkpt><trkpt lat="36.75049820474" lon="-107.98912810255774"><ele>1774.5</ele><time>2026-04-11T17:03:34Z</time></trkpt><trkpt lat="36.75037730216396" lon="-107.98909903071261"><ele>1774.0</ele><time>2026-04-11T17:03:35Z</time></trkpt><trkpt lat="36.75028125685011" lon="-107.98906430449942"><ele>1774.5000000000002</ele><time>2026-04-11T17:03:36Z</time></trkpt><trkpt lat="36.75018547915926" lon="-107.98902015766178"><ele>1775.0</ele><time>2026-04-11T17:03:38Z</time></trkpt><trkpt lat="36.750112332225115" lon="-107.98899538291244"><ele>1775.5</ele><time>2026-04-11T17:03:39Z</time></trkpt><trkpt lat="36.75003751686157" lon="-107.9890298575299"><ele>1776.0</ele><time>2026-04-11T17:03:41Z</time></trkpt><trkpt lat="36.75003382476496" lon="-107.98912382124088"><ele>1776.5000000000002</ele><time>2026-04-11T17:03:44Z</time></trkpt><trkpt lat="36.74996664879912" lon="-107.98914493440907"><ele>1777.0</ele><time>2026-04-11T17:03:46Z</time></trkpt><trkpt lat="36.74983729030759" lon="-107.98911274214095"><ele>1777.0000000000002</ele><time>2026-04-11T17:03:48Z</time></trkpt><trkpt lat="36.749773690955124" lon="-107.98906811681431"><ele>1777.0</ele><time>2026-04-11T17:03:49Z</time></trkpt><trkpt lat="36.749713911195684" lon="-107.98900638908103"><ele>1777.0</ele><time>2026-04-11T17:03:50Z</time></trkpt><trkpt lat="36.749669371594806" lon="-107.98891143861718"><ele>1777.0</ele><time>2026-04-11T17:03:51Z</time></trkpt><trkpt lat="36.74960229830504" lon="-107.98882470945534"><ele>1777.0000000000002</ele><time>2026-04-11T17:03:52Z</time></trkpt><trkpt lat="36.74953705814372" lon="-107.98875552905156"><ele>1777.0</ele><time>2026-04-11T17:03:53Z</time></trkpt><trkpt lat="36.74947204138511" lon="-107.98873001062346"><ele>1777.0</ele><time>2026-04-11T17:03:54Z</time></trkpt><trkpt lat="36.74940325312565" lon="-107.988764194881"><ele>1776.9999999999998</ele><time>2026-04-11T17:03:55Z</time></trkpt><trkpt lat="36.749385713620086" lon="-107.98884393566662"><ele>1776.9999999999998</ele><time>2026-04-11T17:03:57Z</time></trkpt><trkpt lat="36.74938271588747" lon="-107.98896992001227"><ele>1777.0</ele><time>2026-04-11T17:03:59Z</time></trkpt><trkpt lat="36.74938204546444" lon="-107.98913018476043"><ele>1777.0</ele><time>2026-04-11T17:04:01Z</time></trkpt><trkpt lat="36.74935404940419" lon="-107.98922658590287"><ele>1776.4285714285713</ele><time>2026-04-11T17:04:02Z</time></trkpt><trkpt lat="36.74931859576034" lon="-107.98931705678761"><ele>1775.8571428571427</ele><time>2026-04-11T17:04:03Z</time></trkpt><trkpt lat="36.74927741759514" lon="-107.98939027760086"><ele>1775.2857142857142</ele><time>2026-04-11T17:04:04Z</time></trkpt><trkpt lat="36.749232125336285" lon="-107.98944897174844"><ele>1774.7142857142858</ele><time>2026-04-11T17:04:05Z</time></trkpt><trkpt lat="36.749182633983" lon="-107.98950155294676"><ele>1774.142857142857</ele><time>2026-04-11T17:04:06Z</time></trkpt><trkpt lat="36.74912478861804" lon="-107.9895714221113"><ele>1773.5714285714287</ele><time>2026-04-11T17:04:07Z</time></trkpt><trkpt lat="36.74906783278969" lon="-107.98964101610002"><ele>1773.0</ele><time>2026-04-11T17:04:08Z</time></trkpt><trkpt lat="36.74902986412427" lon="-107.98972609958992"><ele>1773.0</ele><time>2026-04-11T17:04:09Z</time></trkpt><trkpt lat="36.74901766341741" lon="-107.98982200934711"><ele>1773.0000000000002</ele><time>2026-04-11T17:04:10Z</time></trkpt><trkpt lat="36.74902054843239" lon="-107.98993433730448"><ele>1773.0000000000002</ele><time>2026-04-11T17:04:11Z</time></trkpt><trkpt lat="36.74903038183867" lon="-107.99007171989348"><ele>1773.0</ele><time>2026-04-11T17:04:12Z</time></trkpt><trkpt lat="36.74904319752209" lon="-107.9902346710316"><ele>1773.0</ele><time>2026-04-11T17:04:13Z</time></trkpt><trkpt lat="36.749067628098835" lon="-107.99040314715657"><ele>1772.4</ele><time>2026-04-11T17:04:14Z</time></trkpt><trkpt lat="36.74911610711184" lon="-107.99054663567117"><ele>1771.8000000000002</ele><time>2026-04-11T17:04:15Z</time></trkpt><trkpt lat="36.749183130936956" lon="-107.99064163451418"><ele>1771.2</ele><time>2026-04-11T17:04:16Z</time></trkpt><trkpt lat="36.749259220239146" lon="-107.99071388941968"><ele>1770.6</ele><time>2026-04-11T17:04:17Z</time></trkpt><trkpt lat="36.74931707280902" lon="-107.99079629238017"><ele>1770.0</ele><time>2026-04-11T17:04:18Z</time></trkpt><trkpt lat="36.74933679427577" lon="-107.99089809545377"><ele>1770.0</ele><time>2026-04-11T17:04:19Z</time></trkpt><trkpt lat="36.74931760797217" lon="-107.99103520414442"><ele>1770.0</ele><time>2026-04-11T17:04:20Z</time></trkpt><trkpt lat="36.74924463151714" lon="-107.99116685585825"><ele>1770.0</ele><time>2026-04-11T17:04:21Z</time></trkpt><trkpt lat="36.749164113297965" lon="-107.99130003931349"><ele>1770.0</ele><time>2026-04-11T17:04:22Z</time></trkpt><trkpt lat="36.749077803390094" lon="-107.99142942001349"><ele>1770.0</ele><time>2026-04-11T17:04:23Z</time></trkpt><trkpt lat="36.74902239771196" lon="-107.99156751884897"><ele>1770.0</ele><time>2026-04-11T17:04:24Z</time></trkpt><trkpt lat="36.74904107639956" lon="-107.99169823798965"><ele>1770.0</ele><time>2026-04-11T17:04:25Z</time></trkpt><trkpt lat="36.74905783087144" lon="-107.99180357839542"><ele>1770.0</ele><time>2026-04-11T17:04:26Z</time></trkpt><trkpt lat="36.7490464871531" lon="-107.9919226565754"><ele>1770.0</ele><time>2026-04-11T17:04:28Z</time></trkpt><trkpt lat="36.74911770425596" lon="-107.9919628006482"><ele>1770.1666666666667</ele><time>2026-04-11T17:04:29Z</time></trkpt><trkpt lat="36.74920536490841" lon="-107.99205023755619"><ele>1770.3333333333335</ele><time>2026-04-11T17:04:30Z</time></trkpt><trkpt lat="36.74927308163081" lon="-107.99211291651844"><ele>1770.5</ele><time>2026-04-11T17:04:31Z</time></trkpt><trkpt lat="36.74934119380915" lon="-107.99214314163683"><ele>1770.6666666666667</ele><time>2026-04-11T17:04:32Z</time></trkpt><trkpt lat="36.7494190615155" lon="-107.9921654650461"><ele>1770.8333333333335</ele><time>2026-04-11T17:04:33Z</time></trkpt><trkpt lat="36.749479248084405" lon="-107.9921999848408"><ele>1771.0</ele><time>2026-04-11T17:04:34Z</time></trkpt><trkpt lat="36.749562781622146" lon="-107.9922177052817"><ele>1770.1999999999998</ele><time>2026-04-11T17:04:35Z</time></trkpt><trkpt lat="36.7496589745072" lon="-107.99222907344682"><ele>1769.3999999999999</ele><time>2026-04-11T17:04:36Z</time></trkpt><trkpt lat="36.7497503291247" lon="-107.9921832496067"><ele>1768.6</ele><time>2026-04-11T17:04:37Z</time></trkpt><trkpt lat="36.74984862477692" lon="-107.99209251406678"><ele>1767.8</ele><time>2026-04-11T17:04:38Z</time></trkpt><trkpt lat="36.74991417565751" lon="-107.99201826108329"><ele>1767.0</ele><time>2026-04-11T17:04:39Z</time></trkpt><trkpt lat="36.74999069753237" lon="-107.99196608143777"><ele>1767.0</ele><time>2026-04-11T17:04:40Z</time></trkpt><trkpt lat="36.75010419314402" lon="-107.99192932008062"><ele>1766.9999999999998</ele><time>2026-04-11T17:04:41Z</time></trkpt><trkpt lat="36.750210706912625" lon="-107.99186403615106"><ele>1766.9999999999998</ele><time>2026-04-11T17:04:42Z</time></trkpt><trkpt lat="36.75026693655572" lon="-107.99179623129257"><ele>1767.0</ele><time>2026-04-11T17:04:43Z</time></trkpt><trkpt lat="36.75032060128227" lon="-107.99171180606224"><ele>1767.0</ele><time>2026-04-11T17:04:44Z</time></trkpt><trkpt lat="36.75037595649326" lon="-107.99160435596677"><ele>1767.5</ele><time>2026-04-11T17:04:45Z</time></trkpt><trkpt lat="36.75042586966012" lon="-107.99147811774772"><ele>1768.0</ele><time>2026-04-11T17:04:46Z</time></trkpt><trkpt lat="36.75048106060658" lon="-107.991309885134"><ele>1768.5</ele><time>2026-04-11T17:04:47Z</time></trkpt><trkpt lat="36.750559003545064" lon="-107.99116086417"><ele>1769.0</ele><time>2026-04-11T17:04:48Z</time></trkpt><trkpt lat="36.7506613781506" lon="-107.99105961174966"><ele>1769.0</ele><time>2026-04-11T17:04:49Z</time></trkpt><trkpt lat="36.750772498379085" lon="-107.99101803806619"><ele>1769.0</ele><time>2026-04-11T17:04:50Z</time></trkpt><trkpt lat="36.750908232401656" lon="-107.99101523014662"><ele>1769.0</ele><time>2026-04-11T17:04:51Z</time></trkpt><trkpt lat="36.751021229379425" lon="-107.99097763197356"><ele>1769.0</ele><time>2026-04-11T17:04:52Z</time></trkpt><trkpt lat="36.751100165885006" lon="-107.99089770983429"><ele>1770.0</ele><time>2026-04-11T17:04:53Z</time></trkpt><trkpt lat="36.7511741631282" lon="-107.99077232338135"><ele>1771.0</ele><time>2026-04-11T17:04:54Z</time></trkpt><trkpt lat="36.751222695812025" lon="-107.99061594749823"><ele>1772.0</ele><time>2026-04-11T17:04:55Z</time></trkpt><trkpt lat="36.75128080255575" lon="-107.99047056887903"><ele>1773.0</ele><time>2026-04-11T17:04:56Z</time></trkpt><trkpt lat="36.75136170458948" lon="-107.99034606885732"><ele>1773.0</ele><time>2026-04-11T17:04:57Z</time></trkpt><trkpt lat="36.75144160867134" lon="-107.99025774643663"><ele>1773.0</ele><time>2026-04-11T17:04:58Z</time></trkpt><trkpt lat="36.751544406867666" lon="-107.99022047917785"><ele>1773.0</ele><time>2026-04-11T17:04:59Z</time></trkpt><trkpt lat="36.75168066191646" lon="-107.99022718270909"><ele>1773.0</ele><time>2026-04-11T17:05:00Z</time></trkpt><trkpt lat="36.75178237028649" lon="-107.9902242673398"><ele>1773.0</ele><time>2026-04-11T17:05:01Z</time></trkpt><trkpt lat="36.751829410560724" lon="-107.9901529844895"><ele>1773.0000000000002</ele><time>2026-04-11T17:05:02Z</time></trkpt><trkpt lat="36.75190274967688" lon="-107.9901208215238"><ele>1773.0000000000002</ele><time>2026-04-11T17:05:03Z</time></trkpt><trkpt lat="36.75198602257008" lon="-107.99015218688126"><ele>1773.0</ele><time>2026-04-11T17:05:04Z</time></trkpt><trkpt lat="36.75208313904688" lon="-107.99022349672428"><ele>1773.0</ele><time>2026-04-11T17:05:05Z</time></trkpt><trkpt lat="36.75219518564054" lon="-107.99034195137004"><ele>1773.25</ele><time>2026-04-11T17:05:06Z</time></trkpt><trkpt lat="36.75228184853441" lon="-107.99042905458236"><ele>1773.5</ele><time>2026-04-11T17:05:07Z</time></trkpt><trkpt lat="36.75240155243791" lon="-107.99054261581922"><ele>1773.75</ele><time>2026-04-11T17:05:08Z</time></trkpt><trkpt lat="36.75254009911844" lon="-107.99066006626978"><ele>1774.0</ele><time>2026-04-11T17:05:09Z</time></trkpt><trkpt lat="36.75262927768754" lon="-107.99075644409635"><ele>1773.6</ele><time>2026-04-11T17:05:10Z</time></trkpt><trkpt lat="36.75268427102753" lon="-107.99086070906372"><ele>1773.2</ele><time>2026-04-11T17:05:11Z</time></trkpt><trkpt lat="36.752743356496836" lon="-107.99096800503635"><ele>1772.7999999999997</ele><time>2026-04-11T17:05:12Z</time></trkpt><trkpt lat="36.75280662658812" lon="-107.9910416491494"><ele>1772.3999999999999</ele><time>2026-04-11T17:05:13Z</time></trkpt><trkpt lat="36.752888858583624" lon="-107.99105314746458"><ele>1772.0</ele><time>2026-04-11T17:05:14Z</time></trkpt><trkpt lat="36.752979917896226" lon="-107.99105606208796"><ele>1773.25</ele><time>2026-04-11T17:05:15Z</time></trkpt><trkpt lat="36.753076034722504" lon="-107.9910884217066"><ele>1774.5</ele><time>2026-04-11T17:05:16Z</time></trkpt><trkpt lat="36.753195822329424" lon="-107.99120310697799"><ele>1775.75</ele><time>2026-04-11T17:05:17Z</time></trkpt><trkpt lat="36.753307035258096" lon="-107.99130028926434"><ele>1777.0</ele><time>2026-04-11T17:05:18Z</time></trkpt><trkpt lat="36.7534129839697" lon="-107.99139368879426"><ele>1777.0</ele><time>2026-04-11T17:05:19Z</time></trkpt><trkpt lat="36.753494894171766" lon="-107.99146162343403"><ele>1776.9999999999998</ele><time>2026-04-11T17:05:20Z</time></trkpt><trkpt lat="36.753546445420426" lon="-107.99155059627448"><ele>1776.9999999999998</ele><time>2026-04-11T17:05:21Z</time></trkpt><trkpt lat="36.753549240562286" lon="-107.99168906312461"><ele>1777.0</ele><time>2026-04-11T17:05:22Z</time></trkpt><trkpt lat="36.75357510619672" lon="-107.9917905179025"><ele>1777.0</ele><time>2026-04-11T17:05:23Z</time></trkpt><trkpt lat="36.75372595529509" lon="-107.99185818960365"><ele>1777.6</ele><time>2026-04-11T17:05:25Z</time></trkpt><trkpt lat="36.75384901492003" lon="-107.99189235569072"><ele>1778.1999999999998</ele><time>2026-04-11T17:05:26Z</time></trkpt><trkpt lat="36.75392578807739" lon="-107.99194593792858"><ele>1778.8</ele><time>2026-04-11T17:05:27Z</time></trkpt><trkpt lat="36.75394641961668" lon="-107.99203529100964"><ele>1779.4</ele><time>2026-04-11T17:05:28Z</time></trkpt><trkpt lat="36.75393984008456" lon="-107.99215416559917"><ele>1780.0</ele><time>2026-04-11T17:05:29Z</time></trkpt><trkpt lat="36.753947097007455" lon="-107.99226621228027"><ele>1780.0</ele><time>2026-04-11T17:05:30Z</time></trkpt><trkpt lat="36.753997166377886" lon="-107.99234731741295"><ele>1780.0</ele><time>2026-04-11T17:05:31Z</time></trkpt><trkpt lat="36.75410103746317" lon="-107.9923815842943"><ele>1780.0</ele><time>2026-04-11T17:05:32Z</time></trkpt><trkpt lat="36.754205885750146" lon="-107.99236176945837"><ele>1780.0</ele><time>2026-04-11T17:05:33Z</time></trkpt><trkpt lat="36.75429499293968" lon="-107.99229739159644"><ele>1780.0</ele><time>2026-04-11T17:05:34Z</time></trkpt><trkpt lat="36.75438867660133" lon="-107.99220657955715"><ele>1780.75</ele><time>2026-04-11T17:05:35Z</time></trkpt><trkpt lat="36.75446310133125" lon="-107.99206333873417"><ele>1781.5</ele><time>2026-04-11T17:05:36Z</time></trkpt><trkpt lat="36.754557800654005" lon="-107.99199646228318"><ele>1782.25</ele><time>2026-04-11T17:05:37Z</time></trkpt><trkpt lat="36.75466560257054" lon="-107.99200145960664"><ele>1783.0</ele><time>2026-04-11T17:05:38Z</time></trkpt><trkpt lat="36.754772275636256" lon="-107.9920248243485"><ele>1783.0</ele><time>2026-04-11T17:05:39Z</time></trkpt><trkpt lat="36.75489722433757" lon="-107.99198711816264"><ele>1783.0000000000002</ele><time>2026-04-11T17:05:40Z</time></trkpt><trkpt lat="36.754992351088646" lon="-107.9918980253522"><ele>1783.0000000000002</ele><time>2026-04-11T17:05:41Z</time></trkpt><trkpt lat="36.75505272550257" lon="-107.9918352410845"><ele>1783.0</ele><time>2026-04-11T17:05:42Z</time></trkpt><trkpt lat="36.755099870979315" lon="-107.99176947241922"><ele>1783.0</ele><time>2026-04-11T17:05:43Z</time></trkpt><trkpt lat="36.75512265381773" lon="-107.99168785297606"><ele>1784.0000000000002</ele><time>2026-04-11T17:05:44Z</time></trkpt><trkpt lat="36.755180862319925" lon="-107.9916105516026"><ele>1785.0</ele><time>2026-04-11T17:05:45Z</time></trkpt><trkpt lat="36.755299786736224" lon="-107.991598306281"><ele>1786.0</ele><time>2026-04-11T17:05:47Z</time></trkpt><trkpt lat="36.75536692701075" lon="-107.99158517016147"><ele>1787.0</ele><time>2026-04-11T17:05:48Z</time></trkpt><trkpt lat="36.75542258391275" lon="-107.99154417689641"><ele>1788.0000000000002</ele><time>2026-04-11T17:05:49Z</time></trkpt><trkpt lat="36.7554522970914" lon="-107.99146826841519"><ele>1789.0</ele><time>2026-04-11T17:05:50Z</time></trkpt><trkpt lat="36.75549350290569" lon="-107.99138457922422"><ele>1789.0</ele><time>2026-04-11T17:05:51Z</time></trkpt><trkpt lat="36.755536878333835" lon="-107.99129358457328"><ele>1789.0</ele><time>2026-04-11T17:05:52Z</time></trkpt><trkpt lat="36.75562773535704" lon="-107.99119417148842"><ele>1789.0</ele><time>2026-04-11T17:05:53Z</time></trkpt><trkpt lat="36.75568154461885" lon="-107.9910764647066"><ele>1789.0</ele><time>2026-04-11T17:05:54Z</time></trkpt><trkpt lat="36.75569401373517" lon="-107.99094807092567"><ele>1789.0</ele><time>2026-04-11T17:05:55Z</time></trkpt><trkpt lat="36.75571258664234" lon="-107.99081748867418"><ele>1789.75</ele><time>2026-04-11T17:05:56Z</time></trkpt><trkpt lat="36.755810513980165" lon="-107.99071537932703"><ele>1790.5</ele><time>2026-04-11T17:05:57Z</time></trkpt><trkpt lat="36.755931871545364" lon="-107.99063418109024"><ele>1791.25</ele><time>2026-04-11T17:05:58Z</time></trkpt><trkpt lat="36.755988421854454" lon="-107.9905286591918"><ele>1792.0</ele><time>2026-04-11T17:05:59Z</time></trkpt><trkpt lat="36.75603238533036" lon="-107.99042677200876"><ele>1792.1999999999998</ele><time>2026-04-11T17:06:00Z</time></trkpt><trkpt lat="36.75612588020069" lon="-107.99037067829528"><ele>1792.3999999999999</ele><time>2026-04-11T17:06:01Z</time></trkpt><trkpt lat="36.756223500092545" lon="-107.99033718299462"><ele>1792.6000000000001</ele><time>2026-04-11T17:06:02Z</time></trkpt><trkpt lat="36.75628122668056" lon="-107.99028199027524"><ele>1792.8000000000002</ele><time>2026-04-11T17:06:03Z</time></trkpt><trkpt lat="36.756334103241024" lon="-107.99021053647313"><ele>1793.0</ele><time>2026-04-11T17:06:04Z</time></trkpt><trkpt lat="36.75635810586167" lon="-107.99009068097597"><ele>1794.1666666666665</ele><time>2026-04-11T17:06:05Z</time></trkpt><trkpt lat="36.756405666112016" lon="-107.98996029978788"><ele>1795.3333333333333</ele><time>2026-04-11T17:06:06Z</time></trkpt><trkpt lat="36.7564949347757" lon="-107.9898850074368"><ele>1796.5</ele><time>2026-04-11T17:06:07Z</time></trkpt><trkpt lat="36.756552850393" lon="-107.98982631288985"><ele>1797.6666666666665</ele><time>2026-04-11T17:06:08Z</time></trkpt><trkpt lat="36.75661463418992" lon="-107.98980783913676"><ele>1798.8333333333333</ele><time>2026-04-11T17:07:44.999Z</time></trkpt><trkpt lat="36.75667984311657" lon="-107.989774492337"><ele>1800.0</ele><time>2026-04-11T17:08:13.999Z</time></trkpt><trkpt lat="36.75674052872192" lon="-107.98975344652672"><ele>1800.0</ele><time>2026-04-11T17:08:14.999Z</time></trkpt><trkpt lat="36.756801355044466" lon="-107.98971295721162"><ele>1800.0</ele><time>2026-04-11T17:08:15.999Z</time></trkpt><trkpt lat="36.75682682348683" lon="-107.98962847439256"><ele>1800.0</ele><time>2026-04-11T17:08:16.999Z</time></trkpt><trkpt lat="36.75684345502098" lon="-107.98955191235832"><ele>1800.0</ele><time>2026-04-11T17:08:17.999Z</time></trkpt><trkpt lat="36.75695819180761" lon="-107.98950899445718"><ele>1800.0</ele><time>2026-04-11T17:08:20.999Z</time></trkpt><trkpt lat="36.75702000273738" lon="-107.98941401332341"><ele>1800.0</ele><time>2026-04-11T17:08:22.999Z</time></trkpt><trkpt lat="36.75698695484592" lon="-107.98933262858294"><ele>1799.6</ele><time>2026-04-11T17:08:23.999Z</time></trkpt><trkpt lat="36.756938340110516" lon="-107.98924886934492"><ele>1799.2</ele><time>2026-04-11T17:08:24.999Z</time></trkpt><trkpt lat="36.75693467423536" lon="-107.9891658201717"><ele>1798.8000000000002</ele><time>2026-04-11T17:08:25.999Z</time></trkpt><trkpt lat="36.756952438921445" lon="-107.98907273312705"><ele>1798.4</ele><time>2026-04-11T17:08:26.999Z</time></trkpt><trkpt lat="36.75699476811489" lon="-107.9889618841901"><ele>1798.0</ele><time>2026-04-11T17:08:28.999Z</time></trkpt><trkpt lat="36.75712764925083" lon="-107.98886276037948"><ele>1798.0000000000002</ele><time>2026-04-11T17:08:32.999Z</time></trkpt><trkpt lat="36.75717853332574" lon="-107.98880913805759"><ele>1798.0</ele><time>2026-04-11T17:08:35.999Z</time></trkpt><trkpt lat="36.75712729956335" lon="-107.98888044771944"><ele>1798.0</ele><time>2026-04-11T17:08:55.999Z</time></trkpt><trkpt lat="36.75705574486632" lon="-107.98892648589695"><ele>1798.0</ele><time>2026-04-11T17:08:58.999Z</time></trkpt><trkpt lat="36.756972136179954" lon="-107.98897060336475"><ele>1798.0000000000002</ele><time>2026-04-11T17:09:00.999Z</time></trkpt><trkpt lat="36.75694875850416" lon="-107.98907593422147"><ele>1798.0</ele><time>2026-04-11T17:09:02.999Z</time></trkpt><trkpt lat="36.756935420363604" lon="-107.98919506479047"><ele>1798.0</ele><time>2026-04-11T17:09:04.999Z</time></trkpt><trkpt lat="36.756936105855885" lon="-107.98932076332122"><ele>1798.0</ele><time>2026-04-11T17:09:06.999Z</time></trkpt><trkpt lat="36.75701008555442" lon="-107.98939518752944"><ele>1798.0</ele><time>2026-04-11T17:09:08.999Z</time></trkpt><trkpt lat="36.75713023359105" lon="-107.98950433781053"><ele>1798.0</ele><time>2026-04-11T17:09:10.999Z</time></trkpt><trkpt lat="36.757204202939285" lon="-107.98960294653492"><ele>1798.0</ele><time>2026-04-11T17:09:11.999Z</time></trkpt><trkpt lat="36.757242932389076" lon="-107.98973901923237"><ele>1798.0000000000002</ele><time>2026-04-11T17:09:12.999Z</time></trkpt><trkpt lat="36.757273059373034" lon="-107.9898815224875"><ele>1798.0000000000002</ele><time>2026-04-11T17:09:13.999Z</time></trkpt><trkpt lat="36.757320822907495" lon="-107.98997190415568"><ele>1798.0</ele><time>2026-04-11T17:09:14.999Z</time></trkpt><trkpt lat="36.757370375758555" lon="-107.99005211709026"><ele>1798.0</ele><time>2026-04-11T17:09:15.999Z</time></trkpt><trkpt lat="36.757439777443565" lon="-107.99014283529294"><ele>1798.25</ele><time>2026-04-11T17:09:16.999Z</time></trkpt><trkpt lat="36.7575160362997" lon="-107.99023829136968"><ele>1798.5</ele><time>2026-04-11T17:09:17.999Z</time></trkpt><trkpt lat="36.7575825793654" lon="-107.99038525899427"><ele>1798.75</ele><time>2026-04-11T17:09:18.999Z</time></trkpt><trkpt lat="36.757643499961766" lon="-107.99053366902938"><ele>1799.0</ele><time>2026-04-11T17:09:19.999Z</time></trkpt><trkpt lat="36.75772224121334" lon="-107.99066586382142"><ele>1799.0</ele><time>2026-04-11T17:09:20.999Z</time></trkpt><trkpt lat="36.75777300555219" lon="-107.99078494496841"><ele>1799.0</ele><time>2026-04-11T17:09:21.999Z</time></trkpt><trkpt lat="36.75783126759965" lon="-107.99090986152237"><ele>1799.0</ele><time>2026-04-11T17:09:23.999Z</time></trkpt><trkpt lat="36.757886397438625" lon="-107.99100671848554"><ele>1799.0</ele><time>2026-04-11T17:09:27Z</time></trkpt><trkpt lat="36.75793245266916" lon="-107.99109131262594"><ele>1799.0</ele><time>2026-04-11T17:09:29Z</time></trkpt><trkpt lat="36.75794921213795" lon="-107.99117711834032"><ele>1798.2</ele><time>2026-04-11T17:09:32Z</time></trkpt><trkpt lat="36.7579708416799" lon="-107.99126729687036"><ele>1797.4</ele><time>2026-04-11T17:09:35Z</time></trkpt><trkpt lat="36.757983650447095" lon="-107.99118225533849"><ele>1796.6</ele><time>2026-04-11T17:09:38Z</time></trkpt><trkpt lat="36.75792845568063" lon="-107.99109485114964"><ele>1795.8</ele><time>2026-04-11T17:09:39Z</time></trkpt><trkpt lat="36.7578663891324" lon="-107.99098726791563"><ele>1795.0</ele><time>2026-04-11T17:09:41Z</time></trkpt><trkpt lat="36.75780665930265" lon="-107.99087213956774"><ele>1795.8</ele><time>2026-04-11T17:09:43Z</time></trkpt><trkpt lat="36.75776932814797" lon="-107.99079259131153"><ele>1796.6</ele><time>2026-04-11T17:09:45Z</time></trkpt><trkpt lat="36.75789167954739" lon="-107.9907148812621"><ele>1797.4</ele><time>2026-04-11T17:09:53Z</time></trkpt><trkpt lat="36.75800749698615" lon="-107.9906676167936"><ele>1798.2</ele><time>2026-04-11T17:09:55Z</time></trkpt><trkpt lat="36.75807511299498" lon="-107.99065163166202"><ele>1799.0</ele><time>2026-04-11T17:09:56Z</time></trkpt><trkpt lat="36.75817017312271" lon="-107.99064565503596"><ele>1798.9999999999998</ele><time>2026-04-11T17:09:58Z</time></trkpt><trkpt lat="36.758287729902975" lon="-107.99066046910872"><ele>1799.0</ele><time>2026-04-11T17:10:00Z</time></trkpt><trkpt lat="36.75833438952178" lon="-107.99072093544767"><ele>1799.0</ele><time>2026-04-11T17:10:01Z</time></trkpt><trkpt lat="36.75840910201553" lon="-107.99080435195722"><ele>1799.0</ele><time>2026-04-11T17:10:03Z</time></trkpt><trkpt lat="36.75847124852537" lon="-107.99084591335003"><ele>1798.9999999999998</ele><time>2026-04-11T17:10:04Z</time></trkpt><trkpt lat="36.75852440167849" lon="-107.99089639618516"><ele>1799.0</ele><time>2026-04-11T17:10:05Z</time></trkpt><trkpt lat="36.75860140843209" lon="-107.99094056601275"><ele>1798.6666666666665</ele><time>2026-04-11T17:10:06Z</time></trkpt><trkpt lat="36.758674936229454" lon="-107.9908813155192"><ele>1798.3333333333333</ele><time>2026-04-11T17:10:08Z</time></trkpt><trkpt lat="36.75871317832668" lon="-107.99081099557621"><ele>1798.0</ele><time>2026-04-11T17:10:09Z</time></trkpt><trkpt lat="36.758751160303824" lon="-107.99074664267673"><ele>1797.6666666666665</ele><time>2026-04-11T17:10:11Z</time></trkpt><trkpt lat="36.75879232071405" lon="-107.99067863450452"><ele>1797.3333333333333</ele><time>2026-04-11T17:10:15Z</time></trkpt><trkpt lat="36.75884656832631" lon="-107.99063718895765"><ele>1797.0</ele><time>2026-04-11T17:11:52Z</time></trkpt><trkpt lat="36.758943740189686" lon="-107.99061872291729"><ele>1798.1999999999998</ele><time>2026-04-11T17:11:54Z</time></trkpt><trkpt lat="36.75902856720172" lon="-107.99060716397838"><ele>1799.3999999999999</ele><time>2026-04-11T17:11:56Z</time></trkpt><trkpt lat="36.75908943854068" lon="-107.99055401145421"><ele>1800.6000000000001</ele><time>2026-04-11T17:11:58Z</time></trkpt><trkpt lat="36.7591616493884" lon="-107.9904929232757"><ele>1801.8000000000002</ele><time>2026-04-11T17:12:00Z</time></trkpt><trkpt lat="36.759260086612535" lon="-107.99045049516603"><ele>1803.0</ele><time>2026-04-11T17:12:02Z</time></trkpt><trkpt lat="36.759372664806364" lon="-107.99041238964622"><ele>1803.4</ele><time>2026-04-11T17:12:04Z</time></trkpt><trkpt lat="36.759477489269294" lon="-107.9904006279661"><ele>1803.8000000000002</ele><time>2026-04-11T17:12:06Z</time></trkpt><trkpt lat="36.75951567164961" lon="-107.99046868686597"><ele>1804.2</ele><time>2026-04-11T17:12:07Z</time></trkpt><trkpt lat="36.759584491079764" lon="-107.99053770309318"><ele>1804.6</ele><time>2026-04-11T17:12:08Z</time></trkpt><trkpt lat="36.75968842788731" lon="-107.99051087923426"><ele>1805.0</ele><time>2026-04-11T17:12:09Z</time></trkpt><trkpt lat="36.75977456753577" lon="-107.99050555905481"><ele>1804.9999999999998</ele><time>2026-04-11T17:12:10Z</time></trkpt><trkpt lat="36.75986716637647" lon="-107.99047774436558"><ele>1805.0</ele><time>2026-04-11T17:12:11Z</time></trkpt><trkpt lat="36.75995128619595" lon="-107.99046061529052"><ele>1805.0</ele><time>2026-04-11T17:12:12Z</time></trkpt><trkpt lat="36.76001766817452" lon="-107.99051150084492"><ele>1805.0</ele><time>2026-04-11T17:12:13Z</time></trkpt><trkpt lat="36.76008402988416" lon="-107.99054260146919"><ele>1804.9999999999998</ele><time>2026-04-11T17:12:14Z</time></trkpt><trkpt lat="36.76016520775276" lon="-107.99053134027243"><ele>1805.0</ele><time>2026-04-11T17:12:15Z</time></trkpt><trkpt lat="36.76024886700925" lon="-107.99054567454482"><ele>1804.6</ele><time>2026-04-11T17:12:16Z</time></trkpt><trkpt lat="36.760347077155586" lon="-107.99044324147926"><ele>1804.2</ele><time>2026-04-11T17:12:18Z</time></trkpt><trkpt lat="36.76043753258382" lon="-107.99041541213609"><ele>1803.8000000000002</ele><time>2026-04-11T17:12:19Z</time></trkpt><trkpt lat="36.7605147286835" lon="-107.99038648641802"><ele>1803.4</ele><time>2026-04-11T17:12:20Z</time></trkpt><trkpt lat="36.760599991864225" lon="-107.99037121682623"><ele>1803.0</ele><time>2026-04-11T17:12:21Z</time></trkpt><trkpt lat="36.760702269738466" lon="-107.9903215427184"><ele>1803.0</ele><time>2026-04-11T17:12:22Z</time></trkpt><trkpt lat="36.760808279103536" lon="-107.99028078088509"><ele>1803.0000000000002</ele><time>2026-04-11T17:12:23Z</time></trkpt><trkpt lat="36.76087162998622" lon="-107.99020853708792"><ele>1803.0000000000002</ele><time>2026-04-11T17:12:24Z</time></trkpt><trkpt lat="36.76086803303602" lon="-107.99008562121908"><ele>1803.0</ele><time>2026-04-11T17:12:25Z</time></trkpt><trkpt lat="36.76086658038331" lon="-107.989948669849"><ele>1803.0</ele><time>2026-04-11T17:12:26Z</time></trkpt><trkpt lat="36.76088514264618" lon="-107.98985239984798"><ele>1804.0</ele><time>2026-04-11T17:12:27Z</time></trkpt><trkpt lat="36.760908193607584" lon="-107.98976433458488"><ele>1805.0</ele><time>2026-04-11T17:12:28Z</time></trkpt><trkpt lat="36.7609436794795" lon="-107.989691179148"><ele>1806.0</ele><time>2026-04-11T17:12:29Z</time></trkpt><trkpt lat="36.760984069265305" lon="-107.98960026694945"><ele>1807.0</ele><time>2026-04-11T17:12:30Z</time></trkpt><trkpt lat="36.76103719382233" lon="-107.98951279718062"><ele>1808.0</ele><time>2026-04-11T17:12:31Z</time></trkpt><trkpt lat="36.76108214975025" lon="-107.98941267680749"><ele>1809.0</ele><time>2026-04-11T17:12:32Z</time></trkpt><trkpt lat="36.761138196206545" lon="-107.98933551303405"><ele>1809.0</ele><time>2026-04-11T17:12:33Z</time></trkpt><trkpt lat="36.76122396855225" lon="-107.98926764778736"><ele>1809.0</ele><time>2026-04-11T17:12:34Z</time></trkpt><trkpt lat="36.76129269817291" lon="-107.98922727453999"><ele>1809.0</ele><time>2026-04-11T17:12:35Z</time></trkpt><trkpt lat="36.76143328311036" lon="-107.98922588637173"><ele>1809.0</ele><time>2026-04-11T17:12:37Z</time></trkpt><trkpt lat="36.76153296044243" lon="-107.98926195315352"><ele>1809.0</ele><time>2026-04-11T17:12:38Z</time></trkpt><trkpt lat="36.761607060532576" lon="-107.98928010881592"><ele>1809.0</ele><time>2026-04-11T17:12:39Z</time></trkpt><trkpt lat="36.76168276124698" lon="-107.9892977615317"><ele>1809.0</ele><time>2026-04-11T17:12:40Z</time></trkpt><trkpt lat="36.76176706028446" lon="-107.98931218115425"><ele>1809.0</ele><time>2026-04-11T17:12:41Z</time></trkpt><trkpt lat="36.7618445408455" lon="-107.98935777378699"><ele>1809.0</ele><time>2026-04-11T17:12:42Z</time></trkpt><trkpt lat="36.76190614461277" lon="-107.98939118667074"><ele>1809.0</ele><time>2026-04-11T17:12:43Z</time></trkpt><trkpt lat="36.76199025387689" lon="-107.9894251212491"><ele>1809.0</ele><time>2026-04-11T17:12:44Z</time></trkpt><trkpt lat="36.76208643887625" lon="-107.98944412506599"><ele>1809.0</ele><time>2026-04-11T17:12:45Z</time></trkpt><trkpt lat="36.762156459516135" lon="-107.98948531623813"><ele>1809.0</ele><time>2026-04-11T17:12:46Z</time></trkpt><trkpt lat="36.76222496276542" lon="-107.98953153982343"><ele>1809.0</ele><time>2026-04-11T17:12:47Z</time></trkpt><trkpt lat="36.76230053757138" lon="-107.98957689815798"><ele>1809.0</ele><time>2026-04-11T17:12:49Z</time></trkpt><trkpt lat="36.76236752012851" lon="-107.98960864077148"><ele>1809.0</ele><time>2026-04-11T17:12:59Z</time></trkpt><trkpt lat="36.762459836866164" lon="-107.98968898240493"><ele>1809.0</ele><time>2026-04-11T17:13:01Z</time></trkpt><trkpt lat="36.76253917174209" lon="-107.9897564206864"><ele>1809.0</ele><time>2026-04-11T17:13:02Z</time></trkpt><trkpt lat="36.76262822206164" lon="-107.98981015079288"><ele>1809.0</ele><time>2026-04-11T17:13:03Z</time></trkpt><trkpt lat="36.762724932334145" lon="-107.98985059873972"><ele>1809.0</ele><time>2026-04-11T17:13:04Z</time></trkpt><trkpt lat="36.76281876458482" lon="-107.98989916026166"><ele>1809.0</ele><time>2026-04-11T17:13:05Z</time></trkpt><trkpt lat="36.76289081829178" lon="-107.98997853478888"><ele>1809.0</ele><time>2026-04-11T17:13:06Z</time></trkpt><trkpt lat="36.76296125430219" lon="-107.99010675508408"><ele>1809.4</ele><time>2026-04-11T17:13:07Z</time></trkpt><trkpt lat="36.7630526176085" lon="-107.99014942508269"><ele>1809.8000000000002</ele><time>2026-04-11T17:13:08Z</time></trkpt><trkpt lat="36.763140178172385" lon="-107.99019716723232"><ele>1810.1999999999998</ele><time>2026-04-11T17:13:09Z</time></trkpt><trkpt lat="36.76324551037593" lon="-107.99025485299018"><ele>1810.6</ele><time>2026-04-11T17:13:10Z</time></trkpt><trkpt lat="36.763350495346245" lon="-107.9903555193622"><ele>1811.0</ele><time>2026-04-11T17:13:11Z</time></trkpt><trkpt lat="36.76342778226033" lon="-107.99043782460927"><ele>1810.9999999999998</ele><time>2026-04-11T17:13:12Z</time></trkpt><trkpt lat="36.763508986976554" lon="-107.99048036105783"><ele>1811.0</ele><time>2026-04-11T17:13:13Z</time></trkpt><trkpt lat="36.76359575799749" lon="-107.99049877072754"><ele>1811.0</ele><time>2026-04-11T17:13:14Z</time></trkpt><trkpt lat="36.76368958215148" lon="-107.9905184966699"><ele>1811.0</ele><time>2026-04-11T17:13:15Z</time></trkpt><trkpt lat="36.76375338966213" lon="-107.99054822819689"><ele>1810.9999999999998</ele><time>2026-04-11T17:13:16Z</time></trkpt><trkpt lat="36.76380368181227" lon="-107.99061663113748"><ele>1811.0</ele><time>2026-04-11T17:13:17Z</time></trkpt><trkpt lat="36.76387593106933" lon="-107.99063975193779"><ele>1811.1666666666665</ele><time>2026-04-11T17:13:18Z</time></trkpt><trkpt lat="36.76396647304258" lon="-107.99063119858505"><ele>1811.3333333333333</ele><time>2026-04-11T17:13:19Z</time></trkpt><trkpt lat="36.76405409707983" lon="-107.9906449794655"><ele>1811.5</ele><time>2026-04-11T17:13:20Z</time></trkpt><trkpt lat="36.764121330410255" lon="-107.99071510851914"><ele>1811.6666666666665</ele><time>2026-04-11T17:13:21Z</time></trkpt><trkpt lat="36.76415270019403" lon="-107.99080311049607"><ele>1811.8333333333333</ele><time>2026-04-11T17:13:22Z</time></trkpt><trkpt lat="36.76418391846958" lon="-107.99088326777805"><ele>1812.0</ele><time>2026-04-11T17:13:23Z</time></trkpt><trkpt lat="36.76422704312312" lon="-107.99097579871538"><ele>1811.5</ele><time>2026-04-11T17:13:24Z</time></trkpt><trkpt lat="36.76426381762431" lon="-107.99107510055487"><ele>1811.0</ele><time>2026-04-11T17:13:25Z</time></trkpt><trkpt lat="36.764266817904115" lon="-107.99118359338976"><ele>1810.5</ele><time>2026-04-11T17:13:26Z</time></trkpt><trkpt lat="36.764249700212595" lon="-107.99127548946107"><ele>1810.0</ele><time>2026-04-11T17:13:27Z</time></trkpt><trkpt lat="36.76425027771631" lon="-107.99136844470252"><ele>1809.5</ele><time>2026-04-11T17:13:28Z</time></trkpt><trkpt lat="36.76425120664544" lon="-107.99146332592674"><ele>1809.0</ele><time>2026-04-11T17:13:30Z</time></trkpt><trkpt lat="36.76424248771726" lon="-107.99155301852409"><ele>1809.0</ele><time>2026-04-11T17:13:34Z</time></trkpt><trkpt lat="36.76426867605772" lon="-107.99167085841307"><ele>1809.0</ele><time>2026-04-11T17:13:36Z</time></trkpt><trkpt lat="36.76427593116818" lon="-107.99175665115122"><ele>1809.0</ele><time>2026-04-11T17:13:38Z</time></trkpt><trkpt lat="36.76427427129829" lon="-107.99187916518989"><ele>1809.0</ele><time>2026-04-11T17:13:40Z</time></trkpt><trkpt lat="36.76428094315975" lon="-107.99198081706031"><ele>1809.0</ele><time>2026-04-11T17:13:41Z</time></trkpt><trkpt lat="36.76429172433057" lon="-107.99209027551665"><ele>1809.0</ele><time>2026-04-11T17:13:42Z</time></trkpt><trkpt lat="36.76430190001693" lon="-107.99220877800595"><ele>1808.0</ele><time>2026-04-11T17:13:43Z</time></trkpt><trkpt lat="36.76431617807303" lon="-107.99230765123785"><ele>1807.0</ele><time>2026-04-11T17:13:44Z</time></trkpt><trkpt lat="36.764350197991774" lon="-107.99240250138263"><ele>1806.0</ele><time>2026-04-11T17:13:45Z</time></trkpt><trkpt lat="36.76437951423561" lon="-107.99249164683876"><ele>1805.0</ele><time>2026-04-11T17:13:46Z</time></trkpt><trkpt lat="36.76436258292119" lon="-107.9926418065785"><ele>1804.0</ele><time>2026-04-11T17:13:48Z</time></trkpt><trkpt lat="36.76434732748602" lon="-107.99276093381582"><ele>1803.4</ele><time>2026-04-11T17:13:49Z</time></trkpt><trkpt lat="36.76435750414462" lon="-107.99288074839997"><ele>1802.8000000000002</ele><time>2026-04-11T17:13:50Z</time></trkpt><trkpt lat="36.76435888935815" lon="-107.99297778171864"><ele>1802.1999999999998</ele><time>2026-04-11T17:13:51Z</time></trkpt><trkpt lat="36.76434613941775" lon="-107.99306685272903"><ele>1801.6</ele><time>2026-04-11T17:13:52Z</time></trkpt><trkpt lat="36.76434184344337" lon="-107.9931671723083"><ele>1801.0</ele><time>2026-04-11T17:13:53Z</time></trkpt><trkpt lat="36.7644109093382" lon="-107.99330224539595"><ele>1799.4</ele><time>2026-04-11T17:13:55Z</time></trkpt><trkpt lat="36.76444354095583" lon="-107.99339639644613"><ele>1797.8</ele><time>2026-04-11T17:13:56Z</time></trkpt><trkpt lat="36.76444581217227" lon="-107.99352116710745"><ele>1796.2000000000003</ele><time>2026-04-11T17:13:57Z</time></trkpt><trkpt lat="36.76445181428054" lon="-107.99366032586754"><ele>1794.6000000000001</ele><time>2026-04-11T17:13:58Z</time></trkpt><trkpt lat="36.764484431196976" lon="-107.99381545837241"><ele>1793.0</ele><time>2026-04-11T17:13:59Z</time></trkpt><trkpt lat="36.764533272302444" lon="-107.99398279644197"><ele>1793.0</ele><time>2026-04-11T17:14:00Z</time></trkpt><trkpt lat="36.764580767771804" lon="-107.99415127350544"><ele>1793.0</ele><time>2026-04-11T17:14:01Z</time></trkpt><trkpt lat="36.76460373572681" lon="-107.99430037114456"><ele>1793.0</ele><time>2026-04-11T17:14:02Z</time></trkpt><trkpt lat="36.76464470497029" lon="-107.99444874184638"><ele>1793.0</ele><time>2026-04-11T17:14:03Z</time></trkpt><trkpt lat="36.76468058334302" lon="-107.9945737695238"><ele>1792.8000000000002</ele><time>2026-04-11T17:14:04Z</time></trkpt><trkpt lat="36.764718644476446" lon="-107.99469007839224"><ele>1792.6000000000001</ele><time>2026-04-11T17:14:05Z</time></trkpt><trkpt lat="36.76473313889225" lon="-107.99480999835546"><ele>1792.3999999999999</ele><time>2026-04-11T17:14:06Z</time></trkpt><trkpt lat="36.764739468772085" lon="-107.99492315860867"><ele>1792.1999999999998</ele><time>2026-04-11T17:14:07Z</time></trkpt><trkpt lat="36.764781895430076" lon="-107.99500309419257"><ele>1792.0</ele><time>2026-04-11T17:14:08Z</time></trkpt><trkpt lat="36.764865085409156" lon="-107.99510370484376"><ele>1792.5</ele><time>2026-04-11T17:14:09Z</time></trkpt><trkpt lat="36.76495911050942" lon="-107.99522095284964"><ele>1793.0</ele><time>2026-04-11T17:14:10Z</time></trkpt><trkpt lat="36.765037181024454" lon="-107.99533971071789"><ele>1793.5</ele><time>2026-04-11T17:14:11Z</time></trkpt><trkpt lat="36.7651030416024" lon="-107.99540555038882"><ele>1794.0</ele><time>2026-04-11T17:14:12Z</time></trkpt><trkpt lat="36.76524174113831" lon="-107.99535745263965"><ele>1794.6</ele><time>2026-04-11T17:14:14Z</time></trkpt><trkpt lat="36.76533236910167" lon="-107.99532301638143"><ele>1795.2</ele><time>2026-04-11T17:14:15Z</time></trkpt><trkpt lat="36.76541329444376" lon="-107.99532594046654"><ele>1795.7999999999997</ele><time>2026-04-11T17:14:16Z</time></trkpt><trkpt lat="36.76554092791535" lon="-107.99532002354118"><ele>1796.3999999999999</ele><time>2026-04-11T17:14:17Z</time></trkpt><trkpt lat="36.76567218039128" lon="-107.99530728415633"><ele>1797.0</ele><time>2026-04-11T17:14:18Z</time></trkpt><trkpt lat="36.76582843200875" lon="-107.99531661237825"><ele>1797.0</ele><time>2026-04-11T17:14:19Z</time></trkpt><trkpt lat="36.76598406411656" lon="-107.99530841743253"><ele>1796.9999999999998</ele><time>2026-04-11T17:14:20Z</time></trkpt><trkpt lat="36.76609833444106" lon="-107.9952857954862"><ele>1796.9999999999998</ele><time>2026-04-11T17:14:21Z</time></trkpt><trkpt lat="36.766181189378635" lon="-107.9952919009917"><ele>1797.0</ele><time>2026-04-11T17:14:22Z</time></trkpt><trkpt lat="36.766241479377484" lon="-107.99533284496297"><ele>1797.0</ele><time>2026-04-11T17:14:23Z</time></trkpt><trkpt lat="36.766312916402114" lon="-107.9953627612497"><ele>1798.0</ele><time>2026-04-11T17:14:24Z</time></trkpt><trkpt lat="36.76638207334662" lon="-107.99537235273439"><ele>1798.9999999999998</ele><time>2026-04-11T17:14:25Z</time></trkpt><trkpt lat="36.766486448926145" lon="-107.99531454364308"><ele>1799.9999999999998</ele><time>2026-04-11T17:14:26Z</time></trkpt><trkpt lat="36.76661383994669" lon="-107.99525861268442"><ele>1801.0</ele><time>2026-04-11T17:14:27Z</time></trkpt><trkpt lat="36.76673415439147" lon="-107.99523350216099"><ele>1802.0</ele><time>2026-04-11T17:14:28Z</time></trkpt><trkpt lat="36.76682385481636" lon="-107.99524281517841"><ele>1803.3999999999999</ele><time>2026-04-11T17:14:29Z</time></trkpt><trkpt lat="36.76693377424392" lon="-107.99525375231072"><ele>1804.7999999999997</ele><time>2026-04-11T17:14:31Z</time></trkpt><trkpt lat="36.76698940571084" lon="-107.99530372516998"><ele>1806.2</ele><time>2026-04-11T17:14:32Z</time></trkpt><trkpt lat="36.76707714136853" lon="-107.99535802180456"><ele>1807.6</ele><time>2026-04-11T17:14:34Z</time></trkpt><trkpt lat="36.76715052650806" lon="-107.99539290553462"><ele>1809.0</ele><time>2026-04-11T17:14:36Z</time></trkpt><trkpt lat="36.76726422929895" lon="-107.99544835927858"><ele>1809.0</ele><time>2026-04-11T17:14:38Z</time></trkpt><trkpt lat="36.76734468878207" lon="-107.99548820440745"><ele>1809.0</ele><time>2026-04-11T17:14:39Z</time></trkpt><trkpt lat="36.76744729817081" lon="-107.99550641381354"><ele>1809.0</ele><time>2026-04-11T17:14:40Z</time></trkpt><trkpt lat="36.76753295481502" lon="-107.99552124727532"><ele>1809.0</ele><time>2026-04-11T17:14:41Z</time></trkpt><trkpt lat="36.76760162938493" lon="-107.99552554679303"><ele>1809.0</ele><time>2026-04-11T17:14:42Z</time></trkpt><trkpt lat="36.76767155219628" lon="-107.995537828935"><ele>1809.0</ele><time>2026-04-11T17:14:43Z</time></trkpt><trkpt lat="36.76773401917959" lon="-107.99556026748512"><ele>1809.8000000000002</ele><time>2026-04-11T17:14:44Z</time></trkpt><trkpt lat="36.76781148792234" lon="-107.9955492173815"><ele>1810.6000000000001</ele><time>2026-04-11T17:14:46Z</time></trkpt><trkpt lat="36.76790781914159" lon="-107.99559226484922"><ele>1811.4</ele><time>2026-04-11T17:14:48Z</time></trkpt><trkpt lat="36.768009176839925" lon="-107.99566278724055"><ele>1812.2</ele><time>2026-04-11T17:14:50Z</time></trkpt><trkpt lat="36.76812384524505" lon="-107.99565447078687"><ele>1813.0</ele><time>2026-04-11T17:14:52Z</time></trkpt><trkpt lat="36.7682058311397" lon="-107.99558099991528"><ele>1813.0</ele><time>2026-04-11T17:14:53Z</time></trkpt><trkpt lat="36.7682856411137" lon="-107.99552651489599"><ele>1813.0000000000002</ele><time>2026-04-11T17:14:54Z</time></trkpt><trkpt lat="36.768376256137465" lon="-107.99548051266271"><ele>1813.0000000000002</ele><time>2026-04-11T17:14:55Z</time></trkpt><trkpt lat="36.76846610541066" lon="-107.99540676167533"><ele>1813.0</ele><time>2026-04-11T17:14:56Z</time></trkpt><trkpt lat="36.76854589604614" lon="-107.99535431246167"><ele>1813.0</ele><time>2026-04-11T17:14:57Z</time></trkpt><trkpt lat="36.768632070749625" lon="-107.99534639982576"><ele>1813.6000000000001</ele><time>2026-04-11T17:14:58Z</time></trkpt><trkpt lat="36.7687304931692" lon="-107.99538230807161"><ele>1814.2000000000003</ele><time>2026-04-11T17:14:59Z</time></trkpt><trkpt lat="36.768796855096504" lon="-107.99537823242713"><ele>1814.8</ele><time>2026-04-11T17:15:00Z</time></trkpt><trkpt lat="36.76891852742827" lon="-107.99534673834702"><ele>1815.4</ele><time>2026-04-11T17:15:02Z</time></trkpt><trkpt lat="36.76901388184985" lon="-107.99535399137024"><ele>1816.0</ele><time>2026-04-11T17:15:03Z</time></trkpt><trkpt lat="36.76913253110998" lon="-107.99536306129954"><ele>1816.0</ele><time>2026-04-11T17:15:04Z</time></trkpt><trkpt lat="36.76924600819897" lon="-107.99537480695967"><ele>1816.0</ele><time>2026-04-11T17:15:05Z</time></trkpt><trkpt lat="36.76935869521213" lon="-107.99539658303507"><ele>1816.0</ele><time>2026-04-11T17:15:06Z</time></trkpt><trkpt lat="36.76946804186772" lon="-107.99543387573935"><ele>1816.0</ele><time>2026-04-11T17:15:07Z</time></trkpt><trkpt lat="36.769549241472056" lon="-107.99543702205773"><ele>1816.0</ele><time>2026-04-11T17:15:08Z</time></trkpt><trkpt lat="36.76963913075202" lon="-107.9954435195727"><ele>1816.6</ele><time>2026-04-11T17:15:09Z</time></trkpt><trkpt lat="36.76971662814469" lon="-107.99549731634599"><ele>1817.1999999999998</ele><time>2026-04-11T17:15:10Z</time></trkpt><trkpt lat="36.76982060407196" lon="-107.99560275414818"><ele>1817.8000000000002</ele><time>2026-04-11T17:15:11Z</time></trkpt><trkpt lat="36.76990793376426" lon="-107.99562359807628"><ele>1818.4</ele><time>2026-04-11T17:15:12Z</time></trkpt><trkpt lat="36.76999471903307" lon="-107.99557787315834"><ele>1819.0</ele><time>2026-04-11T17:15:13Z</time></trkpt><trkpt lat="36.770061073589034" lon="-107.99556401402086"><ele>1819.0</ele><time>2026-04-11T17:15:14Z</time></trkpt><trkpt lat="36.77017932011948" lon="-107.99571638258153"><ele>1819.0</ele><time>2026-04-11T17:15:16Z</time></trkpt><trkpt lat="36.77028403013243" lon="-107.9958171516607"><ele>1819.0</ele><time>2026-04-11T17:15:17Z</time></trkpt><trkpt lat="36.77039300951202" lon="-107.99586831540235"><ele>1819.0</ele><time>2026-04-11T17:15:18Z</time></trkpt><trkpt lat="36.770489217918" lon="-107.9959115256021"><ele>1819.6666666666667</ele><time>2026-04-11T17:15:19Z</time></trkpt><trkpt lat="36.770530594467225" lon="-107.99597540649918"><ele>1820.3333333333335</ele><time>2026-04-11T17:15:20Z</time></trkpt><trkpt lat="36.7705539483796" lon="-107.99605016426426"><ele>1821.0</ele><time>2026-04-11T17:15:21Z</time></trkpt><trkpt lat="36.77058554943921" lon="-107.99614462371174"><ele>1821.6666666666665</ele><time>2026-04-11T17:15:22Z</time></trkpt><trkpt lat="36.77064844673956" lon="-107.99619933219762"><ele>1822.3333333333333</ele><time>2026-04-11T17:15:23Z</time></trkpt><trkpt lat="36.77074694764812" lon="-107.99621781312455"><ele>1823.0</ele><time>2026-04-11T17:15:26Z</time></trkpt><trkpt lat="36.770828598133754" lon="-107.9962018198196"><ele>1823.0</ele><time>2026-04-11T17:15:28Z</time></trkpt><trkpt lat="36.77090217233619" lon="-107.99618894842187"><ele>1823.0000000000002</ele><time>2026-04-11T17:15:29Z</time></trkpt><trkpt lat="36.77101992535244" lon="-107.99617807474304"><ele>1823.0000000000002</ele><time>2026-04-11T17:15:31Z</time></trkpt><trkpt lat="36.771113749583456" lon="-107.99615577764939"><ele>1823.0</ele><time>2026-04-11T17:15:33Z</time></trkpt><trkpt lat="36.77121355383038" lon="-107.99619827491885"><ele>1823.0</ele><time>2026-04-11T17:15:36Z</time></trkpt><trkpt lat="36.771331479872785" lon="-107.99621305502963"><ele>1824.2</ele><time>2026-04-11T17:15:38Z</time></trkpt><trkpt lat="36.77144465550276" lon="-107.99617451637494"><ele>1825.4</ele><time>2026-04-11T17:15:40Z</time></trkpt><trkpt lat="36.771516190484185" lon="-107.9961204499485"><ele>1826.6000000000001</ele><time>2026-04-11T17:15:41Z</time></trkpt><trkpt lat="36.77161119133007" lon="-107.9960875792511"><ele>1827.8000000000002</ele><time>2026-04-11T17:15:42Z</time></trkpt><trkpt lat="36.7716981708477" lon="-107.99610949374431"><ele>1829.0</ele><time>2026-04-11T17:15:43Z</time></trkpt><trkpt lat="36.77178476072591" lon="-107.99616151337878"><ele>1829.6</ele><time>2026-04-11T17:15:44Z</time></trkpt><trkpt lat="36.7718630429706" lon="-107.99620740111342"><ele>1830.2</ele><time>2026-04-11T17:15:45Z</time></trkpt><trkpt lat="36.7719370326998" lon="-107.99624344208607"><ele>1830.7999999999997</ele><time>2026-04-11T17:15:46Z</time></trkpt><trkpt lat="36.7720305505477" lon="-107.99631534213803"><ele>1831.3999999999999</ele><time>2026-04-11T17:15:47Z</time></trkpt><trkpt lat="36.772121571382215" lon="-107.9963736583824"><ele>1832.0</ele><time>2026-04-11T17:15:48Z</time></trkpt><trkpt lat="36.772215938717515" lon="-107.9964472058273"><ele>1832.0</ele><time>2026-04-11T17:15:49Z</time></trkpt><trkpt lat="36.772273163176465" lon="-107.99657689767136"><ele>1831.9999999999998</ele><time>2026-04-11T17:15:50Z</time></trkpt><trkpt lat="36.77230644962021" lon="-107.99667538924909"><ele>1831.9999999999998</ele><time>2026-04-11T17:15:51Z</time></trkpt><trkpt lat="36.77237904532097" lon="-107.99672632902717"><ele>1832.0</ele><time>2026-04-11T17:15:52Z</time></trkpt><trkpt lat="36.77249378624009" lon="-107.99677819589566"><ele>1832.0</ele><time>2026-04-11T17:15:53Z</time></trkpt><trkpt lat="36.772608985139314" lon="-107.99682797484715"><ele>1833.0</ele><time>2026-04-11T17:15:54Z</time></trkpt><trkpt lat="36.772718487876624" lon="-107.99686089251124"><ele>1834.0</ele><time>2026-04-11T17:15:55Z</time></trkpt><trkpt lat="36.77282158476384" lon="-107.9968953613484"><ele>1835.0</ele><time>2026-04-11T17:15:56Z</time></trkpt><trkpt lat="36.77292498635459" lon="-107.99697222147664"><ele>1836.0</ele><time>2026-04-11T17:15:57Z</time></trkpt><trkpt lat="36.77302369913631" lon="-107.99711231524627"><ele>1836.0</ele><time>2026-04-11T17:15:58Z</time></trkpt><trkpt lat="36.77311568455161" lon="-107.99723703846642"><ele>1836.0</ele><time>2026-04-11T17:15:59Z</time></trkpt><trkpt lat="36.773213349845236" lon="-107.99734126112942"><ele>1836.0</ele><time>2026-04-11T17:16:00Z</time></trkpt><trkpt lat="36.773318513227245" lon="-107.997424909063"><ele>1836.0</ele><time>2026-04-11T17:16:01Z</time></trkpt><trkpt lat="36.77342515387131" lon="-107.99750690882905"><ele>1836.5</ele><time>2026-04-11T17:16:02Z</time></trkpt><trkpt lat="36.773515111059986" lon="-107.9975757400636"><ele>1837.0</ele><time>2026-04-11T17:16:03Z</time></trkpt><trkpt lat="36.773613167661274" lon="-107.99760408050132"><ele>1837.5</ele><time>2026-04-11T17:16:04Z</time></trkpt><trkpt lat="36.77374172140604" lon="-107.9976570196864"><ele>1838.0</ele><time>2026-04-11T17:16:05Z</time></trkpt><trkpt lat="36.77385645219721" lon="-107.99776699854841"><ele>1838.4</ele><time>2026-04-11T17:16:06Z</time></trkpt><trkpt lat="36.773931436146" lon="-107.99791035097675"><ele>1838.8000000000002</ele><time>2026-04-11T17:16:07Z</time></trkpt><trkpt lat="36.7739961637987" lon="-107.99798416692553"><ele>1839.2</ele><time>2026-04-11T17:16:08Z</time></trkpt><trkpt lat="36.77409709006318" lon="-107.99802441787057"><ele>1839.6</ele><time>2026-04-11T17:16:09Z</time></trkpt><trkpt lat="36.77420153943613" lon="-107.99805358104267"><ele>1840.0</ele><time>2026-04-11T17:16:10Z</time></trkpt><trkpt lat="36.7742962944093" lon="-107.99808189161006"><ele>1840.2</ele><time>2026-04-11T17:16:11Z</time></trkpt><trkpt lat="36.77435850769203" lon="-107.99814109678128"><ele>1840.4</ele><time>2026-04-11T17:16:12Z</time></trkpt><trkpt lat="36.77439507022249" lon="-107.99823287085597"><ele>1840.6</ele><time>2026-04-11T17:16:13Z</time></trkpt><trkpt lat="36.774436389654014" lon="-107.99832817214393"><ele>1840.8</ele><time>2026-04-11T17:16:14Z</time></trkpt><trkpt lat="36.7744874626699" lon="-107.99843954537896"><ele>1841.0</ele><time>2026-04-11T17:16:15Z</time></trkpt><trkpt lat="36.774522294437844" lon="-107.99855778789033"><ele>1840.4</ele><time>2026-04-11T17:16:16Z</time></trkpt><trkpt lat="36.77454794842011" lon="-107.99870254879232"><ele>1839.8</ele><time>2026-04-11T17:16:17Z</time></trkpt><trkpt lat="36.77456518377751" lon="-107.99884908280089"><ele>1839.2000000000003</ele><time>2026-04-11T17:16:18Z</time></trkpt><trkpt lat="36.77459391182186" lon="-107.99894200788732"><ele>1838.6000000000001</ele><time>2026-04-11T17:16:19Z</time></trkpt><trkpt lat="36.774654415253046" lon="-107.99903592922007"><ele>1838.0</ele><time>2026-04-11T17:16:20Z</time></trkpt><trkpt lat="36.77472344886613" lon="-107.99914112972068"><ele>1837.4</ele><time>2026-04-11T17:16:21Z</time></trkpt><trkpt lat="36.77480506149237" lon="-107.99921889965712"><ele>1836.8000000000002</ele><time>2026-04-11T17:16:22Z</time></trkpt><trkpt lat="36.77490594202884" lon="-107.99926693335595"><ele>1836.2</ele><time>2026-04-11T17:16:23Z</time></trkpt><trkpt lat="36.77497627242916" lon="-107.99932425960797"><ele>1835.6</ele><time>2026-04-11T17:16:24Z</time></trkpt><trkpt lat="36.77500118569943" lon="-107.9995021562842"><ele>1835.0</ele><time>2026-04-11T17:16:26Z</time></trkpt><trkpt lat="36.77500521116642" lon="-107.9996023698353"><ele>1835.0</ele><time>2026-04-11T17:16:27Z</time></trkpt><trkpt lat="36.775013496591114" lon="-107.99971110356678"><ele>1835.0</ele><time>2026-04-11T17:16:28Z</time></trkpt><trkpt lat="36.77506514328523" lon="-107.99982396928296"><ele>1835.0</ele><time>2026-04-11T17:16:29Z</time></trkpt><trkpt lat="36.7751090024866" lon="-107.99998058960993"><ele>1835.0</ele><time>2026-04-11T17:16:30Z</time></trkpt><trkpt lat="36.77514753212454" lon="-108.0001438370598"><ele>1835.8</ele><time>2026-04-11T17:16:31Z</time></trkpt><trkpt lat="36.77520696100251" lon="-108.0002503600211"><ele>1836.6</ele><time>2026-04-11T17:16:32Z</time></trkpt><trkpt lat="36.775262381301026" lon="-108.00031766327602"><ele>1837.4</ele><time>2026-04-11T17:16:33Z</time></trkpt><trkpt lat="36.7753395400207" lon="-108.00034958104688"><ele>1838.2</ele><time>2026-04-11T17:16:34Z</time></trkpt><trkpt lat="36.77544647826766" lon="-108.00035289013668"><ele>1839.0</ele><time>2026-04-11T17:16:35Z</time></trkpt><trkpt lat="36.77558323048799" lon="-108.0003848024651"><ele>1839.0</ele><time>2026-04-11T17:16:36Z</time></trkpt><trkpt lat="36.77569935763968" lon="-108.00047007460167"><ele>1839.0</ele><time>2026-04-11T17:16:37Z</time></trkpt><trkpt lat="36.775770473769775" lon="-108.00058245097095"><ele>1839.0</ele><time>2026-04-11T17:16:38Z</time></trkpt><trkpt lat="36.77581219116464" lon="-108.00068238286676"><ele>1839.0</ele><time>2026-04-11T17:16:39Z</time></trkpt><trkpt lat="36.77587575408646" lon="-108.00076389382085"><ele>1839.0</ele><time>2026-04-11T17:16:40Z</time></trkpt><trkpt lat="36.77596492896322" lon="-108.00086248057107"><ele>1839.6666666666667</ele><time>2026-04-11T17:16:41Z</time></trkpt><trkpt lat="36.7760295698488" lon="-108.00094223648456"><ele>1840.3333333333335</ele><time>2026-04-11T17:16:42Z</time></trkpt><trkpt lat="36.77604286457528" lon="-108.0010403598544"><ele>1841.0</ele><time>2026-04-11T17:16:43Z</time></trkpt><trkpt lat="36.77608579747131" lon="-108.00111889472274"><ele>1841.6666666666667</ele><time>2026-04-11T17:16:44Z</time></trkpt><trkpt lat="36.77614646021331" lon="-108.00120410683813"><ele>1842.3333333333335</ele><time>2026-04-11T17:16:45Z</time></trkpt><trkpt lat="36.77622624352319" lon="-108.00124034013112"><ele>1843.0</ele><time>2026-04-11T17:16:46Z</time></trkpt><trkpt lat="36.77632215170906" lon="-108.0012499367696"><ele>1843.0</ele><time>2026-04-11T17:16:47Z</time></trkpt><trkpt lat="36.77640656692712" lon="-108.00132493274644"><ele>1843.0000000000002</ele><time>2026-04-11T17:16:48Z</time></trkpt><trkpt lat="36.776458746585554" lon="-108.00138156332726"><ele>1843.0000000000002</ele><time>2026-04-11T17:16:49Z</time></trkpt><trkpt lat="36.77650950125498" lon="-108.00148559339114"><ele>1843.0</ele><time>2026-04-11T17:16:50Z</time></trkpt><trkpt lat="36.7765699109944" lon="-108.00160866738594"><ele>1843.0</ele><time>2026-04-11T17:16:51Z</time></trkpt><trkpt lat="36.776638862728994" lon="-108.00167365903161"><ele>1842.8333333333335</ele><time>2026-04-11T17:16:52Z</time></trkpt><trkpt lat="36.77673348040512" lon="-108.00175515472037"><ele>1842.6666666666667</ele><time>2026-04-11T17:17:17Z</time></trkpt><trkpt lat="36.77677091766343" lon="-108.0018344989547"><ele>1842.5</ele><time>2026-04-11T17:17:18Z</time></trkpt><trkpt lat="36.77679423122986" lon="-108.00192537748337"><ele>1842.3333333333335</ele><time>2026-04-11T17:17:19Z</time></trkpt><trkpt lat="36.77685610230826" lon="-108.0019712600434"><ele>1842.1666666666667</ele><time>2026-04-11T17:17:20Z</time></trkpt><trkpt lat="36.776942648690486" lon="-108.00198398018199"><ele>1842.0</ele><time>2026-04-11T17:17:21Z</time></trkpt><trkpt lat="36.777034841950574" lon="-108.00204435436471"><ele>1840.8</ele><time>2026-04-11T17:17:22Z</time></trkpt><trkpt lat="36.777124852703174" lon="-108.00215736635803"><ele>1839.6</ele><time>2026-04-11T17:17:23Z</time></trkpt><trkpt lat="36.77721850588469" lon="-108.00220714120616"><ele>1838.3999999999999</ele><time>2026-04-11T17:17:24Z</time></trkpt><trkpt lat="36.77730495205391" lon="-108.00224164317598"><ele>1837.1999999999998</ele><time>2026-04-11T17:17:25Z</time></trkpt><trkpt lat="36.777383510236525" lon="-108.00229860547716"><ele>1836.0</ele><time>2026-04-11T17:17:26Z</time></trkpt><trkpt lat="36.77746656950567" lon="-108.00238434524437"><ele>1836.0</ele><time>2026-04-11T17:17:27Z</time></trkpt><trkpt lat="36.7775370882869" lon="-108.00245089269085"><ele>1836.0</ele><time>2026-04-11T17:17:28Z</time></trkpt><trkpt lat="36.777584903403806" lon="-108.002513845654"><ele>1836.0</ele><time>2026-04-11T17:17:29Z</time></trkpt><trkpt lat="36.777625822456606" lon="-108.0025857331145"><ele>1836.0</ele><time>2026-04-11T17:17:30Z</time></trkpt><trkpt lat="36.77768363832541" lon="-108.0026630059295"><ele>1836.0</ele><time>2026-04-11T17:17:31Z</time></trkpt><trkpt lat="36.777729007445" lon="-108.00276490991547"><ele>1836.0</ele><time>2026-04-11T17:17:32Z</time></trkpt><trkpt lat="36.77779694694897" lon="-108.00283582746393"><ele>1834.3333333333333</ele><time>2026-04-11T17:17:33Z</time></trkpt><trkpt lat="36.77785823489498" lon="-108.00287002566796"><ele>1832.6666666666665</ele><time>2026-04-11T17:17:34Z</time></trkpt><trkpt lat="36.77792766178785" lon="-108.00290318311738"><ele>1831.0</ele><time>2026-04-11T17:17:35Z</time></trkpt><trkpt lat="36.777980846681274" lon="-108.00294619084875"><ele>1829.3333333333333</ele><time>2026-04-11T17:17:36Z</time></trkpt><trkpt lat="36.777995870181314" lon="-108.0030417782557"><ele>1827.6666666666665</ele><time>2026-04-11T17:17:37Z</time></trkpt><trkpt lat="36.7780048580741" lon="-108.00316391892582"><ele>1826.0</ele><time>2026-04-11T17:17:38Z</time></trkpt><trkpt lat="36.778037599985666" lon="-108.00327454310565"><ele>1825.6</ele><time>2026-04-11T17:17:39Z</time></trkpt><trkpt lat="36.77802868112804" lon="-108.0033736979214"><ele>1825.1999999999998</ele><time>2026-04-11T17:17:40Z</time></trkpt><trkpt lat="36.778028363913535" lon="-108.00356267902751"><ele>1824.8000000000002</ele><time>2026-04-11T17:17:42Z</time></trkpt><trkpt lat="36.7780793168861" lon="-108.00369279549983"><ele>1824.4</ele><time>2026-04-11T17:17:43Z</time></trkpt><trkpt lat="36.77812080531187" lon="-108.00378880392613"><ele>1824.0</ele><time>2026-04-11T17:17:44Z</time></trkpt><trkpt lat="36.77811481683331" lon="-108.00390301005666"><ele>1824.0</ele><time>2026-04-11T17:17:45Z</time></trkpt><trkpt lat="36.77806611018474" lon="-108.004055395803"><ele>1824.0</ele><time>2026-04-11T17:17:46Z</time></trkpt><trkpt lat="36.77801770432282" lon="-108.00418211612212"><ele>1824.0</ele><time>2026-04-11T17:17:47Z</time></trkpt><trkpt lat="36.77798475205055" lon="-108.00427516675937"><ele>1824.0</ele><time>2026-04-11T17:17:48Z</time></trkpt><trkpt lat="36.77798807082945" lon="-108.00436677660635"><ele>1824.0</ele><time>2026-04-11T17:17:49Z</time></trkpt><trkpt lat="36.77805755177777" lon="-108.00443149432185"><ele>1823.3333333333333</ele><time>2026-04-11T17:17:50Z</time></trkpt><trkpt lat="36.77813458065163" lon="-108.00453568859393"><ele>1822.6666666666665</ele><time>2026-04-11T17:17:51Z</time></trkpt><trkpt lat="36.778165025091155" lon="-108.00463354620253"><ele>1822.0</ele><time>2026-04-11T17:17:52Z</time></trkpt><trkpt lat="36.778199037358426" lon="-108.00472473322317"><ele>1821.3333333333333</ele><time>2026-04-11T17:17:53Z</time></trkpt><trkpt lat="36.77821878867974" lon="-108.00484035936174"><ele>1820.6666666666665</ele><time>2026-04-11T17:17:54Z</time></trkpt><trkpt lat="36.77826580479054" lon="-108.00491430159671"><ele>1820.0</ele><time>2026-04-11T17:17:55Z</time></trkpt><trkpt lat="36.77832961307972" lon="-108.00493545295771"><ele>1820.0</ele><time>2026-04-11T17:17:56Z</time></trkpt><trkpt lat="36.77842503169309" lon="-108.00492904079005"><ele>1820.0</ele><time>2026-04-11T17:17:57Z</time></trkpt><trkpt lat="36.77853165598806" lon="-108.0049549265624"><ele>1820.0</ele><time>2026-04-11T17:17:58Z</time></trkpt><trkpt lat="36.77862189422218" lon="-108.0050056420858"><ele>1820.0</ele><time>2026-04-11T17:17:59Z</time></trkpt><trkpt lat="36.7787022638389" lon="-108.00507906753452"><ele>1820.0</ele><time>2026-04-11T17:18:00Z</time></trkpt><trkpt lat="36.77879486757458" lon="-108.00515728016134"><ele>1819.3333333333333</ele><time>2026-04-11T17:18:01Z</time></trkpt><trkpt lat="36.7788802847204" lon="-108.00522450291744"><ele>1818.6666666666665</ele><time>2026-04-11T17:18:02Z</time></trkpt><trkpt lat="36.778932450568476" lon="-108.00533590827764"><ele>1818.0</ele><time>2026-04-11T17:18:03Z</time></trkpt><trkpt lat="36.77894440479803" lon="-108.00544963550078"><ele>1817.3333333333335</ele><time>2026-04-11T17:18:04Z</time></trkpt><trkpt lat="36.77895202758195" lon="-108.00553178483105"><ele>1816.6666666666667</ele><time>2026-04-11T17:18:05Z</time></trkpt><trkpt lat="36.77901389221371" lon="-108.00557744399114"><ele>1816.0</ele><time>2026-04-11T17:18:06Z</time></trkpt><trkpt lat="36.77910154228791" lon="-108.0055845439739"><ele>1816.0</ele><time>2026-04-11T17:18:07Z</time></trkpt><trkpt lat="36.779186723483654" lon="-108.00558831679103"><ele>1816.0</ele><time>2026-04-11T17:18:08Z</time></trkpt><trkpt lat="36.779237633012634" lon="-108.00565272233781"><ele>1816.0</ele><time>2026-04-11T17:18:09Z</time></trkpt><trkpt lat="36.77927054711673" lon="-108.00578076678222"><ele>1816.0</ele><time>2026-04-11T17:18:10Z</time></trkpt><trkpt lat="36.77931798589748" lon="-108.00589338625078"><ele>1816.0</ele><time>2026-04-11T17:18:11Z</time></trkpt><trkpt lat="36.77938211061065" lon="-108.00599290873292"><ele>1815.8</ele><time>2026-04-11T17:18:12Z</time></trkpt><trkpt lat="36.77940187348043" lon="-108.00616283581742"><ele>1815.6</ele><time>2026-04-11T17:18:14Z</time></trkpt><trkpt lat="36.77939497886074" lon="-108.00629029778003"><ele>1815.4</ele><time>2026-04-11T17:18:15Z</time></trkpt><trkpt lat="36.77945373789464" lon="-108.00635779724595"><ele>1815.2</ele><time>2026-04-11T17:18:16Z</time></trkpt><trkpt lat="36.779534478496124" lon="-108.00646057697821"><ele>1815.0</ele><time>2026-04-11T17:18:17Z</time></trkpt><trkpt lat="36.77957868541888" lon="-108.00657930963696"><ele>1815.4</ele><time>2026-04-11T17:18:18Z</time></trkpt><trkpt lat="36.77958155798071" lon="-108.00670110512739"><ele>1815.8</ele><time>2026-04-11T17:18:19Z</time></trkpt><trkpt lat="36.77961889619528" lon="-108.00677738458097"><ele>1816.1999999999998</ele><time>2026-04-11T17:18:20Z</time></trkpt><trkpt lat="36.77970320852769" lon="-108.00683241488744"><ele>1816.6</ele><time>2026-04-11T17:18:21Z</time></trkpt><trkpt lat="36.77979797738116" lon="-108.00689260518503"><ele>1817.0</ele><time>2026-04-11T17:18:22Z</time></trkpt><trkpt lat="36.77988682846515" lon="-108.00694130949846"><ele>1816.9999999999998</ele><time>2026-04-11T17:18:23Z</time></trkpt><trkpt lat="36.77995448030919" lon="-108.00699271619374"><ele>1817.0</ele><time>2026-04-11T17:18:24Z</time></trkpt><trkpt lat="36.77999982506668" lon="-108.00706652529915"><ele>1817.0</ele><time>2026-04-11T17:18:25Z</time></trkpt><trkpt lat="36.780046368504216" lon="-108.00714996779888"><ele>1817.0</ele><time>2026-04-11T17:18:26Z</time></trkpt><trkpt lat="36.780070624461445" lon="-108.00724732374339"><ele>1816.9999999999998</ele><time>2026-04-11T17:18:27Z</time></trkpt><trkpt lat="36.78010625192747" lon="-108.00736581906412"><ele>1817.0</ele><time>2026-04-11T17:18:28Z</time></trkpt><trkpt lat="36.78015231552064" lon="-108.00745291559083"><ele>1816.0</ele><time>2026-04-11T17:18:29Z</time></trkpt><trkpt lat="36.78030200373649" lon="-108.00751089666285"><ele>1815.0</ele><time>2026-04-11T17:18:31Z</time></trkpt><trkpt lat="36.78042982187565" lon="-108.00750449077923"><ele>1814.0</ele><time>2026-04-11T17:18:32Z</time></trkpt><trkpt lat="36.780538818282565" lon="-108.00749022594458"><ele>1813.0</ele><time>2026-04-11T17:18:33Z</time></trkpt><trkpt lat="36.78062679926781" lon="-108.00744527495281"><ele>1813.0000000000002</ele><time>2026-04-11T17:18:34Z</time></trkpt><trkpt lat="36.78069163872233" lon="-108.00741714455418"><ele>1813.0</ele><time>2026-04-11T17:18:35Z</time></trkpt><trkpt lat="36.780769528831286" lon="-108.00738577821382"><ele>1813.0</ele><time>2026-04-11T17:18:36Z</time></trkpt><trkpt lat="36.78083625979933" lon="-108.00733651397168"><ele>1813.0</ele><time>2026-04-11T17:18:37Z</time></trkpt><trkpt lat="36.78091263166092" lon="-108.00729367566947"><ele>1813.0000000000002</ele><time>2026-04-11T17:18:38Z</time></trkpt><trkpt lat="36.7809861678111" lon="-108.00730456710879"><ele>1813.0</ele><time>2026-04-11T17:18:39Z</time></trkpt><trkpt lat="36.781061251223946" lon="-108.00730181875471"><ele>1812.2</ele><time>2026-04-11T17:18:40Z</time></trkpt><trkpt lat="36.78114833620572" lon="-108.00726214462155"><ele>1811.4</ele><time>2026-04-11T17:18:41Z</time></trkpt><trkpt lat="36.7812562025125" lon="-108.00726611295498"><ele>1810.6000000000001</ele><time>2026-04-11T17:18:42Z</time></trkpt><trkpt lat="36.78136191538717" lon="-108.00730756226201"><ele>1809.8000000000002</ele><time>2026-04-11T17:18:43Z</time></trkpt><trkpt lat="36.78142974883176" lon="-108.00732321663695"><ele>1809.0</ele><time>2026-04-11T17:18:44Z</time></trkpt><trkpt lat="36.78156381601945" lon="-108.0073070890881"><ele>1809.0</ele><time>2026-04-11T17:18:46Z</time></trkpt><trkpt lat="36.781670006850554" lon="-108.00730953947928"><ele>1809.0</ele><time>2026-04-11T17:18:47Z</time></trkpt><trkpt lat="36.781757876154174" lon="-108.00733166703233"><ele>1809.0</ele><time>2026-04-11T17:18:48Z</time></trkpt><trkpt lat="36.781838588169286" lon="-108.00734830228814"><ele>1809.0</ele><time>2026-04-11T17:18:49Z</time></trkpt><trkpt lat="36.781932265867" lon="-108.00735396052436"><ele>1809.0</ele><time>2026-04-11T17:18:50Z</time></trkpt><trkpt lat="36.78202368527016" lon="-108.00735171965069"><ele>1807.8000000000002</ele><time>2026-04-11T17:18:51Z</time></trkpt><trkpt lat="36.78209582303595" lon="-108.0073647467995"><ele>1806.6000000000001</ele><time>2026-04-11T17:18:52Z</time></trkpt><trkpt lat="36.78220164873466" lon="-108.00741428370641"><ele>1805.4</ele><time>2026-04-11T17:18:54Z</time></trkpt><trkpt lat="36.78228114352863" lon="-108.00737390122349"><ele>1804.2</ele><time>2026-04-11T17:18:55Z</time></trkpt><trkpt lat="36.78238731577371" lon="-108.00729488012213"><ele>1803.0</ele><time>2026-04-11T17:18:56Z</time></trkpt><trkpt lat="36.78246781974207" lon="-108.0072366837373"><ele>1803.0</ele><time>2026-04-11T17:18:57Z</time></trkpt><trkpt lat="36.78252638603212" lon="-108.00718683216343"><ele>1803.0</ele><time>2026-04-11T17:18:58Z</time></trkpt><trkpt lat="36.782578041309115" lon="-108.00712841428015"><ele>1803.0</ele><time>2026-04-11T17:18:59Z</time></trkpt><trkpt lat="36.782636460817756" lon="-108.00704058995375"><ele>1803.0</ele><time>2026-04-11T17:19:00Z</time></trkpt><trkpt lat="36.78271183521553" lon="-108.00697905130448"><ele>1803.0</ele><time>2026-04-11T17:19:01Z</time></trkpt><trkpt lat="36.78279816983671" lon="-108.00696090332562"><ele>1803.0</ele><time>2026-04-11T17:19:02Z</time></trkpt><trkpt lat="36.78288675708988" lon="-108.0069659422536"><ele>1800.5</ele><time>2026-04-11T17:19:03Z</time></trkpt><trkpt lat="36.782947520825346" lon="-108.00694065068106"><ele>1798.0</ele><time>2026-04-11T17:19:04Z</time></trkpt><trkpt lat="36.78304219593954" lon="-108.00703431852156"><ele>1795.5</ele><time>2026-04-11T17:19:06Z</time></trkpt><trkpt lat="36.783141572632246" lon="-108.00717035871466"><ele>1793.0</ele><time>2026-04-11T17:19:07Z</time></trkpt><trkpt lat="36.78323382720148" lon="-108.00727199649236"><ele>1793.0</ele><time>2026-04-11T17:19:08Z</time></trkpt><trkpt lat="36.783314373438984" lon="-108.00733937852985"><ele>1793.0000000000002</ele><time>2026-04-11T17:19:09Z</time></trkpt><trkpt lat="36.7833844962904" lon="-108.00739663629344"><ele>1793.0000000000002</ele><time>2026-04-11T17:19:10Z</time></trkpt><trkpt lat="36.78347898280769" lon="-108.00742588394736"><ele>1793.0</ele><time>2026-04-11T17:19:11Z</time></trkpt><trkpt lat="36.78362670110628" lon="-108.00749022214566"><ele>1793.0</ele><time>2026-04-11T17:19:12Z</time></trkpt><trkpt lat="36.78377233144032" lon="-108.00755660526262"><ele>1792.0</ele><time>2026-04-11T17:19:13Z</time></trkpt><trkpt lat="36.78388076399795" lon="-108.00762249204527"><ele>1791.0000000000002</ele><time>2026-04-11T17:19:14Z</time></trkpt><trkpt lat="36.783969419223" lon="-108.00767341029093"><ele>1790.0000000000002</ele><time>2026-04-11T17:19:15Z</time></trkpt><trkpt lat="36.7840673915851" lon="-108.00773110461046"><ele>1789.0</ele><time>2026-04-11T17:19:16Z</time></trkpt><trkpt lat="36.78415570196579" lon="-108.00781809181751"><ele>1788.0</ele><time>2026-04-11T17:19:17Z</time></trkpt><trkpt lat="36.78424048001878" lon="-108.00792102210818"><ele>1788.0</ele><time>2026-04-11T17:19:18Z</time></trkpt><trkpt lat="36.784334359601466" lon="-108.00801054079606"><ele>1788.0000000000002</ele><time>2026-04-11T17:19:19Z</time></trkpt><trkpt lat="36.784422699879485" lon="-108.00807938614336"><ele>1788.0000000000002</ele><time>2026-04-11T17:19:20Z</time></trkpt><trkpt lat="36.78448471711027" lon="-108.00816307783926"><ele>1788.0</ele><time>2026-04-11T17:19:21Z</time></trkpt><trkpt lat="36.78454758982374" lon="-108.00821265329718"><ele>1788.0</ele><time>2026-04-11T17:19:22Z</time></trkpt><trkpt lat="36.78463656254941" lon="-108.00821377532641"><ele>1787.2</ele><time>2026-04-11T17:19:23Z</time></trkpt><trkpt lat="36.78473672143576" lon="-108.00821497015023"><ele>1786.4</ele><time>2026-04-11T17:19:24Z</time></trkpt><trkpt lat="36.78483252919368" lon="-108.00823711553174"><ele>1785.6000000000001</ele><time>2026-04-11T17:19:25Z</time></trkpt><trkpt lat="36.78492477431138" lon="-108.008325398883"><ele>1784.8000000000002</ele><time>2026-04-11T17:19:26Z</time></trkpt><trkpt lat="36.785025725098485" lon="-108.00838433054255"><ele>1784.0</ele><time>2026-04-11T17:19:27Z</time></trkpt><trkpt lat="36.785162306763844" lon="-108.00837188433898"><ele>1783.5</ele><time>2026-04-11T17:19:28Z</time></trkpt><trkpt lat="36.785322366972714" lon="-108.00832177236553"><ele>1783.0</ele><time>2026-04-11T17:19:29Z</time></trkpt><trkpt lat="36.78545477423792" lon="-108.0082825703182"><ele>1782.5</ele><time>2026-04-11T17:19:30Z</time></trkpt><trkpt lat="36.78556731982523" lon="-108.0082430681473"><ele>1782.0</ele><time>2026-04-11T17:19:31Z</time></trkpt><trkpt lat="36.785698659732276" lon="-108.00823271636952"><ele>1782.0</ele><time>2026-04-11T17:19:32Z</time></trkpt><trkpt lat="36.78583180651543" lon="-108.00822777682392"><ele>1781.9999999999998</ele><time>2026-04-11T17:19:33Z</time></trkpt><trkpt lat="36.785933581412735" lon="-108.00822593759212"><ele>1781.9999999999998</ele><time>2026-04-11T17:19:34Z</time></trkpt><trkpt lat="36.786017373617646" lon="-108.00819706840426"><ele>1782.0</ele><time>2026-04-11T17:19:35Z</time></trkpt><trkpt lat="36.78608483161938" lon="-108.00813935929486"><ele>1782.0</ele><time>2026-04-11T17:19:36Z</time></trkpt><trkpt lat="36.78612909249507" lon="-108.00806843978837"><ele>1781.5</ele><time>2026-04-11T17:19:37Z</time></trkpt><trkpt lat="36.78616052175345" lon="-108.00799214934788"><ele>1781.0</ele><time>2026-04-11T17:19:38Z</time></trkpt><trkpt lat="36.786200709434276" lon="-108.00786869300961"><ele>1780.5</ele><time>2026-04-11T17:19:40Z</time></trkpt><trkpt lat="36.78623981858196" lon="-108.00777412891227"><ele>1780.0</ele><time>2026-04-11T17:19:42Z</time></trkpt><trkpt lat="36.78627436631508" lon="-108.00770771286258"><ele>1779.5</ele><time>2026-04-11T17:19:44Z</time></trkpt><trkpt lat="36.786335588491376" lon="-108.00768175726185"><ele>1779.0</ele><time>2026-04-11T17:19:54Z</time></trkpt><trkpt lat="36.78641515085614" lon="-108.00773514967545"><ele>1779.0</ele><time>2026-04-11T17:19:57Z</time></trkpt><trkpt lat="36.786490467016996" lon="-108.00776760329788"><ele>1779.0</ele><time>2026-04-11T17:19:58Z</time></trkpt><trkpt lat="36.786580599402335" lon="-108.00780206333464"><ele>1779.0</ele><time>2026-04-11T17:19:59Z</time></trkpt><trkpt lat="36.786681125891086" lon="-108.00784555537675"><ele>1779.0</ele><time>2026-04-11T17:20:00Z</time></trkpt><trkpt lat="36.78679263070104" lon="-108.00791656664138"><ele>1779.0</ele><time>2026-04-11T17:20:01Z</time></trkpt><trkpt lat="36.78689689558167" lon="-108.00802461317677"><ele>1778.25</ele><time>2026-04-11T17:20:02Z</time></trkpt><trkpt lat="36.78700253569477" lon="-108.00812438359915"><ele>1777.5</ele><time>2026-04-11T17:20:03Z</time></trkpt><trkpt lat="36.78710873921493" lon="-108.00819573383966"><ele>1776.75</ele><time>2026-04-11T17:20:04Z</time></trkpt><trkpt lat="36.787231513561956" lon="-108.00826002534211"><ele>1776.0</ele><time>2026-04-11T17:20:05Z</time></trkpt><trkpt lat="36.78735669942778" lon="-108.00830169344424"><ele>1775.8333333333333</ele><time>2026-04-11T17:20:06Z</time></trkpt><trkpt lat="36.78745040521135" lon="-108.00833280940465"><ele>1775.6666666666665</ele><time>2026-04-11T17:20:07Z</time></trkpt><trkpt lat="36.78750992600914" lon="-108.00836164352046"><ele>1775.5</ele><time>2026-04-11T17:20:08Z</time></trkpt><trkpt lat="36.78758107602074" lon="-108.00836340637724"><ele>1775.3333333333333</ele><time>2026-04-11T17:20:09Z</time></trkpt><trkpt lat="36.78767212868442" lon="-108.00840387673416"><ele>1775.1666666666665</ele><time>2026-04-11T17:20:10Z</time></trkpt><trkpt lat="36.78772213967799" lon="-108.00847837818606"><ele>1775.0</ele><time>2026-04-11T17:20:11Z</time></trkpt><trkpt lat="36.787780051580214" lon="-108.00861284640922"><ele>1774.9999999999998</ele><time>2026-04-11T17:20:13Z</time></trkpt><trkpt lat="36.787799758631785" lon="-108.00869611561913"><ele>1775.0</ele><time>2026-04-11T17:20:14Z</time></trkpt><trkpt lat="36.78779507236744" lon="-108.00882697824326"><ele>1775.0</ele><time>2026-04-11T17:20:16Z</time></trkpt><trkpt lat="36.78774959325395" lon="-108.00888733861721"><ele>1775.0</ele><time>2026-04-11T17:20:17Z</time></trkpt><trkpt lat="36.787704913579375" lon="-108.00895171833179"><ele>1774.9999999999998</ele><time>2026-04-11T17:20:18Z</time></trkpt><trkpt lat="36.787705416112296" lon="-108.0090925850235"><ele>1775.0</ele><time>2026-04-11T17:20:20Z</time></trkpt><trkpt lat="36.78772166875374" lon="-108.00919028779322"><ele>1775.75</ele><time>2026-04-11T17:20:21Z</time></trkpt><trkpt lat="36.7877263094706" lon="-108.00930736898742"><ele>1776.5</ele><time>2026-04-11T17:20:22Z</time></trkpt><trkpt lat="36.787712984337084" lon="-108.00945711715286"><ele>1777.25</ele><time>2026-04-11T17:20:23Z</time></trkpt><trkpt lat="36.78770029113639" lon="-108.0096204056726"><ele>1778.0</ele><time>2026-04-11T17:20:24Z</time></trkpt><trkpt lat="36.787697283695906" lon="-108.00976164533756"><ele>1778.0</ele><time>2026-04-11T17:20:25Z</time></trkpt><trkpt lat="36.7876979643365" lon="-108.00986251374007"><ele>1778.0000000000002</ele><time>2026-04-11T17:20:26Z</time></trkpt><trkpt lat="36.78774818522628" lon="-108.00997555073434"><ele>1778.0000000000002</ele><time>2026-04-11T17:20:28Z</time></trkpt><trkpt lat="36.78785566840074" lon="-108.01006740736855"><ele>1778.0</ele><time>2026-04-11T17:20:30Z</time></trkpt><trkpt lat="36.78789643126581" lon="-108.01015524549138"><ele>1778.0</ele><time>2026-04-11T17:20:31Z</time></trkpt><trkpt lat="36.78791353056711" lon="-108.01024249544133"><ele>1777.8000000000002</ele><time>2026-04-11T17:20:32Z</time></trkpt><trkpt lat="36.78800813855425" lon="-108.01037205527416"><ele>1777.6000000000001</ele><time>2026-04-11T17:20:34Z</time></trkpt><trkpt lat="36.78803247765797" lon="-108.01046734270892"><ele>1777.3999999999999</ele><time>2026-04-11T17:20:35Z</time></trkpt><trkpt lat="36.788008995266864" lon="-108.0105667947085"><ele>1777.1999999999998</ele><time>2026-04-11T17:20:36Z</time></trkpt><trkpt lat="36.78798813675795" lon="-108.01067661292774"><ele>1777.0</ele><time>2026-04-11T17:20:37Z</time></trkpt><trkpt lat="36.78801756978906" lon="-108.01078279364971"><ele>1776.8</ele><time>2026-04-11T17:20:38Z</time></trkpt><trkpt lat="36.788070044080726" lon="-108.01091941981083"><ele>1776.6</ele><time>2026-04-11T17:20:39Z</time></trkpt><trkpt lat="36.78810394752455" lon="-108.01105649874528"><ele>1776.3999999999999</ele><time>2026-04-11T17:20:40Z</time></trkpt><trkpt lat="36.78811061450435" lon="-108.01115964862996"><ele>1776.1999999999998</ele><time>2026-04-11T17:20:41Z</time></trkpt><trkpt lat="36.78811087020208" lon="-108.01124399743131"><ele>1776.0</ele><time>2026-04-11T17:20:42Z</time></trkpt><trkpt lat="36.788215047307254" lon="-108.01131719053328"><ele>1776.0</ele><time>2026-04-11T17:20:44Z</time></trkpt><trkpt lat="36.788318468378456" lon="-108.01138502022836"><ele>1776.0</ele><time>2026-04-11T17:20:45Z</time></trkpt><trkpt lat="36.78839285687546" lon="-108.01148931930861"><ele>1776.0</ele><time>2026-04-11T17:20:46Z</time></trkpt><trkpt lat="36.78841570921848" lon="-108.01157013228676"><ele>1776.0</ele><time>2026-04-11T17:20:47Z</time></trkpt><trkpt lat="36.788497335693194" lon="-108.01163944139213"><ele>1776.0</ele><time>2026-04-11T17:20:49Z</time></trkpt><trkpt lat="36.78857386031569" lon="-108.01171676783244"><ele>1775.6</ele><time>2026-04-11T17:20:50Z</time></trkpt><trkpt lat="36.78864732076316" lon="-108.01182016355291"><ele>1775.1999999999998</ele><time>2026-04-11T17:20:51Z</time></trkpt><trkpt lat="36.78871023850885" lon="-108.01192169087241"><ele>1774.8000000000002</ele><time>2026-04-11T17:20:52Z</time></trkpt><trkpt lat="36.788728943569325" lon="-108.01200772044649"><ele>1774.4</ele><time>2026-04-11T17:20:53Z</time></trkpt><trkpt lat="36.78871668132878" lon="-108.0121106319943"><ele>1774.0</ele><time>2026-04-11T17:20:54Z</time></trkpt><trkpt lat="36.788806499120575" lon="-108.01221583064688"><ele>1774.0000000000002</ele><time>2026-04-11T17:20:56Z</time></trkpt><trkpt lat="36.78889972922661" lon="-108.01225662259421"><ele>1774.0</ele><time>2026-04-11T17:20:57Z</time></trkpt><trkpt lat="36.78896910550939" lon="-108.01230094920312"><ele>1774.0</ele><time>2026-04-11T17:20:58Z</time></trkpt><trkpt lat="36.78900856067894" lon="-108.0123963826332"><ele>1774.0</ele><time>2026-04-11T17:20:59Z</time></trkpt><trkpt lat="36.78904094884749" lon="-108.0125077292971"><ele>1774.0000000000002</ele><time>2026-04-11T17:21:00Z</time></trkpt><trkpt lat="36.789080790594696" lon="-108.01258687753446"><ele>1774.0</ele><time>2026-04-11T17:21:01Z</time></trkpt><trkpt lat="36.789141591333525" lon="-108.01266153272688"><ele>1774.2</ele><time>2026-04-11T17:21:02Z</time></trkpt><trkpt lat="36.789206331922344" lon="-108.01273873984142"><ele>1774.4</ele><time>2026-04-11T17:21:03Z</time></trkpt><trkpt lat="36.789278201134444" lon="-108.0128320158137"><ele>1774.6</ele><time>2026-04-11T17:21:04Z</time></trkpt><trkpt lat="36.78935609107072" lon="-108.01293921016217"><ele>1774.8</ele><time>2026-04-11T17:21:05Z</time></trkpt><trkpt lat="36.78942086349479" lon="-108.013059026547"><ele>1775.0</ele><time>2026-04-11T17:21:06Z</time></trkpt><trkpt lat="36.78946070472916" lon="-108.01315540314414"><ele>1774.8333333333333</ele><time>2026-04-11T17:21:07Z</time></trkpt><trkpt lat="36.78949209175932" lon="-108.01323884240065"><ele>1774.6666666666665</ele><time>2026-04-11T17:21:08Z</time></trkpt><trkpt lat="36.78951912787056" lon="-108.01332556841767"><ele>1774.5</ele><time>2026-04-11T17:21:09Z</time></trkpt><trkpt lat="36.789539538107476" lon="-108.0134320218737"><ele>1774.3333333333335</ele><time>2026-04-11T17:21:10Z</time></trkpt><trkpt lat="36.7895804754813" lon="-108.0135186885711"><ele>1774.1666666666667</ele><time>2026-04-11T17:21:11Z</time></trkpt><trkpt lat="36.78965581891619" lon="-108.01357837582374"><ele>1774.0</ele><time>2026-04-11T17:21:12Z</time></trkpt><trkpt lat="36.78971401759792" lon="-108.01362794294805"><ele>1774.0</ele><time>2026-04-11T17:21:13Z</time></trkpt><trkpt lat="36.78976445415345" lon="-108.01370706969655"><ele>1774.0</ele><time>2026-04-11T17:21:14Z</time></trkpt><trkpt lat="36.78983788318506" lon="-108.01378542731719"><ele>1774.0</ele><time>2026-04-11T17:21:15Z</time></trkpt><trkpt lat="36.78991728988766" lon="-108.01388177229002"><ele>1774.0</ele><time>2026-04-11T17:21:16Z</time></trkpt><trkpt lat="36.78997623945498" lon="-108.01397426127446"><ele>1774.0</ele><time>2026-04-11T17:21:17Z</time></trkpt><trkpt lat="36.79003168402915" lon="-108.014103798765"><ele>1774.4</ele><time>2026-04-11T17:21:18Z</time></trkpt><trkpt lat="36.79010505185948" lon="-108.01419867271149"><ele>1774.8000000000002</ele><time>2026-04-11T17:21:19Z</time></trkpt><trkpt lat="36.790196877611514" lon="-108.0142600184491"><ele>1775.1999999999998</ele><time>2026-04-11T17:21:20Z</time></trkpt><trkpt lat="36.79028994654884" lon="-108.01432096248107"><ele>1775.6</ele><time>2026-04-11T17:21:21Z</time></trkpt><trkpt lat="36.79037197532833" lon="-108.01440142653804"><ele>1776.0</ele><time>2026-04-11T17:21:22Z</time></trkpt><trkpt lat="36.79043664054581" lon="-108.01447118222022"><ele>1775.0</ele><time>2026-04-11T17:21:23Z</time></trkpt><trkpt lat="36.79049350935913" lon="-108.01450942472329"><ele>1774.0</ele><time>2026-04-11T17:21:24Z</time></trkpt><trkpt lat="36.79057707735311" lon="-108.01455301371664"><ele>1773.0</ele><time>2026-04-11T17:21:25Z</time></trkpt><trkpt lat="36.79067761178878" lon="-108.01463676130412"><ele>1772.0</ele><time>2026-04-11T17:21:26Z</time></trkpt><trkpt lat="36.79077688087817" lon="-108.01473936948574"><ele>1771.0</ele><time>2026-04-11T17:21:27Z</time></trkpt><trkpt lat="36.79087289832205" lon="-108.0148308599318"><ele>1771.0</ele><time>2026-04-11T17:21:28Z</time></trkpt><trkpt lat="36.790936322443386" lon="-108.01493593974085"><ele>1771.0</ele><time>2026-04-11T17:21:29Z</time></trkpt><trkpt lat="36.79096851436258" lon="-108.01504098935918"><ele>1771.0</ele><time>2026-04-11T17:21:30Z</time></trkpt><trkpt lat="36.79099973010673" lon="-108.01517022606116"><ele>1771.0</ele><time>2026-04-11T17:21:31Z</time></trkpt><trkpt lat="36.791021149617066" lon="-108.01526442574962"><ele>1771.0</ele><time>2026-04-11T17:21:32Z</time></trkpt><trkpt lat="36.79107760032895" lon="-108.0153138444953"><ele>1771.1999999999998</ele><time>2026-04-11T17:21:33Z</time></trkpt><trkpt lat="36.79116355763903" lon="-108.01539536204608"><ele>1771.3999999999999</ele><time>2026-04-11T17:21:34Z</time></trkpt><trkpt lat="36.79124241141222" lon="-108.01549919320435"><ele>1771.6</ele><time>2026-04-11T17:21:35Z</time></trkpt><trkpt lat="36.79128649921611" lon="-108.01559788421041"><ele>1771.8</ele><time>2026-04-11T17:21:36Z</time></trkpt><trkpt lat="36.79130269900183" lon="-108.01570180872028"><ele>1772.0</ele><time>2026-04-11T17:21:37Z</time></trkpt><trkpt lat="36.79134504547964" lon="-108.0158017419831"><ele>1772.4999999999998</ele><time>2026-04-11T17:21:39Z</time></trkpt><trkpt lat="36.791418121916834" lon="-108.01586492971153"><ele>1773.0</ele><time>2026-04-11T17:21:40Z</time></trkpt><trkpt lat="36.791451638377616" lon="-108.01593179793251"><ele>1773.5</ele><time>2026-04-11T17:21:41Z</time></trkpt><trkpt lat="36.79143200291974" lon="-108.01600988248804"><ele>1774.0</ele><time>2026-04-11T17:21:42Z</time></trkpt><trkpt lat="36.79140559935145" lon="-108.01614130925536"><ele>1774.4999999999998</ele><time>2026-04-11T17:21:43Z</time></trkpt><trkpt lat="36.79137934506199" lon="-108.01627667316852"><ele>1775.0</ele><time>2026-04-11T17:21:44Z</time></trkpt><trkpt lat="36.79134532421026" lon="-108.01639203757759"><ele>1775.0</ele><time>2026-04-11T17:21:45Z</time></trkpt><trkpt lat="36.79133202070366" lon="-108.0165184751001"><ele>1775.0</ele><time>2026-04-11T17:21:46Z</time></trkpt><trkpt lat="36.79133583265915" lon="-108.0166649277988"><ele>1775.0</ele><time>2026-04-11T17:21:47Z</time></trkpt><trkpt lat="36.791350576592684" lon="-108.01680110366478"><ele>1775.0</ele><time>2026-04-11T17:21:48Z</time></trkpt><trkpt lat="36.791364880732964" lon="-108.01692424035807"><ele>1775.0</ele><time>2026-04-11T17:21:49Z</time></trkpt><trkpt lat="36.791407061914434" lon="-108.01699761811312"><ele>1775.2</ele><time>2026-04-11T17:21:50Z</time></trkpt><trkpt lat="36.79148379959537" lon="-108.01703885182793"><ele>1775.4</ele><time>2026-04-11T17:21:51Z</time></trkpt><trkpt lat="36.79160395128615" lon="-108.0170949451049"><ele>1775.6</ele><time>2026-04-11T17:21:52Z</time></trkpt><trkpt lat="36.791682287140546" lon="-108.01710720920096"><ele>1775.8</ele><time>2026-04-11T17:21:53Z</time></trkpt><trkpt lat="36.79175619675158" lon="-108.01711864196159"><ele>1776.0</ele><time>2026-04-11T17:21:54Z</time></trkpt><trkpt lat="36.791863905789256" lon="-108.01714727796787"><ele>1774.4</ele><time>2026-04-11T17:21:55Z</time></trkpt><trkpt lat="36.79195776746714" lon="-108.01716029222736"><ele>1772.8</ele><time>2026-04-11T17:21:56Z</time></trkpt><trkpt lat="36.79203889559501" lon="-108.01715442693569"><ele>1771.2000000000003</ele><time>2026-04-11T17:21:57Z</time></trkpt><trkpt lat="36.79212741347206" lon="-108.01714967803771"><ele>1769.6000000000001</ele><time>2026-04-11T17:21:58Z</time></trkpt><trkpt lat="36.79221894530282" lon="-108.01716328922846"><ele>1768.0</ele><time>2026-04-11T17:21:59Z</time></trkpt><trkpt lat="36.7923239317457" lon="-108.01715066143203"><ele>1768.0000000000002</ele><time>2026-04-11T17:22:00Z</time></trkpt><trkpt lat="36.79240887998065" lon="-108.01715846437098"><ele>1768.0</ele><time>2026-04-11T17:22:01Z</time></trkpt><trkpt lat="36.79249317764008" lon="-108.01718406430757"><ele>1768.0</ele><time>2026-04-11T17:22:02Z</time></trkpt><trkpt lat="36.792603635759235" lon="-108.01721852559723"><ele>1768.0</ele><time>2026-04-11T17:22:03Z</time></trkpt><trkpt lat="36.79267146502677" lon="-108.01723042848408"><ele>1768.0000000000002</ele><time>2026-04-11T17:22:04Z</time></trkpt><trkpt lat="36.79274738785853" lon="-108.01722512644047"><ele>1768.0</ele><time>2026-04-11T17:22:05Z</time></trkpt><trkpt lat="36.79282953369896" lon="-108.01723215536062"><ele>1767.0</ele><time>2026-04-11T17:22:06Z</time></trkpt><trkpt lat="36.79290788505297" lon="-108.01724094292078"><ele>1766.0000000000002</ele><time>2026-04-11T17:22:07Z</time></trkpt><trkpt lat="36.79300175778869" lon="-108.01726727629384"><ele>1765.0000000000002</ele><time>2026-04-11T17:22:08Z</time></trkpt><trkpt lat="36.79311265147001" lon="-108.0172991074824"><ele>1764.0</ele><time>2026-04-11T17:22:09Z</time></trkpt><trkpt lat="36.793229294116536" lon="-108.01732763544524"><ele>1763.0</ele><time>2026-04-11T17:22:10Z</time></trkpt><trkpt lat="36.793315347522416" lon="-108.01734946787913"><ele>1763.0</ele><time>2026-04-11T17:22:11Z</time></trkpt><trkpt lat="36.79340874007327" lon="-108.01741505056411"><ele>1763.0</ele><time>2026-04-11T17:22:13Z</time></trkpt><trkpt lat="36.79346519428831" lon="-108.01745515146915"><ele>1763.0</ele><time>2026-04-11T17:22:14Z</time></trkpt><trkpt lat="36.79352867873659" lon="-108.01749102274863"><ele>1763.0</ele><time>2026-04-11T17:22:15Z</time></trkpt><trkpt lat="36.7935930867343" lon="-108.01752265489128"><ele>1763.0</ele><time>2026-04-11T17:22:16Z</time></trkpt><trkpt lat="36.79365543007766" lon="-108.01754266548352"><ele>1763.0</ele><time>2026-04-11T17:22:17Z</time></trkpt><trkpt lat="36.793715268676536" lon="-108.01756955690361"><ele>1763.0</ele><time>2026-04-11T17:22:18Z</time></trkpt><trkpt lat="36.79378083433594" lon="-108.0175961237487"><ele>1762.3333333333333</ele><time>2026-04-11T17:22:19Z</time></trkpt><trkpt lat="36.79386969175975" lon="-108.01759141291491"><ele>1761.6666666666665</ele><time>2026-04-11T17:22:20Z</time></trkpt><trkpt lat="36.79392940807118" lon="-108.01754678679885"><ele>1761.0</ele><time>2026-04-11T17:22:21Z</time></trkpt><trkpt lat="36.79403852674516" lon="-108.01757636237555"><ele>1760.3333333333335</ele><time>2026-04-11T17:22:24Z</time></trkpt><trkpt lat="36.79406679229909" lon="-108.01765597814457"><ele>1759.6666666666667</ele><time>2026-04-11T17:25:20Z</time></trkpt><trkpt lat="36.79415579330027" lon="-108.0177327361111"><ele>1759.0</ele><time>2026-04-11T17:25:23Z</time></trkpt><trkpt lat="36.79427789685136" lon="-108.01773208099125"><ele>1757.0</ele><time>2026-04-11T17:25:25Z</time></trkpt><trkpt lat="36.79435849304139" lon="-108.01764561401008"><ele>1755.0</ele><time>2026-04-11T17:25:26Z</time></trkpt><trkpt lat="36.79441978006302" lon="-108.01753464970683"><ele>1753.0</ele><time>2026-04-11T17:25:27Z</time></trkpt><trkpt lat="36.794462291496544" lon="-108.01742434144442"><ele>1751.0</ele><time>2026-04-11T17:25:28Z</time></trkpt><trkpt lat="36.79448857907724" lon="-108.0173294616061"><ele>1749.0</ele><time>2026-04-11T17:25:29Z</time></trkpt><trkpt lat="36.794564547633776" lon="-108.01722110562413"><ele>1748.8000000000002</ele><time>2026-04-11T17:25:30Z</time></trkpt><trkpt lat="36.794637660469064" lon="-108.01711717722296"><ele>1748.6000000000001</ele><time>2026-04-11T17:25:31Z</time></trkpt><trkpt lat="36.794696838013" lon="-108.0170062741022"><ele>1748.4</ele><time>2026-04-11T17:25:32Z</time></trkpt><trkpt lat="36.7947463966801" lon="-108.016919611034"><ele>1748.2</ele><time>2026-04-11T17:25:33Z</time></trkpt><trkpt lat="36.794844364895084" lon="-108.01684267873584"><ele>1748.0</ele><time>2026-04-11T17:25:34Z</time></trkpt><trkpt lat="36.794971267885416" lon="-108.01676436613364"><ele>1748.0</ele><time>2026-04-11T17:25:35Z</time></trkpt><trkpt lat="36.79507357394861" lon="-108.01670508195437"><ele>1748.0000000000002</ele><time>2026-04-11T17:25:36Z</time></trkpt><trkpt lat="36.795161726848065" lon="-108.01665835966988"><ele>1748.0000000000002</ele><time>2026-04-11T17:25:37Z</time></trkpt><trkpt lat="36.79526682210109" lon="-108.01659398129486"><ele>1748.0</ele><time>2026-04-11T17:25:38Z</time></trkpt><trkpt lat="36.79536606892222" lon="-108.01653482299099"><ele>1748.0</ele><time>2026-04-11T17:25:39Z</time></trkpt><trkpt lat="36.7954600938417" lon="-108.0164993856455"><ele>1747.0</ele><time>2026-04-11T17:25:40Z</time></trkpt><trkpt lat="36.79555687583675" lon="-108.01650227494646"><ele>1746.0000000000002</ele><time>2026-04-11T17:25:41Z</time></trkpt><trkpt lat="36.7956756113473" lon="-108.01650435584412"><ele>1745.0000000000002</ele><time>2026-04-11T17:25:42Z</time></trkpt><trkpt lat="36.79575701703922" lon="-108.01648696117721"><ele>1744.0</ele><time>2026-04-11T17:25:43Z</time></trkpt><trkpt lat="36.7958309391391" lon="-108.01643727515656"><ele>1743.0</ele><time>2026-04-11T17:25:44Z</time></trkpt><trkpt lat="36.79589315942819" lon="-108.01638337564391"><ele>1743.0</ele><time>2026-04-11T17:25:45Z</time></trkpt><trkpt lat="36.79599977913736" lon="-108.01628115440235"><ele>1743.0000000000002</ele><time>2026-04-11T17:25:47Z</time></trkpt><trkpt lat="36.79610330023096" lon="-108.01628852980372"><ele>1743.0000000000002</ele><time>2026-04-11T17:25:48Z</time></trkpt><trkpt lat="36.79620546342384" lon="-108.01629688754466"><ele>1743.0</ele><time>2026-04-11T17:25:49Z</time></trkpt><trkpt lat="36.796268836894896" lon="-108.01627087915693"><ele>1743.0</ele><time>2026-04-11T17:25:50Z</time></trkpt><trkpt lat="36.796308137900304" lon="-108.01618789393942"><ele>1742.6000000000001</ele><time>2026-04-11T17:25:51Z</time></trkpt><trkpt lat="36.79636079341766" lon="-108.01608502054124"><ele>1742.2000000000003</ele><time>2026-04-11T17:25:52Z</time></trkpt><trkpt lat="36.79645695920985" lon="-108.016067862041"><ele>1741.8</ele><time>2026-04-11T17:25:53Z</time></trkpt><trkpt lat="36.79658506388724" lon="-108.01609056561085"><ele>1741.4</ele><time>2026-04-11T17:25:54Z</time></trkpt><trkpt lat="36.79667192616156" lon="-108.01605424804268"><ele>1741.0</ele><time>2026-04-11T17:25:55Z</time></trkpt><trkpt lat="36.79671560509033" lon="-108.01594110006126"><ele>1741.0</ele><time>2026-04-11T17:25:56Z</time></trkpt><trkpt lat="36.79676173257817" lon="-108.01582432090932"><ele>1741.0</ele><time>2026-04-11T17:25:57Z</time></trkpt><trkpt lat="36.796840487380585" lon="-108.01577518120206"><ele>1741.0</ele><time>2026-04-11T17:25:58Z</time></trkpt><trkpt lat="36.79695157902875" lon="-108.01576185306497"><ele>1741.0</ele><time>2026-04-11T17:25:59Z</time></trkpt><trkpt lat="36.79706737036554" lon="-108.01570582255471"><ele>1741.0</ele><time>2026-04-11T17:26:00Z</time></trkpt><trkpt lat="36.79717276866801" lon="-108.01560627086096"><ele>1743.5</ele><time>2026-04-11T17:26:01Z</time></trkpt><trkpt lat="36.797282788413796" lon="-108.015483363726"><ele>1746.0</ele><time>2026-04-11T17:26:02Z</time></trkpt><trkpt lat="36.79738324861194" lon="-108.01538644728005"><ele>1748.5</ele><time>2026-04-11T17:26:03Z</time></trkpt><trkpt lat="36.79745736093861" lon="-108.0152950183924"><ele>1751.0</ele><time>2026-04-11T17:26:04Z</time></trkpt><trkpt lat="36.7975050228899" lon="-108.01518892985129"><ele>1751.0</ele><time>2026-04-11T17:26:05Z</time></trkpt><trkpt lat="36.79756843531296" lon="-108.01510859669263"><ele>1751.0</ele><time>2026-04-11T17:26:06Z</time></trkpt><trkpt lat="36.79763253947792" lon="-108.01503421520124"><ele>1751.0</ele><time>2026-04-11T17:26:07Z</time></trkpt><trkpt lat="36.797689527106705" lon="-108.01494076262799"><ele>1751.0</ele><time>2026-04-11T17:26:08Z</time></trkpt><trkpt lat="36.79775833868987" lon="-108.01482724913934"><ele>1751.0</ele><time>2026-04-11T17:26:09Z</time></trkpt><trkpt lat="36.79787052940816" lon="-108.01473939695414"><ele>1753.5</ele><time>2026-04-11T17:26:10Z</time></trkpt><trkpt lat="36.79798863864617" lon="-108.01466463008987"><ele>1756.0</ele><time>2026-04-11T17:26:11Z</time></trkpt><trkpt lat="36.798108520840955" lon="-108.01463125019889"><ele>1758.5</ele><time>2026-04-11T17:26:12Z</time></trkpt><trkpt lat="36.798219202368756" lon="-108.01458948284098"><ele>1761.0</ele><time>2026-04-11T17:26:13Z</time></trkpt><trkpt lat="36.79830623172264" lon="-108.01452374158445"><ele>1761.0</ele><time>2026-04-11T17:26:14Z</time></trkpt><trkpt lat="36.79836694953198" lon="-108.01442243160402"><ele>1761.0</ele><time>2026-04-11T17:26:16Z</time></trkpt><trkpt lat="36.79845390879753" lon="-108.01433132232968"><ele>1761.0</ele><time>2026-04-11T17:26:18Z</time></trkpt><trkpt lat="36.79851840644487" lon="-108.01428243055976"><ele>1761.0</ele><time>2026-04-11T17:26:19Z</time></trkpt><trkpt lat="36.79858154689561" lon="-108.01423247569954"><ele>1761.0</ele><time>2026-04-11T17:26:20Z</time></trkpt><trkpt lat="36.79864246635192" lon="-108.01418758514208"><ele>1761.0</ele><time>2026-04-11T17:26:21Z</time></trkpt><trkpt lat="36.798729384026664" lon="-108.01411236310477"><ele>1762.75</ele><time>2026-04-11T17:26:23Z</time></trkpt><trkpt lat="36.79878778984029" lon="-108.01400758438089"><ele>1764.5</ele><time>2026-04-11T17:26:25Z</time></trkpt><trkpt lat="36.79883345147533" lon="-108.01391056939957"><ele>1766.25</ele><time>2026-04-11T17:26:28Z</time></trkpt><trkpt lat="36.7988842386038" lon="-108.01383682864862"><ele>1768.0</ele><time>2026-04-11T17:26:30Z</time></trkpt><trkpt lat="36.79901167098267" lon="-108.01363537909393"><ele>1768.0000000000002</ele><time>2026-04-11T17:26:32Z</time></trkpt><trkpt lat="36.7990636179511" lon="-108.01350363203224"><ele>1768.0</ele><time>2026-04-11T17:26:34Z</time></trkpt><trkpt lat="36.799090749859886" lon="-108.0134176997409"><ele>1768.0</ele><time>2026-04-11T17:26:35Z</time></trkpt><trkpt lat="36.79912620414474" lon="-108.01331802925137"><ele>1768.0</ele><time>2026-04-11T17:26:36Z</time></trkpt><trkpt lat="36.79917270164751" lon="-108.01322558352328"><ele>1768.0000000000002</ele><time>2026-04-11T17:26:37Z</time></trkpt><trkpt lat="36.79922297786322" lon="-108.01314851991204"><ele>1768.0</ele><time>2026-04-11T17:26:38Z</time></trkpt><trkpt lat="36.79929519856224" lon="-108.01310126202162"><ele>1769.0</ele><time>2026-04-11T17:26:39Z</time></trkpt><trkpt lat="36.799355044020274" lon="-108.01305147869957"><ele>1770.0000000000002</ele><time>2026-04-11T17:26:40Z</time></trkpt><trkpt lat="36.79942758431687" lon="-108.01295024367288"><ele>1771.0000000000002</ele><time>2026-04-11T17:26:42Z</time></trkpt><trkpt lat="36.79945432042575" lon="-108.01285169604023"><ele>1772.0</ele><time>2026-04-11T17:26:44Z</time></trkpt><trkpt lat="36.79949808939386" lon="-108.01272654111425"><ele>1773.0</ele><time>2026-04-11T17:26:46Z</time></trkpt><trkpt lat="36.79955675704003" lon="-108.01256928411568"><ele>1773.0</ele><time>2026-04-11T17:26:48Z</time></trkpt><trkpt lat="36.79958522877209" lon="-108.01247580574142"><ele>1773.0</ele><time>2026-04-11T17:26:49Z</time></trkpt><trkpt lat="36.799615359020166" lon="-108.01236805446834"><ele>1773.0</ele><time>2026-04-11T17:26:50Z</time></trkpt><trkpt lat="36.79961866296364" lon="-108.01205233624756"><ele>1773.0</ele><time>2026-04-11T17:26:51Z</time></trkpt><trkpt lat="36.79964458724028" lon="-108.01192376350004"><ele>1773.6666666666665</ele><time>2026-04-11T17:26:52Z</time></trkpt><trkpt lat="36.79963099353754" lon="-108.01157487862271"><ele>1774.3333333333333</ele><time>2026-04-11T17:27:02Z</time></trkpt><trkpt lat="36.7996320530687" lon="-108.01144794037175"><ele>1775.0</ele><time>2026-04-11T17:27:03Z</time></trkpt><trkpt lat="36.79963313849466" lon="-108.0113267519055"><ele>1775.0</ele><time>2026-04-11T17:27:04Z</time></trkpt><trkpt lat="36.799616451287406" lon="-108.01123003400261"><ele>1775.0</ele><time>2026-04-11T17:27:05Z</time></trkpt><trkpt lat="36.799583049000205" lon="-108.01103524512163"><ele>1775.0</ele><time>2026-04-11T17:27:07Z</time></trkpt><trkpt lat="36.799523097753195" lon="-108.01092234564048"><ele>1775.0</ele><time>2026-04-11T17:27:08Z</time></trkpt><trkpt lat="36.79943738562364" lon="-108.01084395173099"><ele>1775.6</ele><time>2026-04-11T17:27:09Z</time></trkpt><trkpt lat="36.7993481185796" lon="-108.01077655041018"><ele>1776.2</ele><time>2026-04-11T17:27:10Z</time></trkpt><trkpt lat="36.79929121308753" lon="-108.01071967354476"><ele>1776.8000000000002</ele><time>2026-04-11T17:27:11Z</time></trkpt><trkpt lat="36.799273267757364" lon="-108.01061217718112"><ele>1777.4</ele><time>2026-04-11T17:27:12Z</time></trkpt><trkpt lat="36.799281044606374" lon="-108.01049404528402"><ele>1778.0</ele><time>2026-04-11T17:27:13Z</time></trkpt><trkpt lat="36.79931689236912" lon="-108.01037669326273"><ele>1778.0</ele><time>2026-04-11T17:27:14Z</time></trkpt><trkpt lat="36.79933875061338" lon="-108.01024794207858"><ele>1778.0000000000002</ele><time>2026-04-11T17:27:15Z</time></trkpt><trkpt lat="36.7993579429991" lon="-108.01011824345848"><ele>1778.0000000000002</ele><time>2026-04-11T17:27:16Z</time></trkpt><trkpt lat="36.79937656636494" lon="-108.00999423278533"><ele>1778.0</ele><time>2026-04-11T17:27:17Z</time></trkpt><trkpt lat="36.79939301728436" lon="-108.00986596423643"><ele>1778.0</ele><time>2026-04-11T17:27:18Z</time></trkpt><trkpt lat="36.79939880418057" lon="-108.00976517939165"><ele>1777.6666666666665</ele><time>2026-04-11T17:27:19Z</time></trkpt><trkpt lat="36.799412525358306" lon="-108.00968210095466"><ele>1777.3333333333333</ele><time>2026-04-11T17:27:21Z</time></trkpt><trkpt lat="36.79946485102059" lon="-108.00963067890848"><ele>1777.0</ele><time>2026-04-11T17:28:18Z</time></trkpt><trkpt lat="36.7995459093647" lon="-108.00957254532648"><ele>1776.6666666666665</ele><time>2026-04-11T17:28:22Z</time></trkpt><trkpt lat="36.799607008280596" lon="-108.00949517367417"><ele>1776.3333333333333</ele><time>2026-04-11T17:28:24Z</time></trkpt><trkpt lat="36.79967238603771" lon="-108.00945753579931"><ele>1776.0</ele><time>2026-04-11T17:28:26Z</time></trkpt><trkpt lat="36.799795083425195" lon="-108.00947004499689"><ele>1776.0</ele><time>2026-04-11T17:28:28Z</time></trkpt><trkpt lat="36.79989336672943" lon="-108.00950790738544"><ele>1776.0</ele><time>2026-04-11T17:28:29Z</time></trkpt><trkpt lat="36.7999900674276" lon="-108.00956913084545"><ele>1776.0</ele><time>2026-04-11T17:28:30Z</time></trkpt><trkpt lat="36.800049502006594" lon="-108.0096286660042"><ele>1776.0</ele><time>2026-04-11T17:28:31Z</time></trkpt><trkpt lat="36.800125452876195" lon="-108.00967722163121"><ele>1776.0</ele><time>2026-04-11T17:28:32Z</time></trkpt><trkpt lat="36.800217982155296" lon="-108.009705938206"><ele>1775.0</ele><time>2026-04-11T17:28:33Z</time></trkpt><trkpt lat="36.80030671535548" lon="-108.00970670779525"><ele>1774.0</ele><time>2026-04-11T17:28:34Z</time></trkpt><trkpt lat="36.80040585877748" lon="-108.00970505035916"><ele>1773.0</ele><time>2026-04-11T17:28:35Z</time></trkpt><trkpt lat="36.800512578669114" lon="-108.0097168770749"><ele>1772.0</ele><time>2026-04-11T17:28:36Z</time></trkpt><trkpt lat="36.8005944836444" lon="-108.00970499028048"><ele>1771.0</ele><time>2026-04-11T17:28:37Z</time></trkpt><trkpt lat="36.800658650903316" lon="-108.00962294379427"><ele>1771.0</ele><time>2026-04-11T17:28:39Z</time></trkpt><trkpt lat="36.800775668006835" lon="-108.00953794205944"><ele>1771.0</ele><time>2026-04-11T17:28:41Z</time></trkpt><trkpt lat="36.80085019492475" lon="-108.00955987005582"><ele>1771.0</ele><time>2026-04-11T17:28:42Z</time></trkpt><trkpt lat="36.80092961934194" lon="-108.00962986368462"><ele>1771.0</ele><time>2026-04-11T17:28:43Z</time></trkpt><trkpt lat="36.800978378245105" lon="-108.00971859668051"><ele>1771.0</ele><time>2026-04-11T17:28:44Z</time></trkpt><trkpt lat="36.80106431433804" lon="-108.0097474984811"><ele>1770.1666666666667</ele><time>2026-04-11T17:28:46Z</time></trkpt><trkpt lat="36.80113477443781" lon="-108.00974581037957"><ele>1769.3333333333335</ele><time>2026-04-11T17:28:47Z</time></trkpt><trkpt lat="36.801209554023224" lon="-108.00977691974079"><ele>1768.5</ele><time>2026-04-11T17:28:48Z</time></trkpt><trkpt lat="36.801288436403965" lon="-108.00983824858062"><ele>1767.6666666666665</ele><time>2026-04-11T17:28:49Z</time></trkpt><trkpt lat="36.80135567957007" lon="-108.00990992059776"><ele>1766.8333333333333</ele><time>2026-04-11T17:28:50Z</time></trkpt><trkpt lat="36.80142099054617" lon="-108.0099782992465"><ele>1766.0</ele><time>2026-04-11T17:28:51Z</time></trkpt><trkpt lat="36.80148329224206" lon="-108.01005602688458"><ele>1765.9999999999998</ele><time>2026-04-11T17:28:52Z</time></trkpt><trkpt lat="36.80153962529702" lon="-108.01012481945527"><ele>1766.0</ele><time>2026-04-11T17:28:53Z</time></trkpt><trkpt lat="36.80160123225129" lon="-108.01016882283892"><ele>1766.0</ele><time>2026-04-11T17:28:54Z</time></trkpt><trkpt lat="36.80171325517811" lon="-108.0101469843741"><ele>1766.0</ele><time>2026-04-11T17:28:56Z</time></trkpt><trkpt lat="36.80178737797542" lon="-108.01013211902212"><ele>1765.9999999999998</ele><time>2026-04-11T17:28:57Z</time></trkpt><trkpt lat="36.8018663223235" lon="-108.01012155760455"><ele>1766.0</ele><time>2026-04-11T17:28:58Z</time></trkpt><trkpt lat="36.80196025331313" lon="-108.01008122351091"><ele>1761.75</ele><time>2026-04-11T17:29:00Z</time></trkpt><trkpt lat="36.80203225103701" lon="-108.01002962798881"><ele>1757.5</ele><time>2026-04-11T17:29:02Z</time></trkpt><trkpt lat="36.80217907291526" lon="-108.01000994895954"><ele>1753.25</ele><time>2026-04-11T17:29:04Z</time></trkpt><trkpt lat="36.80228459907798" lon="-108.01002148724666"><ele>1749.0</ele><time>2026-04-11T17:29:05Z</time></trkpt><trkpt lat="36.802395786544615" lon="-108.01004672081184"><ele>1749.0</ele><time>2026-04-11T17:29:06Z</time></trkpt><trkpt lat="36.80247392273407" lon="-108.01008218004174"><ele>1749.0</ele><time>2026-04-11T17:29:07Z</time></trkpt><trkpt lat="36.80257697526388" lon="-108.01007288113878"><ele>1749.0</ele><time>2026-04-11T17:29:08Z</time></trkpt><trkpt lat="36.80267218164201" lon="-108.01003480981105"><ele>1749.0</ele><time>2026-04-11T17:29:09Z</time></trkpt><trkpt lat="36.80275201936202" lon="-108.00999690206972"><ele>1749.0</ele><time>2026-04-11T17:29:10Z</time></trkpt><trkpt lat="36.80278555585461" lon="-108.01006425093341"><ele>1749.0</ele><time>2026-04-11T17:29:13Z</time></trkpt><trkpt lat="36.80274970886936" lon="-108.01014089587933"><ele>1749.0</ele><time>2026-04-11T17:29:15Z</time></trkpt><trkpt lat="36.80268586199543" lon="-108.01012090196909"><ele>1749.0</ele><time>2026-04-11T17:29:16Z</time></trkpt><trkpt lat="36.80259489708467" lon="-108.01011717199295"><ele>1749.0</ele><time>2026-04-11T17:29:18Z</time></trkpt><trkpt lat="36.80267975772504" lon="-108.01012343233134"><ele>1749.0</ele><time>2026-04-11T17:29:32Z</time></trkpt><trkpt lat="36.80268040832399" lon="-108.01003811842035"><ele>1749.0</ele><time>2026-04-11T17:29:35Z</time></trkpt><trkpt lat="36.802568305190874" lon="-108.01003589758389"><ele>1749.0</ele><time>2026-04-11T17:29:37Z</time></trkpt><trkpt lat="36.80251895446442" lon="-108.01008918928015"><ele>1749.0</ele><time>2026-04-11T17:29:40Z</time></trkpt><trkpt lat="36.80255647243951" lon="-108.0101680413613"><ele>1749.0</ele><time>2026-04-11T17:29:50Z</time></trkpt><trkpt lat="36.80262606573952" lon="-108.01014719997026"><ele>1749.0</ele><time>2026-04-11T17:29:52Z</time></trkpt><trkpt lat="36.802661087150256" lon="-108.01007807939305"><ele>1749.0</ele><time>2026-04-11T17:29:54Z</time></trkpt><trkpt lat="36.802593949838304" lon="-108.0100274253775"><ele>1749.0</ele><time>2026-04-11T17:30:01Z</time></trkpt><trkpt lat="36.80246313976305" lon="-108.01005061005252"><ele>1749.0</ele><time>2026-04-11T17:30:03Z</time></trkpt><trkpt lat="36.802388721583185" lon="-108.01006360310339"><ele>1749.0</ele><time>2026-04-11T17:30:04Z</time></trkpt><trkpt lat="36.80230773414857" lon="-108.01004932748826"><ele>1749.0</ele><time>2026-04-11T17:30:05Z</time></trkpt><trkpt lat="36.802242848545525" lon="-108.01002211056694"><ele>1749.0</ele><time>2026-04-11T17:30:06Z</time></trkpt><trkpt lat="36.80217631147917" lon="-108.01000855490547"><ele>1749.0</ele><time>2026-04-11T17:30:07Z</time></trkpt><trkpt lat="36.80209673035092" lon="-108.01000710887912"><ele>1749.0</ele><time>2026-04-11T17:30:08Z</time></trkpt><trkpt lat="36.802019323652694" lon="-108.01002617067768"><ele>1749.0</ele><time>2026-04-11T17:30:09Z</time></trkpt><trkpt lat="36.8019419157565" lon="-108.01008134674976"><ele>1749.0</ele><time>2026-04-11T17:30:11Z</time></trkpt><trkpt lat="36.80183898001782" lon="-108.01012898649556"><ele>1749.0</ele><time>2026-04-11T17:30:13Z</time></trkpt><trkpt lat="36.801776015444986" lon="-108.01013203239741"><ele>1749.0</ele><time>2026-04-11T17:30:14Z</time></trkpt><trkpt lat="36.801694181194414" lon="-108.01013729491629"><ele>1749.0</ele><time>2026-04-11T17:30:15Z</time></trkpt><trkpt lat="36.80161046924148" lon="-108.01015612834873"><ele>1749.0</ele><time>2026-04-11T17:30:17Z</time></trkpt><trkpt lat="36.801550039829884" lon="-108.01011016561753"><ele>1749.0</ele><time>2026-04-11T17:30:22Z</time></trkpt><trkpt lat="36.801486086608996" lon="-108.01009262848231"><ele>1752.75</ele><time>2026-04-11T17:30:26Z</time></trkpt><trkpt lat="36.801443017488786" lon="-108.00999796292405"><ele>1756.5</ele><time>2026-04-11T17:30:30Z</time></trkpt><trkpt lat="36.80129688611341" lon="-108.00987793429003"><ele>1760.25</ele><time>2026-04-11T17:30:32Z</time></trkpt><trkpt lat="36.8012171108688" lon="-108.00981541502067"><ele>1764.0</ele><time>2026-04-11T17:30:33Z</time></trkpt><trkpt lat="36.80113068572922" lon="-108.00975734745472"><ele>1764.0</ele><time>2026-04-11T17:30:34Z</time></trkpt><trkpt lat="36.801041085929654" lon="-108.00973279462832"><ele>1764.0</ele><time>2026-04-11T17:30:35Z</time></trkpt><trkpt lat="36.80090987426305" lon="-108.00972533658793"><ele>1764.0</ele><time>2026-04-11T17:30:37Z</time></trkpt><trkpt lat="36.80086035336365" lon="-108.00965116130901"><ele>1764.0</ele><time>2026-04-11T17:30:38Z</time></trkpt><trkpt lat="36.80080273810024" lon="-108.00956636633487"><ele>1764.0</ele><time>2026-04-11T17:30:39Z</time></trkpt><trkpt lat="36.8007101181953" lon="-108.00955647048877"><ele>1765.4</ele><time>2026-04-11T17:30:40Z</time></trkpt><trkpt lat="36.80064272021841" lon="-108.00962214789436"><ele>1766.8000000000002</ele><time>2026-04-11T17:30:41Z</time></trkpt><trkpt lat="36.80061353426301" lon="-108.00970882832516"><ele>1768.1999999999998</ele><time>2026-04-11T17:30:42Z</time></trkpt><trkpt lat="36.80049803504923" lon="-108.00970925772006"><ele>1769.6</ele><time>2026-04-11T17:30:44Z</time></trkpt><trkpt lat="36.80039310379677" lon="-108.0097036274833"><ele>1771.0</ele><time>2026-04-11T17:30:45Z</time></trkpt><trkpt lat="36.80026710475722" lon="-108.0096817679951"><ele>1772.0</ele><time>2026-04-11T17:30:46Z</time></trkpt><trkpt lat="36.800150325239514" lon="-108.00966365716266"><ele>1773.0</ele><time>2026-04-11T17:30:47Z</time></trkpt><trkpt lat="36.800071964114" lon="-108.00964497802451"><ele>1774.0</ele><time>2026-04-11T17:30:48Z</time></trkpt><trkpt lat="36.799986379140485" lon="-108.00958167476301"><ele>1775.0</ele><time>2026-04-11T17:30:49Z</time></trkpt><trkpt lat="36.799898354078046" lon="-108.00951728867688"><ele>1776.0</ele><time>2026-04-11T17:30:50Z</time></trkpt><trkpt lat="36.79981660790157" lon="-108.00948239481968"><ele>1776.0</ele><time>2026-04-11T17:30:51Z</time></trkpt><trkpt lat="36.79973696642443" lon="-108.00945310345973"><ele>1776.0</ele><time>2026-04-11T17:30:52Z</time></trkpt><trkpt lat="36.79966410151735" lon="-108.00947675839818"><ele>1776.0</ele><time>2026-04-11T17:30:53Z</time></trkpt><trkpt lat="36.79960226558002" lon="-108.00951237018249"><ele>1776.0</ele><time>2026-04-11T17:30:54Z</time></trkpt><trkpt lat="36.799531419560275" lon="-108.00959827653826"><ele>1776.0</ele><time>2026-04-11T17:30:56Z</time></trkpt><trkpt lat="36.799447108038336" lon="-108.00966611016088"><ele>1776.0</ele><time>2026-04-11T17:30:58Z</time></trkpt><trkpt lat="36.79936192746382" lon="-108.00969759024251"><ele>1776.0</ele><time>2026-04-11T17:31:10Z</time></trkpt><trkpt lat="36.799293498520704" lon="-108.00969390946345"><ele>1776.0</ele><time>2026-04-11T17:31:12Z</time></trkpt><trkpt lat="36.79930823739982" lon="-108.0097971367098"><ele>1776.0</ele><time>2026-04-11T17:31:15Z</time></trkpt><trkpt lat="36.79936409639279" lon="-108.00988949678978"><ele>1776.0</ele><time>2026-04-11T17:31:17Z</time></trkpt><trkpt lat="36.79940527476947" lon="-108.00978950172443"><ele>1776.0</ele><time>2026-04-11T17:31:23Z</time></trkpt><trkpt lat="36.799421199967284" lon="-108.00969538002505"><ele>1776.0</ele><time>2026-04-11T17:31:25Z</time></trkpt><trkpt lat="36.79947313223326" lon="-108.00963289918859"><ele>1776.0</ele><time>2026-04-11T17:31:28Z</time></trkpt><trkpt lat="36.799530474669794" lon="-108.00955890685246"><ele>1776.0</ele><time>2026-04-11T17:31:31Z</time></trkpt><trkpt lat="36.799584016939285" lon="-108.00946727864516"><ele>1776.0</ele><time>2026-04-11T17:31:34Z</time></trkpt><trkpt lat="36.799604000709984" lon="-108.00938329004804"><ele>1776.0</ele><time>2026-04-11T17:31:35Z</time></trkpt><trkpt lat="36.799629108431674" lon="-108.00930459811808"><ele>1776.0</ele><time>2026-04-11T17:31:36Z</time></trkpt><trkpt lat="36.799662226572636" lon="-108.00920662012756"><ele>1776.0</ele><time>2026-04-11T17:31:37Z</time></trkpt><trkpt lat="36.799681939862815" lon="-108.00911574426809"><ele>1775.25</ele><time>2026-04-11T17:31:38Z</time></trkpt><trkpt lat="36.79970610578544" lon="-108.00897710915073"><ele>1774.5</ele><time>2026-04-11T17:31:39Z</time></trkpt><trkpt lat="36.79970876883695" lon="-108.00884236277662"><ele>1773.75</ele><time>2026-04-11T17:31:40Z</time></trkpt><trkpt lat="36.79971261887251" lon="-108.00870962125178"><ele>1773.0</ele><time>2026-04-11T17:31:41Z</time></trkpt><trkpt lat="36.79972000215667" lon="-108.0085514997589"><ele>1773.0</ele><time>2026-04-11T17:31:42Z</time></trkpt><trkpt lat="36.79975843163995" lon="-108.00837050247662"><ele>1773.0</ele><time>2026-04-11T17:31:43Z</time></trkpt><trkpt lat="36.79980664251477" lon="-108.00823395305429"><ele>1773.0</ele><time>2026-04-11T17:31:44Z</time></trkpt><trkpt lat="36.79987017362869" lon="-108.00807615424013"><ele>1773.0</ele><time>2026-04-11T17:31:45Z</time></trkpt><trkpt lat="36.799923342513" lon="-108.00792816061603"><ele>1772.0</ele><time>2026-04-11T17:31:46Z</time></trkpt><trkpt lat="36.79999117610447" lon="-108.00777744317229"><ele>1771.0</ele><time>2026-04-11T17:31:47Z</time></trkpt><trkpt lat="36.8000516557318" lon="-108.00766756486398"><ele>1770.0</ele><time>2026-04-11T17:31:48Z</time></trkpt><trkpt lat="36.80012882206155" lon="-108.00759335354837"><ele>1769.0</ele><time>2026-04-11T17:31:49Z</time></trkpt><trkpt lat="36.80028463492553" lon="-108.0074810248938"><ele>1767.8000000000002</ele><time>2026-04-11T17:31:50Z</time></trkpt><trkpt lat="36.80037602377372" lon="-108.00740182084019"><ele>1766.6000000000001</ele><time>2026-04-11T17:31:51Z</time></trkpt><trkpt lat="36.800466350169245" lon="-108.00735641242012"><ele>1765.4</ele><time>2026-04-11T17:31:52Z</time></trkpt><trkpt lat="36.8005549498537" lon="-108.00730366268404"><ele>1764.2</ele><time>2026-04-11T17:31:53Z</time></trkpt><trkpt lat="36.800632859034984" lon="-108.00724613665665"><ele>1763.0</ele><time>2026-04-11T17:31:54Z</time></trkpt><trkpt lat="36.80069359776246" lon="-108.0071851115556"><ele>1763.0</ele><time>2026-04-11T17:31:55Z</time></trkpt><trkpt lat="36.80078315435067" lon="-108.00711558943411"><ele>1763.0000000000002</ele><time>2026-04-11T17:31:57Z</time></trkpt><trkpt lat="36.80090847736338" lon="-108.00708947763135"><ele>1763.0000000000002</ele><time>2026-04-11T17:31:59Z</time></trkpt><trkpt lat="36.800988615643455" lon="-108.00705905620067"><ele>1763.0</ele><time>2026-04-11T17:32:00Z</time></trkpt><trkpt lat="36.80106567743085" lon="-108.00704300061258"><ele>1763.0</ele><time>2026-04-11T17:32:01Z</time></trkpt><trkpt lat="36.80113361944826" lon="-108.00700515144263"><ele>1763.0</ele><time>2026-04-11T17:32:02Z</time></trkpt><trkpt lat="36.80119618792352" lon="-108.00695416001233"><ele>1763.0000000000002</ele><time>2026-04-11T17:32:03Z</time></trkpt><trkpt lat="36.801276002193454" lon="-108.00690859965545"><ele>1763.0000000000002</ele><time>2026-04-11T17:32:04Z</time></trkpt><trkpt lat="36.80137967089161" lon="-108.00688806833998"><ele>1763.0</ele><time>2026-04-11T17:32:05Z</time></trkpt><trkpt lat="36.801499076472936" lon="-108.00683863173734"><ele>1763.0</ele><time>2026-04-11T17:32:06Z</time></trkpt><trkpt lat="36.801609314356114" lon="-108.00674551277966"><ele>1762.75</ele><time>2026-04-11T17:32:07Z</time></trkpt><trkpt lat="36.80170908826076" lon="-108.00661887707354"><ele>1762.5</ele><time>2026-04-11T17:32:08Z</time></trkpt><trkpt lat="36.80178483523611" lon="-108.00650545165259"><ele>1762.25</ele><time>2026-04-11T17:32:09Z</time></trkpt><trkpt lat="36.80186475081612" lon="-108.00643255990077"><ele>1762.0</ele><time>2026-04-11T17:32:10Z</time></trkpt><trkpt lat="36.801970899612385" lon="-108.00645838913702"><ele>1761.6</ele><time>2026-04-11T17:32:11Z</time></trkpt><trkpt lat="36.80210015434643" lon="-108.00651913961178"><ele>1761.1999999999998</ele><time>2026-04-11T17:32:12Z</time></trkpt><trkpt lat="36.802211610690684" lon="-108.00654804722576"><ele>1760.8</ele><time>2026-04-11T17:32:13Z</time></trkpt><trkpt lat="36.80230494841138" lon="-108.00653789160859"><ele>1760.4</ele><time>2026-04-11T17:32:14Z</time></trkpt><trkpt lat="36.802370628700096" lon="-108.00653127539047"><ele>1760.0</ele><time>2026-04-11T17:32:15Z</time></trkpt><trkpt lat="36.80246936944917" lon="-108.0065695367075"><ele>1760.0</ele><time>2026-04-11T17:32:16Z</time></trkpt><trkpt lat="36.802582187637476" lon="-108.0066468193453"><ele>1760.0</ele><time>2026-04-11T17:32:17Z</time></trkpt><trkpt lat="36.80267653050067" lon="-108.00666752754653"><ele>1760.0</ele><time>2026-04-11T17:32:18Z</time></trkpt><trkpt lat="36.8027718673933" lon="-108.00666095592365"><ele>1760.0</ele><time>2026-04-11T17:32:19Z</time></trkpt><trkpt lat="36.80286197848069" lon="-108.00666454046004"><ele>1760.0</ele><time>2026-04-11T17:32:20Z</time></trkpt><trkpt lat="36.802930787835855" lon="-108.00659781219166"><ele>1760.0</ele><time>2026-04-11T17:32:22Z</time></trkpt><trkpt lat="36.80291244021199" lon="-108.00644675256108"><ele>1760.0</ele><time>2026-04-11T17:32:24Z</time></trkpt><trkpt lat="36.80286888060592" lon="-108.00633169817615"><ele>1760.0</ele><time>2026-04-11T17:32:25Z</time></trkpt><trkpt lat="36.80283529567436" lon="-108.00617726406749"><ele>1760.0</ele><time>2026-04-11T17:32:26Z</time></trkpt><trkpt lat="36.80280617372832" lon="-108.00600884333419"><ele>1760.0</ele><time>2026-04-11T17:32:27Z</time></trkpt><trkpt lat="36.80280185481959" lon="-108.0058415519562"><ele>1760.0</ele><time>2026-04-11T17:32:28Z</time></trkpt><trkpt lat="36.8028387192182" lon="-108.00565075894959"><ele>1760.0</ele><time>2026-04-11T17:32:29Z</time></trkpt><trkpt lat="36.80288225010322" lon="-108.00546415119346"><ele>1760.0</ele><time>2026-04-11T17:32:30Z</time></trkpt><trkpt lat="36.80290338842391" lon="-108.00528469598626"><ele>1758.25</ele><time>2026-04-11T17:32:31Z</time></trkpt><trkpt lat="36.80291200380299" lon="-108.00512508601835"><ele>1756.5</ele><time>2026-04-11T17:32:32Z</time></trkpt><trkpt lat="36.80292863677453" lon="-108.00496100748646"><ele>1754.75</ele><time>2026-04-11T17:32:33Z</time></trkpt><trkpt lat="36.80294210118984" lon="-108.00480544905116"><ele>1753.0</ele><time>2026-04-11T17:32:34Z</time></trkpt><trkpt lat="36.80295069503753" lon="-108.00466887780324"><ele>1752.2</ele><time>2026-04-11T17:32:35Z</time></trkpt><trkpt lat="36.80296106087643" lon="-108.00455565307402"><ele>1751.4</ele><time>2026-04-11T17:32:36Z</time></trkpt><trkpt lat="36.80296753699323" lon="-108.00445312458513"><ele>1750.6000000000001</ele><time>2026-04-11T17:32:37Z</time></trkpt><trkpt lat="36.8029924141791" lon="-108.0043550990668"><ele>1749.8000000000002</ele><time>2026-04-11T17:32:38Z</time></trkpt><trkpt lat="36.8030390515222" lon="-108.004247901084"><ele>1749.0</ele><time>2026-04-11T17:32:39Z</time></trkpt><trkpt lat="36.80309711475144" lon="-108.00411561162059"><ele>1748.0</ele><time>2026-04-11T17:32:40Z</time></trkpt><trkpt lat="36.80316888608505" lon="-108.00395182176521"><ele>1747.0</ele><time>2026-04-11T17:32:41Z</time></trkpt><trkpt lat="36.80322579916536" lon="-108.00382338232211"><ele>1746.0</ele><time>2026-04-11T17:32:42Z</time></trkpt><trkpt lat="36.803255405232136" lon="-108.00371418574757"><ele>1745.0</ele><time>2026-04-11T17:32:43Z</time></trkpt><trkpt lat="36.80326648511004" lon="-108.00363212074352"><ele>1744.0</ele><time>2026-04-11T17:32:44Z</time></trkpt><trkpt lat="36.803159689950746" lon="-108.00349542983116"><ele>1744.0</ele><time>2026-04-11T17:32:47Z</time></trkpt><trkpt lat="36.80308353841403" lon="-108.0034753321674"><ele>1744.0</ele><time>2026-04-11T17:32:48Z</time></trkpt><trkpt lat="36.80299766913239" lon="-108.00345189042501"><ele>1744.0</ele><time>2026-04-11T17:32:49Z</time></trkpt><trkpt lat="36.80289509016892" lon="-108.00341013813431"><ele>1744.0</ele><time>2026-04-11T17:32:50Z</time></trkpt><trkpt lat="36.80277432464177" lon="-108.00337067680417"><ele>1744.0</ele><time>2026-04-11T17:32:51Z</time></trkpt><trkpt lat="36.802631234224044" lon="-108.00334584375648"><ele>1744.6666666666667</ele><time>2026-04-11T17:32:52Z</time></trkpt><trkpt lat="36.80248619714527" lon="-108.00331359282758"><ele>1745.3333333333335</ele><time>2026-04-11T17:32:53Z</time></trkpt><trkpt lat="36.80233183810406" lon="-108.00329415311508"><ele>1746.0</ele><time>2026-04-11T17:32:54Z</time></trkpt><trkpt lat="36.80216785354067" lon="-108.00329300940197"><ele>1746.0</ele><time>2026-04-11T17:32:55Z</time></trkpt><trkpt lat="36.802003619732865" lon="-108.0032883739594"><ele>1746.0</ele><time>2026-04-11T17:32:56Z</time></trkpt><trkpt lat="36.801842595673364" lon="-108.00329718915866"><ele>1746.0</ele><time>2026-04-11T17:32:57Z</time></trkpt><trkpt lat="36.801683362263994" lon="-108.00330463591979"><ele>1746.3333333333335</ele><time>2026-04-11T17:32:58Z</time></trkpt><trkpt lat="36.80152483550998" lon="-108.0033156684895"><ele>1746.6666666666667</ele><time>2026-04-11T17:32:59Z</time></trkpt><trkpt lat="36.80137260548701" lon="-108.00333007160624"><ele>1747.0</ele><time>2026-04-11T17:33:00Z</time></trkpt><trkpt lat="36.80122283965037" lon="-108.00334264713891"><ele>1747.0</ele><time>2026-04-11T17:33:01Z</time></trkpt><trkpt lat="36.80107405206685" lon="-108.00335255913355"><ele>1747.0</ele><time>2026-04-11T17:33:02Z</time></trkpt><trkpt lat="36.800942247256735" lon="-108.00335211745212"><ele>1747.0</ele><time>2026-04-11T17:33:03Z</time></trkpt><trkpt lat="36.80081322785185" lon="-108.00333300012618"><ele>1747.0</ele><time>2026-04-11T17:33:04Z</time></trkpt><trkpt lat="36.800674808673655" lon="-108.00329441983261"><ele>1747.8</ele><time>2026-04-11T17:33:05Z</time></trkpt><trkpt lat="36.80056685320074" lon="-108.00326046116399"><ele>1748.6</ele><time>2026-04-11T17:33:06Z</time></trkpt><trkpt lat="36.8004902018611" lon="-108.00324446619845"><ele>1749.3999999999999</ele><time>2026-04-11T17:33:07Z</time></trkpt><trkpt lat="36.80041450577988" lon="-108.00321724638246"><ele>1750.1999999999998</ele><time>2026-04-11T17:33:08Z</time></trkpt><trkpt lat="36.80032664542135" lon="-108.00319411291693"><ele>1751.0</ele><time>2026-04-11T17:33:09Z</time></trkpt><trkpt lat="36.80023728084997" lon="-108.00314333884772"><ele>1751.75</ele><time>2026-04-11T17:33:10Z</time></trkpt><trkpt lat="36.800114302828014" lon="-108.00308191320775"><ele>1752.5</ele><time>2026-04-11T17:33:11Z</time></trkpt><trkpt lat="36.800007299509794" lon="-108.00302061263096"><ele>1753.25</ele><time>2026-04-11T17:33:12Z</time></trkpt><trkpt lat="36.799887094706854" lon="-108.0029500870995"><ele>1754.0</ele><time>2026-04-11T17:33:13Z</time></trkpt><trkpt lat="36.79975579808643" lon="-108.00288302636284"><ele>1754.0</ele><time>2026-04-11T17:33:14Z</time></trkpt><trkpt lat="36.799637218567874" lon="-108.00282152756368"><ele>1754.0</ele><time>2026-04-11T17:33:15Z</time></trkpt><trkpt lat="36.799527199889106" lon="-108.00277511125165"><ele>1754.0</ele><time>2026-04-11T17:33:16Z</time></trkpt><trkpt lat="36.79942893781475" lon="-108.0027405462945"><ele>1754.0</ele><time>2026-04-11T17:33:17Z</time></trkpt><trkpt lat="36.79933534205438" lon="-108.00270332373503"><ele>1754.0</ele><time>2026-04-11T17:33:18Z</time></trkpt><trkpt lat="36.799254091662426" lon="-108.00264784415802"><ele>1754.75</ele><time>2026-04-11T17:33:19Z</time></trkpt><trkpt lat="36.79917181058139" lon="-108.00256568675995"><ele>1755.5</ele><time>2026-04-11T17:33:20Z</time></trkpt><trkpt lat="36.79908671052168" lon="-108.00246581963897"><ele>1756.25</ele><time>2026-04-11T17:33:21Z</time></trkpt><trkpt lat="36.7989867617592" lon="-108.00237271699"><ele>1757.0</ele><time>2026-04-11T17:33:22Z</time></trkpt><trkpt lat="36.79886685967221" lon="-108.00228589988438"><ele>1757.25</ele><time>2026-04-11T17:33:23Z</time></trkpt><trkpt lat="36.798733393726884" lon="-108.00222483023421"><ele>1757.5</ele><time>2026-04-11T17:33:24Z</time></trkpt><trkpt lat="36.79859701626427" lon="-108.00215660947073"><ele>1757.75</ele><time>2026-04-11T17:33:25Z</time></trkpt><trkpt lat="36.798460032199614" lon="-108.00212154358783"><ele>1758.0</ele><time>2026-04-11T17:33:26Z</time></trkpt><trkpt lat="36.798314633275325" lon="-108.00209937181879"><ele>1758.0</ele><time>2026-04-11T17:33:27Z</time></trkpt><trkpt lat="36.79817216332799" lon="-108.00206667155989"><ele>1758.0</ele><time>2026-04-11T17:33:28Z</time></trkpt><trkpt lat="36.79803388153381" lon="-108.00204371458956"><ele>1758.0</ele><time>2026-04-11T17:33:29Z</time></trkpt><trkpt lat="36.79790173037049" lon="-108.00203554003399"><ele>1758.0</ele><time>2026-04-11T17:33:30Z</time></trkpt><trkpt lat="36.797797093483" lon="-108.00206203097812"><ele>1758.0</ele><time>2026-04-11T17:33:31Z</time></trkpt><trkpt lat="36.79770237155611" lon="-108.00214084941948"><ele>1758.0</ele><time>2026-04-11T17:33:32Z</time></trkpt><trkpt lat="36.79761841999378" lon="-108.00224215162794"><ele>1758.0</ele><time>2026-04-11T17:33:33Z</time></trkpt><trkpt lat="36.79749224122059" lon="-108.00229760267473"><ele>1758.0</ele><time>2026-04-11T17:33:34Z</time></trkpt><trkpt lat="36.797359131559006" lon="-108.00233978758882"><ele>1758.0</ele><time>2026-04-11T17:33:35Z</time></trkpt><trkpt lat="36.7972282203129" lon="-108.00238763195293"><ele>1758.0</ele><time>2026-04-11T17:33:36Z</time></trkpt><trkpt lat="36.79710465781575" lon="-108.00247106442964"><ele>1758.0</ele><time>2026-04-11T17:33:37Z</time></trkpt><trkpt lat="36.79698686082348" lon="-108.00256745682235"><ele>1758.0</ele><time>2026-04-11T17:33:38Z</time></trkpt><trkpt lat="36.79688857482953" lon="-108.00267112046019"><ele>1758.5</ele><time>2026-04-11T17:33:39Z</time></trkpt><trkpt lat="36.79678608839455" lon="-108.00279848709953"><ele>1759.0</ele><time>2026-04-11T17:33:40Z</time></trkpt><trkpt lat="36.7966775350394" lon="-108.00290175643171"><ele>1759.5</ele><time>2026-04-11T17:33:41Z</time></trkpt><trkpt lat="36.796572463327884" lon="-108.00298813801267"><ele>1760.0</ele><time>2026-04-11T17:33:42Z</time></trkpt><trkpt lat="36.79647287830704" lon="-108.00304455191637"><ele>1760.0</ele><time>2026-04-11T17:33:43Z</time></trkpt><trkpt lat="36.79634070647396" lon="-108.00308649201288"><ele>1760.0</ele><time>2026-04-11T17:33:44Z</time></trkpt><trkpt lat="36.79618071285807" lon="-108.00309631650087"><ele>1760.0</ele><time>2026-04-11T17:33:45Z</time></trkpt><trkpt lat="36.79599164448714" lon="-108.00308519940076"><ele>1761.6666666666665</ele><time>2026-04-11T17:33:46Z</time></trkpt><trkpt lat="36.79579578359098" lon="-108.00304220511089"><ele>1763.3333333333335</ele><time>2026-04-11T17:33:47Z</time></trkpt><trkpt lat="36.7956026204202" lon="-108.00298466227382"><ele>1765.0</ele><time>2026-04-11T17:33:48Z</time></trkpt><trkpt lat="36.79544366718154" lon="-108.00295998004415"><ele>1765.0</ele><time>2026-04-11T17:33:49Z</time></trkpt><trkpt lat="36.79529614417758" lon="-108.0029502606904"><ele>1765.0</ele><time>2026-04-11T17:33:50Z</time></trkpt><trkpt lat="36.79517218434204" lon="-108.00294995036101"><ele>1765.0</ele><time>2026-04-11T17:33:51Z</time></trkpt><trkpt lat="36.795084949516045" lon="-108.00294242054991"><ele>1765.0</ele><time>2026-04-11T17:33:52Z</time></trkpt><trkpt lat="36.79500925384288" lon="-108.0029080014408"><ele>1765.0</ele><time>2026-04-11T17:33:54Z</time></trkpt><trkpt lat="36.79499705352476" lon="-108.00277665248106"><ele>1765.8</ele><time>2026-04-11T17:33:56Z</time></trkpt><trkpt lat="36.79501531723424" lon="-108.00267242365605"><ele>1766.6</ele><time>2026-04-11T17:33:57Z</time></trkpt><trkpt lat="36.795062277233704" lon="-108.00257581361801"><ele>1767.4</ele><time>2026-04-11T17:33:58Z</time></trkpt><trkpt lat="36.795113224018586" lon="-108.0024908639945"><ele>1768.2</ele><time>2026-04-11T17:33:59Z</time></trkpt><trkpt lat="36.795191758474516" lon="-108.00243970175607"><ele>1769.0</ele><time>2026-04-11T17:34:00Z</time></trkpt><trkpt lat="36.79529271003283" lon="-108.00242348429668"><ele>1769.0</ele><time>2026-04-11T17:34:01Z</time></trkpt><trkpt lat="36.795401113084765" lon="-108.00241043891263"><ele>1769.0</ele><time>2026-04-11T17:34:02Z</time></trkpt><trkpt lat="36.79549128536127" lon="-108.0024080477527"><ele>1769.0</ele><time>2026-04-11T17:34:03Z</time></trkpt><trkpt lat="36.795568491077" lon="-108.00240364683236"><ele>1769.0</ele><time>2026-04-11T17:34:04Z</time></trkpt><trkpt lat="36.7956646784878" lon="-108.00243588041329"><ele>1769.0</ele><time>2026-04-11T17:34:06Z</time></trkpt><trkpt lat="36.79568540712096" lon="-108.00231701396294"><ele>1769.0</ele><time>2026-04-11T17:34:08Z</time></trkpt><trkpt lat="36.79564157416157" lon="-108.0022186158139"><ele>1769.0</ele><time>2026-04-11T17:34:09Z</time></trkpt><trkpt lat="36.79556596275667" lon="-108.00211031327538"><ele>1769.0</ele><time>2026-04-11T17:34:10Z</time></trkpt><trkpt lat="36.795480971047226" lon="-108.0020309383278"><ele>1769.0</ele><time>2026-04-11T17:34:11Z</time></trkpt><trkpt lat="36.79538859923815" lon="-108.00195680221353"><ele>1769.0</ele><time>2026-04-11T17:34:12Z</time></trkpt><trkpt lat="36.79531424993074" lon="-108.00189833120416"><ele>1769.0</ele><time>2026-04-11T17:34:13Z</time></trkpt><trkpt lat="36.7952426967299" lon="-108.0018469429015"><ele>1769.0</ele><time>2026-04-11T17:34:14Z</time></trkpt><trkpt lat="36.79514683756837" lon="-108.001784470247"><ele>1769.0</ele><time>2026-04-11T17:34:16Z</time></trkpt><trkpt lat="36.79504455201024" lon="-108.00179442985339"><ele>1769.0</ele><time>2026-04-11T17:34:18Z</time></trkpt><trkpt lat="36.795025721817396" lon="-108.00191872835391"><ele>1769.0</ele><time>2026-04-11T17:34:20Z</time></trkpt><trkpt lat="36.795037717451194" lon="-108.00204601165967"><ele>1769.0</ele><time>2026-04-11T17:34:21Z</time></trkpt><trkpt lat="36.79504403555994" lon="-108.00220517565974"><ele>1769.0</ele><time>2026-04-11T17:34:22Z</time></trkpt><trkpt lat="36.79503720948174" lon="-108.00233418987428"><ele>1769.0</ele><time>2026-04-11T17:34:23Z</time></trkpt><trkpt lat="36.79504361844233" lon="-108.00241451009337"><ele>1769.0</ele><time>2026-04-11T17:34:24Z</time></trkpt><trkpt lat="36.795129939925566" lon="-108.00247534789982"><ele>1769.0</ele><time>2026-04-11T17:34:26Z</time></trkpt><trkpt lat="36.79520803007385" lon="-108.00245184789198"><ele>1769.0</ele><time>2026-04-11T17:34:27Z</time></trkpt><trkpt lat="36.795309368767924" lon="-108.00241260151554"><ele>1769.0</ele><time>2026-04-11T17:34:28Z</time></trkpt><trkpt lat="36.79543335283526" lon="-108.00240161767779"><ele>1769.0</ele><time>2026-04-11T17:34:29Z</time></trkpt><trkpt lat="36.79558984070541" lon="-108.00241237693987"><ele>1769.0</ele><time>2026-04-11T17:34:30Z</time></trkpt><trkpt lat="36.7957151670292" lon="-108.00242548680015"><ele>1769.0</ele><time>2026-04-11T17:34:31Z</time></trkpt><trkpt lat="36.79579051669155" lon="-108.00241784272282"><ele>1769.0</ele><time>2026-04-11T17:34:32Z</time></trkpt><trkpt lat="36.79588585347741" lon="-108.0023688697948"><ele>1769.0</ele><time>2026-04-11T17:34:34Z</time></trkpt><trkpt lat="36.79587747680513" lon="-108.00227723079277"><ele>1769.0</ele><time>2026-04-11T17:35:23Z</time></trkpt><trkpt lat="36.79594044238937" lon="-108.0022071509747"><ele>1769.0</ele><time>2026-04-11T17:35:27Z</time></trkpt><trkpt lat="36.796065788424244" lon="-108.00236320612872"><ele>1769.0</ele><time>2026-04-11T17:35:31Z</time></trkpt><trkpt lat="36.79596049814507" lon="-108.00244457528264"><ele>1769.0</ele><time>2026-04-11T17:35:33Z</time></trkpt><trkpt lat="36.79588569803821" lon="-108.00239351941867"><ele>1769.0</ele><time>2026-04-11T17:35:34Z</time></trkpt><trkpt lat="36.795824870384436" lon="-108.00231113119206"><ele>1769.0</ele><time>2026-04-11T17:35:35Z</time></trkpt><trkpt lat="36.79575041341079" lon="-108.00225593749258"><ele>1769.0</ele><time>2026-04-11T17:35:36Z</time></trkpt><trkpt lat="36.79563927709103" lon="-108.00221042694041"><ele>1769.0</ele><time>2026-04-11T17:35:37Z</time></trkpt><trkpt lat="36.79553051266406" lon="-108.0021363573027"><ele>1769.0</ele><time>2026-04-11T17:35:38Z</time></trkpt><trkpt lat="36.79543118759391" lon="-108.00201395778954"><ele>1769.0</ele><time>2026-04-11T17:35:39Z</time></trkpt><trkpt lat="36.79535450156583" lon="-108.00191891637054"><ele>1769.0</ele><time>2026-04-11T17:35:40Z</time></trkpt><trkpt lat="36.79528241604568" lon="-108.00185833274581"><ele>1768.9999999999998</ele><time>2026-04-11T17:35:41Z</time></trkpt><trkpt lat="36.7952050819115" lon="-108.00180310944248"><ele>1769.0</ele><time>2026-04-11T17:35:42Z</time></trkpt><trkpt lat="36.79512459542985" lon="-108.00177452751606"><ele>1769.0</ele><time>2026-04-11T17:35:43Z</time></trkpt><trkpt lat="36.79505228328004" lon="-108.00179763387574"><ele>1769.0</ele><time>2026-04-11T17:35:44Z</time></trkpt><trkpt lat="36.795006489706786" lon="-108.00190308301873"><ele>1768.9999999999998</ele><time>2026-04-11T17:35:46Z</time></trkpt><trkpt lat="36.79502624611585" lon="-108.00199641340664"><ele>1769.0</ele><time>2026-04-11T17:35:47Z</time></trkpt><trkpt lat="36.79503692066193" lon="-108.0021329993792"><ele>1769.0</ele><time>2026-04-11T17:35:48Z</time></trkpt><trkpt lat="36.795036529091355" lon="-108.00230112582115"><ele>1769.0</ele><time>2026-04-11T17:35:49Z</time></trkpt><trkpt lat="36.795033818230785" lon="-108.00243040720319"><ele>1769.0</ele><time>2026-04-11T17:35:50Z</time></trkpt><trkpt lat="36.7951159539299" lon="-108.00250712042421"><ele>1769.0</ele><time>2026-04-11T17:35:52Z</time></trkpt><trkpt lat="36.79518985386165" lon="-108.0024822524131"><ele>1769.0</ele><time>2026-04-11T17:35:53Z</time></trkpt><trkpt lat="36.79527802031366" lon="-108.00244116569648"><ele>1769.0</ele><time>2026-04-11T17:35:54Z</time></trkpt><trkpt lat="36.79539781957739" lon="-108.00242460540571"><ele>1769.0</ele><time>2026-04-11T17:35:55Z</time></trkpt><trkpt lat="36.7955298545275" lon="-108.00242193664486"><ele>1769.0</ele><time>2026-04-11T17:35:56Z</time></trkpt><trkpt lat="36.795646564463674" lon="-108.00244641834537"><ele>1769.0</ele><time>2026-04-11T17:35:57Z</time></trkpt><trkpt lat="36.79571615891636" lon="-108.00244736266396"><ele>1769.0</ele><time>2026-04-11T17:35:58Z</time></trkpt><trkpt lat="36.79572594658058" lon="-108.00232577743613"><ele>1769.0</ele><time>2026-04-11T17:36:00Z</time></trkpt><trkpt lat="36.79567465759366" lon="-108.00222808545588"><ele>1769.0</ele><time>2026-04-11T17:36:01Z</time></trkpt><trkpt lat="36.795572921434356" lon="-108.00214341421949"><ele>1769.0</ele><time>2026-04-11T17:36:02Z</time></trkpt><trkpt lat="36.795458372475075" lon="-108.00205858347026"><ele>1769.0</ele><time>2026-04-11T17:36:03Z</time></trkpt><trkpt lat="36.795367056439424" lon="-108.0019642707035"><ele>1769.0</ele><time>2026-04-11T17:36:04Z</time></trkpt><trkpt lat="36.7952993104918" lon="-108.00188418450546"><ele>1769.0</ele><time>2026-04-11T17:36:05Z</time></trkpt><trkpt lat="36.79521821082461" lon="-108.00182096345914"><ele>1769.0</ele><time>2026-04-11T17:36:06Z</time></trkpt><trkpt lat="36.795158359416575" lon="-108.00178906883954"><ele>1769.0</ele><time>2026-04-11T17:36:07Z</time></trkpt><trkpt lat="36.79503897598911" lon="-108.00180187388969"><ele>1769.0</ele><time>2026-04-11T17:36:09Z</time></trkpt><trkpt lat="36.79502592398059" lon="-108.00192051322804"><ele>1769.0</ele><time>2026-04-11T17:36:12Z</time></trkpt><trkpt lat="36.79504291246068" lon="-108.00202433862101"><ele>1769.0</ele><time>2026-04-11T17:36:13Z</time></trkpt><trkpt lat="36.795041609685825" lon="-108.0021630673766"><ele>1769.0</ele><time>2026-04-11T17:36:14Z</time></trkpt><trkpt lat="36.79502780264403" lon="-108.00231367699674"><ele>1769.0</ele><time>2026-04-11T17:36:15Z</time></trkpt><trkpt lat="36.7950242018638" lon="-108.00241539080304"><ele>1769.0</ele><time>2026-04-11T17:36:16Z</time></trkpt><trkpt lat="36.79510353846686" lon="-108.00249814863768"><ele>1768.9999999999998</ele><time>2026-04-11T17:36:18Z</time></trkpt><trkpt lat="36.79516813459322" lon="-108.00247964877406"><ele>1769.0</ele><time>2026-04-11T17:36:19Z</time></trkpt><trkpt lat="36.79524936098031" lon="-108.00243264637997"><ele>1769.0</ele><time>2026-04-11T17:36:20Z</time></trkpt><trkpt lat="36.795331957277135" lon="-108.0024074344058"><ele>1769.0</ele><time>2026-04-11T17:36:21Z</time></trkpt><trkpt lat="36.795407347192445" lon="-108.00240886139069"><ele>1768.9999999999998</ele><time>2026-04-11T17:36:22Z</time></trkpt><trkpt lat="36.79547895879745" lon="-108.00242869150635"><ele>1769.0</ele><time>2026-04-11T17:36:23Z</time></trkpt><trkpt lat="36.79555917323263" lon="-108.00243716162497"><ele>1769.0</ele><time>2026-04-11T17:36:24Z</time></trkpt><trkpt lat="36.795628873518595" lon="-108.00243297237654"><ele>1769.0</ele><time>2026-04-11T17:36:25Z</time></trkpt><trkpt lat="36.795723463892685" lon="-108.00245154656861"><ele>1769.0</ele><time>2026-04-11T17:36:27Z</time></trkpt><trkpt lat="36.79578453326874" lon="-108.00241566552796"><ele>1769.0</ele><time>2026-04-11T17:36:30Z</time></trkpt><trkpt lat="36.79588231807791" lon="-108.00245449718982"><ele>1769.0</ele><time>2026-04-11T17:36:33Z</time></trkpt><trkpt lat="36.79582538112396" lon="-108.0023083973147"><ele>1769.0</ele><time>2026-04-11T17:36:37Z</time></trkpt><trkpt lat="36.7957227674165" lon="-108.00228332682265"><ele>1769.0</ele><time>2026-04-11T17:36:38Z</time></trkpt><trkpt lat="36.79561966035283" lon="-108.00221916875525"><ele>1769.0</ele><time>2026-04-11T17:36:39Z</time></trkpt><trkpt lat="36.7955156005368" lon="-108.00211383456896"><ele>1769.0</ele><time>2026-04-11T17:36:40Z</time></trkpt><trkpt lat="36.79541111220735" lon="-108.00198699184726"><ele>1769.0</ele><time>2026-04-11T17:36:41Z</time></trkpt><trkpt lat="36.79531284522316" lon="-108.00188651813143"><ele>1769.0</ele><time>2026-04-11T17:36:42Z</time></trkpt><trkpt lat="36.795225724542796" lon="-108.00182593755332"><ele>1769.0</ele><time>2026-04-11T17:36:43Z</time></trkpt><trkpt lat="36.79513594116376" lon="-108.00176496220323"><ele>1769.0</ele><time>2026-04-11T17:36:44Z</time></trkpt><trkpt lat="36.7950612856104" lon="-108.00174754253678"><ele>1769.0</ele><time>2026-04-11T17:36:45Z</time></trkpt><trkpt lat="36.79500259431317" lon="-108.00181097100632"><ele>1769.0</ele><time>2026-04-11T17:36:47Z</time></trkpt><trkpt lat="36.79505199185742" lon="-108.00191465152307"><ele>1769.0</ele><time>2026-04-11T17:36:49Z</time></trkpt><trkpt lat="36.79511443209404" lon="-108.00196857250074"><ele>1769.0</ele><time>2026-04-11T17:36:51Z</time></trkpt><trkpt lat="36.795196688464785" lon="-108.00199521739862"><ele>1769.0</ele><time>2026-04-11T17:36:53Z</time></trkpt><trkpt lat="36.79524395600363" lon="-108.00187094122467"><ele>1769.0</ele><time>2026-04-11T17:36:56Z</time></trkpt><trkpt lat="36.79533048602736" lon="-108.0018683738697"><ele>1769.0</ele><time>2026-04-11T17:36:58Z</time></trkpt><trkpt lat="36.79540109714528" lon="-108.00189755765416"><ele>1769.0</ele><time>2026-04-11T17:37:12Z</time></trkpt><trkpt lat="36.795466368280444" lon="-108.00188407727275"><ele>1769.0</ele><time>2026-04-11T17:37:34Z</time></trkpt><trkpt lat="36.79554670497176" lon="-108.00195128271405"><ele>1769.0</ele><time>2026-04-11T17:37:36Z</time></trkpt><trkpt lat="36.79557718920503" lon="-108.00208615442476"><ele>1769.0</ele><time>2026-04-11T17:37:38Z</time></trkpt><trkpt lat="36.79565441356171" lon="-108.00220698458476"><ele>1769.0</ele><time>2026-04-11T17:37:40Z</time></trkpt><trkpt lat="36.795710970836225" lon="-108.00231082148586"><ele>1769.0</ele><time>2026-04-11T17:37:42Z</time></trkpt><trkpt lat="36.79569401423622" lon="-108.00239909340665"><ele>1769.0</ele><time>2026-04-11T17:37:44Z</time></trkpt><trkpt lat="36.79576564098853" lon="-108.00240316498082"><ele>1769.0</ele><time>2026-04-11T17:37:47Z</time></trkpt><trkpt lat="36.79573058904442" lon="-108.00227128774817"><ele>1769.0</ele><time>2026-04-11T17:37:49Z</time></trkpt><trkpt lat="36.795639021121715" lon="-108.00218383112733"><ele>1769.0</ele><time>2026-04-11T17:37:50Z</time></trkpt><trkpt lat="36.795541681398085" lon="-108.00208795945916"><ele>1769.0</ele><time>2026-04-11T17:37:51Z</time></trkpt><trkpt lat="36.79543626700788" lon="-108.00198968279884"><ele>1769.0</ele><time>2026-04-11T17:37:52Z</time></trkpt><trkpt lat="36.795338165206296" lon="-108.00190081539986"><ele>1769.0</ele><time>2026-04-11T17:37:53Z</time></trkpt><trkpt lat="36.79526208225168" lon="-108.00185041111052"><ele>1769.0</ele><time>2026-04-11T17:37:54Z</time></trkpt><trkpt lat="36.79517267678567" lon="-108.00178921299411"><ele>1769.0</ele><time>2026-04-11T17:37:55Z</time></trkpt><trkpt lat="36.79509469887864" lon="-108.00175103921833"><ele>1769.0</ele><time>2026-04-11T17:37:56Z</time></trkpt><trkpt lat="36.79499953494455" lon="-108.0017847099804"><ele>1769.0</ele><time>2026-04-11T17:37:58Z</time></trkpt><trkpt lat="36.79505078458748" lon="-108.00187953132968"><ele>1769.0</ele><time>2026-04-11T17:38:00Z</time></trkpt><trkpt lat="36.79504817132385" lon="-108.00200991784496"><ele>1769.0</ele><time>2026-04-11T17:38:03Z</time></trkpt><trkpt lat="36.79504386350784" lon="-108.00214310747583"><ele>1769.0</ele><time>2026-04-11T17:38:05Z</time></trkpt><trkpt lat="36.79503285165062" lon="-108.00223974653575"><ele>1769.0</ele><time>2026-04-11T17:38:06Z</time></trkpt><trkpt lat="36.795020799392944" lon="-108.00236601930328"><ele>1769.0</ele><time>2026-04-11T17:38:07Z</time></trkpt><trkpt lat="36.79502398661865" lon="-108.00245247636782"><ele>1769.0</ele><time>2026-04-11T17:38:08Z</time></trkpt><trkpt lat="36.79512036030204" lon="-108.00251421731093"><ele>1769.0</ele><time>2026-04-11T17:38:10Z</time></trkpt><trkpt lat="36.79520208434361" lon="-108.00246892110475"><ele>1769.0</ele><time>2026-04-11T17:38:11Z</time></trkpt><trkpt lat="36.795273534222034" lon="-108.00241190669955"><ele>1769.0</ele><time>2026-04-11T17:38:12Z</time></trkpt><trkpt lat="36.795409488603305" lon="-108.00239039676006"><ele>1769.0</ele><time>2026-04-11T17:38:13Z</time></trkpt><trkpt lat="36.79555488503916" lon="-108.00241424600604"><ele>1769.0</ele><time>2026-04-11T17:38:14Z</time></trkpt><trkpt lat="36.79568070951667" lon="-108.0024558738011"><ele>1769.0</ele><time>2026-04-11T17:38:15Z</time></trkpt><trkpt lat="36.795778701455504" lon="-108.00241528862988"><ele>1769.0</ele><time>2026-04-11T17:38:17Z</time></trkpt><trkpt lat="36.79573986663742" lon="-108.0022997853525"><ele>1769.0</ele><time>2026-04-11T17:38:19Z</time></trkpt><trkpt lat="36.795673880975734" lon="-108.00223387649271"><ele>1769.0</ele><time>2026-04-11T17:38:20Z</time></trkpt><trkpt lat="36.79558512455283" lon="-108.00214285188841"><ele>1769.0</ele><time>2026-04-11T17:38:21Z</time></trkpt><trkpt lat="36.795485120385" lon="-108.00203573525255"><ele>1769.0</ele><time>2026-04-11T17:38:22Z</time></trkpt><trkpt lat="36.79538206690326" lon="-108.00193697333044"><ele>1769.0</ele><time>2026-04-11T17:38:23Z</time></trkpt><trkpt lat="36.795286877339244" lon="-108.00185491505052"><ele>1769.0</ele><time>2026-04-11T17:38:24Z</time></trkpt><trkpt lat="36.79519972203472" lon="-108.0018057880419"><ele>1768.9999999999998</ele><time>2026-04-11T17:38:25Z</time></trkpt><trkpt lat="36.79512176161177" lon="-108.00175238116893"><ele>1769.0</ele><time>2026-04-11T17:38:26Z</time></trkpt><trkpt lat="36.79505459290691" lon="-108.00172278836412"><ele>1769.0</ele><time>2026-04-11T17:38:27Z</time></trkpt><trkpt lat="36.79498205964005" lon="-108.00170698063576"><ele>1769.0</ele><time>2026-04-11T17:38:28Z</time></trkpt><trkpt lat="36.79489122555791" lon="-108.0016885345669"><ele>1768.9999999999998</ele><time>2026-04-11T17:38:29Z</time></trkpt><trkpt lat="36.79478914947024" lon="-108.00167121416379"><ele>1769.0</ele><time>2026-04-11T17:38:30Z</time></trkpt><trkpt lat="36.79466957122862" lon="-108.00164465503333"><ele>1768.8000000000002</ele><time>2026-04-11T17:38:31Z</time></trkpt><trkpt lat="36.79455806982144" lon="-108.00162544168059"><ele>1768.6000000000001</ele><time>2026-04-11T17:38:32Z</time></trkpt><trkpt lat="36.79447105269374" lon="-108.00158593327352"><ele>1768.4</ele><time>2026-04-11T17:38:33Z</time></trkpt><trkpt lat="36.794408801394184" lon="-108.0015155535217"><ele>1768.2</ele><time>2026-04-11T17:38:34Z</time></trkpt><trkpt lat="36.794374930711676" lon="-108.00139057224273"><ele>1768.0</ele><time>2026-04-11T17:38:35Z</time></trkpt><trkpt lat="36.79434431508215" lon="-108.00122859737375"><ele>1768.8000000000002</ele><time>2026-04-11T17:38:36Z</time></trkpt><trkpt lat="36.79428151059394" lon="-108.00114644870567"><ele>1769.6000000000001</ele><time>2026-04-11T17:38:37Z</time></trkpt><trkpt lat="36.79418605366889" lon="-108.0011393806766"><ele>1770.3999999999999</ele><time>2026-04-11T17:38:38Z</time></trkpt><trkpt lat="36.79406922557322" lon="-108.0011560304414"><ele>1771.1999999999998</ele><time>2026-04-11T17:38:39Z</time></trkpt><trkpt lat="36.79396414250077" lon="-108.001175239177"><ele>1772.0</ele><time>2026-04-11T17:38:40Z</time></trkpt><trkpt lat="36.79393742456856" lon="-108.00126405343887"><ele>1772.0</ele><time>2026-04-11T17:38:42Z</time></trkpt><trkpt lat="36.79394616850255" lon="-108.0014340964497"><ele>1771.9999999999998</ele><time>2026-04-11T17:38:44Z</time></trkpt><trkpt lat="36.79393748482873" lon="-108.00156166692577"><ele>1771.9999999999998</ele><time>2026-04-11T17:38:45Z</time></trkpt><trkpt lat="36.79393432644424" lon="-108.00168133646187"><ele>1772.0</ele><time>2026-04-11T17:38:46Z</time></trkpt><trkpt lat="36.79393414036716" lon="-108.00182317194755"><ele>1772.0</ele><time>2026-04-11T17:38:47.001Z</time></trkpt><trkpt lat="36.79393108226747" lon="-108.00198503440024"><ele>1772.0</ele><time>2026-04-11T17:38:48.001Z</time></trkpt><trkpt lat="36.79391270623474" lon="-108.0021490731978"><ele>1772.0</ele><time>2026-04-11T17:38:49.001Z</time></trkpt><trkpt lat="36.793888339598105" lon="-108.0022904900014"><ele>1772.0</ele><time>2026-04-11T17:38:50.001Z</time></trkpt><trkpt lat="36.79385173093276" lon="-108.0024168665563"><ele>1772.0</ele><time>2026-04-11T17:38:51.001Z</time></trkpt><trkpt lat="36.79381769076981" lon="-108.00252944185775"><ele>1771.75</ele><time>2026-04-11T17:38:52.001Z</time></trkpt><trkpt lat="36.7937777066828" lon="-108.00265814728553"><ele>1771.5</ele><time>2026-04-11T17:38:53.001Z</time></trkpt><trkpt lat="36.793728829422726" lon="-108.00280242757295"><ele>1771.25</ele><time>2026-04-11T17:38:54.001Z</time></trkpt><trkpt lat="36.79367374168168" lon="-108.00294786615821"><ele>1771.0</ele><time>2026-04-11T17:38:55.001Z</time></trkpt><trkpt lat="36.793623659494465" lon="-108.00306291332026"><ele>1771.0</ele><time>2026-04-11T17:38:56.001Z</time></trkpt><trkpt lat="36.793585678214335" lon="-108.00316077632694"><ele>1771.0</ele><time>2026-04-11T17:38:57.001Z</time></trkpt><trkpt lat="36.79359618202533" lon="-108.00328427262119"><ele>1771.0</ele><time>2026-04-11T17:38:58.001Z</time></trkpt><trkpt lat="36.793634701682464" lon="-108.00344916088218"><ele>1771.0</ele><time>2026-04-11T17:38:59.001Z</time></trkpt><trkpt lat="36.793635682357554" lon="-108.00362165147948"><ele>1771.75</ele><time>2026-04-11T17:39:00.001Z</time></trkpt><trkpt lat="36.79361970892861" lon="-108.0037856821843"><ele>1772.5</ele><time>2026-04-11T17:39:01.001Z</time></trkpt><trkpt lat="36.79357865923921" lon="-108.00394988403548"><ele>1773.25</ele><time>2026-04-11T17:39:02.001Z</time></trkpt><trkpt lat="36.793547443052404" lon="-108.00411314430188"><ele>1774.0</ele><time>2026-04-11T17:39:03.001Z</time></trkpt><trkpt lat="36.79353742053103" lon="-108.00429138993496"><ele>1775.5</ele><time>2026-04-11T17:39:04Z</time></trkpt><trkpt lat="36.79350415794379" lon="-108.00446482886647"><ele>1777.0</ele><time>2026-04-11T17:39:05Z</time></trkpt><trkpt lat="36.79346255606916" lon="-108.00463049730689"><ele>1778.5</ele><time>2026-04-11T17:39:06Z</time></trkpt><trkpt lat="36.793443305576396" lon="-108.00477945724884"><ele>1780.0</ele><time>2026-04-11T17:39:07Z</time></trkpt><trkpt lat="36.79344738379391" lon="-108.00488476493703"><ele>1780.0000000000002</ele><time>2026-04-11T17:39:08Z</time></trkpt><trkpt lat="36.793437425351534" lon="-108.00496288228629"><ele>1780.0</ele><time>2026-04-11T17:39:10Z</time></trkpt><trkpt lat="36.79337261176067" lon="-108.00491280102023"><ele>1780.0</ele><time>2026-04-11T17:39:14Z</time></trkpt><trkpt lat="36.79328161758169" lon="-108.00494404817543"><ele>1780.0</ele><time>2026-04-11T17:39:17Z</time></trkpt><trkpt lat="36.79320973614661" lon="-108.00494214242012"><ele>1780.0000000000002</ele><time>2026-04-11T17:39:18Z</time></trkpt><trkpt lat="36.79308656096646" lon="-108.00498445240933"><ele>1780.0</ele><time>2026-04-11T17:39:20Z</time></trkpt><trkpt lat="36.79301741687908" lon="-108.00502138914811"><ele>1780.0</ele><time>2026-04-11T17:39:21Z</time></trkpt><trkpt lat="36.79293356594138" lon="-108.00506131969313"><ele>1780.0</ele><time>2026-04-11T17:39:22Z</time></trkpt><trkpt lat="36.79283679666068" lon="-108.0050695136942"><ele>1780.0</ele><time>2026-04-11T17:39:23Z</time></trkpt><trkpt lat="36.79273004498109" lon="-108.00503894689888"><ele>1780.0</ele><time>2026-04-11T17:39:23.999Z</time></trkpt><trkpt lat="36.792621139964126" lon="-108.00499174553292"><ele>1780.0</ele><time>2026-04-11T17:39:24.999Z</time></trkpt><trkpt lat="36.79251702357044" lon="-108.00494847581382"><ele>1780.75</ele><time>2026-04-11T17:39:25.999Z</time></trkpt><trkpt lat="36.79238611410625" lon="-108.00492968631558"><ele>1781.5</ele><time>2026-04-11T17:39:26.999Z</time></trkpt><trkpt lat="36.79226289284546" lon="-108.00493204016371"><ele>1782.25</ele><time>2026-04-11T17:39:27.999Z</time></trkpt><trkpt lat="36.79216519925496" lon="-108.00494298357316"><ele>1783.0</ele><time>2026-04-11T17:39:28.999Z</time></trkpt><trkpt lat="36.792062549149655" lon="-108.0049678417922"><ele>1782.4</ele><time>2026-04-11T17:39:29.999Z</time></trkpt><trkpt lat="36.79197844620803" lon="-108.00501486662674"><ele>1781.8000000000002</ele><time>2026-04-11T17:39:30.999Z</time></trkpt><trkpt lat="36.79191253663655" lon="-108.00509530855742"><ele>1781.2</ele><time>2026-04-11T17:39:31.999Z</time></trkpt><trkpt lat="36.79183815720945" lon="-108.00517268248994"><ele>1780.6</ele><time>2026-04-11T17:39:32.999Z</time></trkpt><trkpt lat="36.79173364650638" lon="-108.0052131197898"><ele>1780.0</ele><time>2026-04-11T17:39:33.999Z</time></trkpt><trkpt lat="36.79163553346039" lon="-108.00522366949201"><ele>1780.0</ele><time>2026-04-11T17:39:34.999Z</time></trkpt><trkpt lat="36.79156371849766" lon="-108.00522818353024"><ele>1780.0</ele><time>2026-04-11T17:39:35.999Z</time></trkpt><trkpt lat="36.79143504035129" lon="-108.00521019551668"><ele>1780.0</ele><time>2026-04-11T17:39:37.999Z</time></trkpt><trkpt lat="36.79135583348219" lon="-108.00517151008174"><ele>1780.0</ele><time>2026-04-11T17:39:38.999Z</time></trkpt><trkpt lat="36.79125333796763" lon="-108.00511991538238"><ele>1780.0</ele><time>2026-04-11T17:39:39.999Z</time></trkpt><trkpt lat="36.791169380850626" lon="-108.00508117076869"><ele>1780.0</ele><time>2026-04-11T17:39:40.999Z</time></trkpt><trkpt lat="36.79110144617057" lon="-108.00500525203742"><ele>1780.0</ele><time>2026-04-11T17:39:41.999Z</time></trkpt><trkpt lat="36.79102396234155" lon="-108.00492398160556"><ele>1780.0</ele><time>2026-04-11T17:39:42.999Z</time></trkpt><trkpt lat="36.79093332148153" lon="-108.00480222842862"><ele>1780.0</ele><time>2026-04-11T17:39:43.999Z</time></trkpt><trkpt lat="36.79086903790595" lon="-108.00466503293943"><ele>1780.1666666666667</ele><time>2026-04-11T17:39:44.999Z</time></trkpt><trkpt lat="36.790810448727534" lon="-108.00455334066993"><ele>1780.3333333333335</ele><time>2026-04-11T17:39:45.999Z</time></trkpt><trkpt lat="36.790737283276805" lon="-108.00446280834389"><ele>1780.5</ele><time>2026-04-11T17:39:46.999Z</time></trkpt><trkpt lat="36.79066918981225" lon="-108.0043872327449"><ele>1780.6666666666665</ele><time>2026-04-11T17:39:47.999Z</time></trkpt><trkpt lat="36.79059926097019" lon="-108.0043445918412"><ele>1780.8333333333333</ele><time>2026-04-11T17:39:48.999Z</time></trkpt><trkpt lat="36.79053682321933" lon="-108.00432676114265"><ele>1781.0</ele><time>2026-04-11T17:39:49.999Z</time></trkpt><trkpt lat="36.79041735492856" lon="-108.00431650173027"><ele>1781.0</ele><time>2026-04-11T17:39:51.999Z</time></trkpt><trkpt lat="36.79033556217058" lon="-108.00426513951548"><ele>1781.0</ele><time>2026-04-11T17:39:52.999Z</time></trkpt><trkpt lat="36.79024178595983" lon="-108.00418777646797"><ele>1781.0</ele><time>2026-04-11T17:39:53.999Z</time></trkpt><trkpt lat="36.790141830510976" lon="-108.00413301355255"><ele>1781.0</ele><time>2026-04-11T17:39:54.999Z</time></trkpt><trkpt lat="36.790078076845354" lon="-108.0040981845181"><ele>1781.0</ele><time>2026-04-11T17:39:55.999Z</time></trkpt><trkpt lat="36.78999624675295" lon="-108.0039525812772"><ele>1784.5</ele><time>2026-04-11T17:40:18.999Z</time></trkpt><trkpt lat="36.78993642630146" lon="-108.0038331466443"><ele>1788.0</ele><time>2026-04-11T17:40:20.999Z</time></trkpt><trkpt lat="36.78987116128867" lon="-108.00366143938625"><ele>1791.5</ele><time>2026-04-11T17:40:22.999Z</time></trkpt><trkpt lat="36.78982219732496" lon="-108.0035562668478"><ele>1795.0</ele><time>2026-04-11T17:40:23.999Z</time></trkpt><trkpt lat="36.7897770322567" lon="-108.00343535646907"><ele>1796.3333333333335</ele><time>2026-04-11T17:40:24.999Z</time></trkpt><trkpt lat="36.789735435612414" lon="-108.00331971771465"><ele>1797.6666666666667</ele><time>2026-04-11T17:40:25.999Z</time></trkpt><trkpt lat="36.78967345775276" lon="-108.00325540514606"><ele>1799.0</ele><time>2026-04-11T17:40:26.999Z</time></trkpt><trkpt lat="36.78960675764114" lon="-108.00322046727646"><ele>1800.3333333333335</ele><time>2026-04-11T17:40:27.999Z</time></trkpt><trkpt lat="36.789535008594754" lon="-108.00323598138321"><ele>1801.6666666666667</ele><time>2026-04-11T17:40:29.999Z</time></trkpt><trkpt lat="36.78947003458673" lon="-108.00325530256205"><ele>1803.0</ele><time>2026-04-11T17:42:18Z</time></trkpt><trkpt lat="36.78954104849336" lon="-108.00323650475517"><ele>1803.0</ele><time>2026-04-11T17:43:38Z</time></trkpt><trkpt lat="36.789609179848966" lon="-108.00323691680791"><ele>1803.0000000000002</ele><time>2026-04-11T17:43:44Z</time></trkpt><trkpt lat="36.78969800937864" lon="-108.00326091120708"><ele>1803.0000000000002</ele><time>2026-04-11T17:43:46Z</time></trkpt><trkpt lat="36.7897859201788" lon="-108.00336502199804"><ele>1803.0</ele><time>2026-04-11T17:43:48Z</time></trkpt><trkpt lat="36.789821116804404" lon="-108.00347706612419"><ele>1803.0</ele><time>2026-04-11T17:43:49Z</time></trkpt><trkpt lat="36.789849288391245" lon="-108.00358828737082"><ele>1801.4</ele><time>2026-04-11T17:43:50Z</time></trkpt><trkpt lat="36.789889155114295" lon="-108.00368140710422"><ele>1799.8000000000002</ele><time>2026-04-11T17:43:51Z</time></trkpt><trkpt lat="36.78992281864519" lon="-108.0037572615499"><ele>1798.2</ele><time>2026-04-11T17:43:52Z</time></trkpt><trkpt lat="36.78998783629162" lon="-108.00389255263474"><ele>1796.6</ele><time>2026-04-11T17:43:54Z</time></trkpt><trkpt lat="36.79003798117855" lon="-108.00401230465323"><ele>1795.0</ele><time>2026-04-11T17:43:56Z</time></trkpt><trkpt lat="36.78998345967603" lon="-108.0038982380816"><ele>1795.0</ele><time>2026-04-11T17:45:46Z</time></trkpt><trkpt lat="36.78994143891952" lon="-108.00380737686716"><ele>1795.0</ele><time>2026-04-11T17:45:47Z</time></trkpt><trkpt lat="36.78987861711954" lon="-108.00371879444478"><ele>1795.0</ele><time>2026-04-11T17:45:48Z</time></trkpt><trkpt lat="36.789831209935286" lon="-108.00360888727002"><ele>1795.0</ele><time>2026-04-11T17:45:49Z</time></trkpt><trkpt lat="36.78978281505318" lon="-108.0034915067722"><ele>1795.0</ele><time>2026-04-11T17:45:50Z</time></trkpt><trkpt lat="36.78973732162647" lon="-108.00336758352368"><ele>1795.0000000000002</ele><time>2026-04-11T17:45:51Z</time></trkpt><trkpt lat="36.7896920508968" lon="-108.00325502672548"><ele>1795.0</ele><time>2026-04-11T17:45:52Z</time></trkpt><trkpt lat="36.789643732405885" lon="-108.00319477111876"><ele>1795.0</ele><time>2026-04-11T17:45:53Z</time></trkpt><trkpt lat="36.78957557208951" lon="-108.00322381377616"><ele>1795.0</ele><time>2026-04-11T17:46:13Z</time></trkpt><trkpt lat="36.7895038208097" lon="-108.00324166841803"><ele>1795.0000000000002</ele><time>2026-04-11T17:46:22Z</time></trkpt><trkpt lat="36.789458924817126" lon="-108.00330274128538"><ele>1795.0</ele><time>2026-04-11T17:48:49Z</time></trkpt><trkpt lat="36.78941053240021" lon="-108.00338031793994"><ele>1795.0</ele><time>2026-04-11T17:48:54Z</time></trkpt><trkpt lat="36.789379407068814" lon="-108.00347095560552"><ele>1795.0</ele><time>2026-04-11T17:48:56Z</time></trkpt><trkpt lat="36.78934992211047" lon="-108.00356194840847"><ele>1795.0</ele><time>2026-04-11T17:48:58Z</time></trkpt><trkpt lat="36.78930799063231" lon="-108.0036861248067"><ele>1795.0</ele><time>2026-04-11T17:49:00Z</time></trkpt><trkpt lat="36.789258389580084" lon="-108.00380793202676"><ele>1795.0</ele><time>2026-04-11T17:49:02Z</time></trkpt><trkpt lat="36.78920188055119" lon="-108.00390782333272"><ele>1794.8</ele><time>2026-04-11T17:49:04Z</time></trkpt><trkpt lat="36.789172695209885" lon="-108.00398533387325"><ele>1794.6</ele><time>2026-04-11T17:49:06Z</time></trkpt><trkpt lat="36.78901268090788" lon="-108.00404671847419"><ele>1794.4</ele><time>2026-04-11T17:49:36Z</time></trkpt><trkpt lat="36.788922539751724" lon="-108.00407344269128"><ele>1794.2</ele><time>2026-04-11T17:49:37Z</time></trkpt><trkpt lat="36.78884816018383" lon="-108.00408722036028"><ele>1794.0</ele><time>2026-04-11T17:49:38Z</time></trkpt><trkpt lat="36.788775871154684" lon="-108.00414419489843"><ele>1794.0</ele><time>2026-04-11T17:49:40Z</time></trkpt><trkpt lat="36.7886378474113" lon="-108.00415576539233"><ele>1794.0</ele><time>2026-04-11T17:49:42Z</time></trkpt><trkpt lat="36.788540703100175" lon="-108.00417081695211"><ele>1794.0</ele><time>2026-04-11T17:49:43Z</time></trkpt><trkpt lat="36.788450287526466" lon="-108.00420407141162"><ele>1794.0</ele><time>2026-04-11T17:49:44Z</time></trkpt><trkpt lat="36.7883545289485" lon="-108.00423717905743"><ele>1794.0</ele><time>2026-04-11T17:49:45Z</time></trkpt><trkpt lat="36.788240370464045" lon="-108.004256497767"><ele>1792.2</ele><time>2026-04-11T17:49:46Z</time></trkpt><trkpt lat="36.78812825349619" lon="-108.00426964400624"><ele>1790.4</ele><time>2026-04-11T17:49:47Z</time></trkpt><trkpt lat="36.78803199688046" lon="-108.00426572837775"><ele>1788.6</ele><time>2026-04-11T17:49:48Z</time></trkpt><trkpt lat="36.78794819179125" lon="-108.00422904256371"><ele>1786.8</ele><time>2026-04-11T17:49:49Z</time></trkpt><trkpt lat="36.78784306776821" lon="-108.00417806236054"><ele>1785.0</ele><time>2026-04-11T17:49:50Z</time></trkpt><trkpt lat="36.78773301460958" lon="-108.00412422322455"><ele>1784.8333333333333</ele><time>2026-04-11T17:49:51Z</time></trkpt><trkpt lat="36.78763353738717" lon="-108.00405772692285"><ele>1784.6666666666665</ele><time>2026-04-11T17:49:52Z</time></trkpt><trkpt lat="36.78756592577337" lon="-108.00399166598105"><ele>1784.5</ele><time>2026-04-11T17:49:53Z</time></trkpt><trkpt lat="36.78750013782577" lon="-108.00393380777732"><ele>1784.3333333333333</ele><time>2026-04-11T17:49:54Z</time></trkpt><trkpt lat="36.78744007438704" lon="-108.00388838411881"><ele>1784.1666666666665</ele><time>2026-04-11T17:49:55Z</time></trkpt><trkpt lat="36.787362270659955" lon="-108.0038356664809"><ele>1784.0</ele><time>2026-04-11T17:49:56Z</time></trkpt><trkpt lat="36.78731624726525" lon="-108.00377782668836"><ele>1783.9999999999998</ele><time>2026-04-11T17:49:57Z</time></trkpt><trkpt lat="36.78727266292568" lon="-108.00371026707577"><ele>1784.0</ele><time>2026-04-11T17:49:58Z</time></trkpt><trkpt lat="36.787221647909476" lon="-108.00364087270259"><ele>1784.0</ele><time>2026-04-11T17:49:59Z</time></trkpt><trkpt lat="36.787126120568395" lon="-108.0036403607161"><ele>1784.0</ele><time>2026-04-11T17:50:01Z</time></trkpt><trkpt lat="36.78705209477249" lon="-108.00364405739896"><ele>1783.9999999999998</ele><time>2026-04-11T17:50:03Z</time></trkpt><trkpt lat="36.78697892573799" lon="-108.00362028437088"><ele>1784.0</ele><time>2026-04-11T17:50:05Z</time></trkpt><trkpt lat="36.78691912804462" lon="-108.00358284844478"><ele>1785.5</ele><time>2026-04-11T17:50:07Z</time></trkpt><trkpt lat="36.78674828779826" lon="-108.00346207996245"><ele>1787.0</ele><time>2026-04-11T17:50:08Z</time></trkpt><trkpt lat="36.786630505849395" lon="-108.00344198231437"><ele>1788.5</ele><time>2026-04-11T17:50:10Z</time></trkpt><trkpt lat="36.78658075654148" lon="-108.00351952865898"><ele>1790.0</ele><time>2026-04-11T17:50:12Z</time></trkpt><trkpt lat="36.78650327866534" lon="-108.00356995461382"><ele>1790.0</ele><time>2026-04-11T17:50:15Z</time></trkpt><trkpt lat="36.78643969018265" lon="-108.00356412450381"><ele>1790.0</ele><time>2026-04-11T17:50:17Z</time></trkpt><trkpt lat="36.78635576183637" lon="-108.00352620559258"><ele>1790.0</ele><time>2026-04-11T17:50:19Z</time></trkpt><trkpt lat="36.78625536602588" lon="-108.00347842636303"><ele>1790.0</ele><time>2026-04-11T17:50:21Z</time></trkpt><trkpt lat="36.78618024707688" lon="-108.00347495441483"><ele>1790.0</ele><time>2026-04-11T17:50:22Z</time></trkpt><trkpt lat="36.78607914418516" lon="-108.00340293441792"><ele>1790.0</ele><time>2026-04-11T17:50:24Z</time></trkpt><trkpt lat="36.78602250990141" lon="-108.00336214899966"><ele>1790.0</ele><time>2026-04-11T17:50:25Z</time></trkpt><trkpt lat="36.78584491351906" lon="-108.0033315609403"><ele>1790.0</ele><time>2026-04-11T17:50:27Z</time></trkpt><trkpt lat="36.78576171629025" lon="-108.00331602873757"><ele>1790.0</ele><time>2026-04-11T17:50:28Z</time></trkpt><trkpt lat="36.785679664493635" lon="-108.00326040415655"><ele>1790.0</ele><time>2026-04-11T17:50:29Z</time></trkpt><trkpt lat="36.785611085079076" lon="-108.00319434277655"><ele>1791.8</ele><time>2026-04-11T17:50:30Z</time></trkpt><trkpt lat="36.78552374229417" lon="-108.0031164929546"><ele>1793.6</ele><time>2026-04-11T17:50:31Z</time></trkpt><trkpt lat="36.785435800197185" lon="-108.00310167002132"><ele>1795.4</ele><time>2026-04-11T17:50:32Z</time></trkpt><trkpt lat="36.785357408195644" lon="-108.00303218765603"><ele>1797.2</ele><time>2026-04-11T17:50:33Z</time></trkpt><trkpt lat="36.78526178497018" lon="-108.00297798412997"><ele>1799.0</ele><time>2026-04-11T17:50:34Z</time></trkpt><trkpt lat="36.785151282634985" lon="-108.00299009727318"><ele>1800.1666666666665</ele><time>2026-04-11T17:50:35Z</time></trkpt><trkpt lat="36.78505454553873" lon="-108.00299665830701"><ele>1801.3333333333333</ele><time>2026-04-11T17:50:36Z</time></trkpt><trkpt lat="36.78499024794981" lon="-108.00295876215766"><ele>1802.5</ele><time>2026-04-11T17:50:37Z</time></trkpt><trkpt lat="36.78490719530529" lon="-108.00293436948155"><ele>1803.6666666666665</ele><time>2026-04-11T17:50:38Z</time></trkpt><trkpt lat="36.78494557557758" lon="-108.00282980616771"><ele>1804.8333333333333</ele><time>2026-04-11T17:50:40Z</time></trkpt><trkpt lat="36.784898178163495" lon="-108.00277405491337"><ele>1806.0</ele><time>2026-04-11T17:50:43Z</time></trkpt><trkpt lat="36.78491753980374" lon="-108.00269549128004"><ele>1806.0</ele><time>2026-04-11T17:50:54Z</time></trkpt><trkpt lat="36.78500255730999" lon="-108.00259287907619"><ele>1806.0</ele><time>2026-04-11T17:50:56Z</time></trkpt><trkpt lat="36.78504831466966" lon="-108.00252071725758"><ele>1806.0</ele><time>2026-04-11T17:50:57Z</time></trkpt><trkpt lat="36.78506554957699" lon="-108.00242835367666"><ele>1806.0</ele><time>2026-04-11T17:50:58Z</time></trkpt><trkpt lat="36.78503210619054" lon="-108.00231519237674"><ele>1806.0</ele><time>2026-04-11T17:50:59Z</time></trkpt><trkpt lat="36.78499881394284" lon="-108.00218863243435"><ele>1805.3333333333333</ele><time>2026-04-11T17:51:00Z</time></trkpt><trkpt lat="36.785006139408985" lon="-108.00208030586683"><ele>1804.6666666666665</ele><time>2026-04-11T17:51:01Z</time></trkpt><trkpt lat="36.7850630325549" lon="-108.00200441582439"><ele>1804.0</ele><time>2026-04-11T17:51:02Z</time></trkpt><trkpt lat="36.78510957138909" lon="-108.0019079791352"><ele>1803.3333333333333</ele><time>2026-04-11T17:51:03Z</time></trkpt><trkpt lat="36.785132402739414" lon="-108.00181966577068"><ele>1802.6666666666665</ele><time>2026-04-11T17:51:04Z</time></trkpt><trkpt lat="36.785084750817795" lon="-108.00174695894775"><ele>1802.0</ele><time>2026-04-11T17:51:05Z</time></trkpt><trkpt lat="36.785017361369995" lon="-108.00162569744197"><ele>1801.8</ele><time>2026-04-11T17:51:06Z</time></trkpt><trkpt lat="36.7849579808431" lon="-108.00151517948474"><ele>1801.6</ele><time>2026-04-11T17:51:07Z</time></trkpt><trkpt lat="36.78489933017336" lon="-108.00145915918044"><ele>1801.3999999999999</ele><time>2026-04-11T17:51:08Z</time></trkpt><trkpt lat="36.78487262692678" lon="-108.00137674543572"><ele>1801.1999999999998</ele><time>2026-04-11T17:51:09Z</time></trkpt><trkpt lat="36.78491351293553" lon="-108.00125738452525"><ele>1801.0</ele><time>2026-04-11T17:51:12Z</time></trkpt><trkpt lat="36.78493142381077" lon="-108.00114146693238"><ele>1801.0000000000002</ele><time>2026-04-11T17:51:14Z</time></trkpt><trkpt lat="36.78489696839143" lon="-108.0010699090139"><ele>1801.0</ele><time>2026-04-11T17:51:16Z</time></trkpt><trkpt lat="36.78490486365853" lon="-108.00093113129871"><ele>1801.0</ele><time>2026-04-11T17:51:18Z</time></trkpt><trkpt lat="36.78491474738101" lon="-108.0008452684848"><ele>1801.0</ele><time>2026-04-11T17:51:19Z</time></trkpt><trkpt lat="36.78493588319352" lon="-108.00074344976684"><ele>1801.0000000000002</ele><time>2026-04-11T17:51:20Z</time></trkpt><trkpt lat="36.7849846658026" lon="-108.00065769746122"><ele>1801.0</ele><time>2026-04-11T17:51:21Z</time></trkpt><trkpt lat="36.78500675117314" lon="-108.00056988860587"><ele>1800.8</ele><time>2026-04-11T17:51:23Z</time></trkpt><trkpt lat="36.785080299473734" lon="-108.00043802167237"><ele>1800.6</ele><time>2026-04-11T17:51:26Z</time></trkpt><trkpt lat="36.78515740744858" lon="-108.00036257007409"><ele>1800.4</ele><time>2026-04-11T17:51:27Z</time></trkpt><trkpt lat="36.78522752138591" lon="-108.00028482993736"><ele>1800.2</ele><time>2026-04-11T17:51:28Z</time></trkpt><trkpt lat="36.78527484803819" lon="-108.00021899714434"><ele>1800.0</ele><time>2026-04-11T17:51:29Z</time></trkpt><trkpt lat="36.785235264830774" lon="-108.00009857064357"><ele>1800.0</ele><time>2026-04-11T17:51:31Z</time></trkpt><trkpt lat="36.785123296764695" lon="-107.99996229783027"><ele>1800.0</ele><time>2026-04-11T17:51:33Z</time></trkpt><trkpt lat="36.78510780732566" lon="-107.99988092822815"><ele>1800.0</ele><time>2026-04-11T17:51:34Z</time></trkpt><trkpt lat="36.7850425303847" lon="-107.9997978153602"><ele>1800.0</ele><time>2026-04-11T17:51:37Z</time></trkpt><trkpt lat="36.78497851252665" lon="-107.99979763092806"><ele>1800.0</ele><time>2026-04-11T17:51:39Z</time></trkpt><trkpt lat="36.784918114838945" lon="-107.99973995447668"><ele>1800.0</ele><time>2026-04-11T17:51:40Z</time></trkpt><trkpt lat="36.78484673251193" lon="-107.99969237534577"><ele>1800.0</ele><time>2026-04-11T17:51:41Z</time></trkpt><trkpt lat="36.784774051923605" lon="-107.99961265332179"><ele>1800.0</ele><time>2026-04-11T17:51:43Z</time></trkpt><trkpt lat="36.78472540250024" lon="-107.99955251969932"><ele>1800.0</ele><time>2026-04-11T17:51:44Z</time></trkpt><trkpt lat="36.78464401648696" lon="-107.99949457446445"><ele>1800.0</ele><time>2026-04-11T17:51:45Z</time></trkpt><trkpt lat="36.78458804557965" lon="-107.99943414447928"><ele>1800.0</ele><time>2026-04-11T17:51:46Z</time></trkpt><trkpt lat="36.784543149319695" lon="-107.99937717082513"><ele>1800.0</ele><time>2026-04-11T17:51:47Z</time></trkpt><trkpt lat="36.78450026940242" lon="-107.9992709327525"><ele>1800.0</ele><time>2026-04-11T17:51:48Z</time></trkpt><trkpt lat="36.78444634175703" lon="-107.99918445295278"><ele>1800.0</ele><time>2026-04-11T17:51:51Z</time></trkpt><trkpt lat="36.78444700971762" lon="-107.99910309875447"><ele>1800.0</ele><time>2026-04-11T17:51:53Z</time></trkpt><trkpt lat="36.7843993638853" lon="-107.99899750085862"><ele>1800.0</ele><time>2026-04-11T17:51:55Z</time></trkpt><trkpt lat="36.78431158551229" lon="-107.99899187493506"><ele>1800.0</ele><time>2026-04-11T17:51:57Z</time></trkpt><trkpt lat="36.78422410047234" lon="-107.99895952485421"><ele>1801.5</ele><time>2026-04-11T17:51:59Z</time></trkpt><trkpt lat="36.78407211997727" lon="-107.99895543343982"><ele>1803.0</ele><time>2026-04-11T17:52:01Z</time></trkpt><trkpt lat="36.78395049359626" lon="-107.99897364260936"><ele>1804.5</ele><time>2026-04-11T17:52:02Z</time></trkpt><trkpt lat="36.78384770198338" lon="-107.99897937806274"><ele>1806.0</ele><time>2026-04-11T17:52:03Z</time></trkpt><trkpt lat="36.7837372555636" lon="-107.99898890577717"><ele>1806.0</ele><time>2026-04-11T17:52:04Z</time></trkpt><trkpt lat="36.78363996052927" lon="-107.99899765576"><ele>1806.0</ele><time>2026-04-11T17:52:05Z</time></trkpt><trkpt lat="36.783562857171404" lon="-107.99898604025034"><ele>1806.0</ele><time>2026-04-11T17:52:06Z</time></trkpt><trkpt lat="36.78347216176628" lon="-107.99892591963457"><ele>1806.0</ele><time>2026-04-11T17:52:07Z</time></trkpt><trkpt lat="36.78339734067383" lon="-107.9988428317235"><ele>1806.0</ele><time>2026-04-11T17:52:08Z</time></trkpt><trkpt lat="36.78330793938571" lon="-107.99879287844898"><ele>1807.0</ele><time>2026-04-11T17:52:09Z</time></trkpt><trkpt lat="36.783177717616766" lon="-107.99876678252201"><ele>1808.0</ele><time>2026-04-11T17:52:10Z</time></trkpt><trkpt lat="36.78305939606103" lon="-107.99873537579388"><ele>1809.0</ele><time>2026-04-11T17:52:11Z</time></trkpt><trkpt lat="36.78296341530599" lon="-107.99869079678203"><ele>1810.0</ele><time>2026-04-11T17:52:12Z</time></trkpt><trkpt lat="36.78286355137374" lon="-107.99865028119875"><ele>1810.0</ele><time>2026-04-11T17:52:13Z</time></trkpt><trkpt lat="36.78279412428951" lon="-107.99861044145511"><ele>1810.0</ele><time>2026-04-11T17:52:14Z</time></trkpt><trkpt lat="36.782712581828505" lon="-107.99860554755573"><ele>1810.0</ele><time>2026-04-11T17:52:15Z</time></trkpt><trkpt lat="36.78264291566357" lon="-107.99864288435302"><ele>1810.0</ele><time>2026-04-11T17:52:16Z</time></trkpt><trkpt lat="36.782521517994354" lon="-107.99866103659451"><ele>1810.0</ele><time>2026-04-11T17:52:18Z</time></trkpt><trkpt lat="36.78246150817713" lon="-107.99854520911965"><ele>1810.8333333333335</ele><time>2026-04-11T17:52:20Z</time></trkpt><trkpt lat="36.782390566396785" lon="-107.99852108126638"><ele>1811.6666666666667</ele><time>2026-04-11T17:52:22Z</time></trkpt><trkpt lat="36.782473969346235" lon="-107.9985273683969"><ele>1812.5</ele><time>2026-04-11T17:52:53Z</time></trkpt><trkpt lat="36.78243770321871" lon="-107.99845554322623"><ele>1813.3333333333335</ele><time>2026-04-11T17:53:01Z</time></trkpt><trkpt lat="36.78235447439552" lon="-107.99836940422517"><ele>1814.1666666666667</ele><time>2026-04-11T17:53:05Z</time></trkpt><trkpt lat="36.78229789873708" lon="-107.99832727461047"><ele>1815.0</ele><time>2026-04-11T17:53:07Z</time></trkpt><trkpt lat="36.782180051736304" lon="-107.99827344594323"><ele>1816.2</ele><time>2026-04-11T17:55:23Z</time></trkpt><trkpt lat="36.78207847633748" lon="-107.99828298099654"><ele>1817.4</ele><time>2026-04-11T17:55:25Z</time></trkpt><trkpt lat="36.78196129125241" lon="-107.99826849166568"><ele>1818.6</ele><time>2026-04-11T17:55:27Z</time></trkpt><trkpt lat="36.7818897666115" lon="-107.99825182619759"><ele>1819.8</ele><time>2026-04-11T17:55:28Z</time></trkpt><trkpt lat="36.78182647346714" lon="-107.9982451333606"><ele>1821.0</ele><time>2026-04-11T17:55:29Z</time></trkpt><trkpt lat="36.78175239227602" lon="-107.99817230671029"><ele>1821.1666666666667</ele><time>2026-04-11T17:55:31Z</time></trkpt><trkpt lat="36.78166580553796" lon="-107.9981387240118"><ele>1821.3333333333335</ele><time>2026-04-11T17:55:33Z</time></trkpt><trkpt lat="36.78156885915046" lon="-107.99820772248896"><ele>1821.5</ele><time>2026-04-11T17:55:37Z</time></trkpt><trkpt lat="36.781538431750455" lon="-107.99827966472292"><ele>1821.6666666666667</ele><time>2026-04-11T17:55:38Z</time></trkpt><trkpt lat="36.78155509768259" lon="-107.99837073539403"><ele>1821.8333333333335</ele><time>2026-04-11T17:55:40Z</time></trkpt><trkpt lat="36.78152495966484" lon="-107.99845951398933"><ele>1822.0</ele><time>2026-04-11T17:55:42Z</time></trkpt><trkpt lat="36.78148464495356" lon="-107.99853256578156"><ele>1822.0</ele><time>2026-04-11T17:55:44Z</time></trkpt><trkpt lat="36.78140469282909" lon="-107.998620357911"><ele>1821.9999999999998</ele><time>2026-04-11T17:55:46Z</time></trkpt><trkpt lat="36.78139378187487" lon="-107.99870230302146"><ele>1821.9999999999998</ele><time>2026-04-11T17:55:47Z</time></trkpt><trkpt lat="36.78139317618855" lon="-107.99879406881713"><ele>1822.0</ele><time>2026-04-11T17:55:48Z</time></trkpt><trkpt lat="36.781391943216526" lon="-107.99893404725951"><ele>1822.0</ele><time>2026-04-11T17:55:50Z</time></trkpt><trkpt lat="36.78133286752743" lon="-107.99906634194257"><ele>1822.0</ele><time>2026-04-11T17:55:52Z</time></trkpt><trkpt lat="36.78127477814026" lon="-107.99915379721268"><ele>1821.9999999999998</ele><time>2026-04-11T17:55:53Z</time></trkpt><trkpt lat="36.78122011754146" lon="-107.99923703209377"><ele>1821.9999999999998</ele><time>2026-04-11T17:55:54Z</time></trkpt><trkpt lat="36.781120520949635" lon="-107.99936589939742"><ele>1822.0</ele><time>2026-04-11T17:55:56Z</time></trkpt><trkpt lat="36.781071501850214" lon="-107.99943766021742"><ele>1822.0</ele><time>2026-04-11T17:55:57Z</time></trkpt><trkpt lat="36.78104970265009" lon="-107.99951913032879"><ele>1822.3333333333335</ele><time>2026-04-11T17:55:58Z</time></trkpt><trkpt lat="36.781020411343896" lon="-107.99959680252583"><ele>1822.6666666666667</ele><time>2026-04-11T17:55:59Z</time></trkpt><trkpt lat="36.78104618449806" lon="-107.99968434827045"><ele>1823.0</ele><time>2026-04-11T17:56:00Z</time></trkpt><trkpt lat="36.78103416380777" lon="-107.99980024647978"><ele>1823.3333333333335</ele><time>2026-04-11T17:56:02Z</time></trkpt><trkpt lat="36.78097613895555" lon="-107.99987163255317"><ele>1823.6666666666667</ele><time>2026-04-11T17:56:03Z</time></trkpt><trkpt lat="36.78091199883368" lon="-107.99991488585891"><ele>1824.0</ele><time>2026-04-11T17:56:04Z</time></trkpt><trkpt lat="36.78085961249242" lon="-108.00004884808659"><ele>1824.0</ele><time>2026-04-11T17:56:06Z</time></trkpt><trkpt lat="36.78083652906174" lon="-108.00012645376879"><ele>1824.0</ele><time>2026-04-11T17:56:07Z</time></trkpt><trkpt lat="36.78076603482297" lon="-108.00019994623824"><ele>1824.0</ele><time>2026-04-11T17:56:09Z</time></trkpt><trkpt lat="36.78068971319877" lon="-108.00019918509257"><ele>1824.0</ele><time>2026-04-11T17:56:10Z</time></trkpt><trkpt lat="36.7806186930051" lon="-108.00019009283662"><ele>1824.0</ele><time>2026-04-11T17:56:13Z</time></trkpt><trkpt lat="36.78054360967994" lon="-108.0002079194025"><ele>1824.0</ele><time>2026-04-11T17:56:16Z</time></trkpt><trkpt lat="36.78038981520852" lon="-108.00013751921915"><ele>1824.0</ele><time>2026-04-11T17:56:19Z</time></trkpt><trkpt lat="36.780276242976655" lon="-108.00017401891213"><ele>1824.0</ele><time>2026-04-11T17:56:20Z</time></trkpt><trkpt lat="36.78019463969469" lon="-108.00008469097114"><ele>1824.0</ele><time>2026-04-11T17:56:22Z</time></trkpt><trkpt lat="36.78009247080231" lon="-107.99999015201095"><ele>1824.0</ele><time>2026-04-11T17:56:24Z</time></trkpt><trkpt lat="36.78003089912858" lon="-107.99994275495472"><ele>1824.0</ele><time>2026-04-11T17:56:25Z</time></trkpt><trkpt lat="36.77995160286544" lon="-107.99985921403552"><ele>1825.0</ele><time>2026-04-11T17:56:27Z</time></trkpt><trkpt lat="36.77990111261853" lon="-107.99981026058816"><ele>1826.0</ele><time>2026-04-11T17:56:29Z</time></trkpt><trkpt lat="36.77978771730578" lon="-107.99979272857945"><ele>1827.0</ele><time>2026-04-11T17:56:55Z</time></trkpt><trkpt lat="36.77971786091767" lon="-107.99978295370575"><ele>1828.0</ele><time>2026-04-11T17:56:56Z</time></trkpt><trkpt lat="36.7796558698454" lon="-107.99980173249385"><ele>1829.0</ele><time>2026-04-11T17:56:58Z</time></trkpt><trkpt lat="36.77959699511131" lon="-107.99991756228357"><ele>1830.0</ele><time>2026-04-11T17:57:00Z</time></trkpt><trkpt lat="36.77949511434344" lon="-107.99994401829733"><ele>1830.0</ele><time>2026-04-11T17:57:02Z</time></trkpt><trkpt lat="36.77938994454123" lon="-108.00000839365305"><ele>1830.0</ele><time>2026-04-11T17:57:04Z</time></trkpt><trkpt lat="36.77928010630478" lon="-108.00003574090411"><ele>1830.0</ele><time>2026-04-11T17:57:06Z</time></trkpt><trkpt lat="36.779200341432414" lon="-108.00007352816606"><ele>1830.0</ele><time>2026-04-11T17:57:07Z</time></trkpt><trkpt lat="36.77911742938434" lon="-108.0001783937583"><ele>1830.0</ele><time>2026-04-11T17:57:09Z</time></trkpt><trkpt lat="36.779069232239166" lon="-108.00027210626888"><ele>1829.8333333333333</ele><time>2026-04-11T17:57:10Z</time></trkpt><trkpt lat="36.779003398600565" lon="-108.00030171954309"><ele>1829.6666666666665</ele><time>2026-04-11T17:57:11Z</time></trkpt><trkpt lat="36.778926478390225" lon="-108.00031061569436"><ele>1829.5</ele><time>2026-04-11T17:57:12Z</time></trkpt><trkpt lat="36.7788370837092" lon="-108.00032227258625"><ele>1829.3333333333333</ele><time>2026-04-11T17:57:13Z</time></trkpt><trkpt lat="36.77877207772613" lon="-108.00031796896158"><ele>1829.1666666666665</ele><time>2026-04-11T17:57:15Z</time></trkpt><trkpt lat="36.77868557700256" lon="-108.00037657856797"><ele>1829.0</ele><time>2026-04-11T17:57:17Z</time></trkpt><trkpt lat="36.77862012602636" lon="-108.00041800878253"><ele>1828.9999999999998</ele><time>2026-04-11T17:57:18Z</time></trkpt><trkpt lat="36.77854475702416" lon="-108.00046240255057"><ele>1829.0</ele><time>2026-04-11T17:57:19Z</time></trkpt><trkpt lat="36.778469784878475" lon="-108.00050138212163"><ele>1829.0</ele><time>2026-04-11T17:57:20Z</time></trkpt><trkpt lat="36.778406560302074" lon="-108.00055558669432"><ele>1829.0</ele><time>2026-04-11T17:57:21Z</time></trkpt><trkpt lat="36.778344236139" lon="-108.00059461096052"><ele>1828.9999999999998</ele><time>2026-04-11T17:57:22Z</time></trkpt><trkpt lat="36.77827512785026" lon="-108.00064022800713"><ele>1829.0</ele><time>2026-04-11T17:57:23Z</time></trkpt><trkpt lat="36.77817757855335" lon="-108.0006947957869"><ele>1828.9999999999998</ele><time>2026-04-11T17:57:25Z</time></trkpt><trkpt lat="36.778114028381744" lon="-108.00074443688374"><ele>1829.0</ele><time>2026-04-11T17:57:26Z</time></trkpt><trkpt lat="36.77806286114474" lon="-108.00081423639202"><ele>1829.0</ele><time>2026-04-11T17:57:27Z</time></trkpt><trkpt lat="36.777984994899995" lon="-108.00084936434521"><ele>1829.0</ele><time>2026-04-11T17:57:28Z</time></trkpt><trkpt lat="36.777906762351286" lon="-108.0008434581976"><ele>1828.9999999999998</ele><time>2026-04-11T17:57:29Z</time></trkpt><trkpt lat="36.77780540557302" lon="-108.00091571276106"><ele>1829.0</ele><time>2026-04-11T17:57:31Z</time></trkpt><trkpt lat="36.77774622185641" lon="-108.00098966840545"><ele>1830.4</ele><time>2026-04-11T17:57:32Z</time></trkpt><trkpt lat="36.77766382186042" lon="-108.00103776316818"><ele>1831.8000000000002</ele><time>2026-04-11T17:57:33Z</time></trkpt><trkpt lat="36.777556708707706" lon="-108.00106203987944"><ele>1833.1999999999998</ele><time>2026-04-11T17:57:34Z</time></trkpt><trkpt lat="36.77746873418494" lon="-108.00111698879981"><ele>1834.6</ele><time>2026-04-11T17:57:35Z</time></trkpt><trkpt lat="36.77739806035821" lon="-108.00118249357824"><ele>1836.0</ele><time>2026-04-11T17:57:36Z</time></trkpt><trkpt lat="36.77732672290091" lon="-108.00121410586686"><ele>1836.0</ele><time>2026-04-11T17:57:37Z</time></trkpt><trkpt lat="36.7772633566741" lon="-108.00120804909103"><ele>1836.0</ele><time>2026-04-11T17:57:38Z</time></trkpt><trkpt lat="36.77719336968312" lon="-108.00118671592139"><ele>1836.0</ele><time>2026-04-11T17:57:39Z</time></trkpt><trkpt lat="36.77710204255537" lon="-108.00122783280962"><ele>1836.0</ele><time>2026-04-11T17:57:40Z</time></trkpt><trkpt lat="36.7770072726581" lon="-108.00130847602006"><ele>1836.0</ele><time>2026-04-11T17:57:41Z</time></trkpt><trkpt lat="36.776936017641475" lon="-108.00137702431975"><ele>1836.0</ele><time>2026-04-11T17:57:42Z</time></trkpt><trkpt lat="36.77685555114545" lon="-108.00145571907134"><ele>1837.0</ele><time>2026-04-11T17:57:43Z</time></trkpt><trkpt lat="36.77677007281293" lon="-108.00152636420947"><ele>1838.0</ele><time>2026-04-11T17:57:44Z</time></trkpt><trkpt lat="36.77670236202848" lon="-108.00159021034835"><ele>1839.0</ele><time>2026-04-11T17:57:45Z</time></trkpt><trkpt lat="36.77665008591235" lon="-108.0016551395856"><ele>1840.0</ele><time>2026-04-11T17:57:47Z</time></trkpt><trkpt lat="36.776569698488544" lon="-108.00170395981036"><ele>1841.0</ele><time>2026-04-11T17:58:08Z</time></trkpt><trkpt lat="36.77650504038169" lon="-108.00178266359961"><ele>1842.0</ele><time>2026-04-11T17:58:10Z</time></trkpt><trkpt lat="36.77645686895277" lon="-108.00186408649255"><ele>1842.0</ele><time>2026-04-11T17:58:12Z</time></trkpt><trkpt lat="36.77639334439668" lon="-108.00199494503975"><ele>1841.9999999999998</ele><time>2026-04-11T17:58:14Z</time></trkpt><trkpt lat="36.77634513943473" lon="-108.00206374957061"><ele>1841.9999999999998</ele><time>2026-04-11T17:58:15Z</time></trkpt><trkpt lat="36.77631165095799" lon="-108.00213132522948"><ele>1842.0</ele><time>2026-04-11T17:58:16Z</time></trkpt><trkpt lat="36.776289476939375" lon="-108.002275374688"><ele>1842.0</ele><time>2026-04-11T17:58:18Z</time></trkpt><trkpt lat="36.77625625526778" lon="-108.0024240065219"><ele>1842.0</ele><time>2026-04-11T17:58:20Z</time></trkpt><trkpt lat="36.776210657456325" lon="-108.002481701633"><ele>1841.9999999999998</ele><time>2026-04-11T17:58:21Z</time></trkpt><trkpt lat="36.776119322296964" lon="-108.00255422573085"><ele>1841.9999999999998</ele><time>2026-04-11T17:58:23Z</time></trkpt><trkpt lat="36.77610367200077" lon="-108.00272999079974"><ele>1842.0</ele><time>2026-04-11T17:58:25Z</time></trkpt><trkpt lat="36.77608667769901" lon="-108.0028382870222"><ele>1842.0</ele><time>2026-04-11T17:58:26Z</time></trkpt><trkpt lat="36.7760181028191" lon="-108.00290380905493"><ele>1840.6</ele><time>2026-04-11T17:58:28Z</time></trkpt><trkpt lat="36.77605079907548" lon="-108.00283016037358"><ele>1839.1999999999998</ele><time>2026-04-11T17:58:33Z</time></trkpt><trkpt lat="36.77598926821029" lon="-108.00293109515187"><ele>1837.8</ele><time>2026-04-11T18:00:40Z</time></trkpt><trkpt lat="36.77591754199436" lon="-108.00304076171125"><ele>1836.4</ele><time>2026-04-11T18:00:42Z</time></trkpt><trkpt lat="36.77584550711046" lon="-108.00317617551617"><ele>1835.0</ele><time>2026-04-11T18:00:44Z</time></trkpt><trkpt lat="36.77579790226424" lon="-108.00326584590475"><ele>1833.8333333333333</ele><time>2026-04-11T18:00:45Z</time></trkpt><trkpt lat="36.775744457497716" lon="-108.00334716086147"><ele>1832.6666666666665</ele><time>2026-04-11T18:00:46Z</time></trkpt><trkpt lat="36.775708922085" lon="-108.00344444625591"><ele>1831.5</ele><time>2026-04-11T18:00:47Z</time></trkpt><trkpt lat="36.77568949222544" lon="-108.00353487725971"><ele>1830.3333333333335</ele><time>2026-04-11T18:00:48Z</time></trkpt><trkpt lat="36.775670394462374" lon="-108.00362815370171"><ele>1829.1666666666667</ele><time>2026-04-11T18:00:49Z</time></trkpt><trkpt lat="36.77565240764845" lon="-108.00371569007517"><ele>1828.0</ele><time>2026-04-11T18:00:50Z</time></trkpt><trkpt lat="36.77562763200321" lon="-108.00379643872242"><ele>1828.0000000000002</ele><time>2026-04-11T18:00:51Z</time></trkpt><trkpt lat="36.77560342192129" lon="-108.00387312137332"><ele>1828.0</ele><time>2026-04-11T18:00:52Z</time></trkpt><trkpt lat="36.775564735508034" lon="-108.00395804231734"><ele>1828.0000000000002</ele><time>2026-04-11T18:00:53Z</time></trkpt><trkpt lat="36.775534265724524" lon="-108.00402789922907"><ele>1828.0000000000002</ele><time>2026-04-11T18:00:54Z</time></trkpt><trkpt lat="36.77551813284139" lon="-108.00410644879798"><ele>1828.0</ele><time>2026-04-11T18:00:55Z</time></trkpt><trkpt lat="36.775511406937525" lon="-108.0042011221425"><ele>1828.0000000000002</ele><time>2026-04-11T18:00:56Z</time></trkpt><trkpt lat="36.775500631562544" lon="-108.00428931315871"><ele>1828.0000000000002</ele><time>2026-04-11T18:00:57Z</time></trkpt><trkpt lat="36.77548717370878" lon="-108.00438528774484"><ele>1827.2</ele><time>2026-04-11T18:00:58Z</time></trkpt><trkpt lat="36.77541497989952" lon="-108.00451453237163"><ele>1826.4</ele><time>2026-04-11T18:01:00Z</time></trkpt><trkpt lat="36.77539177887908" lon="-108.004624329655"><ele>1825.6000000000001</ele><time>2026-04-11T18:01:01Z</time></trkpt><trkpt lat="36.77539385706283" lon="-108.0047102502963"><ele>1824.8000000000002</ele><time>2026-04-11T18:01:02Z</time></trkpt><trkpt lat="36.77535400953097" lon="-108.00483296214395"><ele>1824.0</ele><time>2026-04-11T18:01:04Z</time></trkpt><trkpt lat="36.77530461215275" lon="-108.00492584928215"><ele>1823.5</ele><time>2026-04-11T18:01:06Z</time></trkpt><trkpt lat="36.77526206739236" lon="-108.00500533061587"><ele>1823.0</ele><time>2026-04-11T18:01:08Z</time></trkpt><trkpt lat="36.7752185106647" lon="-108.00507107694808"><ele>1822.5</ele><time>2026-04-11T18:01:09Z</time></trkpt><trkpt lat="36.775189279692135" lon="-108.00514660046582"><ele>1822.0</ele><time>2026-04-11T18:01:10Z</time></trkpt><trkpt lat="36.77517086033786" lon="-108.00522791221461"><ele>1821.5</ele><time>2026-04-11T18:01:11Z</time></trkpt><trkpt lat="36.77511071075617" lon="-108.0053764403318"><ele>1821.0</ele><time>2026-04-11T18:01:13Z</time></trkpt><trkpt lat="36.77507095824235" lon="-108.00544197784788"><ele>1821.0</ele><time>2026-04-11T18:01:14Z</time></trkpt><trkpt lat="36.77500692555573" lon="-108.00555447006406"><ele>1821.0</ele><time>2026-04-11T18:01:16Z</time></trkpt><trkpt lat="36.774981665158045" lon="-108.00563239144434"><ele>1821.0</ele><time>2026-04-11T18:01:17Z</time></trkpt><trkpt lat="36.77499448677873" lon="-108.00573357271998"><ele>1821.0</ele><time>2026-04-11T18:01:18Z</time></trkpt><trkpt lat="36.77500394282105" lon="-108.0058370694707"><ele>1821.0</ele><time>2026-04-11T18:01:19Z</time></trkpt><trkpt lat="36.77498044754271" lon="-108.00591558358597"><ele>1821.0</ele><time>2026-04-11T18:01:20Z</time></trkpt><trkpt lat="36.77493159056388" lon="-108.00596996324624"><ele>1819.8333333333333</ele><time>2026-04-11T18:01:21Z</time></trkpt><trkpt lat="36.774892296764044" lon="-108.006064383768"><ele>1818.6666666666665</ele><time>2026-04-11T18:01:22Z</time></trkpt><trkpt lat="36.7748734604251" lon="-108.00615088160612"><ele>1817.5</ele><time>2026-04-11T18:01:23Z</time></trkpt><trkpt lat="36.77487279367956" lon="-108.00623347117674"><ele>1816.3333333333333</ele><time>2026-04-11T18:01:24Z</time></trkpt><trkpt lat="36.77482271596016" lon="-108.0062905340548"><ele>1815.1666666666665</ele><time>2026-04-11T18:01:25Z</time></trkpt><trkpt lat="36.77475726076309" lon="-108.00637776936854"><ele>1814.0</ele><time>2026-04-11T18:01:26Z</time></trkpt><trkpt lat="36.77478590353164" lon="-108.0065159322373"><ele>1814.0</ele><time>2026-04-11T18:01:28Z</time></trkpt><trkpt lat="36.77483802086659" lon="-108.00658605837965"><ele>1814.0</ele><time>2026-04-11T18:01:29Z</time></trkpt><trkpt lat="36.774949521983544" lon="-108.00652972906369"><ele>1814.0</ele><time>2026-04-11T18:01:30Z</time></trkpt><trkpt lat="36.775008132843865" lon="-108.00661499322207"><ele>1814.0</ele><time>2026-04-11T18:01:32Z</time></trkpt><trkpt lat="36.77518350170153" lon="-108.0066200561605"><ele>1813.4999999999998</ele><time>2026-04-11T18:01:38Z</time></trkpt><trkpt lat="36.77522236068152" lon="-108.00673120314707"><ele>1813.0</ele><time>2026-04-11T18:01:42Z</time></trkpt><trkpt lat="36.77526808839326" lon="-108.00680707765925"><ele>1812.5</ele><time>2026-04-11T18:01:43Z</time></trkpt><trkpt lat="36.77526660906771" lon="-108.00688796440295"><ele>1812.0</ele><time>2026-04-11T18:01:47Z</time></trkpt><trkpt lat="36.77518272440614" lon="-108.00689812549122"><ele>1811.4999999999998</ele><time>2026-04-11T18:01:49Z</time></trkpt><trkpt lat="36.775113419062315" lon="-108.0069575671142"><ele>1811.0</ele><time>2026-04-11T18:01:51Z</time></trkpt><trkpt lat="36.77503400274299" lon="-108.00697906402695"><ele>1810.4</ele><time>2026-04-11T18:01:55Z</time></trkpt><trkpt lat="36.77496371447268" lon="-108.00708214185413"><ele>1809.8</ele><time>2026-04-11T18:01:57Z</time></trkpt><trkpt lat="36.774905164117015" lon="-108.00711794707316"><ele>1809.2000000000003</ele><time>2026-04-11T18:01:58Z</time></trkpt><trkpt lat="36.7748193676349" lon="-108.00719762661053"><ele>1808.6000000000001</ele><time>2026-04-11T18:02:00Z</time></trkpt><trkpt lat="36.774724633355696" lon="-108.00729414781152"><ele>1808.0</ele><time>2026-04-11T18:02:02Z</time></trkpt><trkpt lat="36.77461507852599" lon="-108.00733029730743"><ele>1807.9999999999998</ele><time>2026-04-11T18:02:03Z</time></trkpt><trkpt lat="36.77455513105097" lon="-108.0073601287877"><ele>1808.0</ele><time>2026-04-11T18:02:04Z</time></trkpt><trkpt lat="36.77445390254831" lon="-108.00735738806289"><ele>1808.0</ele><time>2026-04-11T18:02:05Z</time></trkpt><trkpt lat="36.7743895455414" lon="-108.00737074432286"><ele>1808.0</ele><time>2026-04-11T18:02:06Z</time></trkpt><trkpt lat="36.77430642205238" lon="-108.00740607480948"><ele>1807.9999999999998</ele><time>2026-04-11T18:02:07Z</time></trkpt><trkpt lat="36.77423645386646" lon="-108.00743031942547"><ele>1808.0</ele><time>2026-04-11T18:02:08Z</time></trkpt><trkpt lat="36.77416355556721" lon="-108.00748310847462"><ele>1808.8000000000002</ele><time>2026-04-11T18:02:09Z</time></trkpt><trkpt lat="36.77409306260641" lon="-108.00753054602254"><ele>1809.6000000000001</ele><time>2026-04-11T18:02:10Z</time></trkpt><trkpt lat="36.7740305978928" lon="-108.00759550499453"><ele>1810.3999999999999</ele><time>2026-04-11T18:02:11Z</time></trkpt><trkpt lat="36.77396266169899" lon="-108.007661085901"><ele>1811.1999999999998</ele><time>2026-04-11T18:02:12Z</time></trkpt><trkpt lat="36.77384466507702" lon="-108.00772587987296"><ele>1812.0</ele><time>2026-04-11T18:02:13Z</time></trkpt><trkpt lat="36.77374993832554" lon="-108.00779152778703"><ele>1812.0</ele><time>2026-04-11T18:02:14Z</time></trkpt><trkpt lat="36.773668298953325" lon="-108.00784560417986"><ele>1812.0</ele><time>2026-04-11T18:02:15Z</time></trkpt><trkpt lat="36.7735207022297" lon="-108.00795077464507"><ele>1812.0</ele><time>2026-04-11T18:02:16Z</time></trkpt><trkpt lat="36.7734338678293" lon="-108.00805487580736"><ele>1812.0</ele><time>2026-04-11T18:02:18Z</time></trkpt><trkpt lat="36.77337609913706" lon="-108.00811951743992"><ele>1813.0</ele><time>2026-04-11T18:02:19Z</time></trkpt><trkpt lat="36.773328394103416" lon="-108.00817202433345"><ele>1814.0</ele><time>2026-04-11T18:02:20Z</time></trkpt><trkpt lat="36.77329908025384" lon="-108.00833803885307"><ele>1815.0</ele><time>2026-04-11T18:02:22Z</time></trkpt><trkpt lat="36.77326169363259" lon="-108.00841255106988"><ele>1816.0</ele><time>2026-04-11T18:02:23Z</time></trkpt><trkpt lat="36.77328565659558" lon="-108.00853355155144"><ele>1817.0</ele><time>2026-04-11T18:02:25Z</time></trkpt><trkpt lat="36.77330960576771" lon="-108.00861381136077"><ele>1818.0</ele><time>2026-04-11T18:02:26Z</time></trkpt><trkpt lat="36.77332096477384" lon="-108.00870712550426"><ele>1818.0</ele><time>2026-04-11T18:02:27Z</time></trkpt><trkpt lat="36.77335061876702" lon="-108.00882048531427"><ele>1818.0000000000002</ele><time>2026-04-11T18:02:29Z</time></trkpt><trkpt lat="36.77339487564384" lon="-108.00892264733481"><ele>1818.0000000000002</ele><time>2026-04-11T18:02:32Z</time></trkpt><trkpt lat="36.77348021498806" lon="-108.00901550292221"><ele>1818.0</ele><time>2026-04-11T18:02:34Z</time></trkpt><trkpt lat="36.7735484189642" lon="-108.0090159399642"><ele>1818.0</ele><time>2026-04-11T18:02:35Z</time></trkpt><trkpt lat="36.77364662025712" lon="-108.00901197203966"><ele>1817.6000000000001</ele><time>2026-04-11T18:02:37Z</time></trkpt><trkpt lat="36.77374187741159" lon="-108.00897575812178"><ele>1817.2000000000003</ele><time>2026-04-11T18:02:40Z</time></trkpt><trkpt lat="36.7738615257643" lon="-108.00894206683253"><ele>1816.8</ele><time>2026-04-11T18:02:42Z</time></trkpt><trkpt lat="36.7739524027705" lon="-108.00891813321185"><ele>1816.4</ele><time>2026-04-11T18:02:43Z</time></trkpt><trkpt lat="36.774042379539154" lon="-108.00887823577811"><ele>1816.0</ele><time>2026-04-11T18:02:44Z</time></trkpt><trkpt lat="36.77410971635496" lon="-108.00883922144986"><ele>1816.0</ele><time>2026-04-11T18:02:45Z</time></trkpt><trkpt lat="36.7742020590698" lon="-108.00879179289248"><ele>1816.0</ele><time>2026-04-11T18:02:47Z</time></trkpt><trkpt lat="36.774284522572664" lon="-108.00880843850763"><ele>1816.0</ele><time>2026-04-11T18:03:00Z</time></trkpt><trkpt lat="36.774419067624066" lon="-108.00884360765988"><ele>1816.0</ele><time>2026-04-11T18:03:02Z</time></trkpt><trkpt lat="36.77450946963978" lon="-108.00887281237826"><ele>1816.0</ele><time>2026-04-11T18:03:03Z</time></trkpt><trkpt lat="36.77460990814843" lon="-108.00890423135134"><ele>1815.0</ele><time>2026-04-11T18:03:04Z</time></trkpt><trkpt lat="36.77470909494223" lon="-108.00893472601449"><ele>1814.0</ele><time>2026-04-11T18:03:05Z</time></trkpt><trkpt lat="36.77481333289268" lon="-108.00898419488216"><ele>1813.0</ele><time>2026-04-11T18:03:06Z</time></trkpt><trkpt lat="36.77493023676726" lon="-108.00907415164109"><ele>1812.0</ele><time>2026-04-11T18:03:07Z</time></trkpt><trkpt lat="36.77507769166415" lon="-108.00918532003001"><ele>1810.75</ele><time>2026-04-11T18:03:08Z</time></trkpt><trkpt lat="36.77520111793888" lon="-108.00928389184477"><ele>1809.5</ele><time>2026-04-11T18:03:09Z</time></trkpt><trkpt lat="36.77530814099817" lon="-108.0093301300899"><ele>1808.25</ele><time>2026-04-11T18:03:10Z</time></trkpt><trkpt lat="36.77540406136556" lon="-108.00936311493267"><ele>1807.0</ele><time>2026-04-11T18:03:11Z</time></trkpt><trkpt lat="36.77550379252319" lon="-108.00940724423094"><ele>1807.0</ele><time>2026-04-11T18:03:12Z</time></trkpt><trkpt lat="36.775621096170475" lon="-108.00945362334127"><ele>1806.9999999999998</ele><time>2026-04-11T18:03:13Z</time></trkpt><trkpt lat="36.77570416948779" lon="-108.0095014758691"><ele>1806.9999999999998</ele><time>2026-04-11T18:03:14Z</time></trkpt><trkpt lat="36.77580886597413" lon="-108.00956211804083"><ele>1807.0</ele><time>2026-04-11T18:03:16Z</time></trkpt><trkpt lat="36.77590420584288" lon="-108.00961934896614"><ele>1807.0</ele><time>2026-04-11T18:03:18Z</time></trkpt><trkpt lat="36.775989246230516" lon="-108.00964614533073"><ele>1805.6666666666667</ele><time>2026-04-11T18:03:20Z</time></trkpt><trkpt lat="36.77606661867944" lon="-108.00968120121784"><ele>1804.3333333333335</ele><time>2026-04-11T18:03:22Z</time></trkpt><trkpt lat="36.77614197335545" lon="-108.00971799948408"><ele>1803.0</ele><time>2026-04-11T18:03:25Z</time></trkpt><trkpt lat="36.77620871522014" lon="-108.00976113027075"><ele>1801.6666666666665</ele><time>2026-04-11T18:03:29Z</time></trkpt><trkpt lat="36.77629765731694" lon="-108.00979980941524"><ele>1800.3333333333333</ele><time>2026-04-11T18:04:13Z</time></trkpt><trkpt lat="36.7764053740358" lon="-108.0098506533699"><ele>1799.0</ele><time>2026-04-11T18:04:15Z</time></trkpt><trkpt lat="36.77647944968274" lon="-108.00989544790579"><ele>1799.0</ele><time>2026-04-11T18:04:16Z</time></trkpt><trkpt lat="36.77656084417804" lon="-108.00996573765481"><ele>1799.0</ele><time>2026-04-11T18:04:17Z</time></trkpt><trkpt lat="36.77664197428891" lon="-108.01005274937233"><ele>1799.0</ele><time>2026-04-11T18:04:18Z</time></trkpt><trkpt lat="36.776728352243886" lon="-108.01015453646198"><ele>1799.0</ele><time>2026-04-11T18:04:19Z</time></trkpt><trkpt lat="36.776820145711774" lon="-108.01027096383456"><ele>1797.5</ele><time>2026-04-11T18:04:20Z</time></trkpt><trkpt lat="36.77691547197393" lon="-108.01039393966386"><ele>1796.0</ele><time>2026-04-11T18:04:21Z</time></trkpt><trkpt lat="36.77700989484688" lon="-108.01051965746198"><ele>1794.5</ele><time>2026-04-11T18:04:22Z</time></trkpt><trkpt lat="36.77710943042162" lon="-108.01065050841217"><ele>1793.0</ele><time>2026-04-11T18:04:23Z</time></trkpt><trkpt lat="36.77721742710456" lon="-108.01077875176463"><ele>1792.6000000000001</ele><time>2026-04-11T18:04:24Z</time></trkpt><trkpt lat="36.77731386489323" lon="-108.01088141696829"><ele>1792.2000000000003</ele><time>2026-04-11T18:04:25Z</time></trkpt><trkpt lat="36.77738882650469" lon="-108.01095834446045"><ele>1791.8</ele><time>2026-04-11T18:04:26Z</time></trkpt><trkpt lat="36.77744133608973" lon="-108.0110218726982"><ele>1791.4</ele><time>2026-04-11T18:04:27Z</time></trkpt><trkpt lat="36.77748635792939" lon="-108.01108203571006"><ele>1791.0</ele><time>2026-04-11T18:04:28Z</time></trkpt><trkpt lat="36.777532836921736" lon="-108.01123126741116"><ele>1791.0</ele><time>2026-04-11T18:04:30Z</time></trkpt><trkpt lat="36.7775434525427" lon="-108.01130996251452"><ele>1791.0</ele><time>2026-04-11T18:04:31Z</time></trkpt><trkpt lat="36.77754626856009" lon="-108.01139697403678"><ele>1791.0</ele><time>2026-04-11T18:04:32Z</time></trkpt><trkpt lat="36.777553345350874" lon="-108.01150213843017"><ele>1791.0</ele><time>2026-04-11T18:04:33Z</time></trkpt><trkpt lat="36.77755871888376" lon="-108.01161464175047"><ele>1791.0</ele><time>2026-04-11T18:04:34Z</time></trkpt><trkpt lat="36.777575417868235" lon="-108.01175510437224"><ele>1791.0</ele><time>2026-04-11T18:04:35Z</time></trkpt><trkpt lat="36.77758431149377" lon="-108.01191576194722"><ele>1790.8</ele><time>2026-04-11T18:04:36Z</time></trkpt><trkpt lat="36.77758221685274" lon="-108.01206225368483"><ele>1790.6</ele><time>2026-04-11T18:04:37Z</time></trkpt><trkpt lat="36.777565964589975" lon="-108.01214191519924"><ele>1790.4</ele><time>2026-04-11T18:04:38Z</time></trkpt><trkpt lat="36.77758574576714" lon="-108.01198419707003"><ele>1790.2</ele><time>2026-04-11T18:04:45Z</time></trkpt><trkpt lat="36.77760267267392" lon="-108.01186031017578"><ele>1790.0</ele><time>2026-04-11T18:04:46Z</time></trkpt><trkpt lat="36.77759759494727" lon="-108.01172877123372"><ele>1790.25</ele><time>2026-04-11T18:04:47Z</time></trkpt><trkpt lat="36.777581792074045" lon="-108.01159220129074"><ele>1790.5</ele><time>2026-04-11T18:04:48Z</time></trkpt><trkpt lat="36.777566863944784" lon="-108.01143185172293"><ele>1790.75</ele><time>2026-04-11T18:04:49Z</time></trkpt><trkpt lat="36.77755803982353" lon="-108.01126644530963"><ele>1791.0</ele><time>2026-04-11T18:04:50Z</time></trkpt><trkpt lat="36.77756079592942" lon="-108.01110348888498"><ele>1791.0</ele><time>2026-04-11T18:04:51Z</time></trkpt><trkpt lat="36.77756831914808" lon="-108.01093698680896"><ele>1791.0</ele><time>2026-04-11T18:04:52Z</time></trkpt><trkpt lat="36.777586514022616" lon="-108.0107646589403"><ele>1791.0</ele><time>2026-04-11T18:04:53Z</time></trkpt><trkpt lat="36.77761436269166" lon="-108.01060012071692"><ele>1791.0</ele><time>2026-04-11T18:04:54Z</time></trkpt><trkpt lat="36.77765270521779" lon="-108.01043525587926"><ele>1791.0</ele><time>2026-04-11T18:04:55Z</time></trkpt><trkpt lat="36.77768776735016" lon="-108.01026862896266"><ele>1791.0</ele><time>2026-04-11T18:04:56Z</time></trkpt><trkpt lat="36.77771355057318" lon="-108.01008746825713"><ele>1791.0</ele><time>2026-04-11T18:04:57Z</time></trkpt><trkpt lat="36.77774680455443" lon="-108.00991320282829"><ele>1791.0</ele><time>2026-04-11T18:04:58Z</time></trkpt><trkpt lat="36.77778084610193" lon="-108.00974689579672"><ele>1792.25</ele><time>2026-04-11T18:04:59Z</time></trkpt><trkpt lat="36.77784515809618" lon="-108.00959948016839"><ele>1793.5</ele><time>2026-04-11T18:05:00Z</time></trkpt><trkpt lat="36.77792872930096" lon="-108.009465044238"><ele>1794.75</ele><time>2026-04-11T18:05:01Z</time></trkpt><trkpt lat="36.77801529732207" lon="-108.00936418262305"><ele>1796.0</ele><time>2026-04-11T18:05:02Z</time></trkpt><trkpt lat="36.778109186039345" lon="-108.00927177095616"><ele>1795.9999999999998</ele><time>2026-04-11T18:05:03Z</time></trkpt><trkpt lat="36.778192688214006" lon="-108.00919871388457"><ele>1796.0</ele><time>2026-04-11T18:05:04Z</time></trkpt><trkpt lat="36.778247481760424" lon="-108.00913504682437"><ele>1796.0</ele><time>2026-04-11T18:05:05Z</time></trkpt><trkpt lat="36.77830159158873" lon="-108.00904336334277"><ele>1796.0</ele><time>2026-04-11T18:05:07Z</time></trkpt><trkpt lat="36.778228956070876" lon="-108.00908257072793"><ele>1795.9999999999998</ele><time>2026-04-11T18:05:52Z</time></trkpt><trkpt lat="36.77819719154225" lon="-108.00916171731721"><ele>1796.0</ele><time>2026-04-11T18:05:53Z</time></trkpt><trkpt lat="36.778121744058346" lon="-108.00924939388078"><ele>1796.0</ele><time>2026-04-11T18:05:54Z</time></trkpt><trkpt lat="36.77801300952469" lon="-108.00934145094516"><ele>1796.0</ele><time>2026-04-11T18:05:55Z</time></trkpt><trkpt lat="36.77789895904779" lon="-108.00947118841617"><ele>1796.0</ele><time>2026-04-11T18:05:56Z</time></trkpt><trkpt lat="36.77781017792967" lon="-108.00963527739054"><ele>1796.0</ele><time>2026-04-11T18:05:57Z</time></trkpt><trkpt lat="36.77776703535479" lon="-108.00981109032233"><ele>1796.0</ele><time>2026-04-11T18:05:58Z</time></trkpt><trkpt lat="36.777733949020465" lon="-108.00997785502362"><ele>1796.0</ele><time>2026-04-11T18:05:59Z</time></trkpt><trkpt lat="36.777702643668896" lon="-108.01017974214732"><ele>1796.0</ele><time>2026-04-11T18:06:00Z</time></trkpt><trkpt lat="36.7776880517468" lon="-108.01036438493077"><ele>1795.4999999999998</ele><time>2026-04-11T18:06:01Z</time></trkpt><trkpt lat="36.77767079111334" lon="-108.01048522964595"><ele>1795.0</ele><time>2026-04-11T18:06:02Z</time></trkpt><trkpt lat="36.777637597513674" lon="-108.01059728707276"><ele>1794.5</ele><time>2026-04-11T18:06:03Z</time></trkpt><trkpt lat="36.77760606073743" lon="-108.01071406765203"><ele>1794.0</ele><time>2026-04-11T18:06:04Z</time></trkpt><trkpt lat="36.77757997795422" lon="-108.01079910977637"><ele>1793.4999999999998</ele><time>2026-04-11T18:06:05Z</time></trkpt><trkpt lat="36.77752343371875" lon="-108.01086470307048"><ele>1793.0</ele><time>2026-04-11T18:06:06Z</time></trkpt><trkpt lat="36.77740973866968" lon="-108.01089064838739"><ele>1793.0</ele><time>2026-04-11T18:06:07Z</time></trkpt><trkpt lat="36.777298177606866" lon="-108.01085173489665"><ele>1793.0</ele><time>2026-04-11T18:06:08Z</time></trkpt><trkpt lat="36.77720721451867" lon="-108.01075870813963"><ele>1793.0</ele><time>2026-04-11T18:06:09Z</time></trkpt><trkpt lat="36.777126587578095" lon="-108.01062710537512"><ele>1793.0</ele><time>2026-04-11T18:06:10Z</time></trkpt><trkpt lat="36.77702582477941" lon="-108.01048634039006"><ele>1793.0</ele><time>2026-04-11T18:06:11Z</time></trkpt><trkpt lat="36.77692189266127" lon="-108.0103627952804"><ele>1793.0</ele><time>2026-04-11T18:06:12Z</time></trkpt><trkpt lat="36.77681061508514" lon="-108.01021374373161"><ele>1793.0</ele><time>2026-04-11T18:06:13Z</time></trkpt><trkpt lat="36.77669010733426" lon="-108.01005536096409"><ele>1795.0</ele><time>2026-04-11T18:06:14Z</time></trkpt><trkpt lat="36.77656465592298" lon="-108.0099263846578"><ele>1797.0</ele><time>2026-04-11T18:06:15Z</time></trkpt><trkpt lat="36.77642256707509" lon="-108.00981625620857"><ele>1799.0</ele><time>2026-04-11T18:06:16Z</time></trkpt><trkpt lat="36.776290137637005" lon="-108.00972385726158"><ele>1799.0</ele><time>2026-04-11T18:06:17Z</time></trkpt><trkpt lat="36.77612852322037" lon="-108.00965316304625"><ele>1799.0</ele><time>2026-04-11T18:06:18Z</time></trkpt><trkpt lat="36.775952117001516" lon="-108.00959882951193"><ele>1799.0</ele><time>2026-04-11T18:06:19Z</time></trkpt><trkpt lat="36.77576830863124" lon="-108.00951960978702"><ele>1801.6666666666665</ele><time>2026-04-11T18:06:20Z</time></trkpt><trkpt lat="36.775585424960376" lon="-108.00942315662373"><ele>1804.3333333333335</ele><time>2026-04-11T18:06:21Z</time></trkpt><trkpt lat="36.7753940615028" lon="-108.00932363264776"><ele>1807.0</ele><time>2026-04-11T18:06:22Z</time></trkpt><trkpt lat="36.77522311873208" lon="-108.00923388954214"><ele>1808.0</ele><time>2026-04-11T18:06:23Z</time></trkpt><trkpt lat="36.775080236550096" lon="-108.00915243759835"><ele>1809.0</ele><time>2026-04-11T18:06:24Z</time></trkpt><trkpt lat="36.77493688919303" lon="-108.00905464998023"><ele>1810.0</ele><time>2026-04-11T18:06:25Z</time></trkpt><trkpt lat="36.7747723372203" lon="-108.00894832681954"><ele>1810.0</ele><time>2026-04-11T18:06:26Z</time></trkpt><trkpt lat="36.77458204895428" lon="-108.00886380685405"><ele>1810.0</ele><time>2026-04-11T18:06:27Z</time></trkpt><trkpt lat="36.774409247114775" lon="-108.00883140239067"><ele>1810.0</ele><time>2026-04-11T18:06:28Z</time></trkpt><trkpt lat="36.77425404570978" lon="-108.00883834900343"><ele>1812.0</ele><time>2026-04-11T18:06:29Z</time></trkpt><trkpt lat="36.774094058938616" lon="-108.00885033085703"><ele>1814.0</ele><time>2026-04-11T18:06:30Z</time></trkpt><trkpt lat="36.77393685810451" lon="-108.00889144366903"><ele>1816.0</ele><time>2026-04-11T18:06:31Z</time></trkpt><trkpt lat="36.773772856487376" lon="-108.00894681408218"><ele>1816.0</ele><time>2026-04-11T18:06:32Z</time></trkpt><trkpt lat="36.77364657007297" lon="-108.00897141539896"><ele>1816.0</ele><time>2026-04-11T18:06:33Z</time></trkpt><trkpt lat="36.773539927192324" lon="-108.00896587397142"><ele>1816.0</ele><time>2026-04-11T18:06:34Z</time></trkpt><trkpt lat="36.77344558917918" lon="-108.00892727826516"><ele>1816.0</ele><time>2026-04-11T18:06:35Z</time></trkpt><trkpt lat="36.77337652851453" lon="-108.00884512143215"><ele>1816.0</ele><time>2026-04-11T18:06:36Z</time></trkpt><trkpt lat="36.773350907837276" lon="-108.00875232150698"><ele>1816.4</ele><time>2026-04-11T18:06:37Z</time></trkpt><trkpt lat="36.773358953073256" lon="-108.00867359432308"><ele>1816.8</ele><time>2026-04-11T18:06:38Z</time></trkpt><trkpt lat="36.77335733805335" lon="-108.00854071263225"><ele>1817.2000000000003</ele><time>2026-04-11T18:06:40Z</time></trkpt><trkpt lat="36.773335902074464" lon="-108.00839854313155"><ele>1817.6000000000001</ele><time>2026-04-11T18:06:42Z</time></trkpt><trkpt lat="36.77336458265815" lon="-108.00830839432832"><ele>1818.0</ele><time>2026-04-11T18:06:43Z</time></trkpt><trkpt lat="36.773407027568986" lon="-108.00820455477333"><ele>1818.0</ele><time>2026-04-11T18:06:44Z</time></trkpt><trkpt lat="36.773432806138146" lon="-108.00813232849606"><ele>1818.0000000000002</ele><time>2026-04-11T18:06:45Z</time></trkpt><trkpt lat="36.773513608465535" lon="-108.00802210690848"><ele>1818.0000000000002</ele><time>2026-04-11T18:06:47Z</time></trkpt><trkpt lat="36.773601163664615" lon="-108.00793044358785"><ele>1818.0</ele><time>2026-04-11T18:06:49Z</time></trkpt><trkpt lat="36.773682839200184" lon="-108.00784330800238"><ele>1818.0</ele><time>2026-04-11T18:06:51Z</time></trkpt><trkpt lat="36.77375690376374" lon="-108.00781024345798"><ele>1817.4</ele><time>2026-04-11T18:06:52Z</time></trkpt><trkpt lat="36.773828081222845" lon="-108.00777294157339"><ele>1816.8000000000002</ele><time>2026-04-11T18:06:53Z</time></trkpt><trkpt lat="36.773900975862894" lon="-108.00770415933924"><ele>1816.2</ele><time>2026-04-11T18:06:54Z</time></trkpt><trkpt lat="36.77397599548123" lon="-108.00762693578505"><ele>1815.6</ele><time>2026-04-11T18:06:55Z</time></trkpt><trkpt lat="36.7740645873774" lon="-108.00756948227793"><ele>1815.0</ele><time>2026-04-11T18:06:56Z</time></trkpt><trkpt lat="36.77412539839207" lon="-108.0074856483272"><ele>1815.0</ele><time>2026-04-11T18:06:57Z</time></trkpt><trkpt lat="36.77422837564756" lon="-108.00740518908695"><ele>1815.0</ele><time>2026-04-11T18:06:59Z</time></trkpt><trkpt lat="36.77428783183207" lon="-108.00736966030992"><ele>1815.0</ele><time>2026-04-11T18:07:00Z</time></trkpt><trkpt lat="36.7743492651769" lon="-108.00733640979678"><ele>1815.0</ele><time>2026-04-11T18:07:01Z</time></trkpt><trkpt lat="36.77443351333856" lon="-108.0073612151597"><ele>1815.0</ele><time>2026-04-11T18:07:02Z</time></trkpt><trkpt lat="36.77452746587394" lon="-108.00737733399833"><ele>1815.0</ele><time>2026-04-11T18:07:03Z</time></trkpt><trkpt lat="36.77460862411794" lon="-108.00738425080247"><ele>1813.6</ele><time>2026-04-11T18:07:04Z</time></trkpt><trkpt lat="36.77471571908574" lon="-108.00730713712564"><ele>1812.2</ele><time>2026-04-11T18:07:06Z</time></trkpt><trkpt lat="36.77477366177795" lon="-108.00723794727078"><ele>1810.8000000000002</ele><time>2026-04-11T18:07:07Z</time></trkpt><trkpt lat="36.774821587952516" lon="-108.0071387435936"><ele>1809.4</ele><time>2026-04-11T18:07:08Z</time></trkpt><trkpt lat="36.77489725714281" lon="-108.00708955749239"><ele>1808.0</ele><time>2026-04-11T18:07:10Z</time></trkpt><trkpt lat="36.774968068698335" lon="-108.00705824517344"><ele>1808.0</ele><time>2026-04-11T18:07:11Z</time></trkpt><trkpt lat="36.77506013433836" lon="-108.00704121965535"><ele>1808.0000000000002</ele><time>2026-04-11T18:07:12Z</time></trkpt><trkpt lat="36.77515446548541" lon="-108.00703307201746"><ele>1808.0000000000002</ele><time>2026-04-11T18:07:14Z</time></trkpt><trkpt lat="36.77521643739165" lon="-108.00699419239957"><ele>1808.0</ele><time>2026-04-11T18:07:17Z</time></trkpt><trkpt lat="36.775385130260624" lon="-108.0069119359189"><ele>1808.0</ele><time>2026-04-11T18:07:18Z</time></trkpt><trkpt lat="36.77544422023126" lon="-108.00684574170562"><ele>1807.9999999999998</ele><time>2026-04-11T18:07:20Z</time></trkpt><trkpt lat="36.775437773839386" lon="-108.00676414136625"><ele>1808.0</ele><time>2026-04-11T18:07:24Z</time></trkpt><trkpt lat="36.77537503907126" lon="-108.00672789861308"><ele>1808.0</ele><time>2026-04-11T18:07:26Z</time></trkpt><trkpt lat="36.775312020406645" lon="-108.00673938366712"><ele>1808.0</ele><time>2026-04-11T18:07:30Z</time></trkpt><trkpt lat="36.77520893691189" lon="-108.00669502009596"><ele>1807.9999999999998</ele><time>2026-04-11T18:07:33Z</time></trkpt><trkpt lat="36.77512276401534" lon="-108.00666135454334"><ele>1808.0</ele><time>2026-04-11T18:07:35Z</time></trkpt><trkpt lat="36.77505847271706" lon="-108.00658729470418"><ele>1808.9999999999998</ele><time>2026-04-11T18:07:37Z</time></trkpt><trkpt lat="36.77499328236023" lon="-108.00652742278595"><ele>1810.0</ele><time>2026-04-11T18:07:38Z</time></trkpt><trkpt lat="36.774906928537355" lon="-108.00653740806648"><ele>1811.0</ele><time>2026-04-11T18:07:42Z</time></trkpt><trkpt lat="36.77484946806286" lon="-108.00649179322318"><ele>1812.0</ele><time>2026-04-11T18:07:44Z</time></trkpt><trkpt lat="36.77479376870861" lon="-108.00643748195473"><ele>1812.9999999999998</ele><time>2026-04-11T18:07:46Z</time></trkpt><trkpt lat="36.7748404118148" lon="-108.00633438249326"><ele>1814.0</ele><time>2026-04-11T18:07:48Z</time></trkpt><trkpt lat="36.77477987927217" lon="-108.00636511625368"><ele>1813.9999999999998</ele><time>2026-04-11T18:07:50Z</time></trkpt><trkpt lat="36.77479747607628" lon="-108.00627159694609"><ele>1814.0</ele><time>2026-04-11T18:07:52Z</time></trkpt><trkpt lat="36.77484897897434" lon="-108.00613902998873"><ele>1814.0</ele><time>2026-04-11T18:07:54Z</time></trkpt><trkpt lat="36.77485914771923" lon="-108.00604296479453"><ele>1814.0</ele><time>2026-04-11T18:07:55Z</time></trkpt><trkpt lat="36.774875776331506" lon="-108.00594891341574"><ele>1813.9999999999998</ele><time>2026-04-11T18:07:56Z</time></trkpt><trkpt lat="36.774878656364464" lon="-108.00583840796885"><ele>1814.0</ele><time>2026-04-11T18:07:57Z</time></trkpt><trkpt lat="36.77490128024083" lon="-108.0057381326938"><ele>1815.1666666666665</ele><time>2026-04-11T18:07:58Z</time></trkpt><trkpt lat="36.7749367150995" lon="-108.00565728368375"><ele>1816.3333333333333</ele><time>2026-04-11T18:07:59Z</time></trkpt><trkpt lat="36.77497438675495" lon="-108.00558585419778"><ele>1817.5</ele><time>2026-04-11T18:08:00Z</time></trkpt><trkpt lat="36.775035869586844" lon="-108.00547620070444"><ele>1818.6666666666665</ele><time>2026-04-11T18:08:02Z</time></trkpt><trkpt lat="36.775092246258424" lon="-108.00532832301094"><ele>1819.8333333333333</ele><time>2026-04-11T18:08:04Z</time></trkpt><trkpt lat="36.77512737332623" lon="-108.0052565263238"><ele>1821.0</ele><time>2026-04-11T18:08:05Z</time></trkpt><trkpt lat="36.77516751144467" lon="-108.00517300995818"><ele>1820.6666666666665</ele><time>2026-04-11T18:08:06Z</time></trkpt><trkpt lat="36.7752014432915" lon="-108.00510376947183"><ele>1820.3333333333333</ele><time>2026-04-11T18:08:07Z</time></trkpt><trkpt lat="36.77523153089524" lon="-108.00502900768805"><ele>1820.0</ele><time>2026-04-11T18:08:08Z</time></trkpt><trkpt lat="36.775449243413654" lon="-108.00456153861508"><ele>1820.8</ele><time>2026-04-11T18:08:09Z</time></trkpt><trkpt lat="36.77544444021772" lon="-108.00446005636827"><ele>1821.6</ele><time>2026-04-11T18:08:10Z</time></trkpt><trkpt lat="36.77552323177366" lon="-108.00432073264739"><ele>1822.4</ele><time>2026-04-11T18:08:12Z</time></trkpt><trkpt lat="36.7755451776981" lon="-108.00420448926647"><ele>1823.2</ele><time>2026-04-11T18:08:14Z</time></trkpt><trkpt lat="36.77554515590917" lon="-108.0041048128738"><ele>1824.0</ele><time>2026-04-11T18:08:15Z</time></trkpt><trkpt lat="36.775563315608146" lon="-108.00401272903999"><ele>1824.8000000000002</ele><time>2026-04-11T18:08:16Z</time></trkpt><trkpt lat="36.77558957436746" lon="-108.0039386664699"><ele>1825.6000000000001</ele><time>2026-04-11T18:08:17Z</time></trkpt><trkpt lat="36.775658567840814" lon="-108.00380522117408"><ele>1826.4</ele><time>2026-04-11T18:08:19Z</time></trkpt><trkpt lat="36.775681804866984" lon="-108.0036311180356"><ele>1827.2</ele><time>2026-04-11T18:08:21Z</time></trkpt><trkpt lat="36.77570624854011" lon="-108.00354847887894"><ele>1828.0</ele><time>2026-04-11T18:08:22Z</time></trkpt><trkpt lat="36.77575136841584" lon="-108.00341319806596"><ele>1829.4</ele><time>2026-04-11T18:08:24Z</time></trkpt><trkpt lat="36.775785209467884" lon="-108.00332387983197"><ele>1830.8000000000002</ele><time>2026-04-11T18:08:25Z</time></trkpt><trkpt lat="36.77582312962504" lon="-108.00324169610349"><ele>1832.2</ele><time>2026-04-11T18:08:26Z</time></trkpt><trkpt lat="36.7758920813256" lon="-108.00314110047778"><ele>1833.6</ele><time>2026-04-11T18:08:27Z</time></trkpt><trkpt lat="36.77594837789897" lon="-108.00304552269695"><ele>1835.0</ele><time>2026-04-11T18:08:28Z</time></trkpt><trkpt lat="36.7760051422896" lon="-108.00292571595101"><ele>1835.0</ele><time>2026-04-11T18:08:30Z</time></trkpt><trkpt lat="36.77608288487494" lon="-108.00283837568814"><ele>1835.0</ele><time>2026-04-11T18:08:31Z</time></trkpt><trkpt lat="36.776138297459994" lon="-108.00276735904613"><ele>1835.0</ele><time>2026-04-11T18:08:32Z</time></trkpt><trkpt lat="36.776175979663435" lon="-108.00264327226108"><ele>1835.0</ele><time>2026-04-11T18:08:34Z</time></trkpt><trkpt lat="36.77617116534951" lon="-108.00256110404518"><ele>1835.0</ele><time>2026-04-11T18:08:35Z</time></trkpt><trkpt lat="36.77625880691894" lon="-108.00246813491505"><ele>1836.1666666666665</ele><time>2026-04-11T18:08:37Z</time></trkpt><trkpt lat="36.77630582444076" lon="-108.00240795610428"><ele>1837.3333333333333</ele><time>2026-04-11T18:08:38Z</time></trkpt><trkpt lat="36.776309346577825" lon="-108.0022736887062"><ele>1838.5</ele><time>2026-04-11T18:08:40Z</time></trkpt><trkpt lat="36.776316440093524" lon="-108.00218111081715"><ele>1839.6666666666665</ele><time>2026-04-11T18:08:41Z</time></trkpt><trkpt lat="36.77635164879263" lon="-108.00208766822207"><ele>1840.8333333333333</ele><time>2026-04-11T18:08:42Z</time></trkpt><trkpt lat="36.77638805534571" lon="-108.00201083261953"><ele>1842.0</ele><time>2026-04-11T18:08:43Z</time></trkpt><trkpt lat="36.77644754792294" lon="-108.00194358028257"><ele>1842.0</ele><time>2026-04-11T18:08:44Z</time></trkpt><trkpt lat="36.776516335793985" lon="-108.00188823587554"><ele>1842.0</ele><time>2026-04-11T18:08:45Z</time></trkpt><trkpt lat="36.77658308693599" lon="-108.00184628800453"><ele>1842.0</ele><time>2026-04-11T18:08:46Z</time></trkpt><trkpt lat="36.77664782220543" lon="-108.00178101369735"><ele>1842.0</ele><time>2026-04-11T18:08:48Z</time></trkpt><trkpt lat="36.776649267947256" lon="-108.00165643843434"><ele>1842.0</ele><time>2026-04-11T18:08:50Z</time></trkpt><trkpt lat="36.776630234370224" lon="-108.00157122298144"><ele>1842.0</ele><time>2026-04-11T18:08:54Z</time></trkpt><trkpt lat="36.7765920653644" lon="-108.00150699669173"><ele>1842.1666666666667</ele><time>2026-04-11T18:08:57Z</time></trkpt><trkpt lat="36.7766705276747" lon="-108.00151776452958"><ele>1842.3333333333335</ele><time>2026-04-11T18:09:00Z</time></trkpt><trkpt lat="36.776738275412825" lon="-108.0015320438134"><ele>1842.5</ele><time>2026-04-11T18:09:23Z</time></trkpt><trkpt lat="36.77679723654549" lon="-108.001455084907"><ele>1842.6666666666667</ele><time>2026-04-11T18:09:25Z</time></trkpt><trkpt lat="36.776848279960255" lon="-108.00139308415837"><ele>1842.8333333333335</ele><time>2026-04-11T18:09:26Z</time></trkpt><trkpt lat="36.776924637051415" lon="-108.00133839986584"><ele>1843.0</ele><time>2026-04-11T18:09:27Z</time></trkpt><trkpt lat="36.77701488743264" lon="-108.00128706738569"><ele>1841.8333333333335</ele><time>2026-04-11T18:09:28Z</time></trkpt><trkpt lat="36.77710641709739" lon="-108.00122512006372"><ele>1840.6666666666667</ele><time>2026-04-11T18:09:29Z</time></trkpt><trkpt lat="36.77718124893483" lon="-108.00117380500585"><ele>1839.5</ele><time>2026-04-11T18:09:30Z</time></trkpt><trkpt lat="36.777255117876926" lon="-108.00114677381659"><ele>1838.3333333333335</ele><time>2026-04-11T18:09:31Z</time></trkpt><trkpt lat="36.77734089904297" lon="-108.00112428387571"><ele>1837.1666666666667</ele><time>2026-04-11T18:09:32Z</time></trkpt><trkpt lat="36.777420710519635" lon="-108.00109451555909"><ele>1836.0</ele><time>2026-04-11T18:09:33Z</time></trkpt><trkpt lat="36.77749859128521" lon="-108.00108525416823"><ele>1836.0</ele><time>2026-04-11T18:09:34Z</time></trkpt><trkpt lat="36.77756892555089" lon="-108.00106410938048"><ele>1836.0</ele><time>2026-04-11T18:09:35Z</time></trkpt><trkpt lat="36.77764984116154" lon="-108.00099553787231"><ele>1836.0</ele><time>2026-04-11T18:09:36Z</time></trkpt><trkpt lat="36.77773092662477" lon="-108.00093556346884"><ele>1836.0</ele><time>2026-04-11T18:09:37Z</time></trkpt><trkpt lat="36.777832964840876" lon="-108.00090424320008"><ele>1836.0</ele><time>2026-04-11T18:09:38Z</time></trkpt><trkpt lat="36.777891009498184" lon="-108.00085506795489"><ele>1836.0</ele><time>2026-04-11T18:09:39Z</time></trkpt><trkpt lat="36.77793542835819" lon="-108.0007861987969"><ele>1834.8333333333333</ele><time>2026-04-11T18:09:40Z</time></trkpt><trkpt lat="36.778019331924106" lon="-108.00077885751232"><ele>1833.6666666666665</ele><time>2026-04-11T18:09:41Z</time></trkpt><trkpt lat="36.77809981199705" lon="-108.00077977356679"><ele>1832.5</ele><time>2026-04-11T18:09:42Z</time></trkpt><trkpt lat="36.778171703768805" lon="-108.00073351119828"><ele>1831.3333333333333</ele><time>2026-04-11T18:09:43Z</time></trkpt><trkpt lat="36.778219731928786" lon="-108.0006423433575"><ele>1830.1666666666665</ele><time>2026-04-11T18:09:44Z</time></trkpt><trkpt lat="36.778254640266624" lon="-108.00057118514783"><ele>1829.0</ele><time>2026-04-11T18:09:45Z</time></trkpt><trkpt lat="36.778368924776345" lon="-108.00053725772722"><ele>1829.0</ele><time>2026-04-11T18:09:47Z</time></trkpt><trkpt lat="36.77845933543187" lon="-108.00047764691811"><ele>1829.0</ele><time>2026-04-11T18:09:48Z</time></trkpt><trkpt lat="36.77854206178028" lon="-108.00041282185076"><ele>1829.0</ele><time>2026-04-11T18:09:49Z</time></trkpt><trkpt lat="36.77862537040367" lon="-108.00034413913575"><ele>1829.0</ele><time>2026-04-11T18:09:50Z</time></trkpt><trkpt lat="36.77869858761472" lon="-108.00031033921559"><ele>1829.0</ele><time>2026-04-11T18:09:51Z</time></trkpt><trkpt lat="36.77878674207906" lon="-108.00028515261926"><ele>1829.0</ele><time>2026-04-11T18:09:54Z</time></trkpt><trkpt lat="36.77886295171253" lon="-108.00029272964413"><ele>1829.0</ele><time>2026-04-11T18:10:11Z</time></trkpt><trkpt lat="36.778944584472704" lon="-108.00019812440375"><ele>1829.0</ele><time>2026-04-11T18:10:14Z</time></trkpt><trkpt lat="36.779008254110956" lon="-108.0001574692889"><ele>1829.0</ele><time>2026-04-11T18:10:16Z</time></trkpt><trkpt lat="36.77907357664047" lon="-108.00010506280093"><ele>1829.0</ele><time>2026-04-11T18:10:18Z</time></trkpt><trkpt lat="36.779245881361376" lon="-108.00007380986816"><ele>1829.0</ele><time>2026-04-11T18:10:20Z</time></trkpt><trkpt lat="36.779305861454674" lon="-108.00002037178618"><ele>1829.0</ele><time>2026-04-11T18:10:21Z</time></trkpt><trkpt lat="36.77942981988729" lon="-107.99998200635736"><ele>1829.0</ele><time>2026-04-11T18:10:22Z</time></trkpt><trkpt lat="36.77952148766806" lon="-107.99995284812219"><ele>1829.0</ele><time>2026-04-11T18:10:23Z</time></trkpt><trkpt lat="36.77960326963331" lon="-107.99991042594004"><ele>1829.0</ele><time>2026-04-11T18:10:24Z</time></trkpt><trkpt lat="36.77966576126024" lon="-107.99988140946415"><ele>1829.1666666666665</ele><time>2026-04-11T18:10:25Z</time></trkpt><trkpt lat="36.779730028337475" lon="-107.99985211719701"><ele>1829.3333333333333</ele><time>2026-04-11T18:10:26Z</time></trkpt><trkpt lat="36.77979413527122" lon="-107.99982675838915"><ele>1829.5</ele><time>2026-04-11T18:10:27Z</time></trkpt><trkpt lat="36.779858080427466" lon="-107.99981221055022"><ele>1829.6666666666665</ele><time>2026-04-11T18:10:28Z</time></trkpt><trkpt lat="36.77998204443849" lon="-107.99979184174042"><ele>1829.8333333333333</ele><time>2026-04-11T18:10:30Z</time></trkpt><trkpt lat="36.78005102706261" lon="-107.99979303704329"><ele>1830.0</ele><time>2026-04-11T18:10:31Z</time></trkpt><trkpt lat="36.78011322293004" lon="-107.9998053175829"><ele>1830.0</ele><time>2026-04-11T18:10:32Z</time></trkpt><trkpt lat="36.78016664041086" lon="-107.9999048167751"><ele>1830.0</ele><time>2026-04-11T18:10:33Z</time></trkpt><trkpt lat="36.78032645451915" lon="-108.00013505889999"><ele>1830.0</ele><time>2026-04-11T18:10:34Z</time></trkpt><trkpt lat="36.78041565100388" lon="-108.00016663810491"><ele>1830.0</ele><time>2026-04-11T18:10:35Z</time></trkpt><trkpt lat="36.78054295954653" lon="-108.0001528176622"><ele>1829.0</ele><time>2026-04-11T18:10:37Z</time></trkpt><trkpt lat="36.78060881505718" lon="-108.00012615641192"><ele>1828.0</ele><time>2026-04-11T18:10:38Z</time></trkpt><trkpt lat="36.780672042151735" lon="-108.00018657451132"><ele>1827.0</ele><time>2026-04-11T18:10:39Z</time></trkpt><trkpt lat="36.7807344052269" lon="-108.00023564343664"><ele>1826.0</ele><time>2026-04-11T18:10:40Z</time></trkpt><trkpt lat="36.780806659439484" lon="-108.00014394822593"><ele>1825.0</ele><time>2026-04-11T18:10:53Z</time></trkpt><trkpt lat="36.78087568061213" lon="-108.00003973821899"><ele>1824.0</ele><time>2026-04-11T18:10:56Z</time></trkpt><trkpt lat="36.780927496662365" lon="-107.99993450186449"><ele>1824.0</ele><time>2026-04-11T18:10:58Z</time></trkpt><trkpt lat="36.780973339149604" lon="-107.99987386134268"><ele>1824.0</ele><time>2026-04-11T18:10:59Z</time></trkpt><trkpt lat="36.781025250180676" lon="-107.99981527282632"><ele>1824.0</ele><time>2026-04-11T18:11:00Z</time></trkpt><trkpt lat="36.781049237053494" lon="-107.99972704914384"><ele>1824.0</ele><time>2026-04-11T18:11:02Z</time></trkpt><trkpt lat="36.78106068773983" lon="-107.9996453838039"><ele>1824.0</ele><time>2026-04-11T18:11:04Z</time></trkpt><trkpt lat="36.78111145246353" lon="-107.99954440152075"><ele>1824.0</ele><time>2026-04-11T18:11:08Z</time></trkpt><trkpt lat="36.78119326683883" lon="-107.9992969985305"><ele>1823.5</ele><time>2026-04-11T18:11:10Z</time></trkpt><trkpt lat="36.78127113974357" lon="-107.99918213215723"><ele>1823.0</ele><time>2026-04-11T18:11:12Z</time></trkpt><trkpt lat="36.781346928296266" lon="-107.99905131071111"><ele>1822.5</ele><time>2026-04-11T18:11:14Z</time></trkpt><trkpt lat="36.78138509189125" lon="-107.99892589615425"><ele>1822.0</ele><time>2026-04-11T18:11:16Z</time></trkpt><trkpt lat="36.78139386562764" lon="-107.99878063046857"><ele>1822.0</ele><time>2026-04-11T18:11:18Z</time></trkpt><trkpt lat="36.7814233527851" lon="-107.99864785136445"><ele>1821.9999999999998</ele><time>2026-04-11T18:11:20Z</time></trkpt><trkpt lat="36.781471425201126" lon="-107.99850897041625"><ele>1821.9999999999998</ele><time>2026-04-11T18:11:22Z</time></trkpt><trkpt lat="36.78151938574823" lon="-107.99835607889649"><ele>1822.0</ele><time>2026-04-11T18:11:24Z</time></trkpt><trkpt lat="36.78154425710368" lon="-107.99828265073482"><ele>1822.0</ele><time>2026-04-11T18:11:25Z</time></trkpt><trkpt lat="36.781579336042526" lon="-107.99820153017623"><ele>1821.75</ele><time>2026-04-11T18:11:26Z</time></trkpt><trkpt lat="36.78160439885847" lon="-107.99812187857799"><ele>1821.5</ele><time>2026-04-11T18:11:27Z</time></trkpt><trkpt lat="36.781649142447435" lon="-107.9980244638845"><ele>1821.25</ele><time>2026-04-11T18:11:28Z</time></trkpt><trkpt lat="36.7818073001403" lon="-107.99815099101049"><ele>1821.0</ele><time>2026-04-11T18:11:31Z</time></trkpt><trkpt lat="36.781887885709324" lon="-107.99825516291978"><ele>1821.0</ele><time>2026-04-11T18:11:33Z</time></trkpt><trkpt lat="36.7819968811229" lon="-107.99824004608304"><ele>1821.0</ele><time>2026-04-11T18:11:37Z</time></trkpt><trkpt lat="36.782066846154194" lon="-107.99817216539894"><ele>1821.0</ele><time>2026-04-11T18:11:38Z</time></trkpt><trkpt lat="36.78218559682383" lon="-107.99819235222844"><ele>1821.0</ele><time>2026-04-11T18:11:40Z</time></trkpt><trkpt lat="36.7822605882545" lon="-107.99820530170553"><ele>1821.0</ele><time>2026-04-11T18:11:41Z</time></trkpt><trkpt lat="36.78232954285709" lon="-107.9982179481032"><ele>1821.0</ele><time>2026-04-11T18:11:42Z</time></trkpt><trkpt lat="36.78244300085798" lon="-107.99825396035175"><ele>1821.0</ele><time>2026-04-11T18:11:44Z</time></trkpt><trkpt lat="36.78252307971924" lon="-107.99835562231816"><ele>1821.0</ele><time>2026-04-11T18:11:46Z</time></trkpt><trkpt lat="36.78261650283324" lon="-107.99846412460128"><ele>1821.0</ele><time>2026-04-11T18:11:48Z</time></trkpt><trkpt lat="36.782704891137264" lon="-107.99854528385828"><ele>1819.1666666666667</ele><time>2026-04-11T18:11:50Z</time></trkpt><trkpt lat="36.78276443378982" lon="-107.99857224454311"><ele>1817.3333333333335</ele><time>2026-04-11T18:11:51Z</time></trkpt><trkpt lat="36.78286221207012" lon="-107.99861703537559"><ele>1815.5</ele><time>2026-04-11T18:11:53Z</time></trkpt><trkpt lat="36.782973739581955" lon="-107.99866910672357"><ele>1813.6666666666667</ele><time>2026-04-11T18:11:55Z</time></trkpt><trkpt lat="36.78304039932398" lon="-107.99869152497266"><ele>1811.8333333333335</ele><time>2026-04-11T18:11:56Z</time></trkpt><trkpt lat="36.783107211857676" lon="-107.9987111561161"><ele>1810.0</ele><time>2026-04-11T18:11:57Z</time></trkpt><trkpt lat="36.78323482014598" lon="-107.99876902996515"><ele>1810.0</ele><time>2026-04-11T18:11:58Z</time></trkpt><trkpt lat="36.78333249868346" lon="-107.99879408966105"><ele>1810.0</ele><time>2026-04-11T18:11:59Z</time></trkpt><trkpt lat="36.78343483651275" lon="-107.99882889179877"><ele>1810.0</ele><time>2026-04-11T18:12:00Z</time></trkpt><trkpt lat="36.78349813321812" lon="-107.99890126500286"><ele>1810.0</ele><time>2026-04-11T18:12:01Z</time></trkpt><trkpt lat="36.78357399851862" lon="-107.99895003975513"><ele>1810.0</ele><time>2026-04-11T18:12:02Z</time></trkpt><trkpt lat="36.78366230353842" lon="-107.998964259288"><ele>1809.2</ele><time>2026-04-11T18:12:03Z</time></trkpt><trkpt lat="36.78374671254608" lon="-107.99893588194834"><ele>1808.4</ele><time>2026-04-11T18:12:03.999Z</time></trkpt><trkpt lat="36.78386464145133" lon="-107.998928886147"><ele>1807.6</ele><time>2026-04-11T18:12:04.999Z</time></trkpt><trkpt lat="36.78397074230007" lon="-107.9989137596139"><ele>1806.8</ele><time>2026-04-11T18:12:05.999Z</time></trkpt><trkpt lat="36.784072299828466" lon="-107.99890349291256"><ele>1806.0</ele><time>2026-04-11T18:12:06.999Z</time></trkpt><trkpt lat="36.78417108011295" lon="-107.99889812952406"><ele>1806.0</ele><time>2026-04-11T18:12:07.999Z</time></trkpt><trkpt lat="36.7842374066735" lon="-107.99890298140605"><ele>1806.0</ele><time>2026-04-11T18:12:08.999Z</time></trkpt><trkpt lat="36.78435068337285" lon="-107.9989072638039"><ele>1806.0</ele><time>2026-04-11T18:12:10.999Z</time></trkpt><trkpt lat="36.78442251821012" lon="-107.9989246123985"><ele>1806.0</ele><time>2026-04-11T18:12:11.999Z</time></trkpt><trkpt lat="36.78446558238121" lon="-107.9989819810983"><ele>1806.0</ele><time>2026-04-11T18:12:12.999Z</time></trkpt><trkpt lat="36.78449399400094" lon="-107.99905350517571"><ele>1806.0</ele><time>2026-04-11T18:12:13.999Z</time></trkpt><trkpt lat="36.78447380678599" lon="-107.99913208669277"><ele>1806.0</ele><time>2026-04-11T18:12:14.999Z</time></trkpt><trkpt lat="36.78446040820567" lon="-107.99921594446768"><ele>1804.8</ele><time>2026-04-11T18:12:15.999Z</time></trkpt><trkpt lat="36.78448199969751" lon="-107.99929870012723"><ele>1803.6</ele><time>2026-04-11T18:12:16.999Z</time></trkpt><trkpt lat="36.78455453993908" lon="-107.99935794396337"><ele>1802.4</ele><time>2026-04-11T18:12:18.999Z</time></trkpt><trkpt lat="36.78462968207019" lon="-107.99948418683417"><ele>1801.2</ele><time>2026-04-11T18:12:21Z</time></trkpt><trkpt lat="36.784703414249215" lon="-107.99954242514615"><ele>1800.0</ele><time>2026-04-11T18:12:22Z</time></trkpt><trkpt lat="36.78478666377315" lon="-107.9996103838693"><ele>1800.0</ele><time>2026-04-11T18:12:23Z</time></trkpt><trkpt lat="36.78483720417542" lon="-107.99970341262538"><ele>1800.0</ele><time>2026-04-11T18:12:25Z</time></trkpt><trkpt lat="36.78495714950182" lon="-107.99978292566038"><ele>1800.0</ele><time>2026-04-11T18:12:27Z</time></trkpt><trkpt lat="36.78501993945534" lon="-107.99986691102714"><ele>1800.0</ele><time>2026-04-11T18:12:28Z</time></trkpt><trkpt lat="36.7851147989394" lon="-107.9999924667668"><ele>1800.0</ele><time>2026-04-11T18:12:30Z</time></trkpt><trkpt lat="36.785145656959585" lon="-108.00010506197292"><ele>1800.0</ele><time>2026-04-11T18:12:31Z</time></trkpt><trkpt lat="36.7851727941385" lon="-108.00018420479861"><ele>1800.0</ele><time>2026-04-11T18:12:32Z</time></trkpt><trkpt lat="36.785158370330436" lon="-108.00028163523773"><ele>1800.0</ele><time>2026-04-11T18:12:45Z</time></trkpt><trkpt lat="36.78511532513627" lon="-108.00034256791204"><ele>1800.0</ele><time>2026-04-11T18:12:46Z</time></trkpt><trkpt lat="36.78505159129649" lon="-108.00041558583204"><ele>1800.0</ele><time>2026-04-11T18:12:47Z</time></trkpt><trkpt lat="36.78497126560779" lon="-108.00048925042323"><ele>1800.0</ele><time>2026-04-11T18:12:48Z</time></trkpt><trkpt lat="36.78490377596474" lon="-108.0005409260022"><ele>1800.0</ele><time>2026-04-11T18:12:49Z</time></trkpt><trkpt lat="36.78496938573656" lon="-108.00062506536729"><ele>1800.0</ele><time>2026-04-11T18:12:52Z</time></trkpt><trkpt lat="36.784901691913674" lon="-108.00068721770036"><ele>1800.0</ele><time>2026-04-11T18:12:54Z</time></trkpt><trkpt lat="36.784870951372596" lon="-108.00077726951136"><ele>1800.0</ele><time>2026-04-11T18:12:55Z</time></trkpt><trkpt lat="36.78485969625877" lon="-108.00089680612578"><ele>1800.0</ele><time>2026-04-11T18:12:56Z</time></trkpt><trkpt lat="36.784869459005265" lon="-108.00100464308548"><ele>1800.25</ele><time>2026-04-11T18:12:57Z</time></trkpt><trkpt lat="36.78490802876427" lon="-108.00110181447944"><ele>1800.5</ele><time>2026-04-11T18:12:59Z</time></trkpt><trkpt lat="36.78485304463469" lon="-108.00116996042647"><ele>1800.75</ele><time>2026-04-11T18:13:03Z</time></trkpt><trkpt lat="36.784876615297996" lon="-108.0014037565346"><ele>1801.0</ele><time>2026-04-11T18:13:05Z</time></trkpt><trkpt lat="36.7849947968414" lon="-108.00151614749338"><ele>1801.0000000000002</ele><time>2026-04-11T18:13:07Z</time></trkpt><trkpt lat="36.785043388181876" lon="-108.00157384171419"><ele>1801.0</ele><time>2026-04-11T18:13:08Z</time></trkpt><trkpt lat="36.78506847775851" lon="-108.0016924953376"><ele>1801.0</ele><time>2026-04-11T18:13:09Z</time></trkpt><trkpt lat="36.78509998317676" lon="-108.00180732744901"><ele>1801.0</ele><time>2026-04-11T18:13:10Z</time></trkpt><trkpt lat="36.78511515367777" lon="-108.00193590530414"><ele>1801.0000000000002</ele><time>2026-04-11T18:13:11Z</time></trkpt><trkpt lat="36.785088293773114" lon="-108.00202941213051"><ele>1801.0</ele><time>2026-04-11T18:13:12Z</time></trkpt><trkpt lat="36.7850230653771" lon="-108.00211133796782"><ele>1801.1666666666667</ele><time>2026-04-11T18:13:13Z</time></trkpt><trkpt lat="36.78501027645324" lon="-108.0022101800319"><ele>1801.3333333333335</ele><time>2026-04-11T18:13:14Z</time></trkpt><trkpt lat="36.78501403711606" lon="-108.00231074120187"><ele>1801.5</ele><time>2026-04-11T18:13:15Z</time></trkpt><trkpt lat="36.78503219843213" lon="-108.00240812394163"><ele>1801.6666666666665</ele><time>2026-04-11T18:13:16Z</time></trkpt><trkpt lat="36.78503542658711" lon="-108.00251723097068"><ele>1801.8333333333333</ele><time>2026-04-11T18:13:17Z</time></trkpt><trkpt lat="36.784995090831416" lon="-108.00263871153395"><ele>1802.0</ele><time>2026-04-11T18:13:18Z</time></trkpt><trkpt lat="36.784923817870265" lon="-108.00273254598196"><ele>1801.3999999999999</ele><time>2026-04-11T18:13:19Z</time></trkpt><trkpt lat="36.78496763400874" lon="-108.0027925748527"><ele>1800.7999999999997</ele><time>2026-04-11T18:13:21Z</time></trkpt><trkpt lat="36.78501284256829" lon="-108.00286025307531"><ele>1800.2</ele><time>2026-04-11T18:13:22Z</time></trkpt><trkpt lat="36.78504137006787" lon="-108.00296120056846"><ele>1799.6</ele><time>2026-04-11T18:13:23Z</time></trkpt><trkpt lat="36.785098336625566" lon="-108.00306946036893"><ele>1799.0</ele><time>2026-04-11T18:13:25Z</time></trkpt><trkpt lat="36.78539946405797" lon="-108.0030311665375"><ele>1799.0</ele><time>2026-04-11T18:13:27Z</time></trkpt><trkpt lat="36.78548873990422" lon="-108.00312108928662"><ele>1799.0</ele><time>2026-04-11T18:13:28Z</time></trkpt><trkpt lat="36.785572598759856" lon="-108.0032099497892"><ele>1799.0</ele><time>2026-04-11T18:13:29Z</time></trkpt><trkpt lat="36.78564518050539" lon="-108.00324907269224"><ele>1799.0</ele><time>2026-04-11T18:13:30Z</time></trkpt><trkpt lat="36.78572318239879" lon="-108.00322775562078"><ele>1799.0</ele><time>2026-04-11T18:13:31Z</time></trkpt><trkpt lat="36.7858020026029" lon="-108.00324202898375"><ele>1798.9999999999998</ele><time>2026-04-11T18:13:32Z</time></trkpt><trkpt lat="36.785882600042726" lon="-108.00329656183011"><ele>1799.0</ele><time>2026-04-11T18:13:33Z</time></trkpt><trkpt lat="36.78596037660161" lon="-108.00328959197081"><ele>1799.0</ele><time>2026-04-11T18:13:34Z</time></trkpt><trkpt lat="36.78604387599392" lon="-108.00329652478486"><ele>1799.0</ele><time>2026-04-11T18:13:35Z</time></trkpt><trkpt lat="36.786105700963" lon="-108.0033585735633"><ele>1798.9999999999998</ele><time>2026-04-11T18:13:36Z</time></trkpt><trkpt lat="36.7861720033514" lon="-108.00341151379816"><ele>1799.0</ele><time>2026-04-11T18:13:37Z</time></trkpt><trkpt lat="36.786272843734366" lon="-108.00343637361571"><ele>1797.2</ele><time>2026-04-11T18:13:39Z</time></trkpt><trkpt lat="36.78637210860612" lon="-108.00344894177672"><ele>1795.4</ele><time>2026-04-11T18:13:40Z</time></trkpt><trkpt lat="36.786470637727476" lon="-108.00352452322667"><ele>1793.6</ele><time>2026-04-11T18:13:41Z</time></trkpt><trkpt lat="36.78654304302644" lon="-108.00359019280558"><ele>1791.8</ele><time>2026-04-11T18:13:42Z</time></trkpt><trkpt lat="36.78663739707796" lon="-108.00357560673213"><ele>1790.0</ele><time>2026-04-11T18:13:44Z</time></trkpt><trkpt lat="36.78672737312131" lon="-108.00349455342459"><ele>1790.0</ele><time>2026-04-11T18:13:46Z</time></trkpt><trkpt lat="36.78678827946469" lon="-108.00345349201895"><ele>1790.0</ele><time>2026-04-11T18:13:47Z</time></trkpt><trkpt lat="36.786915561958956" lon="-108.00354379509642"><ele>1790.0</ele><time>2026-04-11T18:13:49Z</time></trkpt><trkpt lat="36.786997492611135" lon="-108.0035864861127"><ele>1790.0</ele><time>2026-04-11T18:13:50Z</time></trkpt><trkpt lat="36.78707268711619" lon="-108.00364054338641"><ele>1790.0</ele><time>2026-04-11T18:13:51Z</time></trkpt><trkpt lat="36.7871451527586" lon="-108.00363308271363"><ele>1788.8</ele><time>2026-04-11T18:13:53Z</time></trkpt><trkpt lat="36.787341362051116" lon="-108.00368662331005"><ele>1787.6</ele><time>2026-04-11T18:13:56Z</time></trkpt><trkpt lat="36.787389690005945" lon="-108.0037524798979"><ele>1786.4</ele><time>2026-04-11T18:13:57Z</time></trkpt><trkpt lat="36.787444118804075" lon="-108.00381117419717"><ele>1785.2</ele><time>2026-04-11T18:13:58Z</time></trkpt><trkpt lat="36.787514744058704" lon="-108.0038769587486"><ele>1784.0</ele><time>2026-04-11T18:13:59Z</time></trkpt><trkpt lat="36.78759111642535" lon="-108.00393664355927"><ele>1784.0</ele><time>2026-04-11T18:14:00Z</time></trkpt><trkpt lat="36.787661876677625" lon="-108.00400573271858"><ele>1784.0</ele><time>2026-04-11T18:14:01Z</time></trkpt><trkpt lat="36.787736645432076" lon="-108.00406499546864"><ele>1784.0</ele><time>2026-04-11T18:14:02Z</time></trkpt><trkpt lat="36.787809620870085" lon="-108.00412594310663"><ele>1784.0</ele><time>2026-04-11T18:14:03Z</time></trkpt><trkpt lat="36.78789312229493" lon="-108.00418209570135"><ele>1784.0</ele><time>2026-04-11T18:14:04Z</time></trkpt><trkpt lat="36.78798878285039" lon="-108.0042464042382"><ele>1783.6</ele><time>2026-04-11T18:14:05Z</time></trkpt><trkpt lat="36.78808896527914" lon="-108.00429810066592"><ele>1783.2</ele><time>2026-04-11T18:14:06Z</time></trkpt><trkpt lat="36.788193806918684" lon="-108.00434264874022"><ele>1782.7999999999997</ele><time>2026-04-11T18:14:07Z</time></trkpt><trkpt lat="36.788306718691864" lon="-108.00437685594811"><ele>1782.3999999999999</ele><time>2026-04-11T18:14:08Z</time></trkpt><trkpt lat="36.78840615165641" lon="-108.00439549761249"><ele>1782.0</ele><time>2026-04-11T18:14:09Z</time></trkpt><trkpt lat="36.78850597792031" lon="-108.00438738306909"><ele>1782.6666666666667</ele><time>2026-04-11T18:14:10Z</time></trkpt><trkpt lat="36.788592937804225" lon="-108.00436067567219"><ele>1783.3333333333335</ele><time>2026-04-11T18:14:11Z</time></trkpt><trkpt lat="36.78866059729613" lon="-108.00433113962819"><ele>1784.0</ele><time>2026-04-11T18:14:12Z</time></trkpt><trkpt lat="36.788725786492996" lon="-108.00430252974742"><ele>1784.6666666666667</ele><time>2026-04-11T18:14:13Z</time></trkpt><trkpt lat="36.788782162877666" lon="-108.00426677635396"><ele>1785.3333333333335</ele><time>2026-04-11T18:14:14Z</time></trkpt><trkpt lat="36.788808229840235" lon="-108.00415032186054"><ele>1786.0</ele><time>2026-04-11T18:14:16Z</time></trkpt><trkpt lat="36.788874196462515" lon="-108.0041321706423"><ele>1787.3333333333335</ele><time>2026-04-11T18:14:35Z</time></trkpt><trkpt lat="36.78895350744428" lon="-108.0040362601403"><ele>1788.6666666666667</ele><time>2026-04-11T18:14:38Z</time></trkpt><trkpt lat="36.78901483789534" lon="-108.00400564061164"><ele>1790.0</ele><time>2026-04-11T18:14:39Z</time></trkpt><trkpt lat="36.7890757787471" lon="-108.0039831593214"><ele>1791.3333333333335</ele><time>2026-04-11T18:14:40Z</time></trkpt><trkpt lat="36.789164999753716" lon="-108.00394573397826"><ele>1792.6666666666667</ele><time>2026-04-11T18:14:42Z</time></trkpt><trkpt lat="36.7892257838211" lon="-108.0039045804203"><ele>1794.0</ele><time>2026-04-11T18:14:45Z</time></trkpt><trkpt lat="36.789277014462414" lon="-108.00379186972258"><ele>1794.0</ele><time>2026-04-11T18:14:54Z</time></trkpt><trkpt lat="36.78931222496805" lon="-108.00371495124325"><ele>1794.0</ele><time>2026-04-11T18:14:55Z</time></trkpt><trkpt lat="36.789366849573575" lon="-108.00356071274913"><ele>1794.0</ele><time>2026-04-11T18:14:57Z</time></trkpt><trkpt lat="36.7893912298475" lon="-108.00347606375496"><ele>1794.0</ele><time>2026-04-11T18:14:58Z</time></trkpt><trkpt lat="36.789442515606076" lon="-108.00332756106631"><ele>1794.0</ele><time>2026-04-11T18:15:00Z</time></trkpt><trkpt lat="36.789497569170436" lon="-108.00322404894136"><ele>1794.2</ele><time>2026-04-11T18:15:02Z</time></trkpt><trkpt lat="36.789563410247354" lon="-108.0031910168806"><ele>1794.4</ele><time>2026-04-11T18:15:14Z</time></trkpt><trkpt lat="36.78963662521371" lon="-108.00321014518606"><ele>1794.6</ele><time>2026-04-11T18:15:16Z</time></trkpt><trkpt lat="36.78970270920412" lon="-108.0032330778301"><ele>1794.8</ele><time>2026-04-11T18:15:17Z</time></trkpt><trkpt lat="36.789794693216315" lon="-108.00334886352432"><ele>1795.0</ele><time>2026-04-11T18:15:19Z</time></trkpt><trkpt lat="36.78983319684921" lon="-108.00348128483824"><ele>1795.0</ele><time>2026-04-11T18:15:20Z</time></trkpt><trkpt lat="36.78987579427746" lon="-108.00363333290319"><ele>1795.0</ele><time>2026-04-11T18:15:21Z</time></trkpt><trkpt lat="36.78992600308654" lon="-108.00375584485637"><ele>1795.0</ele><time>2026-04-11T18:15:22Z</time></trkpt><trkpt lat="36.789989478858836" lon="-108.00386210092935"><ele>1795.0</ele><time>2026-04-11T18:15:23Z</time></trkpt><trkpt lat="36.790040831468104" lon="-108.00397046536467"><ele>1795.0</ele><time>2026-04-11T18:15:24Z</time></trkpt><trkpt lat="36.790086595235515" lon="-108.00405959134169"><ele>1795.0</ele><time>2026-04-11T18:15:25Z</time></trkpt><trkpt lat="36.79015838390464" lon="-108.00412009066918"><ele>1795.0</ele><time>2026-04-11T18:15:26Z</time></trkpt><trkpt lat="36.790230932961066" lon="-108.00417282060052"><ele>1795.0</ele><time>2026-04-11T18:15:27Z</time></trkpt><trkpt lat="36.790323410024385" lon="-108.00422787053847"><ele>1795.0</ele><time>2026-04-11T18:15:28Z</time></trkpt><trkpt lat="36.79041673205993" lon="-108.00427603660273"><ele>1795.0</ele><time>2026-04-11T18:15:29Z</time></trkpt><trkpt lat="36.790494214819155" lon="-108.00431268826294"><ele>1792.2</ele><time>2026-04-11T18:15:30Z</time></trkpt><trkpt lat="36.79057683391443" lon="-108.00434826770406"><ele>1789.4</ele><time>2026-04-11T18:15:31Z</time></trkpt><trkpt lat="36.790665498217734" lon="-108.0043857403102"><ele>1786.6</ele><time>2026-04-11T18:15:32Z</time></trkpt><trkpt lat="36.79075778410029" lon="-108.0044545059879"><ele>1783.8</ele><time>2026-04-11T18:15:33Z</time></trkpt><trkpt lat="36.790835121978276" lon="-108.00456912847775"><ele>1781.0</ele><time>2026-04-11T18:15:34Z</time></trkpt><trkpt lat="36.790907109934814" lon="-108.00471794103713"><ele>1781.0</ele><time>2026-04-11T18:15:35Z</time></trkpt><trkpt lat="36.79098530128591" lon="-108.00486997661466"><ele>1781.0</ele><time>2026-04-11T18:15:36Z</time></trkpt><trkpt lat="36.791056976086544" lon="-108.00496817150433"><ele>1781.0</ele><time>2026-04-11T18:15:37Z</time></trkpt><trkpt lat="36.79112438534699" lon="-108.0050394963837"><ele>1781.0</ele><time>2026-04-11T18:15:38Z</time></trkpt><trkpt lat="36.791195248469684" lon="-108.00508704671932"><ele>1781.0</ele><time>2026-04-11T18:15:39Z</time></trkpt><trkpt lat="36.791282910578445" lon="-108.00511478609288"><ele>1780.75</ele><time>2026-04-11T18:15:40Z</time></trkpt><trkpt lat="36.79140829248958" lon="-108.00514144976636"><ele>1780.5</ele><time>2026-04-11T18:15:41Z</time></trkpt><trkpt lat="36.791524488895874" lon="-108.0051640936797"><ele>1780.25</ele><time>2026-04-11T18:15:42Z</time></trkpt><trkpt lat="36.79161719312905" lon="-108.00517586022602"><ele>1780.0</ele><time>2026-04-11T18:15:43Z</time></trkpt><trkpt lat="36.79174421142372" lon="-108.00515892502779"><ele>1780.0</ele><time>2026-04-11T18:15:45Z</time></trkpt><trkpt lat="36.79183010177687" lon="-108.00515014899119"><ele>1780.0</ele><time>2026-04-11T18:15:46Z</time></trkpt><trkpt lat="36.79191009582478" lon="-108.00508779993321"><ele>1780.0</ele><time>2026-04-11T18:15:47Z</time></trkpt><trkpt lat="36.79199730926213" lon="-108.00499095209554"><ele>1780.0</ele><time>2026-04-11T18:15:48Z</time></trkpt><trkpt lat="36.792090354518955" lon="-108.00491962493317"><ele>1780.0</ele><time>2026-04-11T18:15:49Z</time></trkpt><trkpt lat="36.792172748808426" lon="-108.00488993091908"><ele>1780.0</ele><time>2026-04-11T18:15:50Z</time></trkpt><trkpt lat="36.79224618773441" lon="-108.00489914395959"><ele>1780.0</ele><time>2026-04-11T18:15:51Z</time></trkpt><trkpt lat="36.792348168388685" lon="-108.0048996601046"><ele>1780.0</ele><time>2026-04-11T18:15:52Z</time></trkpt><trkpt lat="36.792468339345" lon="-108.00491128274645"><ele>1780.0</ele><time>2026-04-11T18:15:53Z</time></trkpt><trkpt lat="36.79258060709798" lon="-108.00494006997734"><ele>1780.0</ele><time>2026-04-11T18:15:54Z</time></trkpt><trkpt lat="36.79268636503327" lon="-108.00496493193123"><ele>1780.0</ele><time>2026-04-11T18:15:55Z</time></trkpt><trkpt lat="36.79277529645363" lon="-108.00500051880306"><ele>1780.0</ele><time>2026-04-11T18:15:56Z</time></trkpt><trkpt lat="36.792854044133705" lon="-108.00502200868229"><ele>1780.0</ele><time>2026-04-11T18:15:57Z</time></trkpt><trkpt lat="36.79295517539534" lon="-108.00501066861139"><ele>1780.0</ele><time>2026-04-11T18:15:58Z</time></trkpt><trkpt lat="36.793046748722105" lon="-108.00498039632801"><ele>1780.0</ele><time>2026-04-11T18:15:59Z</time></trkpt><trkpt lat="36.79313612738713" lon="-108.00492649058066"><ele>1780.0</ele><time>2026-04-11T18:16:00Z</time></trkpt><trkpt lat="36.79323022845343" lon="-108.00486613621416"><ele>1780.0</ele><time>2026-04-11T18:16:01Z</time></trkpt><trkpt lat="36.793301979929105" lon="-108.00484728952863"><ele>1780.0</ele><time>2026-04-11T18:16:02Z</time></trkpt><trkpt lat="36.7934101596138" lon="-108.00484878494777"><ele>1780.0</ele><time>2026-04-11T18:16:04Z</time></trkpt><trkpt lat="36.793520097380544" lon="-108.00484677517312"><ele>1780.0</ele><time>2026-04-11T18:16:06Z</time></trkpt><trkpt lat="36.79358454965948" lon="-108.00482938258124"><ele>1779.8333333333335</ele><time>2026-04-11T18:16:07Z</time></trkpt><trkpt lat="36.793660614889525" lon="-108.00482297457404"><ele>1779.6666666666667</ele><time>2026-04-11T18:16:08Z</time></trkpt><trkpt lat="36.79374379034587" lon="-108.00484459868534"><ele>1779.5</ele><time>2026-04-11T18:16:09Z</time></trkpt><trkpt lat="36.793809745779924" lon="-108.00489537394259"><ele>1779.3333333333335</ele><time>2026-04-11T18:16:10Z</time></trkpt><trkpt lat="36.793868931514645" lon="-108.00494522169448"><ele>1779.1666666666667</ele><time>2026-04-11T18:16:11Z</time></trkpt><trkpt lat="36.79395291816777" lon="-108.00505507616013"><ele>1779.0</ele><time>2026-04-11T18:16:13Z</time></trkpt><trkpt lat="36.79399229700532" lon="-108.0051245749052"><ele>1779.0</ele><time>2026-04-11T18:16:14Z</time></trkpt><trkpt lat="36.79402326628781" lon="-108.00522483292197"><ele>1779.0</ele><time>2026-04-11T18:16:15Z</time></trkpt><trkpt lat="36.794034543307426" lon="-108.0053580828607"><ele>1779.0</ele><time>2026-04-11T18:16:16Z</time></trkpt><trkpt lat="36.79402659860547" lon="-108.00552535959287"><ele>1779.0</ele><time>2026-04-11T18:16:17Z</time></trkpt><trkpt lat="36.7940211557215" lon="-108.00570655207491"><ele>1779.0</ele><time>2026-04-11T18:16:18Z</time></trkpt><trkpt lat="36.7940293539953" lon="-108.00589480080237"><ele>1779.0</ele><time>2026-04-11T18:16:19Z</time></trkpt><trkpt lat="36.794045360352854" lon="-108.00604764359578"><ele>1779.0</ele><time>2026-04-11T18:16:20Z</time></trkpt><trkpt lat="36.79407937799431" lon="-108.00615568726519"><ele>1779.0</ele><time>2026-04-11T18:16:21Z</time></trkpt><trkpt lat="36.79413653430325" lon="-108.00623905928856"><ele>1779.0</ele><time>2026-04-11T18:16:22Z</time></trkpt><trkpt lat="36.7942184870474" lon="-108.0062633995996"><ele>1779.0</ele><time>2026-04-11T18:16:23Z</time></trkpt><trkpt lat="36.79430637887485" lon="-108.00632194596383"><ele>1779.0</ele><time>2026-04-11T18:16:24Z</time></trkpt><trkpt lat="36.79434679706924" lon="-108.00642990800034"><ele>1779.0</ele><time>2026-04-11T18:16:25Z</time></trkpt><trkpt lat="36.79439699473405" lon="-108.00654028524326"><ele>1779.0</ele><time>2026-04-11T18:16:26Z</time></trkpt><trkpt lat="36.79447211950128" lon="-108.0066362970025"><ele>1778.6</ele><time>2026-04-11T18:16:27Z</time></trkpt><trkpt lat="36.79457101352134" lon="-108.00665441589874"><ele>1778.2</ele><time>2026-04-11T18:16:28Z</time></trkpt><trkpt lat="36.79467243161653" lon="-108.00665570916465"><ele>1777.7999999999997</ele><time>2026-04-11T18:16:29Z</time></trkpt><trkpt lat="36.79478558546459" lon="-108.00667539271497"><ele>1777.3999999999999</ele><time>2026-04-11T18:16:30Z</time></trkpt><trkpt lat="36.79488292867848" lon="-108.00665648646047"><ele>1777.0</ele><time>2026-04-11T18:16:31Z</time></trkpt><trkpt lat="36.79497944325507" lon="-108.00663531641659"><ele>1777.0</ele><time>2026-04-11T18:16:32Z</time></trkpt><trkpt lat="36.7950849861134" lon="-108.0066556046608"><ele>1777.0</ele><time>2026-04-11T18:16:33Z</time></trkpt><trkpt lat="36.79517860093546" lon="-108.00673586536632"><ele>1777.0</ele><time>2026-04-11T18:16:34Z</time></trkpt><trkpt lat="36.795243433861195" lon="-108.00688107694134"><ele>1777.0</ele><time>2026-04-11T18:16:35Z</time></trkpt><trkpt lat="36.79534924356803" lon="-108.00702647419125"><ele>1777.25</ele><time>2026-04-11T18:16:36Z</time></trkpt><trkpt lat="36.79545925961672" lon="-108.00716849984684"><ele>1777.5</ele><time>2026-04-11T18:16:37Z</time></trkpt><trkpt lat="36.79553753129603" lon="-108.00724472817646"><ele>1777.75</ele><time>2026-04-11T18:16:38Z</time></trkpt><trkpt lat="36.795654205250145" lon="-108.0073146886739"><ele>1778.0</ele><time>2026-04-11T18:16:39Z</time></trkpt><trkpt lat="36.795783158913025" lon="-108.00738592601236"><ele>1778.0</ele><time>2026-04-11T18:16:40Z</time></trkpt><trkpt lat="36.79590560528306" lon="-108.00745602181222"><ele>1778.0</ele><time>2026-04-11T18:16:41Z</time></trkpt><trkpt lat="36.79598811757746" lon="-108.00755061720065"><ele>1778.0</ele><time>2026-04-11T18:16:42Z</time></trkpt><trkpt lat="36.796065650954965" lon="-108.00766165619612"><ele>1778.0</ele><time>2026-04-11T18:16:43Z</time></trkpt><trkpt lat="36.79615295805847" lon="-108.00775040233255"><ele>1778.2</ele><time>2026-04-11T18:16:44Z</time></trkpt><trkpt lat="36.79624220961043" lon="-108.00775443012907"><ele>1778.4</ele><time>2026-04-11T18:16:45Z</time></trkpt><trkpt lat="36.79632374542827" lon="-108.00773434772422"><ele>1778.6000000000001</ele><time>2026-04-11T18:16:46Z</time></trkpt><trkpt lat="36.79643675226713" lon="-108.00770452099756"><ele>1778.8000000000002</ele><time>2026-04-11T18:16:47Z</time></trkpt><trkpt lat="36.79653465055536" lon="-108.00768298051159"><ele>1779.0</ele><time>2026-04-11T18:16:48Z</time></trkpt><trkpt lat="36.796653976657616" lon="-108.00763044746915"><ele>1779.0</ele><time>2026-04-11T18:16:49Z</time></trkpt><trkpt lat="36.79678781866857" lon="-108.00756676447439"><ele>1779.0</ele><time>2026-04-11T18:16:50Z</time></trkpt><trkpt lat="36.79690818401219" lon="-108.00752298114323"><ele>1779.0</ele><time>2026-04-11T18:16:51Z</time></trkpt><trkpt lat="36.79701530479157" lon="-108.00746459876926"><ele>1779.0</ele><time>2026-04-11T18:16:52Z</time></trkpt><trkpt lat="36.79708919070674" lon="-108.00741240599962"><ele>1778.8000000000002</ele><time>2026-04-11T18:16:53Z</time></trkpt><trkpt lat="36.79716348079596" lon="-108.00744075948306"><ele>1778.6000000000001</ele><time>2026-04-11T18:16:54Z</time></trkpt><trkpt lat="36.79726788021869" lon="-108.00752259346557"><ele>1778.4</ele><time>2026-04-11T18:16:55Z</time></trkpt><trkpt lat="36.79739581515095" lon="-108.00756884924331"><ele>1778.2</ele><time>2026-04-11T18:16:56Z</time></trkpt><trkpt lat="36.79749929154372" lon="-108.00755567621887"><ele>1778.0</ele><time>2026-04-11T18:16:57Z</time></trkpt><trkpt lat="36.79760488329607" lon="-108.00753203108492"><ele>1777.2</ele><time>2026-04-11T18:16:58Z</time></trkpt><trkpt lat="36.797685064044856" lon="-108.00756586725228"><ele>1776.4</ele><time>2026-04-11T18:16:59Z</time></trkpt><trkpt lat="36.79776344749266" lon="-108.00765155503478"><ele>1775.6000000000001</ele><time>2026-04-11T18:17:00Z</time></trkpt><trkpt lat="36.797850467825675" lon="-108.00775607631398"><ele>1774.8000000000002</ele><time>2026-04-11T18:17:01Z</time></trkpt><trkpt lat="36.797920458875936" lon="-108.0078701506469"><ele>1774.0</ele><time>2026-04-11T18:17:02Z</time></trkpt><trkpt lat="36.79799047323255" lon="-108.00799348924566"><ele>1774.0</ele><time>2026-04-11T18:17:03Z</time></trkpt><trkpt lat="36.798084176461344" lon="-108.00811652415103"><ele>1774.0</ele><time>2026-04-11T18:17:05Z</time></trkpt><trkpt lat="36.79820592739563" lon="-108.00821092447316"><ele>1774.0</ele><time>2026-04-11T18:17:06Z</time></trkpt><trkpt lat="36.79832174068612" lon="-108.00830906496893"><ele>1774.0</ele><time>2026-04-11T18:17:07Z</time></trkpt><trkpt lat="36.79838843877984" lon="-108.00838709914777"><ele>1774.2</ele><time>2026-04-11T18:17:08Z</time></trkpt><trkpt lat="36.798484986212635" lon="-108.00842805051339"><ele>1774.4</ele><time>2026-04-11T18:17:09Z</time></trkpt><trkpt lat="36.79857431452716" lon="-108.00849311343214"><ele>1774.6</ele><time>2026-04-11T18:17:11Z</time></trkpt><trkpt lat="36.798632921036905" lon="-108.00858625327147"><ele>1774.8</ele><time>2026-04-11T18:17:12Z</time></trkpt><trkpt lat="36.79864792115288" lon="-108.00872437792178"><ele>1775.0</ele><time>2026-04-11T18:17:13Z</time></trkpt><trkpt lat="36.79867381605101" lon="-108.0088847115257"><ele>1774.6</ele><time>2026-04-11T18:17:14Z</time></trkpt><trkpt lat="36.79871652152571" lon="-108.00901599187164"><ele>1774.2</ele><time>2026-04-11T18:17:15Z</time></trkpt><trkpt lat="36.7987685644504" lon="-108.00914455094272"><ele>1773.8000000000002</ele><time>2026-04-11T18:17:16Z</time></trkpt><trkpt lat="36.79883560343429" lon="-108.00923223013721"><ele>1773.4</ele><time>2026-04-11T18:17:17Z</time></trkpt><trkpt lat="36.79888915054105" lon="-108.00930101909765"><ele>1773.0</ele><time>2026-04-11T18:17:18Z</time></trkpt><trkpt lat="36.79897395672074" lon="-108.00934968417042"><ele>1773.6000000000001</ele><time>2026-04-11T18:17:19Z</time></trkpt><trkpt lat="36.799052647215504" lon="-108.00943590996923"><ele>1774.2000000000003</ele><time>2026-04-11T18:17:20Z</time></trkpt><trkpt lat="36.799134597962194" lon="-108.00953704050329"><ele>1774.8</ele><time>2026-04-11T18:17:21Z</time></trkpt><trkpt lat="36.799222345086285" lon="-108.00960481977161"><ele>1775.4</ele><time>2026-04-11T18:17:22Z</time></trkpt><trkpt lat="36.79931608528412" lon="-108.00966655858342"><ele>1776.0</ele><time>2026-04-11T18:17:23Z</time></trkpt><trkpt lat="36.79938563895932" lon="-108.00971929003613"><ele>1776.0</ele><time>2026-04-11T18:17:24Z</time></trkpt><trkpt lat="36.79947870617674" lon="-108.00960274552496"><ele>1776.0</ele><time>2026-04-11T18:17:26Z</time></trkpt><trkpt lat="36.79953969159828" lon="-108.0095505219957"><ele>1776.0</ele><time>2026-04-11T18:17:28Z</time></trkpt><trkpt lat="36.79959184174363" lon="-108.00949859859047"><ele>1776.0</ele><time>2026-04-11T18:17:31Z</time></trkpt><trkpt lat="36.79966725447578" lon="-108.00947351103706"><ele>1776.0</ele><time>2026-04-11T18:17:38Z</time></trkpt><trkpt lat="36.79984406712531" lon="-108.00950767317765"><ele>1776.0</ele><time>2026-04-11T18:18:12Z</time></trkpt><trkpt lat="36.79992909914034" lon="-108.0095565784409"><ele>1776.0</ele><time>2026-04-11T18:18:13Z</time></trkpt><trkpt lat="36.800004581051645" lon="-108.00961061446148"><ele>1776.0</ele><time>2026-04-11T18:18:14Z</time></trkpt><trkpt lat="36.80008570398311" lon="-108.00966322107799"><ele>1776.0</ele><time>2026-04-11T18:18:15Z</time></trkpt><trkpt lat="36.80016897368874" lon="-108.0096849081378"><ele>1776.0</ele><time>2026-04-11T18:18:16Z</time></trkpt><trkpt lat="36.800265779164995" lon="-108.00971132279756"><ele>1775.0</ele><time>2026-04-11T18:18:17Z</time></trkpt><trkpt lat="36.800379746830814" lon="-108.00969827688078"><ele>1774.0</ele><time>2026-04-11T18:18:18Z</time></trkpt><trkpt lat="36.80050548882126" lon="-108.00969538154712"><ele>1773.0</ele><time>2026-04-11T18:18:19Z</time></trkpt><trkpt lat="36.80058796295734" lon="-108.00969990953348"><ele>1772.0</ele><time>2026-04-11T18:18:20Z</time></trkpt><trkpt lat="36.80066101532383" lon="-108.00959588778913"><ele>1771.0</ele><time>2026-04-11T18:18:22Z</time></trkpt><trkpt lat="36.800717131513714" lon="-108.0095441525934"><ele>1771.0</ele><time>2026-04-11T18:18:23Z</time></trkpt><trkpt lat="36.800838915330615" lon="-108.00957556423188"><ele>1771.0</ele><time>2026-04-11T18:18:25Z</time></trkpt><trkpt lat="36.80091662664067" lon="-108.00964906080803"><ele>1771.0</ele><time>2026-04-11T18:18:26Z</time></trkpt><trkpt lat="36.8009798357139" lon="-108.00972683676122"><ele>1771.0</ele><time>2026-04-11T18:18:27Z</time></trkpt><trkpt lat="36.80113430714608" lon="-108.00972749827639"><ele>1770.0</ele><time>2026-04-11T18:18:29Z</time></trkpt><trkpt lat="36.80123039983444" lon="-108.0097583858246"><ele>1769.0</ele><time>2026-04-11T18:18:30Z</time></trkpt><trkpt lat="36.801313775412254" lon="-108.00984974340197"><ele>1768.0</ele><time>2026-04-11T18:18:31Z</time></trkpt><trkpt lat="36.80139341388504" lon="-108.00994677855405"><ele>1767.0</ele><time>2026-04-11T18:18:32Z</time></trkpt><trkpt lat="36.8014768004963" lon="-108.01003296659432"><ele>1766.0</ele><time>2026-04-11T18:18:33Z</time></trkpt><trkpt lat="36.80153943995826" lon="-108.01011748901459"><ele>1765.9999999999998</ele><time>2026-04-11T18:18:34Z</time></trkpt><trkpt lat="36.801602392846284" lon="-108.01016814991662"><ele>1766.0</ele><time>2026-04-11T18:18:35Z</time></trkpt><trkpt lat="36.80166919001098" lon="-108.01015201308921"><ele>1766.0</ele><time>2026-04-11T18:18:36Z</time></trkpt><trkpt lat="36.801744473730736" lon="-108.01012821537053"><ele>1766.0</ele><time>2026-04-11T18:18:37Z</time></trkpt><trkpt lat="36.80182074149731" lon="-108.01009845168855"><ele>1765.9999999999998</ele><time>2026-04-11T18:18:38Z</time></trkpt><trkpt lat="36.80188794805108" lon="-108.01009980202038"><ele>1766.0</ele><time>2026-04-11T18:18:39Z</time></trkpt><trkpt lat="36.80198333791123" lon="-108.01007160047405"><ele>1762.6</ele><time>2026-04-11T18:18:41Z</time></trkpt><trkpt lat="36.80206360919306" lon="-108.01001343652293"><ele>1759.1999999999998</ele><time>2026-04-11T18:18:43Z</time></trkpt><trkpt lat="36.80213907499071" lon="-108.01000981810056"><ele>1755.8000000000002</ele><time>2026-04-11T18:18:44Z</time></trkpt><trkpt lat="36.80223369772896" lon="-108.01002163373589"><ele>1752.4</ele><time>2026-04-11T18:18:45Z</time></trkpt><trkpt lat="36.80232987590652" lon="-108.0100411681754"><ele>1749.0</ele><time>2026-04-11T18:18:46Z</time></trkpt><trkpt lat="36.80243026903503" lon="-108.01005793738705"><ele>1749.0</ele><time>2026-04-11T18:18:47Z</time></trkpt><trkpt lat="36.80254207167836" lon="-108.01005400981606"><ele>1749.0</ele><time>2026-04-11T18:18:48Z</time></trkpt><trkpt lat="36.80263826126646" lon="-108.01003629695442"><ele>1749.0</ele><time>2026-04-11T18:18:49Z</time></trkpt><trkpt lat="36.80272861108441" lon="-108.00998056143764"><ele>1749.0</ele><time>2026-04-11T18:18:50Z</time></trkpt><trkpt lat="36.80281891513849" lon="-108.00990929127828"><ele>1749.0</ele><time>2026-04-11T18:18:52Z</time></trkpt><trkpt lat="36.80288673216512" lon="-108.00990079026668"><ele>1748.2</ele><time>2026-04-11T18:18:53Z</time></trkpt><trkpt lat="36.802988087982826" lon="-108.00985900803121"><ele>1747.4</ele><time>2026-04-11T18:18:54Z</time></trkpt><trkpt lat="36.803110208206164" lon="-108.00983578286349"><ele>1746.6</ele><time>2026-04-11T18:18:55Z</time></trkpt><trkpt lat="36.80320781670633" lon="-108.00979005180001"><ele>1745.8</ele><time>2026-04-11T18:18:56Z</time></trkpt><trkpt lat="36.80330415453936" lon="-108.0097472494898"><ele>1745.0</ele><time>2026-04-11T18:18:57Z</time></trkpt><trkpt lat="36.80341290723013" lon="-108.00973758574689"><ele>1743.5</ele><time>2026-04-11T18:18:58Z</time></trkpt><trkpt lat="36.80353875597608" lon="-108.0097554818868"><ele>1742.0</ele><time>2026-04-11T18:18:59Z</time></trkpt><trkpt lat="36.803669522854825" lon="-108.00976879203387"><ele>1740.5</ele><time>2026-04-11T18:19:00Z</time></trkpt><trkpt lat="36.803782566236045" lon="-108.00976272891953"><ele>1739.0</ele><time>2026-04-11T18:19:01Z</time></trkpt><trkpt lat="36.80387619172753" lon="-108.00970637845246"><ele>1739.0</ele><time>2026-04-11T18:19:02Z</time></trkpt><trkpt lat="36.803968564485295" lon="-108.00964530018547"><ele>1739.0</ele><time>2026-04-11T18:19:03Z</time></trkpt><trkpt lat="36.80408036962595" lon="-108.00962791323192"><ele>1739.0</ele><time>2026-04-11T18:19:04Z</time></trkpt><trkpt lat="36.80421761316219" lon="-108.00968715374442"><ele>1739.0</ele><time>2026-04-11T18:19:05Z</time></trkpt><trkpt lat="36.804326124306726" lon="-108.00977707372351"><ele>1739.2</ele><time>2026-04-11T18:19:06Z</time></trkpt><trkpt lat="36.80441213633472" lon="-108.00980957379014"><ele>1739.4</ele><time>2026-04-11T18:19:07Z</time></trkpt><trkpt lat="36.80448977783101" lon="-108.00980212631848"><ele>1739.6</ele><time>2026-04-11T18:19:09Z</time></trkpt><trkpt lat="36.80453941858551" lon="-108.00963979286772"><ele>1739.8</ele><time>2026-04-11T18:19:11Z</time></trkpt><trkpt lat="36.80453365952658" lon="-108.00950284053586"><ele>1740.0</ele><time>2026-04-11T18:19:12Z</time></trkpt><trkpt lat="36.804506284903475" lon="-108.0093773646068"><ele>1740.0</ele><time>2026-04-11T18:19:13Z</time></trkpt><trkpt lat="36.804507814869474" lon="-108.00926445047227"><ele>1740.0</ele><time>2026-04-11T18:19:14Z</time></trkpt><trkpt lat="36.80455014673203" lon="-108.00916028347714"><ele>1740.0</ele><time>2026-04-11T18:19:15Z</time></trkpt><trkpt lat="36.804594272125414" lon="-108.00904764189632"><ele>1740.0</ele><time>2026-04-11T18:19:16Z</time></trkpt><trkpt lat="36.80462959436793" lon="-108.00890954258712"><ele>1740.0</ele><time>2026-04-11T18:19:17Z</time></trkpt><trkpt lat="36.80464416511834" lon="-108.00876869157413"><ele>1741.75</ele><time>2026-04-11T18:19:18Z</time></trkpt><trkpt lat="36.80465106904715" lon="-108.00859805632302"><ele>1743.5</ele><time>2026-04-11T18:19:19Z</time></trkpt><trkpt lat="36.80466877192223" lon="-108.00842680661994"><ele>1745.25</ele><time>2026-04-11T18:19:20Z</time></trkpt><trkpt lat="36.804668430771045" lon="-108.00823661465726"><ele>1747.0</ele><time>2026-04-11T18:19:21Z</time></trkpt><trkpt lat="36.80464068328109" lon="-108.00807536345172"><ele>1748.6</ele><time>2026-04-11T18:19:22Z</time></trkpt><trkpt lat="36.80461497674388" lon="-108.00796786771922"><ele>1750.1999999999998</ele><time>2026-04-11T18:19:23Z</time></trkpt><trkpt lat="36.804599208567005" lon="-108.00787242657528"><ele>1751.8</ele><time>2026-04-11T18:19:24Z</time></trkpt><trkpt lat="36.804591948351245" lon="-108.0077746267339"><ele>1753.4</ele><time>2026-04-11T18:19:25Z</time></trkpt><trkpt lat="36.80464805264495" lon="-108.00763309792966"><ele>1755.0</ele><time>2026-04-11T18:19:26Z</time></trkpt><trkpt lat="36.804661709899555" lon="-108.0075019028576"><ele>1755.0</ele><time>2026-04-11T18:19:27Z</time></trkpt><trkpt lat="36.80464040957334" lon="-108.00736706202362"><ele>1755.0</ele><time>2026-04-11T18:19:28Z</time></trkpt><trkpt lat="36.804634967981016" lon="-108.00726961349612"><ele>1755.0</ele><time>2026-04-11T18:19:29Z</time></trkpt><trkpt lat="36.804647287771836" lon="-108.00717090858087"><ele>1755.0</ele><time>2026-04-11T18:19:30Z</time></trkpt><trkpt lat="36.804721737678825" lon="-108.00706910052001"><ele>1755.0</ele><time>2026-04-11T18:19:32Z</time></trkpt><trkpt lat="36.80480657472813" lon="-108.00701019431703"><ele>1755.0</ele><time>2026-04-11T18:19:34Z</time></trkpt><trkpt lat="36.804875480720305" lon="-108.00704616492098"><ele>1755.0</ele><time>2026-04-11T18:19:36Z</time></trkpt><trkpt lat="36.80493930311802" lon="-108.00702576706045"><ele>1755.0</ele><time>2026-04-11T18:20:19Z</time></trkpt><trkpt lat="36.80504916588154" lon="-108.00694353932063"><ele>1755.0</ele><time>2026-04-11T18:20:21Z</time></trkpt><trkpt lat="36.80513309060519" lon="-108.00690837439055"><ele>1755.0</ele><time>2026-04-11T18:20:22Z</time></trkpt><trkpt lat="36.80520767775223" lon="-108.00691496002646"><ele>1755.0</ele><time>2026-04-11T18:20:23Z</time></trkpt><trkpt lat="36.80533113463576" lon="-108.00686021668757"><ele>1752.8</ele><time>2026-04-11T18:20:25Z</time></trkpt><trkpt lat="36.80544862588913" lon="-108.00677505907423"><ele>1750.6</ele><time>2026-04-11T18:20:26Z</time></trkpt><trkpt lat="36.80556230075357" lon="-108.00672374988793"><ele>1748.4</ele><time>2026-04-11T18:20:27Z</time></trkpt><trkpt lat="36.80565291190731" lon="-108.0066383387695"><ele>1746.2</ele><time>2026-04-11T18:20:28Z</time></trkpt><trkpt lat="36.805705320673034" lon="-108.00658599961149"><ele>1744.0</ele><time>2026-04-11T18:20:29Z</time></trkpt><trkpt lat="36.80575545289064" lon="-108.00653401214043"><ele>1744.0000000000002</ele><time>2026-04-11T18:20:31Z</time></trkpt><trkpt lat="36.80582532968846" lon="-108.00649679438555"><ele>1744.0</ele><time>2026-04-11T18:20:40Z</time></trkpt><trkpt lat="36.80580722398128" lon="-108.00640638481649"><ele>1744.0</ele><time>2026-04-11T18:20:43Z</time></trkpt><trkpt lat="36.805739928246815" lon="-108.0063474388673"><ele>1744.0</ele><time>2026-04-11T18:20:44Z</time></trkpt><trkpt lat="36.80565955248011" lon="-108.0062562429828"><ele>1744.0000000000002</ele><time>2026-04-11T18:20:45Z</time></trkpt><trkpt lat="36.805581402055054" lon="-108.00616877297156"><ele>1744.0</ele><time>2026-04-11T18:20:46Z</time></trkpt><trkpt lat="36.805499281066396" lon="-108.00608329638342"><ele>1744.0</ele><time>2026-04-11T18:20:47Z</time></trkpt><trkpt lat="36.80541696005618" lon="-108.00597368137123"><ele>1744.0</ele><time>2026-04-11T18:20:48Z</time></trkpt><trkpt lat="36.80533341275734" lon="-108.00586131687513"><ele>1744.0</ele><time>2026-04-11T18:20:49Z</time></trkpt><trkpt lat="36.80524517792707" lon="-108.00575123664147"><ele>1744.0</ele><time>2026-04-11T18:20:50Z</time></trkpt><trkpt lat="36.80515855267547" lon="-108.00565661187886"><ele>1745.5000000000002</ele><time>2026-04-11T18:20:51Z</time></trkpt><trkpt lat="36.80507408374436" lon="-108.00558492743437"><ele>1747.0</ele><time>2026-04-11T18:20:52Z</time></trkpt><trkpt lat="36.805010951772466" lon="-108.00552943246245"><ele>1748.5</ele><time>2026-04-11T18:20:53Z</time></trkpt><trkpt lat="36.80494336671643" lon="-108.00551650352871"><ele>1750.0</ele><time>2026-04-11T18:20:55Z</time></trkpt><trkpt lat="36.80485724932883" lon="-108.00550326138509"><ele>1751.5000000000002</ele><time>2026-04-11T18:20:57Z</time></trkpt><trkpt lat="36.80478155872584" lon="-108.0054640461824"><ele>1753.0</ele><time>2026-04-11T18:20:59Z</time></trkpt><trkpt lat="36.80476416957226" lon="-108.00538314341367"><ele>1753.0</ele><time>2026-04-11T18:21:01Z</time></trkpt><trkpt lat="36.80481372164785" lon="-108.00528992089887"><ele>1753.0000000000002</ele><time>2026-04-11T18:21:03Z</time></trkpt><trkpt lat="36.8048629416815" lon="-108.00517652542159"><ele>1753.0000000000002</ele><time>2026-04-11T18:21:05Z</time></trkpt><trkpt lat="36.804844927330244" lon="-108.00504644642051"><ele>1753.0</ele><time>2026-04-11T18:21:07Z</time></trkpt><trkpt lat="36.80481205822932" lon="-108.00490837459292"><ele>1753.0</ele><time>2026-04-11T18:21:09Z</time></trkpt><trkpt lat="36.80481466472863" lon="-108.00481804599154"><ele>1752.2</ele><time>2026-04-11T18:21:10Z</time></trkpt><trkpt lat="36.80482052228473" lon="-108.00471065071419"><ele>1751.4</ele><time>2026-04-11T18:21:11Z</time></trkpt><trkpt lat="36.80480646450854" lon="-108.00458710560531"><ele>1750.6000000000001</ele><time>2026-04-11T18:21:12Z</time></trkpt><trkpt lat="36.80476167848752" lon="-108.00449449009689"><ele>1749.8000000000002</ele><time>2026-04-11T18:21:13Z</time></trkpt><trkpt lat="36.80471202131253" lon="-108.00438604002096"><ele>1749.0</ele><time>2026-04-11T18:21:14Z</time></trkpt><trkpt lat="36.80466738154689" lon="-108.00429823649428"><ele>1749.0</ele><time>2026-04-11T18:21:16Z</time></trkpt><trkpt lat="36.80461457799763" lon="-108.00424482968066"><ele>1749.0</ele><time>2026-04-11T18:21:18Z</time></trkpt><trkpt lat="36.80460041248479" lon="-108.00408040330824"><ele>1749.0</ele><time>2026-04-11T18:21:20Z</time></trkpt><trkpt lat="36.804630138370214" lon="-108.00398841719617"><ele>1749.0</ele><time>2026-04-11T18:21:21Z</time></trkpt><trkpt lat="36.80468232625683" lon="-108.00392527102844"><ele>1749.0</ele><time>2026-04-11T18:21:22Z</time></trkpt><trkpt lat="36.80474047254432" lon="-108.00383634295106"><ele>1749.0</ele><time>2026-04-11T18:21:24Z</time></trkpt><trkpt lat="36.804713011744646" lon="-108.00369579707522"><ele>1747.6</ele><time>2026-04-11T18:21:26Z</time></trkpt><trkpt lat="36.80473553702397" lon="-108.0035877736175"><ele>1746.2</ele><time>2026-04-11T18:21:28Z</time></trkpt><trkpt lat="36.80481600688094" lon="-108.00356822592549"><ele>1744.7999999999997</ele><time>2026-04-11T18:21:32Z</time></trkpt><trkpt lat="36.80494143778121" lon="-108.0035568303511"><ele>1743.3999999999999</ele><time>2026-04-11T18:21:34Z</time></trkpt><trkpt lat="36.805026889057594" lon="-108.0035217898571"><ele>1742.0</ele><time>2026-04-11T18:21:36Z</time></trkpt><trkpt lat="36.80504559514207" lon="-108.00344087960276"><ele>1741.9999999999998</ele><time>2026-04-11T18:21:38Z</time></trkpt><trkpt lat="36.80512207605613" lon="-108.0034290630975"><ele>1742.0</ele><time>2026-04-11T18:21:39Z</time></trkpt><trkpt lat="36.80511737545933" lon="-108.00334445733947"><ele>1742.0</ele><time>2026-04-11T18:21:40Z</time></trkpt><trkpt lat="36.805103209308484" lon="-108.00324768945254"><ele>1742.0</ele><time>2026-04-11T18:21:41Z</time></trkpt><trkpt lat="36.80508669571131" lon="-108.00312903825524"><ele>1741.9999999999998</ele><time>2026-04-11T18:21:42Z</time></trkpt><trkpt lat="36.80505763619798" lon="-108.00297591872767"><ele>1742.0</ele><time>2026-04-11T18:21:43Z</time></trkpt><trkpt lat="36.80504005256883" lon="-108.0028272821779"><ele>1741.5</ele><time>2026-04-11T18:21:44Z</time></trkpt><trkpt lat="36.80503851323521" lon="-108.00265648632795"><ele>1741.0</ele><time>2026-04-11T18:21:45Z</time></trkpt><trkpt lat="36.8050371581927" lon="-108.00250613851625"><ele>1740.5</ele><time>2026-04-11T18:21:46Z</time></trkpt><trkpt lat="36.80503793398415" lon="-108.00236634551129"><ele>1740.0</ele><time>2026-04-11T18:21:47Z</time></trkpt><trkpt lat="36.80503997671462" lon="-108.00222812179389"><ele>1740.0</ele><time>2026-04-11T18:21:48Z</time></trkpt><trkpt lat="36.80504880132649" lon="-108.00210748848521"><ele>1740.0</ele><time>2026-04-11T18:21:49Z</time></trkpt><trkpt lat="36.80504344543414" lon="-108.00198170774922"><ele>1740.0</ele><time>2026-04-11T18:21:50Z</time></trkpt><trkpt lat="36.80504828007408" lon="-108.00185563057228"><ele>1740.0</ele><time>2026-04-11T18:21:51Z</time></trkpt><trkpt lat="36.8050593517486" lon="-108.0017176430748"><ele>1740.0</ele><time>2026-04-11T18:21:52Z</time></trkpt><trkpt lat="36.80504794536221" lon="-108.00156330412558"><ele>1741.0</ele><time>2026-04-11T18:21:53Z</time></trkpt><trkpt lat="36.8050478219551" lon="-108.00142784489314"><ele>1742.0</ele><time>2026-04-11T18:21:54Z</time></trkpt><trkpt lat="36.805048984821035" lon="-108.00131200132667"><ele>1743.0</ele><time>2026-04-11T18:21:55Z</time></trkpt><trkpt lat="36.805049775121795" lon="-108.00123327240162"><ele>1744.0</ele><time>2026-04-11T18:21:56Z</time></trkpt><trkpt lat="36.80524618167178" lon="-108.00120614995542"><ele>1742.4</ele><time>2026-04-11T18:21:57Z</time></trkpt><trkpt lat="36.80534646193264" lon="-108.0011822722721"><ele>1740.8000000000002</ele><time>2026-04-11T18:21:59Z</time></trkpt><trkpt lat="36.80543880539267" lon="-108.00117555364145"><ele>1739.1999999999998</ele><time>2026-04-11T18:22:01Z</time></trkpt><trkpt lat="36.80560088693487" lon="-108.00120618658681"><ele>1737.6</ele><time>2026-04-11T18:22:02Z</time></trkpt><trkpt lat="36.80567145188078" lon="-108.00115615613898"><ele>1736.0</ele><time>2026-04-11T18:22:03Z</time></trkpt><trkpt lat="36.80580621121918" lon="-108.00109570352888"><ele>1736.0</ele><time>2026-04-11T18:22:04Z</time></trkpt><trkpt lat="36.8058941025684" lon="-108.00104057041423"><ele>1736.0</ele><time>2026-04-11T18:22:05Z</time></trkpt><trkpt lat="36.80596798755459" lon="-108.00099878280703"><ele>1736.0</ele><time>2026-04-11T18:22:06Z</time></trkpt><trkpt lat="36.80604904180826" lon="-108.00093657134774"><ele>1736.0</ele><time>2026-04-11T18:22:07Z</time></trkpt><trkpt lat="36.80613078686608" lon="-108.00087382967321"><ele>1736.0</ele><time>2026-04-11T18:22:08Z</time></trkpt><trkpt lat="36.80620512646266" lon="-108.00081677190566"><ele>1732.0</ele><time>2026-04-11T18:22:09Z</time></trkpt><trkpt lat="36.8060291927183" lon="-108.00024926124034"><ele>1732.0000000000002</ele><time>2026-04-11T18:22:10Z</time></trkpt><trkpt lat="36.806111166012734" lon="-108.00022382438493"><ele>1732.0</ele><time>2026-04-11T18:22:11Z</time></trkpt><trkpt lat="36.80617500370856" lon="-108.00022822641817"><ele>1732.0</ele><time>2026-04-11T18:22:12Z</time></trkpt><trkpt lat="36.806252506998455" lon="-108.00024584107521"><ele>1732.0</ele><time>2026-04-11T18:22:14Z</time></trkpt><trkpt lat="36.80629172598989" lon="-108.00031349352162"><ele>1732.0000000000002</ele><time>2026-04-11T18:22:18Z</time></trkpt><trkpt lat="36.806318288548816" lon="-108.00038518865662"><ele>1732.0</ele><time>2026-04-11T18:22:20Z</time></trkpt><trkpt lat="36.80634871102398" lon="-108.00050316162164"><ele>1732.0000000000002</ele><time>2026-04-11T18:22:22Z</time></trkpt><trkpt lat="36.8063587469141" lon="-108.00064688701895"><ele>1732.0</ele><time>2026-04-11T18:22:24Z</time></trkpt><trkpt lat="36.80637273494239" lon="-108.00072583002425"><ele>1732.0</ele><time>2026-04-11T18:22:25Z</time></trkpt><trkpt lat="36.80639120310203" lon="-108.00081370626972"><ele>1732.0</ele><time>2026-04-11T18:22:26Z</time></trkpt><trkpt lat="36.80642435547569" lon="-108.00089713719487"><ele>1732.0000000000002</ele><time>2026-04-11T18:22:27Z</time></trkpt><trkpt lat="36.80649847810219" lon="-108.00097761534825"><ele>1732.0</ele><time>2026-04-11T18:22:29Z</time></trkpt><trkpt lat="36.80648127064045" lon="-108.00107181260304"><ele>1731.8</ele><time>2026-04-11T18:22:32Z</time></trkpt><trkpt lat="36.80646079457049" lon="-108.00118279546798"><ele>1731.6</ele><time>2026-04-11T18:22:34Z</time></trkpt><trkpt lat="36.806529624095965" lon="-108.00124151473393"><ele>1731.3999999999999</ele><time>2026-04-11T18:22:36Z</time></trkpt><trkpt lat="36.80659646665231" lon="-108.0013308007182"><ele>1731.1999999999998</ele><time>2026-04-11T18:22:38Z</time></trkpt><trkpt lat="36.80660147471325" lon="-108.00144211668457"><ele>1731.0</ele><time>2026-04-11T18:22:40Z</time></trkpt><trkpt lat="36.80659786307376" lon="-108.00156387694982"><ele>1731.0</ele><time>2026-04-11T18:22:42Z</time></trkpt><trkpt lat="36.806607148020696" lon="-108.0016851663358"><ele>1731.0</ele><time>2026-04-11T18:22:44Z</time></trkpt><trkpt lat="36.80661319642462" lon="-108.00176954739989"><ele>1731.0</ele><time>2026-04-11T18:22:46Z</time></trkpt><trkpt lat="36.80655473184513" lon="-108.00172091172402"><ele>1731.0</ele><time>2026-04-11T18:22:51Z</time></trkpt><trkpt lat="36.80659746553004" lon="-108.00165757375834"><ele>1731.0</ele><time>2026-04-11T18:22:52Z</time></trkpt><trkpt lat="36.80659425594773" lon="-108.00154686328678"><ele>1731.0</ele><time>2026-04-11T18:22:54Z</time></trkpt><trkpt lat="36.80659162599671" lon="-108.00146674074578"><ele>1731.0</ele><time>2026-04-11T18:22:56Z</time></trkpt><trkpt lat="36.806597024629816" lon="-108.00138672387168"><ele>1731.0</ele><time>2026-04-11T18:22:58Z</time></trkpt><trkpt lat="36.80659886873877" lon="-108.00127442776858"><ele>1731.0</ele><time>2026-04-11T18:23:00Z</time></trkpt><trkpt lat="36.80658996660007" lon="-108.00118278713039"><ele>1731.0</ele><time>2026-04-11T18:23:02Z</time></trkpt><trkpt lat="36.806487681477236" lon="-108.00126563321864"><ele>1731.0</ele><time>2026-04-11T18:23:05Z</time></trkpt><trkpt lat="36.80658875215899" lon="-108.00110589597324"><ele>1731.0</ele><time>2026-04-11T18:23:06Z</time></trkpt><trkpt lat="36.80656604455561" lon="-108.00101396803625"><ele>1731.0</ele><time>2026-04-11T18:23:15Z</time></trkpt><trkpt lat="36.80652951686498" lon="-108.00093709179548"><ele>1731.0</ele><time>2026-04-11T18:23:17Z</time></trkpt><trkpt lat="36.80649735984296" lon="-108.00083818778398"><ele>1731.0</ele><time>2026-04-11T18:23:20Z</time></trkpt><trkpt lat="36.806442159857504" lon="-108.00071608284964"><ele>1731.0</ele><time>2026-04-11T18:23:22Z</time></trkpt><trkpt lat="36.80639436951086" lon="-108.00061149601586"><ele>1731.0</ele><time>2026-04-11T18:23:24Z</time></trkpt><trkpt lat="36.80636351221416" lon="-108.00051967486901"><ele>1731.142857142857</ele><time>2026-04-11T18:23:26Z</time></trkpt><trkpt lat="36.80632304486199" lon="-108.00043077750342"><ele>1731.2857142857142</ele><time>2026-04-11T18:23:29Z</time></trkpt><trkpt lat="36.8063012370256" lon="-108.00034879504388"><ele>1731.4285714285713</ele><time>2026-04-11T18:23:32Z</time></trkpt><trkpt lat="36.806279818811824" lon="-108.00027349597993"><ele>1731.5714285714284</ele><time>2026-04-11T18:23:34Z</time></trkpt><trkpt lat="36.806221862152306" lon="-108.00021304980942"><ele>1731.7142857142858</ele><time>2026-04-11T18:23:36Z</time></trkpt><trkpt lat="36.80612914131498" lon="-108.00021251750078"><ele>1731.8571428571427</ele><time>2026-04-11T18:23:38Z</time></trkpt><trkpt lat="36.80607207989946" lon="-108.00024659682825"><ele>1732.0</ele><time>2026-04-11T18:23:39Z</time></trkpt><trkpt lat="36.80600436014187" lon="-108.00031981425944"><ele>1733.3999999999999</ele><time>2026-04-11T18:23:40Z</time></trkpt><trkpt lat="36.80593412575581" lon="-108.00040263501106"><ele>1734.7999999999997</ele><time>2026-04-11T18:23:41Z</time></trkpt><trkpt lat="36.80585145545419" lon="-108.00046773640885"><ele>1736.2</ele><time>2026-04-11T18:23:42Z</time></trkpt><trkpt lat="36.80577548838166" lon="-108.00053560152448"><ele>1737.6</ele><time>2026-04-11T18:23:43Z</time></trkpt><trkpt lat="36.80570981056499" lon="-108.00061346318239"><ele>1739.0</ele><time>2026-04-11T18:23:44Z</time></trkpt><trkpt lat="36.80565043572264" lon="-108.00069817938528"><ele>1739.0</ele><time>2026-04-11T18:23:45Z</time></trkpt><trkpt lat="36.80558237921129" lon="-108.00080268740413"><ele>1739.0</ele><time>2026-04-11T18:23:46Z</time></trkpt><trkpt lat="36.80549784984384" lon="-108.00091967041476"><ele>1739.0</ele><time>2026-04-11T18:23:47Z</time></trkpt><trkpt lat="36.805408850428684" lon="-108.00104357143468"><ele>1739.0</ele><time>2026-04-11T18:23:48Z</time></trkpt><trkpt lat="36.80533187809404" lon="-108.00115444578515"><ele>1738.4</ele><time>2026-04-11T18:23:49Z</time></trkpt><trkpt lat="36.80527668807368" lon="-108.0012383343747"><ele>1737.8000000000002</ele><time>2026-04-11T18:23:50Z</time></trkpt><trkpt lat="36.80519496225793" lon="-108.00130595739228"><ele>1737.1999999999998</ele><time>2026-04-11T18:23:51Z</time></trkpt><trkpt lat="36.805112674113516" lon="-108.0013988224307"><ele>1736.6</ele><time>2026-04-11T18:23:52Z</time></trkpt><trkpt lat="36.80505017595679" lon="-108.00151152054289"><ele>1736.0</ele><time>2026-04-11T18:23:53Z</time></trkpt><trkpt lat="36.805024269870984" lon="-108.00164780659831"><ele>1737.3333333333333</ele><time>2026-04-11T18:23:54Z</time></trkpt><trkpt lat="36.80502958090309" lon="-108.00182563721935"><ele>1738.6666666666665</ele><time>2026-04-11T18:23:55Z</time></trkpt><trkpt lat="36.80507802420626" lon="-108.0020271085673"><ele>1740.0</ele><time>2026-04-11T18:23:56Z</time></trkpt><trkpt lat="36.80507309605211" lon="-108.00224428530005"><ele>1740.0</ele><time>2026-04-11T18:23:57Z</time></trkpt><trkpt lat="36.805071266016114" lon="-108.00247959571057"><ele>1740.0</ele><time>2026-04-11T18:23:58Z</time></trkpt><trkpt lat="36.8050712660153" lon="-108.00264939056927"><ele>1740.0</ele><time>2026-04-11T18:23:59Z</time></trkpt><trkpt lat="36.80507279728959" lon="-108.00276188573491"><ele>1740.0</ele><time>2026-04-11T18:24:00Z</time></trkpt><trkpt lat="36.8050732391301" lon="-108.0028549003985"><ele>1739.5</ele><time>2026-04-11T18:24:01Z</time></trkpt><trkpt lat="36.805072244975456" lon="-108.00293615004227"><ele>1739.0</ele><time>2026-04-11T18:24:02Z</time></trkpt><trkpt lat="36.80506489292416" lon="-108.00307832944613"><ele>1738.5</ele><time>2026-04-11T18:24:04Z</time></trkpt><trkpt lat="36.80508540910995" lon="-108.00322079046575"><ele>1738.0</ele><time>2026-04-11T18:24:06Z</time></trkpt><trkpt lat="36.80508811182757" lon="-108.00353758948144"><ele>1738.8000000000002</ele><time>2026-04-11T18:24:08Z</time></trkpt><trkpt lat="36.805090958739406" lon="-108.00369722853596"><ele>1739.6000000000001</ele><time>2026-04-11T18:24:10Z</time></trkpt><trkpt lat="36.80509551414065" lon="-108.00379675572844"><ele>1740.3999999999999</ele><time>2026-04-11T18:24:11Z</time></trkpt><trkpt lat="36.80509465814809" lon="-108.00392423789168"><ele>1741.1999999999998</ele><time>2026-04-11T18:24:12Z</time></trkpt><trkpt lat="36.805085760780386" lon="-108.00402216023474"><ele>1742.0</ele><time>2026-04-11T18:24:14Z</time></trkpt><trkpt lat="36.80507407564063" lon="-108.00412625574575"><ele>1744.3333333333333</ele><time>2026-04-11T18:24:15Z</time></trkpt><trkpt lat="36.80509215754634" lon="-108.00425258833002"><ele>1746.6666666666665</ele><time>2026-04-11T18:24:16Z</time></trkpt><trkpt lat="36.805078269457816" lon="-108.00438467352426"><ele>1749.0</ele><time>2026-04-11T18:24:18Z</time></trkpt><trkpt lat="36.80472900389601" lon="-108.00451082147875"><ele>1749.0</ele><time>2026-04-11T18:24:19Z</time></trkpt><trkpt lat="36.804767570661596" lon="-108.00463152207786"><ele>1749.0</ele><time>2026-04-11T18:24:20Z</time></trkpt><trkpt lat="36.804794550105065" lon="-108.00477863485726"><ele>1749.0</ele><time>2026-04-11T18:24:21Z</time></trkpt><trkpt lat="36.804802754561614" lon="-108.00494684725578"><ele>1749.0</ele><time>2026-04-11T18:24:22Z</time></trkpt><trkpt lat="36.80479375512368" lon="-108.00510242242268"><ele>1749.8000000000002</ele><time>2026-04-11T18:24:23Z</time></trkpt><trkpt lat="36.804792262389384" lon="-108.00524283126177"><ele>1750.6000000000001</ele><time>2026-04-11T18:24:24Z</time></trkpt><trkpt lat="36.804785735993285" lon="-108.0053945749123"><ele>1751.4</ele><time>2026-04-11T18:24:25Z</time></trkpt><trkpt lat="36.804777669684704" lon="-108.00549401044942"><ele>1752.2</ele><time>2026-04-11T18:24:26Z</time></trkpt><trkpt lat="36.80487264592033" lon="-108.00556090050407"><ele>1753.0</ele><time>2026-04-11T18:24:28Z</time></trkpt><trkpt lat="36.80495671753856" lon="-108.00554522655251"><ele>1753.0</ele><time>2026-04-11T18:24:29Z</time></trkpt><trkpt lat="36.805067226793454" lon="-108.00552736485632"><ele>1753.0000000000002</ele><time>2026-04-11T18:24:30Z</time></trkpt><trkpt lat="36.80518927573013" lon="-108.00552670364459"><ele>1753.0000000000002</ele><time>2026-04-11T18:24:31Z</time></trkpt><trkpt lat="36.80530252828983" lon="-108.00551244206115"><ele>1753.0</ele><time>2026-04-11T18:24:32Z</time></trkpt><trkpt lat="36.80539182949652" lon="-108.00545050168171"><ele>1753.0</ele><time>2026-04-11T18:24:34Z</time></trkpt><trkpt lat="36.805504206259585" lon="-108.00541351260402"><ele>1750.3333333333335</ele><time>2026-04-11T18:24:36Z</time></trkpt><trkpt lat="36.80563423074521" lon="-108.00543892234296"><ele>1747.6666666666665</ele><time>2026-04-11T18:24:41Z</time></trkpt><trkpt lat="36.8056524609057" lon="-108.00553141929834"><ele>1745.0</ele><time>2026-04-11T18:24:43Z</time></trkpt><trkpt lat="36.80559885992769" lon="-108.00602718103161"><ele>1744.8333333333333</ele><time>2026-04-11T18:24:46Z</time></trkpt><trkpt lat="36.805628750268056" lon="-108.00612100996138"><ele>1744.6666666666665</ele><time>2026-04-11T18:24:47Z</time></trkpt><trkpt lat="36.805680246650326" lon="-108.00622486232778"><ele>1744.5</ele><time>2026-04-11T18:24:48Z</time></trkpt><trkpt lat="36.80571461588532" lon="-108.00631799005305"><ele>1744.3333333333335</ele><time>2026-04-11T18:24:49Z</time></trkpt><trkpt lat="36.80574589158808" lon="-108.00640765625876"><ele>1744.1666666666667</ele><time>2026-04-11T18:24:50Z</time></trkpt><trkpt lat="36.805782412390336" lon="-108.00649731192881"><ele>1744.0</ele><time>2026-04-11T18:24:51Z</time></trkpt><trkpt lat="36.80583117707997" lon="-108.00659031930265"><ele>1743.6</ele><time>2026-04-11T18:24:52Z</time></trkpt><trkpt lat="36.805873261215055" lon="-108.00667590182157"><ele>1743.2</ele><time>2026-04-11T18:24:53Z</time></trkpt><trkpt lat="36.805990534116" lon="-108.00667861029905"><ele>1742.7999999999997</ele><time>2026-04-11T18:24:55Z</time></trkpt><trkpt lat="36.80612934063006" lon="-108.00669133161404"><ele>1742.3999999999999</ele><time>2026-04-11T18:24:57Z</time></trkpt><trkpt lat="36.80621599454981" lon="-108.00667677462077"><ele>1742.0</ele><time>2026-04-11T18:24:58Z</time></trkpt><trkpt lat="36.80631534671795" lon="-108.00667220780619"><ele>1740.0</ele><time>2026-04-11T18:24:59Z</time></trkpt><trkpt lat="36.806487261994164" lon="-108.0065078932608"><ele>1738.0</ele><time>2026-04-11T18:25:00Z</time></trkpt><trkpt lat="36.80666771554018" lon="-108.00640626346366"><ele>1736.0</ele><time>2026-04-11T18:25:01Z</time></trkpt><trkpt lat="36.80683745441971" lon="-108.00631268543319"><ele>1735.3333333333333</ele><time>2026-04-11T18:25:02Z</time></trkpt><trkpt lat="36.80698614837247" lon="-108.00621949505144"><ele>1734.6666666666665</ele><time>2026-04-11T18:25:03Z</time></trkpt><trkpt lat="36.80713618201637" lon="-108.00609142519471"><ele>1734.0</ele><time>2026-04-11T18:25:04Z</time></trkpt><trkpt lat="36.807478080271515" lon="-108.00570913901461"><ele>1733.75</ele><time>2026-04-11T18:25:05Z</time></trkpt><trkpt lat="36.80759681413719" lon="-108.00561185296307"><ele>1733.5</ele><time>2026-04-11T18:25:06Z</time></trkpt><trkpt lat="36.80772258427717" lon="-108.00552882616293"><ele>1733.25</ele><time>2026-04-11T18:25:07Z</time></trkpt><trkpt lat="36.8078167123557" lon="-108.00545414715765"><ele>1733.0</ele><time>2026-04-11T18:25:08Z</time></trkpt><trkpt lat="36.80788284506327" lon="-108.00542312064638"><ele>1732.0</ele><time>2026-04-11T18:25:09Z</time></trkpt><trkpt lat="36.8079543643149" lon="-108.00546233957856"><ele>1732.0</ele><time>2026-04-11T18:25:11Z</time></trkpt></trkseg></trk></gpx>